<?xml version="1.0" encoding="UTF-8" standalone="no" ?><gpx xmlns="http://www.topografix.com/GPX/1/1" xmlns:gpxx="http://www.garmin.com/xmlschemas/GpxExtensions/v3" xmlns:wptx1="http://www.garmin.com/xmlschemas/WaypointExtension/v1" xmlns:gpxtpx="http://www.garmin.com/xmlschemas/TrackPointExtension/v1" creator="GuideVTT.com" version="1.1" xmlns:xsi="http://www.w3.org/2001/XMLSchema-instance" xsi:schemaLocation="http://www.topografix.com/GPX/1/1 http://www.topografix.com/GPX/1/1/gpx.xsd http://www.garmin.com/xmlschemas/GpxExtensions/v3 http://www8.garmin.com/xmlschemas/GpxExtensionsv3.xsd http://www.garmin.com/xmlschemas/WaypointExtension/v1 http://www8.garmin.com/xmlschemas/WaypointExtensionv1.xsd http://www.garmin.com/xmlschemas/TrackPointExtension/v1 http://www.garmin.com/xmlschemas/TrackPointExtensionv1.xsd">
<metadata><link href="http://www.garmin.com"><text>Garmin International</text></link><time>2013-06-22T15:13:50Z</time></metadata>
<trk><name>lake_placidp_baby_whiteface_avec_joe.gpx</name><extensions><gpxx:TrackExtension><gpxx:DisplayColor>Cyan</gpxx:DisplayColor></gpxx:TrackExtension></extensions><trkseg>
<trkpt lat="44.3657950" lon="-73.8332690"><ele></ele><time>2024-9-14T10:36:23Z</time></trkpt>
<trkpt lat="44.3658210" lon="-73.8333000"><ele></ele><time>2024-9-14T10:36:26Z</time></trkpt>
<trkpt lat="44.3658340" lon="-73.8333150"><ele></ele><time>2024-9-14T10:36:29Z</time></trkpt>
<trkpt lat="44.3658350" lon="-73.8333360"><ele></ele><time>2024-9-14T10:36:32Z</time></trkpt>
<trkpt lat="44.3658290" lon="-73.8333560"><ele></ele><time>2024-9-14T10:36:35Z</time></trkpt>
<trkpt lat="44.3657650" lon="-73.8334180"><ele></ele><time>2024-9-14T10:36:38Z</time></trkpt>
<trkpt lat="44.3657400" lon="-73.8334390"><ele></ele><time>2024-9-14T10:36:41Z</time></trkpt>
<trkpt lat="44.3656300" lon="-73.8335110"><ele></ele><time>2024-9-14T10:36:44Z</time></trkpt>
<trkpt lat="44.3655460" lon="-73.8335410"><ele></ele><time>2024-9-14T10:36:47Z</time></trkpt>
<trkpt lat="44.3653680" lon="-73.8335910"><ele></ele><time>2024-9-14T10:36:50Z</time></trkpt>
<trkpt lat="44.3653230" lon="-73.8336040"><ele></ele><time>2024-9-14T10:36:53Z</time></trkpt>
<trkpt lat="44.3651640" lon="-73.8335890"><ele></ele><time>2024-9-14T10:36:56Z</time></trkpt>
<trkpt lat="44.3651330" lon="-73.8335800"><ele></ele><time>2024-9-14T10:36:59Z</time></trkpt>
<trkpt lat="44.3650470" lon="-73.8335870"><ele></ele><time>2024-9-14T10:37:2Z</time></trkpt>
<trkpt lat="44.3650190" lon="-73.8335860"><ele></ele><time>2024-9-14T10:37:5Z</time></trkpt>
<trkpt lat="44.3649600" lon="-73.8335820"><ele></ele><time>2024-9-14T10:37:8Z</time></trkpt>
<trkpt lat="44.3648760" lon="-73.8335930"><ele></ele><time>2024-9-14T10:37:11Z</time></trkpt>
<trkpt lat="44.3648470" lon="-73.8335990"><ele></ele><time>2024-9-14T10:37:14Z</time></trkpt>
<trkpt lat="44.3647520" lon="-73.8336080"><ele></ele><time>2024-9-14T10:37:17Z</time></trkpt>
<trkpt lat="44.3646400" lon="-73.8336320"><ele></ele><time>2024-9-14T10:37:20Z</time></trkpt>
<trkpt lat="44.3644410" lon="-73.8337100"><ele></ele><time>2024-9-14T10:37:23Z</time></trkpt>
<trkpt lat="44.3644270" lon="-73.8337410"><ele></ele><time>2024-9-14T10:37:26Z</time></trkpt>
<trkpt lat="44.3644040" lon="-73.8338460"><ele></ele><time>2024-9-14T10:37:29Z</time></trkpt>
<trkpt lat="44.3644020" lon="-73.8338810"><ele></ele><time>2024-9-14T10:37:32Z</time></trkpt>
<trkpt lat="44.3643890" lon="-73.8339500"><ele></ele><time>2024-9-14T10:37:35Z</time></trkpt>
<trkpt lat="44.3643750" lon="-73.8339510"><ele></ele><time>2024-9-14T10:37:38Z</time></trkpt>
<trkpt lat="44.3643740" lon="-73.8339570"><ele></ele><time>2024-9-14T10:37:41Z</time></trkpt>
<trkpt lat="44.3643760" lon="-73.8339580"><ele></ele><time>2024-9-14T10:37:44Z</time></trkpt>
<trkpt lat="44.3643720" lon="-73.8339670"><ele></ele><time>2024-9-14T10:37:47Z</time></trkpt>
<trkpt lat="44.3643670" lon="-73.8339820"><ele></ele><time>2024-9-14T10:37:50Z</time></trkpt>
<trkpt lat="44.3643600" lon="-73.8339920"><ele></ele><time>2024-9-14T10:37:53Z</time></trkpt>
<trkpt lat="44.3643330" lon="-73.8340080"><ele></ele><time>2024-9-14T10:37:56Z</time></trkpt>
<trkpt lat="44.3643200" lon="-73.8340000"><ele></ele><time>2024-9-14T10:37:59Z</time></trkpt>
<trkpt lat="44.3642990" lon="-73.8340080"><ele></ele><time>2024-9-14T10:38:2Z</time></trkpt>
<trkpt lat="44.3642520" lon="-73.8340390"><ele></ele><time>2024-9-14T10:38:5Z</time></trkpt>
<trkpt lat="44.3642300" lon="-73.8340710"><ele></ele><time>2024-9-14T10:38:8Z</time></trkpt>
<trkpt lat="44.3642110" lon="-73.8341040"><ele></ele><time>2024-9-14T10:38:11Z</time></trkpt>
<trkpt lat="44.3641470" lon="-73.8342130"><ele></ele><time>2024-9-14T10:38:14Z</time></trkpt>
<trkpt lat="44.3641300" lon="-73.8342430"><ele></ele><time>2024-9-14T10:38:17Z</time></trkpt>
<trkpt lat="44.3641160" lon="-73.8342670"><ele></ele><time>2024-9-14T10:38:20Z</time></trkpt>
<trkpt lat="44.3640280" lon="-73.8344200"><ele></ele><time>2024-9-14T10:38:23Z</time></trkpt>
<trkpt lat="44.3639230" lon="-73.8345850"><ele></ele><time>2024-9-14T10:38:26Z</time></trkpt>
<trkpt lat="44.3638330" lon="-73.8347650"><ele></ele><time>2024-9-14T10:38:29Z</time></trkpt>
<trkpt lat="44.3638150" lon="-73.8349590"><ele></ele><time>2024-9-14T10:38:32Z</time></trkpt>
<trkpt lat="44.3638150" lon="-73.8349930"><ele></ele><time>2024-9-14T10:38:35Z</time></trkpt>
<trkpt lat="44.3638200" lon="-73.8350280"><ele></ele><time>2024-9-14T10:38:38Z</time></trkpt>
<trkpt lat="44.3638290" lon="-73.8350590"><ele></ele><time>2024-9-14T10:38:41Z</time></trkpt>
<trkpt lat="44.3638410" lon="-73.8350900"><ele></ele><time>2024-9-14T10:38:44Z</time></trkpt>
<trkpt lat="44.3638560" lon="-73.8351710"><ele></ele><time>2024-9-14T10:38:47Z</time></trkpt>
<trkpt lat="44.3638800" lon="-73.8353290"><ele></ele><time>2024-9-14T10:38:50Z</time></trkpt>
<trkpt lat="44.3638050" lon="-73.8355090"><ele></ele><time>2024-9-14T10:38:53Z</time></trkpt>
<trkpt lat="44.3636470" lon="-73.8356160"><ele></ele><time>2024-9-14T10:38:56Z</time></trkpt>
<trkpt lat="44.3634230" lon="-73.8356550"><ele></ele><time>2024-9-14T10:38:59Z</time></trkpt>
<trkpt lat="44.3633420" lon="-73.8356820"><ele></ele><time>2024-9-14T10:39:2Z</time></trkpt>
<trkpt lat="44.3632830" lon="-73.8357270"><ele></ele><time>2024-9-14T10:39:5Z</time></trkpt>
<trkpt lat="44.3632550" lon="-73.8357960"><ele></ele><time>2024-9-14T10:39:8Z</time></trkpt>
<trkpt lat="44.3632520" lon="-73.8358980"><ele></ele><time>2024-9-14T10:39:11Z</time></trkpt>
<trkpt lat="44.3632470" lon="-73.8360160"><ele></ele><time>2024-9-14T10:39:14Z</time></trkpt>
<trkpt lat="44.3632400" lon="-73.8363800"><ele></ele><time>2024-9-14T10:39:17Z</time></trkpt>
<trkpt lat="44.3632390" lon="-73.8365140"><ele></ele><time>2024-9-14T10:39:20Z</time></trkpt>
<trkpt lat="44.3632150" lon="-73.8368070"><ele></ele><time>2024-9-14T10:39:23Z</time></trkpt>
<trkpt lat="44.3632060" lon="-73.8371210"><ele></ele><time>2024-9-14T10:39:26Z</time></trkpt>
<trkpt lat="44.3632090" lon="-73.8371850"><ele></ele><time>2024-9-14T10:39:29Z</time></trkpt>
<trkpt lat="44.3632140" lon="-73.8372500"><ele></ele><time>2024-9-14T10:39:32Z</time></trkpt>
<trkpt lat="44.3632110" lon="-73.8373170"><ele></ele><time>2024-9-14T10:39:35Z</time></trkpt>
<trkpt lat="44.3632080" lon="-73.8373870"><ele></ele><time>2024-9-14T10:39:38Z</time></trkpt>
<trkpt lat="44.3631980" lon="-73.8375980"><ele></ele><time>2024-9-14T10:39:41Z</time></trkpt>
<trkpt lat="44.3631530" lon="-73.8380560"><ele></ele><time>2024-9-14T10:39:44Z</time></trkpt>
<trkpt lat="44.3631500" lon="-73.8381270"><ele></ele><time>2024-9-14T10:39:47Z</time></trkpt>
<trkpt lat="44.3631360" lon="-73.8383510"><ele></ele><time>2024-9-14T10:39:50Z</time></trkpt>
<trkpt lat="44.3631240" lon="-73.8384850"><ele></ele><time>2024-9-14T10:39:53Z</time></trkpt>
<trkpt lat="44.3630990" lon="-73.8387220"><ele></ele><time>2024-9-14T10:39:56Z</time></trkpt>
<trkpt lat="44.3631010" lon="-73.8387830"><ele></ele><time>2024-9-14T10:39:59Z</time></trkpt>
<trkpt lat="44.3631030" lon="-73.8388440"><ele></ele><time>2024-9-14T10:40:2Z</time></trkpt>
<trkpt lat="44.3631020" lon="-73.8389060"><ele></ele><time>2024-9-14T10:40:5Z</time></trkpt>
<trkpt lat="44.3631020" lon="-73.8389650"><ele></ele><time>2024-9-14T10:40:8Z</time></trkpt>
<trkpt lat="44.3630990" lon="-73.8390240"><ele></ele><time>2024-9-14T10:40:11Z</time></trkpt>
<trkpt lat="44.3631020" lon="-73.8393240"><ele></ele><time>2024-9-14T10:40:14Z</time></trkpt>
<trkpt lat="44.3630970" lon="-73.8396350"><ele></ele><time>2024-9-14T10:40:17Z</time></trkpt>
<trkpt lat="44.3630930" lon="-73.8397650"><ele></ele><time>2024-9-14T10:40:20Z</time></trkpt>
<trkpt lat="44.3630570" lon="-73.8402460"><ele></ele><time>2024-9-14T10:40:23Z</time></trkpt>
<trkpt lat="44.3630190" lon="-73.8407370"><ele></ele><time>2024-9-14T10:40:26Z</time></trkpt>
<trkpt lat="44.3630100" lon="-73.8408030"><ele></ele><time>2024-9-14T10:40:29Z</time></trkpt>
<trkpt lat="44.3630040" lon="-73.8408690"><ele></ele><time>2024-9-14T10:40:32Z</time></trkpt>
<trkpt lat="44.3630000" lon="-73.8409390"><ele></ele><time>2024-9-14T10:40:35Z</time></trkpt>
<trkpt lat="44.3630000" lon="-73.8410070"><ele></ele><time>2024-9-14T10:40:38Z</time></trkpt>
<trkpt lat="44.3630010" lon="-73.8410770"><ele></ele><time>2024-9-14T10:40:41Z</time></trkpt>
<trkpt lat="44.3630030" lon="-73.8412820"><ele></ele><time>2024-9-14T10:40:44Z</time></trkpt>
<trkpt lat="44.3629990" lon="-73.8416910"><ele></ele><time>2024-9-14T10:40:47Z</time></trkpt>
<trkpt lat="44.3630110" lon="-73.8421350"><ele></ele><time>2024-9-14T10:40:50Z</time></trkpt>
<trkpt lat="44.3630210" lon="-73.8423000"><ele></ele><time>2024-9-14T10:40:53Z</time></trkpt>
<trkpt lat="44.3630350" lon="-73.8425120"><ele></ele><time>2024-9-14T10:40:56Z</time></trkpt>
<trkpt lat="44.3630500" lon="-73.8427330"><ele></ele><time>2024-9-14T10:40:59Z</time></trkpt>
<trkpt lat="44.3630470" lon="-73.8427430"><ele></ele><time>2024-9-14T10:41:2Z</time></trkpt>
<trkpt lat="44.3630570" lon="-73.8427540"><ele></ele><time>2024-9-14T10:41:5Z</time></trkpt>
<trkpt lat="44.3630530" lon="-73.8427680"><ele></ele><time>2024-9-14T10:41:8Z</time></trkpt>
<trkpt lat="44.3630590" lon="-73.8427990"><ele></ele><time>2024-9-14T10:41:11Z</time></trkpt>
<trkpt lat="44.3630730" lon="-73.8428690"><ele></ele><time>2024-9-14T10:41:14Z</time></trkpt>
<trkpt lat="44.3630690" lon="-73.8430220"><ele></ele><time>2024-9-14T10:41:17Z</time></trkpt>
<trkpt lat="44.3630420" lon="-73.8430840"><ele></ele><time>2024-9-14T10:41:20Z</time></trkpt>
<trkpt lat="44.3629700" lon="-73.8431860"><ele></ele><time>2024-9-14T10:41:23Z</time></trkpt>
<trkpt lat="44.3628920" lon="-73.8432750"><ele></ele><time>2024-9-14T10:41:26Z</time></trkpt>
<trkpt lat="44.3628110" lon="-73.8433650"><ele></ele><time>2024-9-14T10:41:29Z</time></trkpt>
<trkpt lat="44.3626170" lon="-73.8436100"><ele></ele><time>2024-9-14T10:41:32Z</time></trkpt>
<trkpt lat="44.3623870" lon="-73.8439000"><ele></ele><time>2024-9-14T10:41:35Z</time></trkpt>
<trkpt lat="44.3623500" lon="-73.8439510"><ele></ele><time>2024-9-14T10:41:38Z</time></trkpt>
<trkpt lat="44.3621850" lon="-73.8441510"><ele></ele><time>2024-9-14T10:41:41Z</time></trkpt>
<trkpt lat="44.3619870" lon="-73.8444020"><ele></ele><time>2024-9-14T10:41:44Z</time></trkpt>
<trkpt lat="44.3617120" lon="-73.8447380"><ele></ele><time>2024-9-14T10:41:47Z</time></trkpt>
<trkpt lat="44.3616360" lon="-73.8448340"><ele></ele><time>2024-9-14T10:41:50Z</time></trkpt>
<trkpt lat="44.3616010" lon="-73.8448830"><ele></ele><time>2024-9-14T10:41:53Z</time></trkpt>
<trkpt lat="44.3615620" lon="-73.8449290"><ele></ele><time>2024-9-14T10:41:56Z</time></trkpt>
<trkpt lat="44.3615220" lon="-73.8449740"><ele></ele><time>2024-9-14T10:41:59Z</time></trkpt>
<trkpt lat="44.3614810" lon="-73.8450190"><ele></ele><time>2024-9-14T10:42:2Z</time></trkpt>
<trkpt lat="44.3614410" lon="-73.8450700"><ele></ele><time>2024-9-14T10:42:5Z</time></trkpt>
<trkpt lat="44.3614080" lon="-73.8451280"><ele></ele><time>2024-9-14T10:42:8Z</time></trkpt>
<trkpt lat="44.3613700" lon="-73.8451760"><ele></ele><time>2024-9-14T10:42:11Z</time></trkpt>
<trkpt lat="44.3611470" lon="-73.8454500"><ele></ele><time>2024-9-14T10:42:14Z</time></trkpt>
<trkpt lat="44.3611110" lon="-73.8454940"><ele></ele><time>2024-9-14T10:42:17Z</time></trkpt>
<trkpt lat="44.3608540" lon="-73.8458030"><ele></ele><time>2024-9-14T10:42:20Z</time></trkpt>
<trkpt lat="44.3608170" lon="-73.8458490"><ele></ele><time>2024-9-14T10:42:23Z</time></trkpt>
<trkpt lat="44.3607800" lon="-73.8458920"><ele></ele><time>2024-9-14T10:42:26Z</time></trkpt>
<trkpt lat="44.3607400" lon="-73.8459440"><ele></ele><time>2024-9-14T10:42:29Z</time></trkpt>
<trkpt lat="44.3607030" lon="-73.8459900"><ele></ele><time>2024-9-14T10:42:32Z</time></trkpt>
<trkpt lat="44.3605150" lon="-73.8462250"><ele></ele><time>2024-9-14T10:42:35Z</time></trkpt>
<trkpt lat="44.3602540" lon="-73.8465570"><ele></ele><time>2024-9-14T10:42:38Z</time></trkpt>
<trkpt lat="44.3602140" lon="-73.8466020"><ele></ele><time>2024-9-14T10:42:41Z</time></trkpt>
<trkpt lat="44.3599930" lon="-73.8468690"><ele></ele><time>2024-9-14T10:42:44Z</time></trkpt>
<trkpt lat="44.3599570" lon="-73.8469140"><ele></ele><time>2024-9-14T10:42:47Z</time></trkpt>
<trkpt lat="44.3599230" lon="-73.8469590"><ele></ele><time>2024-9-14T10:42:50Z</time></trkpt>
<trkpt lat="44.3598870" lon="-73.8470010"><ele></ele><time>2024-9-14T10:42:53Z</time></trkpt>
<trkpt lat="44.3598520" lon="-73.8470490"><ele></ele><time>2024-9-14T10:42:56Z</time></trkpt>
<trkpt lat="44.3595900" lon="-73.8473640"><ele></ele><time>2024-9-14T10:42:59Z</time></trkpt>
<trkpt lat="44.3594020" lon="-73.8475930"><ele></ele><time>2024-9-14T10:43:2Z</time></trkpt>
<trkpt lat="44.3593200" lon="-73.8476790"><ele></ele><time>2024-9-14T10:43:5Z</time></trkpt>
<trkpt lat="44.3591250" lon="-73.8479060"><ele></ele><time>2024-9-14T10:43:8Z</time></trkpt>
<trkpt lat="44.3590860" lon="-73.8479530"><ele></ele><time>2024-9-14T10:43:11Z</time></trkpt>
<trkpt lat="44.3590490" lon="-73.8479980"><ele></ele><time>2024-9-14T10:43:14Z</time></trkpt>
<trkpt lat="44.3590140" lon="-73.8480440"><ele></ele><time>2024-9-14T10:43:17Z</time></trkpt>
<trkpt lat="44.3589750" lon="-73.8480890"><ele></ele><time>2024-9-14T10:43:20Z</time></trkpt>
<trkpt lat="44.3587550" lon="-73.8483690"><ele></ele><time>2024-9-14T10:43:23Z</time></trkpt>
<trkpt lat="44.3584120" lon="-73.8487740"><ele></ele><time>2024-9-14T10:43:26Z</time></trkpt>
<trkpt lat="44.3582250" lon="-73.8489930"><ele></ele><time>2024-9-14T10:43:29Z</time></trkpt>
<trkpt lat="44.3581880" lon="-73.8490340"><ele></ele><time>2024-9-14T10:43:32Z</time></trkpt>
<trkpt lat="44.3581490" lon="-73.8490780"><ele></ele><time>2024-9-14T10:43:35Z</time></trkpt>
<trkpt lat="44.3581090" lon="-73.8491230"><ele></ele><time>2024-9-14T10:43:38Z</time></trkpt>
<trkpt lat="44.3580660" lon="-73.8491600"><ele></ele><time>2024-9-14T10:43:41Z</time></trkpt>
<trkpt lat="44.3580260" lon="-73.8491970"><ele></ele><time>2024-9-14T10:43:44Z</time></trkpt>
<trkpt lat="44.3578070" lon="-73.8493840"><ele></ele><time>2024-9-14T10:43:47Z</time></trkpt>
<trkpt lat="44.3574380" lon="-73.8496860"><ele></ele><time>2024-9-14T10:43:50Z</time></trkpt>
<trkpt lat="44.3571680" lon="-73.8499490"><ele></ele><time>2024-9-14T10:43:53Z</time></trkpt>
<trkpt lat="44.3571270" lon="-73.8499900"><ele></ele><time>2024-9-14T10:43:56Z</time></trkpt>
<trkpt lat="44.3569490" lon="-73.8501850"><ele></ele><time>2024-9-14T10:43:59Z</time></trkpt>
<trkpt lat="44.3569180" lon="-73.8502180"><ele></ele><time>2024-9-14T10:44:2Z</time></trkpt>
<trkpt lat="44.3568870" lon="-73.8502490"><ele></ele><time>2024-9-14T10:44:5Z</time></trkpt>
<trkpt lat="44.3568590" lon="-73.8502830"><ele></ele><time>2024-9-14T10:44:8Z</time></trkpt>
<trkpt lat="44.3568310" lon="-73.8503130"><ele></ele><time>2024-9-14T10:44:11Z</time></trkpt>
<trkpt lat="44.3567490" lon="-73.8504000"><ele></ele><time>2024-9-14T10:44:14Z</time></trkpt>
<trkpt lat="44.3567240" lon="-73.8504300"><ele></ele><time>2024-9-14T10:44:17Z</time></trkpt>
<trkpt lat="44.3566990" lon="-73.8504570"><ele></ele><time>2024-9-14T10:44:20Z</time></trkpt>
<trkpt lat="44.3566740" lon="-73.8504820"><ele></ele><time>2024-9-14T10:44:23Z</time></trkpt>
<trkpt lat="44.3566500" lon="-73.8505050"><ele></ele><time>2024-9-14T10:44:26Z</time></trkpt>
<trkpt lat="44.3566240" lon="-73.8505300"><ele></ele><time>2024-9-14T10:44:29Z</time></trkpt>
<trkpt lat="44.3564740" lon="-73.8507030"><ele></ele><time>2024-9-14T10:44:32Z</time></trkpt>
<trkpt lat="44.3564500" lon="-73.8507300"><ele></ele><time>2024-9-14T10:44:35Z</time></trkpt>
<trkpt lat="44.3564230" lon="-73.8507550"><ele></ele><time>2024-9-14T10:44:38Z</time></trkpt>
<trkpt lat="44.3563980" lon="-73.8507850"><ele></ele><time>2024-9-14T10:44:41Z</time></trkpt>
<trkpt lat="44.3562660" lon="-73.8509280"><ele></ele><time>2024-9-14T10:44:44Z</time></trkpt>
<trkpt lat="44.3562090" lon="-73.8509890"><ele></ele><time>2024-9-14T10:44:47Z</time></trkpt>
<trkpt lat="44.3561830" lon="-73.8510210"><ele></ele><time>2024-9-14T10:44:50Z</time></trkpt>
<trkpt lat="44.3561550" lon="-73.8510520"><ele></ele><time>2024-9-14T10:44:53Z</time></trkpt>
<trkpt lat="44.3561270" lon="-73.8510860"><ele></ele><time>2024-9-14T10:44:56Z</time></trkpt>
<trkpt lat="44.3560990" lon="-73.8511150"><ele></ele><time>2024-9-14T10:44:59Z</time></trkpt>
<trkpt lat="44.3560410" lon="-73.8511810"><ele></ele><time>2024-9-14T10:45:2Z</time></trkpt>
<trkpt lat="44.3558050" lon="-73.8514290"><ele></ele><time>2024-9-14T10:45:5Z</time></trkpt>
<trkpt lat="44.3557700" lon="-73.8514730"><ele></ele><time>2024-9-14T10:45:8Z</time></trkpt>
<trkpt lat="44.3555580" lon="-73.8517320"><ele></ele><time>2024-9-14T10:45:11Z</time></trkpt>
<trkpt lat="44.3555290" lon="-73.8517760"><ele></ele><time>2024-9-14T10:45:14Z</time></trkpt>
<trkpt lat="44.3554980" lon="-73.8518240"><ele></ele><time>2024-9-14T10:45:17Z</time></trkpt>
<trkpt lat="44.3554640" lon="-73.8518710"><ele></ele><time>2024-9-14T10:45:20Z</time></trkpt>
<trkpt lat="44.3554330" lon="-73.8519210"><ele></ele><time>2024-9-14T10:45:23Z</time></trkpt>
<trkpt lat="44.3553210" lon="-73.8521140"><ele></ele><time>2024-9-14T10:45:26Z</time></trkpt>
<trkpt lat="44.3552120" lon="-73.8523050"><ele></ele><time>2024-9-14T10:45:29Z</time></trkpt>
<trkpt lat="44.3551130" lon="-73.8525130"><ele></ele><time>2024-9-14T10:45:32Z</time></trkpt>
<trkpt lat="44.3550570" lon="-73.8526190"><ele></ele><time>2024-9-14T10:45:35Z</time></trkpt>
<trkpt lat="44.3550280" lon="-73.8526730"><ele></ele><time>2024-9-14T10:45:38Z</time></trkpt>
<trkpt lat="44.3550010" lon="-73.8527280"><ele></ele><time>2024-9-14T10:45:41Z</time></trkpt>
<trkpt lat="44.3549760" lon="-73.8527810"><ele></ele><time>2024-9-14T10:45:44Z</time></trkpt>
<trkpt lat="44.3549240" lon="-73.8528870"><ele></ele><time>2024-9-14T10:45:47Z</time></trkpt>
<trkpt lat="44.3548470" lon="-73.8530540"><ele></ele><time>2024-9-14T10:45:50Z</time></trkpt>
<trkpt lat="44.3546660" lon="-73.8534140"><ele></ele><time>2024-9-14T10:45:53Z</time></trkpt>
<trkpt lat="44.3546140" lon="-73.8535120"><ele></ele><time>2024-9-14T10:45:56Z</time></trkpt>
<trkpt lat="44.3545910" lon="-73.8535610"><ele></ele><time>2024-9-14T10:45:59Z</time></trkpt>
<trkpt lat="44.3545650" lon="-73.8536100"><ele></ele><time>2024-9-14T10:46:2Z</time></trkpt>
<trkpt lat="44.3545410" lon="-73.8536590"><ele></ele><time>2024-9-14T10:46:5Z</time></trkpt>
<trkpt lat="44.3545140" lon="-73.8537030"><ele></ele><time>2024-9-14T10:46:8Z</time></trkpt>
<trkpt lat="44.3544850" lon="-73.8537410"><ele></ele><time>2024-9-14T10:46:11Z</time></trkpt>
<trkpt lat="44.3543340" lon="-73.8540120"><ele></ele><time>2024-9-14T10:46:14Z</time></trkpt>
<trkpt lat="44.3543020" lon="-73.8540560"><ele></ele><time>2024-9-14T10:46:17Z</time></trkpt>
<trkpt lat="44.3542360" lon="-73.8541470"><ele></ele><time>2024-9-14T10:46:20Z</time></trkpt>
<trkpt lat="44.3542040" lon="-73.8541880"><ele></ele><time>2024-9-14T10:46:23Z</time></trkpt>
<trkpt lat="44.3541740" lon="-73.8542310"><ele></ele><time>2024-9-14T10:46:26Z</time></trkpt>
<trkpt lat="44.3541430" lon="-73.8542740"><ele></ele><time>2024-9-14T10:46:29Z</time></trkpt>
<trkpt lat="44.3541140" lon="-73.8543160"><ele></ele><time>2024-9-14T10:46:32Z</time></trkpt>
<trkpt lat="44.3538050" lon="-73.8547090"><ele></ele><time>2024-9-14T10:46:35Z</time></trkpt>
<trkpt lat="44.3537420" lon="-73.8547740"><ele></ele><time>2024-9-14T10:46:38Z</time></trkpt>
<trkpt lat="44.3537130" lon="-73.8548080"><ele></ele><time>2024-9-14T10:46:41Z</time></trkpt>
<trkpt lat="44.3536850" lon="-73.8548430"><ele></ele><time>2024-9-14T10:46:44Z</time></trkpt>
<trkpt lat="44.3536560" lon="-73.8548750"><ele></ele><time>2024-9-14T10:46:47Z</time></trkpt>
<trkpt lat="44.3536260" lon="-73.8549110"><ele></ele><time>2024-9-14T10:46:50Z</time></trkpt>
<trkpt lat="44.3535940" lon="-73.8549480"><ele></ele><time>2024-9-14T10:46:53Z</time></trkpt>
<trkpt lat="44.3533980" lon="-73.8551780"><ele></ele><time>2024-9-14T10:46:56Z</time></trkpt>
<trkpt lat="44.3533700" lon="-73.8552130"><ele></ele><time>2024-9-14T10:46:59Z</time></trkpt>
<trkpt lat="44.3533410" lon="-73.8552480"><ele></ele><time>2024-9-14T10:47:2Z</time></trkpt>
<trkpt lat="44.3533150" lon="-73.8552850"><ele></ele><time>2024-9-14T10:47:5Z</time></trkpt>
<trkpt lat="44.3532850" lon="-73.8553140"><ele></ele><time>2024-9-14T10:47:8Z</time></trkpt>
<trkpt lat="44.3532040" lon="-73.8554100"><ele></ele><time>2024-9-14T10:47:11Z</time></trkpt>
<trkpt lat="44.3531270" lon="-73.8555080"><ele></ele><time>2024-9-14T10:47:14Z</time></trkpt>
<trkpt lat="44.3530980" lon="-73.8555410"><ele></ele><time>2024-9-14T10:47:17Z</time></trkpt>
<trkpt lat="44.3530720" lon="-73.8555720"><ele></ele><time>2024-9-14T10:47:20Z</time></trkpt>
<trkpt lat="44.3530460" lon="-73.8556070"><ele></ele><time>2024-9-14T10:47:23Z</time></trkpt>
<trkpt lat="44.3530190" lon="-73.8556420"><ele></ele><time>2024-9-14T10:47:26Z</time></trkpt>
<trkpt lat="44.3529890" lon="-73.8556730"><ele></ele><time>2024-9-14T10:47:29Z</time></trkpt>
<trkpt lat="44.3529160" lon="-73.8557720"><ele></ele><time>2024-9-14T10:47:32Z</time></trkpt>
<trkpt lat="44.3528890" lon="-73.8558040"><ele></ele><time>2024-9-14T10:47:35Z</time></trkpt>
<trkpt lat="44.3528650" lon="-73.8558380"><ele></ele><time>2024-9-14T10:47:38Z</time></trkpt>
<trkpt lat="44.3528430" lon="-73.8558770"><ele></ele><time>2024-9-14T10:47:41Z</time></trkpt>
<trkpt lat="44.3528170" lon="-73.8559150"><ele></ele><time>2024-9-14T10:47:44Z</time></trkpt>
<trkpt lat="44.3526830" lon="-73.8561780"><ele></ele><time>2024-9-14T10:47:47Z</time></trkpt>
<trkpt lat="44.3526610" lon="-73.8562170"><ele></ele><time>2024-9-14T10:47:50Z</time></trkpt>
<trkpt lat="44.3526420" lon="-73.8562610"><ele></ele><time>2024-9-14T10:47:53Z</time></trkpt>
<trkpt lat="44.3526300" lon="-73.8563060"><ele></ele><time>2024-9-14T10:47:56Z</time></trkpt>
<trkpt lat="44.3526100" lon="-73.8563490"><ele></ele><time>2024-9-14T10:47:59Z</time></trkpt>
<trkpt lat="44.3525970" lon="-73.8563900"><ele></ele><time>2024-9-14T10:48:2Z</time></trkpt>
<trkpt lat="44.3525850" lon="-73.8564400"><ele></ele><time>2024-9-14T10:48:5Z</time></trkpt>
<trkpt lat="44.3524920" lon="-73.8567100"><ele></ele><time>2024-9-14T10:48:8Z</time></trkpt>
<trkpt lat="44.3524760" lon="-73.8567560"><ele></ele><time>2024-9-14T10:48:11Z</time></trkpt>
<trkpt lat="44.3524610" lon="-73.8568020"><ele></ele><time>2024-9-14T10:48:14Z</time></trkpt>
<trkpt lat="44.3524480" lon="-73.8568480"><ele></ele><time>2024-9-14T10:48:17Z</time></trkpt>
<trkpt lat="44.3524360" lon="-73.8568950"><ele></ele><time>2024-9-14T10:48:20Z</time></trkpt>
<trkpt lat="44.3523430" lon="-73.8571570"><ele></ele><time>2024-9-14T10:48:23Z</time></trkpt>
<trkpt lat="44.3522370" lon="-73.8574450"><ele></ele><time>2024-9-14T10:48:26Z</time></trkpt>
<trkpt lat="44.3522130" lon="-73.8574940"><ele></ele><time>2024-9-14T10:48:29Z</time></trkpt>
<trkpt lat="44.3521910" lon="-73.8575420"><ele></ele><time>2024-9-14T10:48:32Z</time></trkpt>
<trkpt lat="44.3521650" lon="-73.8575880"><ele></ele><time>2024-9-14T10:48:35Z</time></trkpt>
<trkpt lat="44.3521410" lon="-73.8576300"><ele></ele><time>2024-9-14T10:48:38Z</time></trkpt>
<trkpt lat="44.3520710" lon="-73.8577650"><ele></ele><time>2024-9-14T10:48:41Z</time></trkpt>
<trkpt lat="44.3518850" lon="-73.8580390"><ele></ele><time>2024-9-14T10:48:44Z</time></trkpt>
<trkpt lat="44.3518580" lon="-73.8580780"><ele></ele><time>2024-9-14T10:48:47Z</time></trkpt>
<trkpt lat="44.3518250" lon="-73.8581090"><ele></ele><time>2024-9-14T10:48:50Z</time></trkpt>
<trkpt lat="44.3517950" lon="-73.8581440"><ele></ele><time>2024-9-14T10:48:53Z</time></trkpt>
<trkpt lat="44.3517650" lon="-73.8581820"><ele></ele><time>2024-9-14T10:48:56Z</time></trkpt>
<trkpt lat="44.3517360" lon="-73.8582190"><ele></ele><time>2024-9-14T10:48:59Z</time></trkpt>
<trkpt lat="44.3516840" lon="-73.8583000"><ele></ele><time>2024-9-14T10:49:2Z</time></trkpt>
<trkpt lat="44.3515510" lon="-73.8584840"><ele></ele><time>2024-9-14T10:49:5Z</time></trkpt>
<trkpt lat="44.3514560" lon="-73.8586190"><ele></ele><time>2024-9-14T10:49:8Z</time></trkpt>
<trkpt lat="44.3514260" lon="-73.8586470"><ele></ele><time>2024-9-14T10:49:11Z</time></trkpt>
<trkpt lat="44.3513990" lon="-73.8586770"><ele></ele><time>2024-9-14T10:49:14Z</time></trkpt>
<trkpt lat="44.3513760" lon="-73.8587050"><ele></ele><time>2024-9-14T10:49:17Z</time></trkpt>
<trkpt lat="44.3512810" lon="-73.8588270"><ele></ele><time>2024-9-14T10:49:20Z</time></trkpt>
<trkpt lat="44.3512540" lon="-73.8588560"><ele></ele><time>2024-9-14T10:49:23Z</time></trkpt>
<trkpt lat="44.3512290" lon="-73.8588790"><ele></ele><time>2024-9-14T10:49:26Z</time></trkpt>
<trkpt lat="44.3512060" lon="-73.8589090"><ele></ele><time>2024-9-14T10:49:29Z</time></trkpt>
<trkpt lat="44.3511820" lon="-73.8589380"><ele></ele><time>2024-9-14T10:49:32Z</time></trkpt>
<trkpt lat="44.3510920" lon="-73.8590380"><ele></ele><time>2024-9-14T10:49:35Z</time></trkpt>
<trkpt lat="44.3510500" lon="-73.8591020"><ele></ele><time>2024-9-14T10:49:38Z</time></trkpt>
<trkpt lat="44.3510270" lon="-73.8591290"><ele></ele><time>2024-9-14T10:49:41Z</time></trkpt>
<trkpt lat="44.3510030" lon="-73.8591520"><ele></ele><time>2024-9-14T10:49:44Z</time></trkpt>
<trkpt lat="44.3509780" lon="-73.8591790"><ele></ele><time>2024-9-14T10:49:47Z</time></trkpt>
<trkpt lat="44.3509550" lon="-73.8592100"><ele></ele><time>2024-9-14T10:49:50Z</time></trkpt>
<trkpt lat="44.3509300" lon="-73.8592340"><ele></ele><time>2024-9-14T10:49:53Z</time></trkpt>
<trkpt lat="44.3508700" lon="-73.8593190"><ele></ele><time>2024-9-14T10:49:56Z</time></trkpt>
<trkpt lat="44.3508520" lon="-73.8593480"><ele></ele><time>2024-9-14T10:49:59Z</time></trkpt>
<trkpt lat="44.3508280" lon="-73.8593730"><ele></ele><time>2024-9-14T10:50:2Z</time></trkpt>
<trkpt lat="44.3508080" lon="-73.8594020"><ele></ele><time>2024-9-14T10:50:5Z</time></trkpt>
<trkpt lat="44.3507870" lon="-73.8594300"><ele></ele><time>2024-9-14T10:50:8Z</time></trkpt>
<trkpt lat="44.3506690" lon="-73.8595670"><ele></ele><time>2024-9-14T10:50:11Z</time></trkpt>
<trkpt lat="44.3506490" lon="-73.8595930"><ele></ele><time>2024-9-14T10:50:14Z</time></trkpt>
<trkpt lat="44.3506280" lon="-73.8596200"><ele></ele><time>2024-9-14T10:50:17Z</time></trkpt>
<trkpt lat="44.3506070" lon="-73.8596520"><ele></ele><time>2024-9-14T10:50:20Z</time></trkpt>
<trkpt lat="44.3505850" lon="-73.8596810"><ele></ele><time>2024-9-14T10:50:23Z</time></trkpt>
<trkpt lat="44.3504560" lon="-73.8598630"><ele></ele><time>2024-9-14T10:50:26Z</time></trkpt>
<trkpt lat="44.3504370" lon="-73.8598910"><ele></ele><time>2024-9-14T10:50:29Z</time></trkpt>
<trkpt lat="44.3504170" lon="-73.8599170"><ele></ele><time>2024-9-14T10:50:32Z</time></trkpt>
<trkpt lat="44.3504000" lon="-73.8599500"><ele></ele><time>2024-9-14T10:50:35Z</time></trkpt>
<trkpt lat="44.3503830" lon="-73.8599810"><ele></ele><time>2024-9-14T10:50:38Z</time></trkpt>
<trkpt lat="44.3503070" lon="-73.8601120"><ele></ele><time>2024-9-14T10:50:41Z</time></trkpt>
<trkpt lat="44.3502910" lon="-73.8601420"><ele></ele><time>2024-9-14T10:50:44Z</time></trkpt>
<trkpt lat="44.3502700" lon="-73.8601700"><ele></ele><time>2024-9-14T10:50:47Z</time></trkpt>
<trkpt lat="44.3502500" lon="-73.8602020"><ele></ele><time>2024-9-14T10:50:50Z</time></trkpt>
<trkpt lat="44.3502340" lon="-73.8602320"><ele></ele><time>2024-9-14T10:50:53Z</time></trkpt>
<trkpt lat="44.3502200" lon="-73.8602670"><ele></ele><time>2024-9-14T10:50:56Z</time></trkpt>
<trkpt lat="44.3501690" lon="-73.8603580"><ele></ele><time>2024-9-14T10:50:59Z</time></trkpt>
<trkpt lat="44.3501340" lon="-73.8604240"><ele></ele><time>2024-9-14T10:51:2Z</time></trkpt>
<trkpt lat="44.3501120" lon="-73.8604500"><ele></ele><time>2024-9-14T10:51:5Z</time></trkpt>
<trkpt lat="44.3500940" lon="-73.8604870"><ele></ele><time>2024-9-14T10:51:8Z</time></trkpt>
<trkpt lat="44.3500780" lon="-73.8605230"><ele></ele><time>2024-9-14T10:51:11Z</time></trkpt>
<trkpt lat="44.3500550" lon="-73.8605510"><ele></ele><time>2024-9-14T10:51:14Z</time></trkpt>
<trkpt lat="44.3499670" lon="-73.8607480"><ele></ele><time>2024-9-14T10:51:17Z</time></trkpt>
<trkpt lat="44.3499680" lon="-73.8607410"><ele></ele><time>2024-9-14T10:51:20Z</time></trkpt>
<trkpt lat="44.3499590" lon="-73.8607400"><ele></ele><time>2024-9-14T10:51:23Z</time></trkpt>
<trkpt lat="44.3499400" lon="-73.8607640"><ele></ele><time>2024-9-14T10:51:26Z</time></trkpt>
<trkpt lat="44.3498530" lon="-73.8608920"><ele></ele><time>2024-9-14T10:51:29Z</time></trkpt>
<trkpt lat="44.3496480" lon="-73.8612140"><ele></ele><time>2024-9-14T10:51:32Z</time></trkpt>
<trkpt lat="44.3494230" lon="-73.8615890"><ele></ele><time>2024-9-14T10:51:35Z</time></trkpt>
<trkpt lat="44.3493370" lon="-73.8617320"><ele></ele><time>2024-9-14T10:51:38Z</time></trkpt>
<trkpt lat="44.3492860" lon="-73.8618420"><ele></ele><time>2024-9-14T10:51:41Z</time></trkpt>
<trkpt lat="44.3492580" lon="-73.8618970"><ele></ele><time>2024-9-14T10:51:44Z</time></trkpt>
<trkpt lat="44.3492320" lon="-73.8619560"><ele></ele><time>2024-9-14T10:51:47Z</time></trkpt>
<trkpt lat="44.3492030" lon="-73.8620150"><ele></ele><time>2024-9-14T10:51:50Z</time></trkpt>
<trkpt lat="44.3491780" lon="-73.8620740"><ele></ele><time>2024-9-14T10:51:53Z</time></trkpt>
<trkpt lat="44.3490250" lon="-73.8623780"><ele></ele><time>2024-9-14T10:51:56Z</time></trkpt>
<trkpt lat="44.3488020" lon="-73.8628430"><ele></ele><time>2024-9-14T10:51:59Z</time></trkpt>
<trkpt lat="44.3487360" lon="-73.8629730"><ele></ele><time>2024-9-14T10:52:2Z</time></trkpt>
<trkpt lat="44.3487010" lon="-73.8630350"><ele></ele><time>2024-9-14T10:52:5Z</time></trkpt>
<trkpt lat="44.3483640" lon="-73.8636330"><ele></ele><time>2024-9-14T10:52:8Z</time></trkpt>
<trkpt lat="44.3480010" lon="-73.8642310"><ele></ele><time>2024-9-14T10:52:11Z</time></trkpt>
<trkpt lat="44.3479640" lon="-73.8642940"><ele></ele><time>2024-9-14T10:52:14Z</time></trkpt>
<trkpt lat="44.3477860" lon="-73.8645930"><ele></ele><time>2024-9-14T10:52:17Z</time></trkpt>
<trkpt lat="44.3476990" lon="-73.8647470"><ele></ele><time>2024-9-14T10:52:20Z</time></trkpt>
<trkpt lat="44.3476450" lon="-73.8648340"><ele></ele><time>2024-9-14T10:52:23Z</time></trkpt>
<trkpt lat="44.3476210" lon="-73.8648780"><ele></ele><time>2024-9-14T10:52:26Z</time></trkpt>
<trkpt lat="44.3475970" lon="-73.8649180"><ele></ele><time>2024-9-14T10:52:29Z</time></trkpt>
<trkpt lat="44.3475720" lon="-73.8649570"><ele></ele><time>2024-9-14T10:52:32Z</time></trkpt>
<trkpt lat="44.3475470" lon="-73.8649960"><ele></ele><time>2024-9-14T10:52:35Z</time></trkpt>
<trkpt lat="44.3475270" lon="-73.8650370"><ele></ele><time>2024-9-14T10:52:38Z</time></trkpt>
<trkpt lat="44.3474270" lon="-73.8652540"><ele></ele><time>2024-9-14T10:52:41Z</time></trkpt>
<trkpt lat="44.3474070" lon="-73.8653010"><ele></ele><time>2024-9-14T10:52:44Z</time></trkpt>
<trkpt lat="44.3473900" lon="-73.8653470"><ele></ele><time>2024-9-14T10:52:47Z</time></trkpt>
<trkpt lat="44.3473740" lon="-73.8653930"><ele></ele><time>2024-9-14T10:52:50Z</time></trkpt>
<trkpt lat="44.3473600" lon="-73.8654410"><ele></ele><time>2024-9-14T10:52:53Z</time></trkpt>
<trkpt lat="44.3472990" lon="-73.8656350"><ele></ele><time>2024-9-14T10:52:56Z</time></trkpt>
<trkpt lat="44.3472410" lon="-73.8659090"><ele></ele><time>2024-9-14T10:52:59Z</time></trkpt>
<trkpt lat="44.3472300" lon="-73.8659660"><ele></ele><time>2024-9-14T10:53:2Z</time></trkpt>
<trkpt lat="44.3472200" lon="-73.8660190"><ele></ele><time>2024-9-14T10:53:5Z</time></trkpt>
<trkpt lat="44.3472120" lon="-73.8660720"><ele></ele><time>2024-9-14T10:53:8Z</time></trkpt>
<trkpt lat="44.3472020" lon="-73.8661230"><ele></ele><time>2024-9-14T10:53:11Z</time></trkpt>
<trkpt lat="44.3471240" lon="-73.8665620"><ele></ele><time>2024-9-14T10:53:14Z</time></trkpt>
<trkpt lat="44.3471140" lon="-73.8666160"><ele></ele><time>2024-9-14T10:53:17Z</time></trkpt>
<trkpt lat="44.3471040" lon="-73.8666730"><ele></ele><time>2024-9-14T10:53:20Z</time></trkpt>
<trkpt lat="44.3470930" lon="-73.8667300"><ele></ele><time>2024-9-14T10:53:23Z</time></trkpt>
<trkpt lat="44.3470810" lon="-73.8667890"><ele></ele><time>2024-9-14T10:53:26Z</time></trkpt>
<trkpt lat="44.3470700" lon="-73.8668400"><ele></ele><time>2024-9-14T10:53:29Z</time></trkpt>
<trkpt lat="44.3470500" lon="-73.8669440"><ele></ele><time>2024-9-14T10:53:32Z</time></trkpt>
<trkpt lat="44.3470090" lon="-73.8672100"><ele></ele><time>2024-9-14T10:53:35Z</time></trkpt>
<trkpt lat="44.3470020" lon="-73.8672620"><ele></ele><time>2024-9-14T10:53:38Z</time></trkpt>
<trkpt lat="44.3469970" lon="-73.8673160"><ele></ele><time>2024-9-14T10:53:41Z</time></trkpt>
<trkpt lat="44.3469910" lon="-73.8673680"><ele></ele><time>2024-9-14T10:53:44Z</time></trkpt>
<trkpt lat="44.3469860" lon="-73.8677420"><ele></ele><time>2024-9-14T10:53:47Z</time></trkpt>
<trkpt lat="44.3469960" lon="-73.8678520"><ele></ele><time>2024-9-14T10:53:50Z</time></trkpt>
<trkpt lat="44.3470170" lon="-73.8680770"><ele></ele><time>2024-9-14T10:53:53Z</time></trkpt>
<trkpt lat="44.3470220" lon="-73.8681330"><ele></ele><time>2024-9-14T10:53:56Z</time></trkpt>
<trkpt lat="44.3470280" lon="-73.8681890"><ele></ele><time>2024-9-14T10:53:59Z</time></trkpt>
<trkpt lat="44.3470350" lon="-73.8682430"><ele></ele><time>2024-9-14T10:54:2Z</time></trkpt>
<trkpt lat="44.3470430" lon="-73.8682980"><ele></ele><time>2024-9-14T10:54:5Z</time></trkpt>
<trkpt lat="44.3471080" lon="-73.8686040"><ele></ele><time>2024-9-14T10:54:8Z</time></trkpt>
<trkpt lat="44.3472230" lon="-73.8689350"><ele></ele><time>2024-9-14T10:54:11Z</time></trkpt>
<trkpt lat="44.3472450" lon="-73.8689800"><ele></ele><time>2024-9-14T10:54:14Z</time></trkpt>
<trkpt lat="44.3472690" lon="-73.8690270"><ele></ele><time>2024-9-14T10:54:17Z</time></trkpt>
<trkpt lat="44.3472910" lon="-73.8690700"><ele></ele><time>2024-9-14T10:54:20Z</time></trkpt>
<trkpt lat="44.3473150" lon="-73.8691120"><ele></ele><time>2024-9-14T10:54:23Z</time></trkpt>
<trkpt lat="44.3473380" lon="-73.8691540"><ele></ele><time>2024-9-14T10:54:26Z</time></trkpt>
<trkpt lat="44.3474070" lon="-73.8692670"><ele></ele><time>2024-9-14T10:54:29Z</time></trkpt>
<trkpt lat="44.3474490" lon="-73.8693420"><ele></ele><time>2024-9-14T10:54:32Z</time></trkpt>
<trkpt lat="44.3474720" lon="-73.8693800"><ele></ele><time>2024-9-14T10:54:35Z</time></trkpt>
<trkpt lat="44.3474930" lon="-73.8694120"><ele></ele><time>2024-9-14T10:54:38Z</time></trkpt>
<trkpt lat="44.3475150" lon="-73.8694470"><ele></ele><time>2024-9-14T10:54:41Z</time></trkpt>
<trkpt lat="44.3475370" lon="-73.8694850"><ele></ele><time>2024-9-14T10:54:44Z</time></trkpt>
<trkpt lat="44.3475790" lon="-73.8695620"><ele></ele><time>2024-9-14T10:54:47Z</time></trkpt>
<trkpt lat="44.3476000" lon="-73.8696010"><ele></ele><time>2024-9-14T10:54:50Z</time></trkpt>
<trkpt lat="44.3476210" lon="-73.8696360"><ele></ele><time>2024-9-14T10:54:53Z</time></trkpt>
<trkpt lat="44.3476410" lon="-73.8696700"><ele></ele><time>2024-9-14T10:54:56Z</time></trkpt>
<trkpt lat="44.3476630" lon="-73.8697030"><ele></ele><time>2024-9-14T10:54:59Z</time></trkpt>
<trkpt lat="44.3477720" lon="-73.8698550"><ele></ele><time>2024-9-14T10:55:2Z</time></trkpt>
<trkpt lat="44.3478100" lon="-73.8698990"><ele></ele><time>2024-9-14T10:55:5Z</time></trkpt>
<trkpt lat="44.3478170" lon="-73.8699130"><ele></ele><time>2024-9-14T10:55:8Z</time></trkpt>
<trkpt lat="44.3478140" lon="-73.8699170"><ele></ele><time>2024-9-14T10:55:11Z</time></trkpt>
<trkpt lat="44.3478070" lon="-73.8699190"><ele></ele><time>2024-9-14T10:55:14Z</time></trkpt>
<trkpt lat="44.3478070" lon="-73.8699200"><ele></ele><time>2024-9-14T10:55:17Z</time></trkpt>
<trkpt lat="44.3478310" lon="-73.8699640"><ele></ele><time>2024-9-14T10:55:20Z</time></trkpt>
<trkpt lat="44.3479390" lon="-73.8701770"><ele></ele><time>2024-9-14T10:55:23Z</time></trkpt>
<trkpt lat="44.3480080" lon="-73.8703410"><ele></ele><time>2024-9-14T10:55:26Z</time></trkpt>
<trkpt lat="44.3480290" lon="-73.8703770"><ele></ele><time>2024-9-14T10:55:29Z</time></trkpt>
<trkpt lat="44.3480520" lon="-73.8704160"><ele></ele><time>2024-9-14T10:55:32Z</time></trkpt>
<trkpt lat="44.3480710" lon="-73.8704570"><ele></ele><time>2024-9-14T10:55:35Z</time></trkpt>
<trkpt lat="44.3480890" lon="-73.8704970"><ele></ele><time>2024-9-14T10:55:38Z</time></trkpt>
<trkpt lat="44.3481370" lon="-73.8706230"><ele></ele><time>2024-9-14T10:55:41Z</time></trkpt>
<trkpt lat="44.3482050" lon="-73.8707990"><ele></ele><time>2024-9-14T10:55:44Z</time></trkpt>
<trkpt lat="44.3482860" lon="-73.8710290"><ele></ele><time>2024-9-14T10:55:47Z</time></trkpt>
<trkpt lat="44.3483750" lon="-73.8713990"><ele></ele><time>2024-9-14T10:55:50Z</time></trkpt>
<trkpt lat="44.3483850" lon="-73.8714540"><ele></ele><time>2024-9-14T10:55:53Z</time></trkpt>
<trkpt lat="44.3483960" lon="-73.8715100"><ele></ele><time>2024-9-14T10:55:56Z</time></trkpt>
<trkpt lat="44.3484090" lon="-73.8715620"><ele></ele><time>2024-9-14T10:55:59Z</time></trkpt>
<trkpt lat="44.3484200" lon="-73.8716150"><ele></ele><time>2024-9-14T10:56:2Z</time></trkpt>
<trkpt lat="44.3484430" lon="-73.8717890"><ele></ele><time>2024-9-14T10:56:5Z</time></trkpt>
<trkpt lat="44.3484930" lon="-73.8722420"><ele></ele><time>2024-9-14T10:56:8Z</time></trkpt>
<trkpt lat="44.3485000" lon="-73.8726310"><ele></ele><time>2024-9-14T10:56:11Z</time></trkpt>
<trkpt lat="44.3484830" lon="-73.8731180"><ele></ele><time>2024-9-14T10:56:14Z</time></trkpt>
<trkpt lat="44.3484750" lon="-73.8732280"><ele></ele><time>2024-9-14T10:56:17Z</time></trkpt>
<trkpt lat="44.3484660" lon="-73.8733370"><ele></ele><time>2024-9-14T10:56:20Z</time></trkpt>
<trkpt lat="44.3484540" lon="-73.8734460"><ele></ele><time>2024-9-14T10:56:23Z</time></trkpt>
<trkpt lat="44.3484400" lon="-73.8735570"><ele></ele><time>2024-9-14T10:56:26Z</time></trkpt>
<trkpt lat="44.3484080" lon="-73.8737840"><ele></ele><time>2024-9-14T10:56:29Z</time></trkpt>
<trkpt lat="44.3483390" lon="-73.8741420"><ele></ele><time>2024-9-14T10:56:32Z</time></trkpt>
<trkpt lat="44.3483080" lon="-73.8742560"><ele></ele><time>2024-9-14T10:56:35Z</time></trkpt>
<trkpt lat="44.3482750" lon="-73.8743680"><ele></ele><time>2024-9-14T10:56:38Z</time></trkpt>
<trkpt lat="44.3482410" lon="-73.8744800"><ele></ele><time>2024-9-14T10:56:41Z</time></trkpt>
<trkpt lat="44.3482050" lon="-73.8745910"><ele></ele><time>2024-9-14T10:56:44Z</time></trkpt>
<trkpt lat="44.3481670" lon="-73.8747040"><ele></ele><time>2024-9-14T10:56:47Z</time></trkpt>
<trkpt lat="44.3481310" lon="-73.8748150"><ele></ele><time>2024-9-14T10:56:50Z</time></trkpt>
<trkpt lat="44.3480920" lon="-73.8749300"><ele></ele><time>2024-9-14T10:56:53Z</time></trkpt>
<trkpt lat="44.3480550" lon="-73.8750410"><ele></ele><time>2024-9-14T10:56:56Z</time></trkpt>
<trkpt lat="44.3479820" lon="-73.8752460"><ele></ele><time>2024-9-14T10:56:59Z</time></trkpt>
<trkpt lat="44.3479130" lon="-73.8754510"><ele></ele><time>2024-9-14T10:57:2Z</time></trkpt>
<trkpt lat="44.3477450" lon="-73.8759120"><ele></ele><time>2024-9-14T10:57:5Z</time></trkpt>
<trkpt lat="44.3475180" lon="-73.8765990"><ele></ele><time>2024-9-14T10:57:8Z</time></trkpt>
<trkpt lat="44.3474910" lon="-73.8766790"><ele></ele><time>2024-9-14T10:57:11Z</time></trkpt>
<trkpt lat="44.3473850" lon="-73.8769780"><ele></ele><time>2024-9-14T10:57:14Z</time></trkpt>
<trkpt lat="44.3473050" lon="-73.8771940"><ele></ele><time>2024-9-14T10:57:17Z</time></trkpt>
<trkpt lat="44.3470710" lon="-73.8778740"><ele></ele><time>2024-9-14T10:57:20Z</time></trkpt>
<trkpt lat="44.3469440" lon="-73.8782590"><ele></ele><time>2024-9-14T10:57:23Z</time></trkpt>
<trkpt lat="44.3468380" lon="-73.8785560"><ele></ele><time>2024-9-14T10:57:26Z</time></trkpt>
<trkpt lat="44.3466080" lon="-73.8792420"><ele></ele><time>2024-9-14T10:57:29Z</time></trkpt>
<trkpt lat="44.3465820" lon="-73.8793170"><ele></ele><time>2024-9-14T10:57:32Z</time></trkpt>
<trkpt lat="44.3463690" lon="-73.8799220"><ele></ele><time>2024-9-14T10:57:35Z</time></trkpt>
<trkpt lat="44.3461610" lon="-73.8805150"><ele></ele><time>2024-9-14T10:57:38Z</time></trkpt>
<trkpt lat="44.3461050" lon="-73.8806620"><ele></ele><time>2024-9-14T10:57:41Z</time></trkpt>
<trkpt lat="44.3460750" lon="-73.8807350"><ele></ele><time>2024-9-14T10:57:44Z</time></trkpt>
<trkpt lat="44.3460460" lon="-73.8808030"><ele></ele><time>2024-9-14T10:57:47Z</time></trkpt>
<trkpt lat="44.3460160" lon="-73.8808720"><ele></ele><time>2024-9-14T10:57:50Z</time></trkpt>
<trkpt lat="44.3459550" lon="-73.8809960"><ele></ele><time>2024-9-14T10:57:53Z</time></trkpt>
<trkpt lat="44.3457230" lon="-73.8813440"><ele></ele><time>2024-9-14T10:57:56Z</time></trkpt>
<trkpt lat="44.3456850" lon="-73.8813880"><ele></ele><time>2024-9-14T10:57:59Z</time></trkpt>
<trkpt lat="44.3456480" lon="-73.8814320"><ele></ele><time>2024-9-14T10:58:2Z</time></trkpt>
<trkpt lat="44.3456120" lon="-73.8814720"><ele></ele><time>2024-9-14T10:58:5Z</time></trkpt>
<trkpt lat="44.3455710" lon="-73.8815110"><ele></ele><time>2024-9-14T10:58:8Z</time></trkpt>
<trkpt lat="44.3454110" lon="-73.8816320"><ele></ele><time>2024-9-14T10:58:11Z</time></trkpt>
<trkpt lat="44.3450320" lon="-73.8818720"><ele></ele><time>2024-9-14T10:58:14Z</time></trkpt>
<trkpt lat="44.3449900" lon="-73.8818980"><ele></ele><time>2024-9-14T10:58:17Z</time></trkpt>
<trkpt lat="44.3449450" lon="-73.8819290"><ele></ele><time>2024-9-14T10:58:20Z</time></trkpt>
<trkpt lat="44.3449020" lon="-73.8819590"><ele></ele><time>2024-9-14T10:58:23Z</time></trkpt>
<trkpt lat="44.3448580" lon="-73.8819890"><ele></ele><time>2024-9-14T10:58:26Z</time></trkpt>
<trkpt lat="44.3446860" lon="-73.8821290"><ele></ele><time>2024-9-14T10:58:29Z</time></trkpt>
<trkpt lat="44.3446430" lon="-73.8821710"><ele></ele><time>2024-9-14T10:58:32Z</time></trkpt>
<trkpt lat="44.3444420" lon="-73.8824250"><ele></ele><time>2024-9-14T10:58:35Z</time></trkpt>
<trkpt lat="44.3441370" lon="-73.8828560"><ele></ele><time>2024-9-14T10:58:38Z</time></trkpt>
<trkpt lat="44.3440240" lon="-73.8830170"><ele></ele><time>2024-9-14T10:58:41Z</time></trkpt>
<trkpt lat="44.3439870" lon="-73.8830750"><ele></ele><time>2024-9-14T10:58:44Z</time></trkpt>
<trkpt lat="44.3439510" lon="-73.8831370"><ele></ele><time>2024-9-14T10:58:47Z</time></trkpt>
<trkpt lat="44.3439130" lon="-73.8831910"><ele></ele><time>2024-9-14T10:58:50Z</time></trkpt>
<trkpt lat="44.3438750" lon="-73.8832430"><ele></ele><time>2024-9-14T10:58:53Z</time></trkpt>
<trkpt lat="44.3438340" lon="-73.8832910"><ele></ele><time>2024-9-14T10:58:56Z</time></trkpt>
<trkpt lat="44.3436740" lon="-73.8834770"><ele></ele><time>2024-9-14T10:58:59Z</time></trkpt>
<trkpt lat="44.3433090" lon="-73.8838560"><ele></ele><time>2024-9-14T10:59:2Z</time></trkpt>
<trkpt lat="44.3431970" lon="-73.8839840"><ele></ele><time>2024-9-14T10:59:5Z</time></trkpt>
<trkpt lat="44.3431610" lon="-73.8840320"><ele></ele><time>2024-9-14T10:59:8Z</time></trkpt>
<trkpt lat="44.3431280" lon="-73.8840800"><ele></ele><time>2024-9-14T10:59:11Z</time></trkpt>
<trkpt lat="44.3430940" lon="-73.8841290"><ele></ele><time>2024-9-14T10:59:14Z</time></trkpt>
<trkpt lat="44.3430320" lon="-73.8842290"><ele></ele><time>2024-9-14T10:59:17Z</time></trkpt>
<trkpt lat="44.3428550" lon="-73.8846490"><ele></ele><time>2024-9-14T10:59:20Z</time></trkpt>
<trkpt lat="44.3427300" lon="-73.8851160"><ele></ele><time>2024-9-14T10:59:23Z</time></trkpt>
<trkpt lat="44.3426110" lon="-73.8856090"><ele></ele><time>2024-9-14T10:59:26Z</time></trkpt>
<trkpt lat="44.3425860" lon="-73.8857100"><ele></ele><time>2024-9-14T10:59:29Z</time></trkpt>
<trkpt lat="44.3425620" lon="-73.8858080"><ele></ele><time>2024-9-14T10:59:32Z</time></trkpt>
<trkpt lat="44.3425360" lon="-73.8859060"><ele></ele><time>2024-9-14T10:59:35Z</time></trkpt>
<trkpt lat="44.3424500" lon="-73.8861950"><ele></ele><time>2024-9-14T10:59:38Z</time></trkpt>
<trkpt lat="44.3422570" lon="-73.8866860"><ele></ele><time>2024-9-14T10:59:41Z</time></trkpt>
<trkpt lat="44.3422260" lon="-73.8867580"><ele></ele><time>2024-9-14T10:59:44Z</time></trkpt>
<trkpt lat="44.3421940" lon="-73.8868320"><ele></ele><time>2024-9-14T10:59:47Z</time></trkpt>
<trkpt lat="44.3421620" lon="-73.8869020"><ele></ele><time>2024-9-14T10:59:50Z</time></trkpt>
<trkpt lat="44.3421300" lon="-73.8869690"><ele></ele><time>2024-9-14T10:59:53Z</time></trkpt>
<trkpt lat="44.3420090" lon="-73.8872340"><ele></ele><time>2024-9-14T10:59:56Z</time></trkpt>
<trkpt lat="44.3417230" lon="-73.8877440"><ele></ele><time>2024-9-14T10:59:59Z</time></trkpt>
<trkpt lat="44.3416300" lon="-73.8879290"><ele></ele><time>2024-9-14T11:0:2Z</time></trkpt>
<trkpt lat="44.3415410" lon="-73.8881170"><ele></ele><time>2024-9-14T11:0:5Z</time></trkpt>
<trkpt lat="44.3414900" lon="-73.8882490"><ele></ele><time>2024-9-14T11:0:8Z</time></trkpt>
<trkpt lat="44.3413310" lon="-73.8887550"><ele></ele><time>2024-9-14T11:0:11Z</time></trkpt>
<trkpt lat="44.3412220" lon="-73.8890990"><ele></ele><time>2024-9-14T11:0:14Z</time></trkpt>
<trkpt lat="44.3412020" lon="-73.8891580"><ele></ele><time>2024-9-14T11:0:17Z</time></trkpt>
<trkpt lat="44.3411800" lon="-73.8892150"><ele></ele><time>2024-9-14T11:0:20Z</time></trkpt>
<trkpt lat="44.3411570" lon="-73.8892740"><ele></ele><time>2024-9-14T11:0:23Z</time></trkpt>
<trkpt lat="44.3411360" lon="-73.8893290"><ele></ele><time>2024-9-14T11:0:26Z</time></trkpt>
<trkpt lat="44.3410400" lon="-73.8895560"><ele></ele><time>2024-9-14T11:0:29Z</time></trkpt>
<trkpt lat="44.3409790" lon="-73.8896570"><ele></ele><time>2024-9-14T11:0:32Z</time></trkpt>
<trkpt lat="44.3408270" lon="-73.8898820"><ele></ele><time>2024-9-14T11:0:35Z</time></trkpt>
<trkpt lat="44.3406850" lon="-73.8900200"><ele></ele><time>2024-9-14T11:0:38Z</time></trkpt>
<trkpt lat="44.3404950" lon="-73.8901830"><ele></ele><time>2024-9-14T11:0:41Z</time></trkpt>
<trkpt lat="44.3404570" lon="-73.8902170"><ele></ele><time>2024-9-14T11:0:44Z</time></trkpt>
<trkpt lat="44.3404200" lon="-73.8902500"><ele></ele><time>2024-9-14T11:0:47Z</time></trkpt>
<trkpt lat="44.3403830" lon="-73.8902830"><ele></ele><time>2024-9-14T11:0:50Z</time></trkpt>
<trkpt lat="44.3400920" lon="-73.8905340"><ele></ele><time>2024-9-14T11:0:53Z</time></trkpt>
<trkpt lat="44.3400610" lon="-73.8905610"><ele></ele><time>2024-9-14T11:0:56Z</time></trkpt>
<trkpt lat="44.3400310" lon="-73.8905890"><ele></ele><time>2024-9-14T11:0:59Z</time></trkpt>
<trkpt lat="44.3400010" lon="-73.8906160"><ele></ele><time>2024-9-14T11:1:2Z</time></trkpt>
<trkpt lat="44.3399700" lon="-73.8906410"><ele></ele><time>2024-9-14T11:1:5Z</time></trkpt>
<trkpt lat="44.3399410" lon="-73.8906670"><ele></ele><time>2024-9-14T11:1:8Z</time></trkpt>
<trkpt lat="44.3398490" lon="-73.8907390"><ele></ele><time>2024-9-14T11:1:11Z</time></trkpt>
<trkpt lat="44.3397540" lon="-73.8908100"><ele></ele><time>2024-9-14T11:1:14Z</time></trkpt>
<trkpt lat="44.3397260" lon="-73.8908360"><ele></ele><time>2024-9-14T11:1:17Z</time></trkpt>
<trkpt lat="44.3397010" lon="-73.8908640"><ele></ele><time>2024-9-14T11:1:20Z</time></trkpt>
<trkpt lat="44.3396740" lon="-73.8908930"><ele></ele><time>2024-9-14T11:1:23Z</time></trkpt>
<trkpt lat="44.3396480" lon="-73.8909220"><ele></ele><time>2024-9-14T11:1:26Z</time></trkpt>
<trkpt lat="44.3396230" lon="-73.8909500"><ele></ele><time>2024-9-14T11:1:29Z</time></trkpt>
<trkpt lat="44.3395240" lon="-73.8910790"><ele></ele><time>2024-9-14T11:1:32Z</time></trkpt>
<trkpt lat="44.3395000" lon="-73.8911090"><ele></ele><time>2024-9-14T11:1:35Z</time></trkpt>
<trkpt lat="44.3394800" lon="-73.8911420"><ele></ele><time>2024-9-14T11:1:38Z</time></trkpt>
<trkpt lat="44.3394610" lon="-73.8911770"><ele></ele><time>2024-9-14T11:1:41Z</time></trkpt>
<trkpt lat="44.3394440" lon="-73.8912110"><ele></ele><time>2024-9-14T11:1:44Z</time></trkpt>
<trkpt lat="44.3393890" lon="-73.8913190"><ele></ele><time>2024-9-14T11:1:47Z</time></trkpt>
<trkpt lat="44.3393610" lon="-73.8914000"><ele></ele><time>2024-9-14T11:1:50Z</time></trkpt>
<trkpt lat="44.3393470" lon="-73.8914380"><ele></ele><time>2024-9-14T11:1:53Z</time></trkpt>
<trkpt lat="44.3393330" lon="-73.8914810"><ele></ele><time>2024-9-14T11:1:56Z</time></trkpt>
<trkpt lat="44.3393200" lon="-73.8915260"><ele></ele><time>2024-9-14T11:1:59Z</time></trkpt>
<trkpt lat="44.3393100" lon="-73.8915740"><ele></ele><time>2024-9-14T11:2:2Z</time></trkpt>
<trkpt lat="44.3392790" lon="-73.8917320"><ele></ele><time>2024-9-14T11:2:5Z</time></trkpt>
<trkpt lat="44.3392140" lon="-73.8921440"><ele></ele><time>2024-9-14T11:2:8Z</time></trkpt>
<trkpt lat="44.3391980" lon="-73.8922920"><ele></ele><time>2024-9-14T11:2:11Z</time></trkpt>
<trkpt lat="44.3391820" lon="-73.8924360"><ele></ele><time>2024-9-14T11:2:14Z</time></trkpt>
<trkpt lat="44.3391520" lon="-73.8926680"><ele></ele><time>2024-9-14T11:2:17Z</time></trkpt>
<trkpt lat="44.3391120" lon="-73.8928900"><ele></ele><time>2024-9-14T11:2:20Z</time></trkpt>
<trkpt lat="44.3390540" lon="-73.8930840"><ele></ele><time>2024-9-14T11:2:23Z</time></trkpt>
<trkpt lat="44.3390100" lon="-73.8931950"><ele></ele><time>2024-9-14T11:2:26Z</time></trkpt>
<trkpt lat="44.3389180" lon="-73.8933800"><ele></ele><time>2024-9-14T11:2:29Z</time></trkpt>
<trkpt lat="44.3388300" lon="-73.8935150"><ele></ele><time>2024-9-14T11:2:32Z</time></trkpt>
<trkpt lat="44.3388110" lon="-73.8935420"><ele></ele><time>2024-9-14T11:2:35Z</time></trkpt>
<trkpt lat="44.3387920" lon="-73.8935700"><ele></ele><time>2024-9-14T11:2:38Z</time></trkpt>
<trkpt lat="44.3387720" lon="-73.8935960"><ele></ele><time>2024-9-14T11:2:41Z</time></trkpt>
<trkpt lat="44.3387480" lon="-73.8936250"><ele></ele><time>2024-9-14T11:2:44Z</time></trkpt>
<trkpt lat="44.3386090" lon="-73.8937800"><ele></ele><time>2024-9-14T11:2:47Z</time></trkpt>
<trkpt lat="44.3385870" lon="-73.8938050"><ele></ele><time>2024-9-14T11:2:50Z</time></trkpt>
<trkpt lat="44.3385640" lon="-73.8938290"><ele></ele><time>2024-9-14T11:2:53Z</time></trkpt>
<trkpt lat="44.3385410" lon="-73.8938540"><ele></ele><time>2024-9-14T11:2:56Z</time></trkpt>
<trkpt lat="44.3385190" lon="-73.8938800"><ele></ele><time>2024-9-14T11:2:59Z</time></trkpt>
<trkpt lat="44.3384150" lon="-73.8940170"><ele></ele><time>2024-9-14T11:3:2Z</time></trkpt>
<trkpt lat="44.3383940" lon="-73.8940470"><ele></ele><time>2024-9-14T11:3:5Z</time></trkpt>
<trkpt lat="44.3383760" lon="-73.8940740"><ele></ele><time>2024-9-14T11:3:8Z</time></trkpt>
<trkpt lat="44.3383590" lon="-73.8941010"><ele></ele><time>2024-9-14T11:3:11Z</time></trkpt>
<trkpt lat="44.3383380" lon="-73.8941300"><ele></ele><time>2024-9-14T11:3:14Z</time></trkpt>
<trkpt lat="44.3383160" lon="-73.8941610"><ele></ele><time>2024-9-14T11:3:17Z</time></trkpt>
<trkpt lat="44.3382740" lon="-73.8942290"><ele></ele><time>2024-9-14T11:3:20Z</time></trkpt>
<trkpt lat="44.3381340" lon="-73.8945450"><ele></ele><time>2024-9-14T11:3:23Z</time></trkpt>
<trkpt lat="44.3381160" lon="-73.8945890"><ele></ele><time>2024-9-14T11:3:26Z</time></trkpt>
<trkpt lat="44.3380980" lon="-73.8946330"><ele></ele><time>2024-9-14T11:3:29Z</time></trkpt>
<trkpt lat="44.3380790" lon="-73.8946780"><ele></ele><time>2024-9-14T11:3:32Z</time></trkpt>
<trkpt lat="44.3380590" lon="-73.8947230"><ele></ele><time>2024-9-14T11:3:35Z</time></trkpt>
<trkpt lat="44.3380390" lon="-73.8947710"><ele></ele><time>2024-9-14T11:3:38Z</time></trkpt>
<trkpt lat="44.3380000" lon="-73.8948660"><ele></ele><time>2024-9-14T11:3:41Z</time></trkpt>
<trkpt lat="44.3378670" lon="-73.8951850"><ele></ele><time>2024-9-14T11:3:44Z</time></trkpt>
<trkpt lat="44.3377480" lon="-73.8955040"><ele></ele><time>2024-9-14T11:3:47Z</time></trkpt>
<trkpt lat="44.3377240" lon="-73.8955810"><ele></ele><time>2024-9-14T11:3:50Z</time></trkpt>
<trkpt lat="44.3377110" lon="-73.8956170"><ele></ele><time>2024-9-14T11:3:53Z</time></trkpt>
<trkpt lat="44.3376970" lon="-73.8956520"><ele></ele><time>2024-9-14T11:3:56Z</time></trkpt>
<trkpt lat="44.3376850" lon="-73.8956860"><ele></ele><time>2024-9-14T11:3:59Z</time></trkpt>
<trkpt lat="44.3376730" lon="-73.8957210"><ele></ele><time>2024-9-14T11:4:2Z</time></trkpt>
<trkpt lat="44.3376380" lon="-73.8957930"><ele></ele><time>2024-9-14T11:4:5Z</time></trkpt>
<trkpt lat="44.3375590" lon="-73.8959710"><ele></ele><time>2024-9-14T11:4:8Z</time></trkpt>
<trkpt lat="44.3375450" lon="-73.8960050"><ele></ele><time>2024-9-14T11:4:11Z</time></trkpt>
<trkpt lat="44.3375300" lon="-73.8960360"><ele></ele><time>2024-9-14T11:4:14Z</time></trkpt>
<trkpt lat="44.3375140" lon="-73.8960720"><ele></ele><time>2024-9-14T11:4:17Z</time></trkpt>
<trkpt lat="44.3374980" lon="-73.8961050"><ele></ele><time>2024-9-14T11:4:20Z</time></trkpt>
<trkpt lat="44.3374200" lon="-73.8962770"><ele></ele><time>2024-9-14T11:4:23Z</time></trkpt>
<trkpt lat="44.3374080" lon="-73.8963120"><ele></ele><time>2024-9-14T11:4:26Z</time></trkpt>
<trkpt lat="44.3373930" lon="-73.8963480"><ele></ele><time>2024-9-14T11:4:29Z</time></trkpt>
<trkpt lat="44.3373750" lon="-73.8963840"><ele></ele><time>2024-9-14T11:4:32Z</time></trkpt>
<trkpt lat="44.3373590" lon="-73.8964190"><ele></ele><time>2024-9-14T11:4:35Z</time></trkpt>
<trkpt lat="44.3373030" lon="-73.8965570"><ele></ele><time>2024-9-14T11:4:38Z</time></trkpt>
<trkpt lat="44.3372850" lon="-73.8965950"><ele></ele><time>2024-9-14T11:4:41Z</time></trkpt>
<trkpt lat="44.3372710" lon="-73.8966310"><ele></ele><time>2024-9-14T11:4:44Z</time></trkpt>
<trkpt lat="44.3372600" lon="-73.8966660"><ele></ele><time>2024-9-14T11:4:47Z</time></trkpt>
<trkpt lat="44.3372500" lon="-73.8966990"><ele></ele><time>2024-9-14T11:4:50Z</time></trkpt>
<trkpt lat="44.3371970" lon="-73.8968350"><ele></ele><time>2024-9-14T11:4:53Z</time></trkpt>
<trkpt lat="44.3370770" lon="-73.8970720"><ele></ele><time>2024-9-14T11:4:56Z</time></trkpt>
<trkpt lat="44.3370560" lon="-73.8971110"><ele></ele><time>2024-9-14T11:4:59Z</time></trkpt>
<trkpt lat="44.3370350" lon="-73.8971510"><ele></ele><time>2024-9-14T11:5:2Z</time></trkpt>
<trkpt lat="44.3370120" lon="-73.8971920"><ele></ele><time>2024-9-14T11:5:5Z</time></trkpt>
<trkpt lat="44.3369880" lon="-73.8972370"><ele></ele><time>2024-9-14T11:5:8Z</time></trkpt>
<trkpt lat="44.3369640" lon="-73.8972830"><ele></ele><time>2024-9-14T11:5:11Z</time></trkpt>
<trkpt lat="44.3369370" lon="-73.8973330"><ele></ele><time>2024-9-14T11:5:14Z</time></trkpt>
<trkpt lat="44.3367740" lon="-73.8976290"><ele></ele><time>2024-9-14T11:5:17Z</time></trkpt>
<trkpt lat="44.3366110" lon="-73.8980120"><ele></ele><time>2024-9-14T11:5:20Z</time></trkpt>
<trkpt lat="44.3363070" lon="-73.8984300"><ele></ele><time>2024-9-14T11:5:23Z</time></trkpt>
<trkpt lat="44.3362680" lon="-73.8984810"><ele></ele><time>2024-9-14T11:5:26Z</time></trkpt>
<trkpt lat="44.3360310" lon="-73.8987920"><ele></ele><time>2024-9-14T11:5:29Z</time></trkpt>
<trkpt lat="44.3357540" lon="-73.8991360"><ele></ele><time>2024-9-14T11:5:32Z</time></trkpt>
<trkpt lat="44.3355570" lon="-73.8994610"><ele></ele><time>2024-9-14T11:5:35Z</time></trkpt>
<trkpt lat="44.3355240" lon="-73.8995210"><ele></ele><time>2024-9-14T11:5:38Z</time></trkpt>
<trkpt lat="44.3353630" lon="-73.8997970"><ele></ele><time>2024-9-14T11:5:41Z</time></trkpt>
<trkpt lat="44.3350480" lon="-73.9002590"><ele></ele><time>2024-9-14T11:5:44Z</time></trkpt>
<trkpt lat="44.3346700" lon="-73.9008090"><ele></ele><time>2024-9-14T11:5:47Z</time></trkpt>
<trkpt lat="44.3345340" lon="-73.9009880"><ele></ele><time>2024-9-14T11:5:50Z</time></trkpt>
<trkpt lat="44.3344710" lon="-73.9010680"><ele></ele><time>2024-9-14T11:5:53Z</time></trkpt>
<trkpt lat="44.3344130" lon="-73.9011470"><ele></ele><time>2024-9-14T11:5:56Z</time></trkpt>
<trkpt lat="44.3343550" lon="-73.9012260"><ele></ele><time>2024-9-14T11:5:59Z</time></trkpt>
<trkpt lat="44.3342990" lon="-73.9013060"><ele></ele><time>2024-9-14T11:6:2Z</time></trkpt>
<trkpt lat="44.3338960" lon="-73.9018470"><ele></ele><time>2024-9-14T11:6:5Z</time></trkpt>
<trkpt lat="44.3338400" lon="-73.9019210"><ele></ele><time>2024-9-14T11:6:8Z</time></trkpt>
<trkpt lat="44.3337850" lon="-73.9019950"><ele></ele><time>2024-9-14T11:6:11Z</time></trkpt>
<trkpt lat="44.3337300" lon="-73.9020730"><ele></ele><time>2024-9-14T11:6:14Z</time></trkpt>
<trkpt lat="44.3336700" lon="-73.9021530"><ele></ele><time>2024-9-14T11:6:17Z</time></trkpt>
<trkpt lat="44.3336100" lon="-73.9022300"><ele></ele><time>2024-9-14T11:6:20Z</time></trkpt>
<trkpt lat="44.3333130" lon="-73.9026110"><ele></ele><time>2024-9-14T11:6:23Z</time></trkpt>
<trkpt lat="44.3328430" lon="-73.9031690"><ele></ele><time>2024-9-14T11:6:26Z</time></trkpt>
<trkpt lat="44.3327860" lon="-73.9032330"><ele></ele><time>2024-9-14T11:6:29Z</time></trkpt>
<trkpt lat="44.3323290" lon="-73.9037130"><ele></ele><time>2024-9-14T11:6:32Z</time></trkpt>
<trkpt lat="44.3322180" lon="-73.9038280"><ele></ele><time>2024-9-14T11:6:35Z</time></trkpt>
<trkpt lat="44.3317700" lon="-73.9042730"><ele></ele><time>2024-9-14T11:6:38Z</time></trkpt>
<trkpt lat="44.3316040" lon="-73.9044390"><ele></ele><time>2024-9-14T11:6:41Z</time></trkpt>
<trkpt lat="44.3311360" lon="-73.9049050"><ele></ele><time>2024-9-14T11:6:44Z</time></trkpt>
<trkpt lat="44.3308820" lon="-73.9051630"><ele></ele><time>2024-9-14T11:6:47Z</time></trkpt>
<trkpt lat="44.3308310" lon="-73.9052120"><ele></ele><time>2024-9-14T11:6:50Z</time></trkpt>
<trkpt lat="44.3307820" lon="-73.9052620"><ele></ele><time>2024-9-14T11:6:53Z</time></trkpt>
<trkpt lat="44.3307320" lon="-73.9053090"><ele></ele><time>2024-9-14T11:6:56Z</time></trkpt>
<trkpt lat="44.3306820" lon="-73.9053570"><ele></ele><time>2024-9-14T11:6:59Z</time></trkpt>
<trkpt lat="44.3305830" lon="-73.9054570"><ele></ele><time>2024-9-14T11:7:2Z</time></trkpt>
<trkpt lat="44.3301270" lon="-73.9059090"><ele></ele><time>2024-9-14T11:7:5Z</time></trkpt>
<trkpt lat="44.3296910" lon="-73.9063490"><ele></ele><time>2024-9-14T11:7:8Z</time></trkpt>
<trkpt lat="44.3292140" lon="-73.9068330"><ele></ele><time>2024-9-14T11:7:11Z</time></trkpt>
<trkpt lat="44.3291640" lon="-73.9068830"><ele></ele><time>2024-9-14T11:7:14Z</time></trkpt>
<trkpt lat="44.3287130" lon="-73.9073530"><ele></ele><time>2024-9-14T11:7:17Z</time></trkpt>
<trkpt lat="44.3286700" lon="-73.9074110"><ele></ele><time>2024-9-14T11:7:20Z</time></trkpt>
<trkpt lat="44.3286300" lon="-73.9074760"><ele></ele><time>2024-9-14T11:7:23Z</time></trkpt>
<trkpt lat="44.3284550" lon="-73.9078190"><ele></ele><time>2024-9-14T11:7:26Z</time></trkpt>
<trkpt lat="44.3282210" lon="-73.9082920"><ele></ele><time>2024-9-14T11:7:29Z</time></trkpt>
<trkpt lat="44.3279750" lon="-73.9087460"><ele></ele><time>2024-9-14T11:7:32Z</time></trkpt>
<trkpt lat="44.3279460" lon="-73.9087960"><ele></ele><time>2024-9-14T11:7:35Z</time></trkpt>
<trkpt lat="44.3279200" lon="-73.9088460"><ele></ele><time>2024-9-14T11:7:38Z</time></trkpt>
<trkpt lat="44.3278950" lon="-73.9088940"><ele></ele><time>2024-9-14T11:7:41Z</time></trkpt>
<trkpt lat="44.3278690" lon="-73.9089390"><ele></ele><time>2024-9-14T11:7:44Z</time></trkpt>
<trkpt lat="44.3278460" lon="-73.9089840"><ele></ele><time>2024-9-14T11:7:47Z</time></trkpt>
<trkpt lat="44.3278220" lon="-73.9090290"><ele></ele><time>2024-9-14T11:7:50Z</time></trkpt>
<trkpt lat="44.3276760" lon="-73.9092770"><ele></ele><time>2024-9-14T11:7:53Z</time></trkpt>
<trkpt lat="44.3276530" lon="-73.9093210"><ele></ele><time>2024-9-14T11:7:56Z</time></trkpt>
<trkpt lat="44.3276310" lon="-73.9093630"><ele></ele><time>2024-9-14T11:7:59Z</time></trkpt>
<trkpt lat="44.3276130" lon="-73.9094010"><ele></ele><time>2024-9-14T11:8:2Z</time></trkpt>
<trkpt lat="44.3275910" lon="-73.9094390"><ele></ele><time>2024-9-14T11:8:5Z</time></trkpt>
<trkpt lat="44.3275180" lon="-73.9095510"><ele></ele><time>2024-9-14T11:8:8Z</time></trkpt>
<trkpt lat="44.3274920" lon="-73.9095890"><ele></ele><time>2024-9-14T11:8:11Z</time></trkpt>
<trkpt lat="44.3274660" lon="-73.9096230"><ele></ele><time>2024-9-14T11:8:14Z</time></trkpt>
<trkpt lat="44.3274410" lon="-73.9096570"><ele></ele><time>2024-9-14T11:8:17Z</time></trkpt>
<trkpt lat="44.3274170" lon="-73.9096920"><ele></ele><time>2024-9-14T11:8:20Z</time></trkpt>
<trkpt lat="44.3273930" lon="-73.9097280"><ele></ele><time>2024-9-14T11:8:23Z</time></trkpt>
<trkpt lat="44.3273420" lon="-73.9097930"><ele></ele><time>2024-9-14T11:8:26Z</time></trkpt>
<trkpt lat="44.3271670" lon="-73.9100060"><ele></ele><time>2024-9-14T11:8:29Z</time></trkpt>
<trkpt lat="44.3271370" lon="-73.9100410"><ele></ele><time>2024-9-14T11:8:32Z</time></trkpt>
<trkpt lat="44.3271060" lon="-73.9100770"><ele></ele><time>2024-9-14T11:8:35Z</time></trkpt>
<trkpt lat="44.3270710" lon="-73.9101140"><ele></ele><time>2024-9-14T11:8:38Z</time></trkpt>
<trkpt lat="44.3270370" lon="-73.9101470"><ele></ele><time>2024-9-14T11:8:41Z</time></trkpt>
<trkpt lat="44.3268640" lon="-73.9103110"><ele></ele><time>2024-9-14T11:8:44Z</time></trkpt>
<trkpt lat="44.3265960" lon="-73.9105140"><ele></ele><time>2024-9-14T11:8:47Z</time></trkpt>
<trkpt lat="44.3264850" lon="-73.9105860"><ele></ele><time>2024-9-14T11:8:50Z</time></trkpt>
<trkpt lat="44.3263780" lon="-73.9106500"><ele></ele><time>2024-9-14T11:8:53Z</time></trkpt>
<trkpt lat="44.3261900" lon="-73.9107680"><ele></ele><time>2024-9-14T11:8:56Z</time></trkpt>
<trkpt lat="44.3260870" lon="-73.9108320"><ele></ele><time>2024-9-14T11:8:59Z</time></trkpt>
<trkpt lat="44.3260530" lon="-73.9108540"><ele></ele><time>2024-9-14T11:9:2Z</time></trkpt>
<trkpt lat="44.3257810" lon="-73.9110150"><ele></ele><time>2024-9-14T11:9:5Z</time></trkpt>
<trkpt lat="44.3255620" lon="-73.9111380"><ele></ele><time>2024-9-14T11:9:8Z</time></trkpt>
<trkpt lat="44.3254150" lon="-73.9112310"><ele></ele><time>2024-9-14T11:9:11Z</time></trkpt>
<trkpt lat="44.3250360" lon="-73.9114620"><ele></ele><time>2024-9-14T11:9:14Z</time></trkpt>
<trkpt lat="44.3249260" lon="-73.9115290"><ele></ele><time>2024-9-14T11:9:17Z</time></trkpt>
<trkpt lat="44.3247660" lon="-73.9116180"><ele></ele><time>2024-9-14T11:9:20Z</time></trkpt>
<trkpt lat="44.3245510" lon="-73.9117520"><ele></ele><time>2024-9-14T11:9:23Z</time></trkpt>
<trkpt lat="44.3244450" lon="-73.9118160"><ele></ele><time>2024-9-14T11:9:26Z</time></trkpt>
<trkpt lat="44.3241320" lon="-73.9119910"><ele></ele><time>2024-9-14T11:9:29Z</time></trkpt>
<trkpt lat="44.3239420" lon="-73.9120920"><ele></ele><time>2024-9-14T11:9:32Z</time></trkpt>
<trkpt lat="44.3238660" lon="-73.9121410"><ele></ele><time>2024-9-14T11:9:35Z</time></trkpt>
<trkpt lat="44.3238290" lon="-73.9121640"><ele></ele><time>2024-9-14T11:9:38Z</time></trkpt>
<trkpt lat="44.3238290" lon="-73.9121640"><ele></ele><time>2024-9-14T11:9:41Z</time></trkpt>
<trkpt lat="44.3238260" lon="-73.9121630"><ele></ele><time>2024-9-14T11:9:44Z</time></trkpt>
<trkpt lat="44.3238290" lon="-73.9121640"><ele></ele><time>2024-9-14T11:9:47Z</time></trkpt>
<trkpt lat="44.3238220" lon="-73.9121640"><ele></ele><time>2024-9-14T11:9:50Z</time></trkpt>
<trkpt lat="44.3238060" lon="-73.9121720"><ele></ele><time>2024-9-14T11:9:53Z</time></trkpt>
<trkpt lat="44.3236970" lon="-73.9122250"><ele></ele><time>2024-9-14T11:9:56Z</time></trkpt>
<trkpt lat="44.3235950" lon="-73.9122760"><ele></ele><time>2024-9-14T11:9:59Z</time></trkpt>
<trkpt lat="44.3234140" lon="-73.9123520"><ele></ele><time>2024-9-14T11:10:2Z</time></trkpt>
<trkpt lat="44.3229440" lon="-73.9125240"><ele></ele><time>2024-9-14T11:10:5Z</time></trkpt>
<trkpt lat="44.3228770" lon="-73.9125450"><ele></ele><time>2024-9-14T11:10:8Z</time></trkpt>
<trkpt lat="44.3228120" lon="-73.9125610"><ele></ele><time>2024-9-14T11:10:11Z</time></trkpt>
<trkpt lat="44.3227490" lon="-73.9125770"><ele></ele><time>2024-9-14T11:10:14Z</time></trkpt>
<trkpt lat="44.3226850" lon="-73.9125940"><ele></ele><time>2024-9-14T11:10:17Z</time></trkpt>
<trkpt lat="44.3226250" lon="-73.9126120"><ele></ele><time>2024-9-14T11:10:20Z</time></trkpt>
<trkpt lat="44.3224400" lon="-73.9126740"><ele></ele><time>2024-9-14T11:10:23Z</time></trkpt>
<trkpt lat="44.3222570" lon="-73.9127310"><ele></ele><time>2024-9-14T11:10:26Z</time></trkpt>
<trkpt lat="44.3220820" lon="-73.9128030"><ele></ele><time>2024-9-14T11:10:29Z</time></trkpt>
<trkpt lat="44.3220240" lon="-73.9128250"><ele></ele><time>2024-9-14T11:10:32Z</time></trkpt>
<trkpt lat="44.3218570" lon="-73.9129130"><ele></ele><time>2024-9-14T11:10:35Z</time></trkpt>
<trkpt lat="44.3218040" lon="-73.9129470"><ele></ele><time>2024-9-14T11:10:38Z</time></trkpt>
<trkpt lat="44.3217520" lon="-73.9129860"><ele></ele><time>2024-9-14T11:10:41Z</time></trkpt>
<trkpt lat="44.3217030" lon="-73.9130220"><ele></ele><time>2024-9-14T11:10:44Z</time></trkpt>
<trkpt lat="44.3216540" lon="-73.9130610"><ele></ele><time>2024-9-14T11:10:47Z</time></trkpt>
<trkpt lat="44.3215580" lon="-73.9131430"><ele></ele><time>2024-9-14T11:10:50Z</time></trkpt>
<trkpt lat="44.3214280" lon="-73.9132640"><ele></ele><time>2024-9-14T11:10:53Z</time></trkpt>
<trkpt lat="44.3213890" lon="-73.9133070"><ele></ele><time>2024-9-14T11:10:56Z</time></trkpt>
<trkpt lat="44.3212360" lon="-73.9134820"><ele></ele><time>2024-9-14T11:10:59Z</time></trkpt>
<trkpt lat="44.3211990" lon="-73.9135250"><ele></ele><time>2024-9-14T11:11:2Z</time></trkpt>
<trkpt lat="44.3211640" lon="-73.9135660"><ele></ele><time>2024-9-14T11:11:5Z</time></trkpt>
<trkpt lat="44.3211280" lon="-73.9136070"><ele></ele><time>2024-9-14T11:11:8Z</time></trkpt>
<trkpt lat="44.3210960" lon="-73.9136480"><ele></ele><time>2024-9-14T11:11:11Z</time></trkpt>
<trkpt lat="44.3209390" lon="-73.9138440"><ele></ele><time>2024-9-14T11:11:14Z</time></trkpt>
<trkpt lat="44.3209080" lon="-73.9138780"><ele></ele><time>2024-9-14T11:11:17Z</time></trkpt>
<trkpt lat="44.3207830" lon="-73.9140410"><ele></ele><time>2024-9-14T11:11:20Z</time></trkpt>
<trkpt lat="44.3206220" lon="-73.9142300"><ele></ele><time>2024-9-14T11:11:23Z</time></trkpt>
<trkpt lat="44.3205830" lon="-73.9142740"><ele></ele><time>2024-9-14T11:11:26Z</time></trkpt>
<trkpt lat="44.3205450" lon="-73.9143160"><ele></ele><time>2024-9-14T11:11:29Z</time></trkpt>
<trkpt lat="44.3205080" lon="-73.9143610"><ele></ele><time>2024-9-14T11:11:32Z</time></trkpt>
<trkpt lat="44.3204680" lon="-73.9144020"><ele></ele><time>2024-9-14T11:11:35Z</time></trkpt>
<trkpt lat="44.3202950" lon="-73.9145690"><ele></ele><time>2024-9-14T11:11:38Z</time></trkpt>
<trkpt lat="44.3199660" lon="-73.9148090"><ele></ele><time>2024-9-14T11:11:41Z</time></trkpt>
<trkpt lat="44.3198980" lon="-73.9148410"><ele></ele><time>2024-9-14T11:11:44Z</time></trkpt>
<trkpt lat="44.3196050" lon="-73.9149730"><ele></ele><time>2024-9-14T11:11:47Z</time></trkpt>
<trkpt lat="44.3192460" lon="-73.9151030"><ele></ele><time>2024-9-14T11:11:50Z</time></trkpt>
<trkpt lat="44.3190410" lon="-73.9151740"><ele></ele><time>2024-9-14T11:11:53Z</time></trkpt>
<trkpt lat="44.3188500" lon="-73.9152360"><ele></ele><time>2024-9-14T11:11:56Z</time></trkpt>
<trkpt lat="44.3187850" lon="-73.9152570"><ele></ele><time>2024-9-14T11:11:59Z</time></trkpt>
<trkpt lat="44.3187240" lon="-73.9152740"><ele></ele><time>2024-9-14T11:12:2Z</time></trkpt>
<trkpt lat="44.3186620" lon="-73.9152970"><ele></ele><time>2024-9-14T11:12:5Z</time></trkpt>
<trkpt lat="44.3185390" lon="-73.9153400"><ele></ele><time>2024-9-14T11:12:8Z</time></trkpt>
<trkpt lat="44.3182250" lon="-73.9154530"><ele></ele><time>2024-9-14T11:12:11Z</time></trkpt>
<trkpt lat="44.3180450" lon="-73.9155140"><ele></ele><time>2024-9-14T11:12:14Z</time></trkpt>
<trkpt lat="44.3175410" lon="-73.9156800"><ele></ele><time>2024-9-14T11:12:17Z</time></trkpt>
<trkpt lat="44.3172200" lon="-73.9157610"><ele></ele><time>2024-9-14T11:12:20Z</time></trkpt>
<trkpt lat="44.3167600" lon="-73.9157590"><ele></ele><time>2024-9-14T11:12:23Z</time></trkpt>
<trkpt lat="44.3163160" lon="-73.9156410"><ele></ele><time>2024-9-14T11:12:26Z</time></trkpt>
<trkpt lat="44.3157830" lon="-73.9153530"><ele></ele><time>2024-9-14T11:12:29Z</time></trkpt>
<trkpt lat="44.3152360" lon="-73.9150860"><ele></ele><time>2024-9-14T11:12:32Z</time></trkpt>
<trkpt lat="44.3148270" lon="-73.9149940"><ele></ele><time>2024-9-14T11:12:35Z</time></trkpt>
<trkpt lat="44.3143570" lon="-73.9149260"><ele></ele><time>2024-9-14T11:12:38Z</time></trkpt>
<trkpt lat="44.3140760" lon="-73.9148760"><ele></ele><time>2024-9-14T11:12:41Z</time></trkpt>
<trkpt lat="44.3140200" lon="-73.9148660"><ele></ele><time>2024-9-14T11:12:44Z</time></trkpt>
<trkpt lat="44.3139660" lon="-73.9148520"><ele></ele><time>2024-9-14T11:12:47Z</time></trkpt>
<trkpt lat="44.3139110" lon="-73.9148430"><ele></ele><time>2024-9-14T11:12:50Z</time></trkpt>
<trkpt lat="44.3138530" lon="-73.9148270"><ele></ele><time>2024-9-14T11:12:53Z</time></trkpt>
<trkpt lat="44.3136880" lon="-73.9147690"><ele></ele><time>2024-9-14T11:12:56Z</time></trkpt>
<trkpt lat="44.3131650" lon="-73.9145730"><ele></ele><time>2024-9-14T11:12:59Z</time></trkpt>
<trkpt lat="44.3126830" lon="-73.9145010"><ele></ele><time>2024-9-14T11:13:2Z</time></trkpt>
<trkpt lat="44.3122940" lon="-73.9145540"><ele></ele><time>2024-9-14T11:13:5Z</time></trkpt>
<trkpt lat="44.3118540" lon="-73.9147440"><ele></ele><time>2024-9-14T11:13:8Z</time></trkpt>
<trkpt lat="44.3114480" lon="-73.9149770"><ele></ele><time>2024-9-14T11:13:11Z</time></trkpt>
<trkpt lat="44.3111000" lon="-73.9151760"><ele></ele><time>2024-9-14T11:13:14Z</time></trkpt>
<trkpt lat="44.3110520" lon="-73.9152050"><ele></ele><time>2024-9-14T11:13:17Z</time></trkpt>
<trkpt lat="44.3110020" lon="-73.9152340"><ele></ele><time>2024-9-14T11:13:20Z</time></trkpt>
<trkpt lat="44.3109550" lon="-73.9152610"><ele></ele><time>2024-9-14T11:13:23Z</time></trkpt>
<trkpt lat="44.3109080" lon="-73.9152860"><ele></ele><time>2024-9-14T11:13:26Z</time></trkpt>
<trkpt lat="44.3107120" lon="-73.9153870"><ele></ele><time>2024-9-14T11:13:29Z</time></trkpt>
<trkpt lat="44.3104640" lon="-73.9155090"><ele></ele><time>2024-9-14T11:13:32Z</time></trkpt>
<trkpt lat="44.3104180" lon="-73.9155240"><ele></ele><time>2024-9-14T11:13:35Z</time></trkpt>
<trkpt lat="44.3103670" lon="-73.9155390"><ele></ele><time>2024-9-14T11:13:38Z</time></trkpt>
<trkpt lat="44.3103160" lon="-73.9155520"><ele></ele><time>2024-9-14T11:13:41Z</time></trkpt>
<trkpt lat="44.3102660" lon="-73.9155650"><ele></ele><time>2024-9-14T11:13:44Z</time></trkpt>
<trkpt lat="44.3100600" lon="-73.9156090"><ele></ele><time>2024-9-14T11:13:47Z</time></trkpt>
<trkpt lat="44.3096680" lon="-73.9156050"><ele></ele><time>2024-9-14T11:13:50Z</time></trkpt>
<trkpt lat="44.3091020" lon="-73.9155300"><ele></ele><time>2024-9-14T11:13:53Z</time></trkpt>
<trkpt lat="44.3085180" lon="-73.9154310"><ele></ele><time>2024-9-14T11:13:56Z</time></trkpt>
<trkpt lat="44.3084570" lon="-73.9154220"><ele></ele><time>2024-9-14T11:13:59Z</time></trkpt>
<trkpt lat="44.3079760" lon="-73.9153730"><ele></ele><time>2024-9-14T11:14:2Z</time></trkpt>
<trkpt lat="44.3075510" lon="-73.9154430"><ele></ele><time>2024-9-14T11:14:5Z</time></trkpt>
<trkpt lat="44.3073860" lon="-73.9155380"><ele></ele><time>2024-9-14T11:14:8Z</time></trkpt>
<trkpt lat="44.3072770" lon="-73.9156240"><ele></ele><time>2024-9-14T11:14:11Z</time></trkpt>
<trkpt lat="44.3069880" lon="-73.9159560"><ele></ele><time>2024-9-14T11:14:14Z</time></trkpt>
<trkpt lat="44.3066800" lon="-73.9163880"><ele></ele><time>2024-9-14T11:14:17Z</time></trkpt>
<trkpt lat="44.3066290" lon="-73.9164430"><ele></ele><time>2024-9-14T11:14:20Z</time></trkpt>
<trkpt lat="44.3063300" lon="-73.9167500"><ele></ele><time>2024-9-14T11:14:23Z</time></trkpt>
<trkpt lat="44.3059060" lon="-73.9171030"><ele></ele><time>2024-9-14T11:14:26Z</time></trkpt>
<trkpt lat="44.3058510" lon="-73.9171480"><ele></ele><time>2024-9-14T11:14:29Z</time></trkpt>
<trkpt lat="44.3057980" lon="-73.9171940"><ele></ele><time>2024-9-14T11:14:32Z</time></trkpt>
<trkpt lat="44.3057450" lon="-73.9172460"><ele></ele><time>2024-9-14T11:14:35Z</time></trkpt>
<trkpt lat="44.3056940" lon="-73.9172880"><ele></ele><time>2024-9-14T11:14:38Z</time></trkpt>
<trkpt lat="44.3056460" lon="-73.9173400"><ele></ele><time>2024-9-14T11:14:41Z</time></trkpt>
<trkpt lat="44.3055990" lon="-73.9173940"><ele></ele><time>2024-9-14T11:14:44Z</time></trkpt>
<trkpt lat="44.3055530" lon="-73.9174560"><ele></ele><time>2024-9-14T11:14:47Z</time></trkpt>
<trkpt lat="44.3055070" lon="-73.9175170"><ele></ele><time>2024-9-14T11:14:50Z</time></trkpt>
<trkpt lat="44.3054650" lon="-73.9175790"><ele></ele><time>2024-9-14T11:14:53Z</time></trkpt>
<trkpt lat="44.3054220" lon="-73.9176450"><ele></ele><time>2024-9-14T11:14:56Z</time></trkpt>
<trkpt lat="44.3053440" lon="-73.9177850"><ele></ele><time>2024-9-14T11:14:59Z</time></trkpt>
<trkpt lat="44.3051070" lon="-73.9182840"><ele></ele><time>2024-9-14T11:15:2Z</time></trkpt>
<trkpt lat="44.3048800" lon="-73.9187670"><ele></ele><time>2024-9-14T11:15:5Z</time></trkpt>
<trkpt lat="44.3046330" lon="-73.9192360"><ele></ele><time>2024-9-14T11:15:8Z</time></trkpt>
<trkpt lat="44.3043100" lon="-73.9197300"><ele></ele><time>2024-9-14T11:15:11Z</time></trkpt>
<trkpt lat="44.3040450" lon="-73.9200800"><ele></ele><time>2024-9-14T11:15:14Z</time></trkpt>
<trkpt lat="44.3036820" lon="-73.9205530"><ele></ele><time>2024-9-14T11:15:17Z</time></trkpt>
<trkpt lat="44.3034180" lon="-73.9209480"><ele></ele><time>2024-9-14T11:15:20Z</time></trkpt>
<trkpt lat="44.3032940" lon="-73.9211510"><ele></ele><time>2024-9-14T11:15:23Z</time></trkpt>
<trkpt lat="44.3032650" lon="-73.9212000"><ele></ele><time>2024-9-14T11:15:26Z</time></trkpt>
<trkpt lat="44.3032430" lon="-73.9212520"><ele></ele><time>2024-9-14T11:15:29Z</time></trkpt>
<trkpt lat="44.3032190" lon="-73.9213000"><ele></ele><time>2024-9-14T11:15:32Z</time></trkpt>
<trkpt lat="44.3031410" lon="-73.9214320"><ele></ele><time>2024-9-14T11:15:35Z</time></trkpt>
<trkpt lat="44.3030700" lon="-73.9215620"><ele></ele><time>2024-9-14T11:15:38Z</time></trkpt>
<trkpt lat="44.3030500" lon="-73.9216060"><ele></ele><time>2024-9-14T11:15:41Z</time></trkpt>
<trkpt lat="44.3030290" lon="-73.9216460"><ele></ele><time>2024-9-14T11:15:44Z</time></trkpt>
<trkpt lat="44.3030100" lon="-73.9216910"><ele></ele><time>2024-9-14T11:15:47Z</time></trkpt>
<trkpt lat="44.3029860" lon="-73.9217310"><ele></ele><time>2024-9-14T11:15:50Z</time></trkpt>
<trkpt lat="44.3029640" lon="-73.9217730"><ele></ele><time>2024-9-14T11:15:53Z</time></trkpt>
<trkpt lat="44.3029420" lon="-73.9218120"><ele></ele><time>2024-9-14T11:15:56Z</time></trkpt>
<trkpt lat="44.3028000" lon="-73.9220590"><ele></ele><time>2024-9-14T11:15:59Z</time></trkpt>
<trkpt lat="44.3027760" lon="-73.9221010"><ele></ele><time>2024-9-14T11:16:2Z</time></trkpt>
<trkpt lat="44.3027540" lon="-73.9221450"><ele></ele><time>2024-9-14T11:16:5Z</time></trkpt>
<trkpt lat="44.3027270" lon="-73.9221890"><ele></ele><time>2024-9-14T11:16:8Z</time></trkpt>
<trkpt lat="44.3027010" lon="-73.9222370"><ele></ele><time>2024-9-14T11:16:11Z</time></trkpt>
<trkpt lat="44.3026560" lon="-73.9223330"><ele></ele><time>2024-9-14T11:16:14Z</time></trkpt>
<trkpt lat="44.3026350" lon="-73.9223810"><ele></ele><time>2024-9-14T11:16:17Z</time></trkpt>
<trkpt lat="44.3025050" lon="-73.9226190"><ele></ele><time>2024-9-14T11:16:20Z</time></trkpt>
<trkpt lat="44.3024800" lon="-73.9226730"><ele></ele><time>2024-9-14T11:16:23Z</time></trkpt>
<trkpt lat="44.3023500" lon="-73.9229430"><ele></ele><time>2024-9-14T11:16:26Z</time></trkpt>
<trkpt lat="44.3023140" lon="-73.9229930"><ele></ele><time>2024-9-14T11:16:29Z</time></trkpt>
<trkpt lat="44.3022160" lon="-73.9231880"><ele></ele><time>2024-9-14T11:16:32Z</time></trkpt>
<trkpt lat="44.3020800" lon="-73.9236430"><ele></ele><time>2024-9-14T11:16:35Z</time></trkpt>
<trkpt lat="44.3019560" lon="-73.9240590"><ele></ele><time>2024-9-14T11:16:38Z</time></trkpt>
<trkpt lat="44.3018910" lon="-73.9242820"><ele></ele><time>2024-9-14T11:16:41Z</time></trkpt>
<trkpt lat="44.3018640" lon="-73.9243950"><ele></ele><time>2024-9-14T11:16:44Z</time></trkpt>
<trkpt lat="44.3018340" lon="-73.9244990"><ele></ele><time>2024-9-14T11:16:47Z</time></trkpt>
<trkpt lat="44.3018060" lon="-73.9245980"><ele></ele><time>2024-9-14T11:16:50Z</time></trkpt>
<trkpt lat="44.3017780" lon="-73.9246930"><ele></ele><time>2024-9-14T11:16:53Z</time></trkpt>
<trkpt lat="44.3017510" lon="-73.9247890"><ele></ele><time>2024-9-14T11:16:56Z</time></trkpt>
<trkpt lat="44.3017240" lon="-73.9248800"><ele></ele><time>2024-9-14T11:16:59Z</time></trkpt>
<trkpt lat="44.3015690" lon="-73.9254160"><ele></ele><time>2024-9-14T11:17:2Z</time></trkpt>
<trkpt lat="44.3014710" lon="-73.9257740"><ele></ele><time>2024-9-14T11:17:5Z</time></trkpt>
<trkpt lat="44.3013850" lon="-73.9260190"><ele></ele><time>2024-9-14T11:17:8Z</time></trkpt>
<trkpt lat="44.3010870" lon="-73.9266970"><ele></ele><time>2024-9-14T11:17:11Z</time></trkpt>
<trkpt lat="44.3007700" lon="-73.9272190"><ele></ele><time>2024-9-14T11:17:14Z</time></trkpt>
<trkpt lat="44.3005100" lon="-73.9277070"><ele></ele><time>2024-9-14T11:17:17Z</time></trkpt>
<trkpt lat="44.3004440" lon="-73.9278360"><ele></ele><time>2024-9-14T11:17:20Z</time></trkpt>
<trkpt lat="44.3003750" lon="-73.9279460"><ele></ele><time>2024-9-14T11:17:23Z</time></trkpt>
<trkpt lat="44.3003280" lon="-73.9279840"><ele></ele><time>2024-9-14T11:17:26Z</time></trkpt>
<trkpt lat="44.3002450" lon="-73.9280740"><ele></ele><time>2024-9-14T11:17:29Z</time></trkpt>
<trkpt lat="44.3001700" lon="-73.9282990"><ele></ele><time>2024-9-14T11:17:32Z</time></trkpt>
<trkpt lat="44.3000560" lon="-73.9287010"><ele></ele><time>2024-9-14T11:17:35Z</time></trkpt>
<trkpt lat="44.3000150" lon="-73.9287690"><ele></ele><time>2024-9-14T11:17:38Z</time></trkpt>
<trkpt lat="44.2998640" lon="-73.9289110"><ele></ele><time>2024-9-14T11:17:41Z</time></trkpt>
<trkpt lat="44.2998170" lon="-73.9289580"><ele></ele><time>2024-9-14T11:17:44Z</time></trkpt>
<trkpt lat="44.2995300" lon="-73.9293110"><ele></ele><time>2024-9-14T11:17:47Z</time></trkpt>
<trkpt lat="44.2992340" lon="-73.9297620"><ele></ele><time>2024-9-14T11:17:50Z</time></trkpt>
<trkpt lat="44.2991630" lon="-73.9298580"><ele></ele><time>2024-9-14T11:17:53Z</time></trkpt>
<trkpt lat="44.2990700" lon="-73.9299920"><ele></ele><time>2024-9-14T11:17:56Z</time></trkpt>
<trkpt lat="44.2990360" lon="-73.9300240"><ele></ele><time>2024-9-14T11:17:59Z</time></trkpt>
<trkpt lat="44.2990060" lon="-73.9300600"><ele></ele><time>2024-9-14T11:18:2Z</time></trkpt>
<trkpt lat="44.2989710" lon="-73.9301000"><ele></ele><time>2024-9-14T11:18:5Z</time></trkpt>
<trkpt lat="44.2989330" lon="-73.9301380"><ele></ele><time>2024-9-14T11:18:8Z</time></trkpt>
<trkpt lat="44.2989050" lon="-73.9301740"><ele></ele><time>2024-9-14T11:18:11Z</time></trkpt>
<trkpt lat="44.2988690" lon="-73.9302130"><ele></ele><time>2024-9-14T11:18:14Z</time></trkpt>
<trkpt lat="44.2986380" lon="-73.9304820"><ele></ele><time>2024-9-14T11:18:17Z</time></trkpt>
<trkpt lat="44.2983570" lon="-73.9308370"><ele></ele><time>2024-9-14T11:18:20Z</time></trkpt>
<trkpt lat="44.2983000" lon="-73.9309090"><ele></ele><time>2024-9-14T11:18:23Z</time></trkpt>
<trkpt lat="44.2981850" lon="-73.9310520"><ele></ele><time>2024-9-14T11:18:26Z</time></trkpt>
<trkpt lat="44.2980030" lon="-73.9312540"><ele></ele><time>2024-9-14T11:18:29Z</time></trkpt>
<trkpt lat="44.2979470" lon="-73.9313200"><ele></ele><time>2024-9-14T11:18:32Z</time></trkpt>
<trkpt lat="44.2978900" lon="-73.9313860"><ele></ele><time>2024-9-14T11:18:35Z</time></trkpt>
<trkpt lat="44.2978300" lon="-73.9314440"><ele></ele><time>2024-9-14T11:18:38Z</time></trkpt>
<trkpt lat="44.2977710" lon="-73.9315040"><ele></ele><time>2024-9-14T11:18:41Z</time></trkpt>
<trkpt lat="44.2975170" lon="-73.9317190"><ele></ele><time>2024-9-14T11:18:44Z</time></trkpt>
<trkpt lat="44.2973860" lon="-73.9318210"><ele></ele><time>2024-9-14T11:18:47Z</time></trkpt>
<trkpt lat="44.2972580" lon="-73.9319190"><ele></ele><time>2024-9-14T11:18:50Z</time></trkpt>
<trkpt lat="44.2970660" lon="-73.9320670"><ele></ele><time>2024-9-14T11:18:53Z</time></trkpt>
<trkpt lat="44.2969370" lon="-73.9321360"><ele></ele><time>2024-9-14T11:18:56Z</time></trkpt>
<trkpt lat="44.2967170" lon="-73.9321990"><ele></ele><time>2024-9-14T11:18:59Z</time></trkpt>
<trkpt lat="44.2966390" lon="-73.9322030"><ele></ele><time>2024-9-14T11:19:2Z</time></trkpt>
<trkpt lat="44.2964240" lon="-73.9321860"><ele></ele><time>2024-9-14T11:19:5Z</time></trkpt>
<trkpt lat="44.2959510" lon="-73.9321160"><ele></ele><time>2024-9-14T11:19:8Z</time></trkpt>
<trkpt lat="44.2956830" lon="-73.9320890"><ele></ele><time>2024-9-14T11:19:11Z</time></trkpt>
<trkpt lat="44.2954220" lon="-73.9320840"><ele></ele><time>2024-9-14T11:19:14Z</time></trkpt>
<trkpt lat="44.2952190" lon="-73.9320840"><ele></ele><time>2024-9-14T11:19:17Z</time></trkpt>
<trkpt lat="44.2951530" lon="-73.9320880"><ele></ele><time>2024-9-14T11:19:20Z</time></trkpt>
<trkpt lat="44.2950900" lon="-73.9320910"><ele></ele><time>2024-9-14T11:19:23Z</time></trkpt>
<trkpt lat="44.2950250" lon="-73.9320990"><ele></ele><time>2024-9-14T11:19:26Z</time></trkpt>
<trkpt lat="44.2949610" lon="-73.9321060"><ele></ele><time>2024-9-14T11:19:29Z</time></trkpt>
<trkpt lat="44.2948980" lon="-73.9321120"><ele></ele><time>2024-9-14T11:19:32Z</time></trkpt>
<trkpt lat="44.2946400" lon="-73.9321360"><ele></ele><time>2024-9-14T11:19:35Z</time></trkpt>
<trkpt lat="44.2943890" lon="-73.9321960"><ele></ele><time>2024-9-14T11:19:38Z</time></trkpt>
<trkpt lat="44.2940890" lon="-73.9323670"><ele></ele><time>2024-9-14T11:19:41Z</time></trkpt>
<trkpt lat="44.2938000" lon="-73.9326830"><ele></ele><time>2024-9-14T11:19:44Z</time></trkpt>
<trkpt lat="44.2937100" lon="-73.9327990"><ele></ele><time>2024-9-14T11:19:47Z</time></trkpt>
<trkpt lat="44.2936640" lon="-73.9328550"><ele></ele><time>2024-9-14T11:19:50Z</time></trkpt>
<trkpt lat="44.2936210" lon="-73.9329130"><ele></ele><time>2024-9-14T11:19:53Z</time></trkpt>
<trkpt lat="44.2935770" lon="-73.9329670"><ele></ele><time>2024-9-14T11:19:56Z</time></trkpt>
<trkpt lat="44.2935330" lon="-73.9330220"><ele></ele><time>2024-9-14T11:19:59Z</time></trkpt>
<trkpt lat="44.2933990" lon="-73.9331910"><ele></ele><time>2024-9-14T11:20:2Z</time></trkpt>
<trkpt lat="44.2933650" lon="-73.9332330"><ele></ele><time>2024-9-14T11:20:5Z</time></trkpt>
<trkpt lat="44.2933240" lon="-73.9332770"><ele></ele><time>2024-9-14T11:20:8Z</time></trkpt>
<trkpt lat="44.2932810" lon="-73.9333220"><ele></ele><time>2024-9-14T11:20:11Z</time></trkpt>
<trkpt lat="44.2932440" lon="-73.9333660"><ele></ele><time>2024-9-14T11:20:14Z</time></trkpt>
<trkpt lat="44.2932080" lon="-73.9334120"><ele></ele><time>2024-9-14T11:20:17Z</time></trkpt>
<trkpt lat="44.2931720" lon="-73.9334600"><ele></ele><time>2024-9-14T11:20:20Z</time></trkpt>
<trkpt lat="44.2931330" lon="-73.9335100"><ele></ele><time>2024-9-14T11:20:23Z</time></trkpt>
<trkpt lat="44.2930920" lon="-73.9335610"><ele></ele><time>2024-9-14T11:20:26Z</time></trkpt>
<trkpt lat="44.2930480" lon="-73.9336140"><ele></ele><time>2024-9-14T11:20:29Z</time></trkpt>
<trkpt lat="44.2927830" lon="-73.9339170"><ele></ele><time>2024-9-14T11:20:32Z</time></trkpt>
<trkpt lat="44.2924740" lon="-73.9341480"><ele></ele><time>2024-9-14T11:20:35Z</time></trkpt>
<trkpt lat="44.2923040" lon="-73.9342150"><ele></ele><time>2024-9-14T11:20:38Z</time></trkpt>
<trkpt lat="44.2922460" lon="-73.9342250"><ele></ele><time>2024-9-14T11:20:41Z</time></trkpt>
<trkpt lat="44.2921830" lon="-73.9342300"><ele></ele><time>2024-9-14T11:20:44Z</time></trkpt>
<trkpt lat="44.2918410" lon="-73.9342750"><ele></ele><time>2024-9-14T11:20:47Z</time></trkpt>
<trkpt lat="44.2914880" lon="-73.9343040"><ele></ele><time>2024-9-14T11:20:50Z</time></trkpt>
<trkpt lat="44.2914180" lon="-73.9343100"><ele></ele><time>2024-9-14T11:20:53Z</time></trkpt>
<trkpt lat="44.2913490" lon="-73.9343110"><ele></ele><time>2024-9-14T11:20:56Z</time></trkpt>
<trkpt lat="44.2912800" lon="-73.9343150"><ele></ele><time>2024-9-14T11:20:59Z</time></trkpt>
<trkpt lat="44.2910780" lon="-73.9343070"><ele></ele><time>2024-9-14T11:21:2Z</time></trkpt>
<trkpt lat="44.2910140" lon="-73.9342900"><ele></ele><time>2024-9-14T11:21:5Z</time></trkpt>
<trkpt lat="44.2907750" lon="-73.9341580"><ele></ele><time>2024-9-14T11:21:8Z</time></trkpt>
<trkpt lat="44.2906730" lon="-73.9340620"><ele></ele><time>2024-9-14T11:21:11Z</time></trkpt>
<trkpt lat="44.2904800" lon="-73.9338970"><ele></ele><time>2024-9-14T11:21:14Z</time></trkpt>
<trkpt lat="44.2901760" lon="-73.9337030"><ele></ele><time>2024-9-14T11:21:17Z</time></trkpt>
<trkpt lat="44.2901080" lon="-73.9336770"><ele></ele><time>2024-9-14T11:21:20Z</time></trkpt>
<trkpt lat="44.2898370" lon="-73.9336150"><ele></ele><time>2024-9-14T11:21:23Z</time></trkpt>
<trkpt lat="44.2897080" lon="-73.9335870"><ele></ele><time>2024-9-14T11:21:26Z</time></trkpt>
<trkpt lat="44.2894610" lon="-73.9334760"><ele></ele><time>2024-9-14T11:21:29Z</time></trkpt>
<trkpt lat="44.2890550" lon="-73.9331950"><ele></ele><time>2024-9-14T11:21:32Z</time></trkpt>
<trkpt lat="44.2886160" lon="-73.9327980"><ele></ele><time>2024-9-14T11:21:35Z</time></trkpt>
<trkpt lat="44.2883120" lon="-73.9326770"><ele></ele><time>2024-9-14T11:21:38Z</time></trkpt>
<trkpt lat="44.2879950" lon="-73.9326480"><ele></ele><time>2024-9-14T11:21:41Z</time></trkpt>
<trkpt lat="44.2879500" lon="-73.9326530"><ele></ele><time>2024-9-14T11:21:44Z</time></trkpt>
<trkpt lat="44.2879060" lon="-73.9326590"><ele></ele><time>2024-9-14T11:21:47Z</time></trkpt>
<trkpt lat="44.2878630" lon="-73.9326650"><ele></ele><time>2024-9-14T11:21:50Z</time></trkpt>
<trkpt lat="44.2878170" lon="-73.9326730"><ele></ele><time>2024-9-14T11:21:53Z</time></trkpt>
<trkpt lat="44.2876230" lon="-73.9327270"><ele></ele><time>2024-9-14T11:21:56Z</time></trkpt>
<trkpt lat="44.2875250" lon="-73.9327590"><ele></ele><time>2024-9-14T11:21:59Z</time></trkpt>
<trkpt lat="44.2874770" lon="-73.9327700"><ele></ele><time>2024-9-14T11:22:2Z</time></trkpt>
<trkpt lat="44.2874230" lon="-73.9327770"><ele></ele><time>2024-9-14T11:22:5Z</time></trkpt>
<trkpt lat="44.2873720" lon="-73.9327800"><ele></ele><time>2024-9-14T11:22:8Z</time></trkpt>
<trkpt lat="44.2873200" lon="-73.9327810"><ele></ele><time>2024-9-14T11:22:11Z</time></trkpt>
<trkpt lat="44.2870090" lon="-73.9327300"><ele></ele><time>2024-9-14T11:22:14Z</time></trkpt>
<trkpt lat="44.2865800" lon="-73.9326210"><ele></ele><time>2024-9-14T11:22:17Z</time></trkpt>
<trkpt lat="44.2864320" lon="-73.9326010"><ele></ele><time>2024-9-14T11:22:20Z</time></trkpt>
<trkpt lat="44.2864320" lon="-73.9326010"><ele></ele><time>2024-9-14T11:22:23Z</time></trkpt>
<trkpt lat="44.2863580" lon="-73.9325920"><ele></ele><time>2024-9-14T11:22:26Z</time></trkpt>
<trkpt lat="44.2862850" lon="-73.9325850"><ele></ele><time>2024-9-14T11:22:29Z</time></trkpt>
<trkpt lat="44.2862140" lon="-73.9325760"><ele></ele><time>2024-9-14T11:22:32Z</time></trkpt>
<trkpt lat="44.2859400" lon="-73.9325010"><ele></ele><time>2024-9-14T11:22:35Z</time></trkpt>
<trkpt lat="44.2857310" lon="-73.9324800"><ele></ele><time>2024-9-14T11:22:38Z</time></trkpt>
<trkpt lat="44.2856630" lon="-73.9324990"><ele></ele><time>2024-9-14T11:22:41Z</time></trkpt>
<trkpt lat="44.2854100" lon="-73.9326500"><ele></ele><time>2024-9-14T11:22:44Z</time></trkpt>
<trkpt lat="44.2851710" lon="-73.9328670"><ele></ele><time>2024-9-14T11:22:47Z</time></trkpt>
<trkpt lat="44.2849740" lon="-73.9330690"><ele></ele><time>2024-9-14T11:22:50Z</time></trkpt>
<trkpt lat="44.2847690" lon="-73.9334590"><ele></ele><time>2024-9-14T11:22:53Z</time></trkpt>
<trkpt lat="44.2845550" lon="-73.9338270"><ele></ele><time>2024-9-14T11:22:56Z</time></trkpt>
<trkpt lat="44.2845060" lon="-73.9338880"><ele></ele><time>2024-9-14T11:22:59Z</time></trkpt>
<trkpt lat="44.2842380" lon="-73.9341880"><ele></ele><time>2024-9-14T11:23:2Z</time></trkpt>
<trkpt lat="44.2839480" lon="-73.9344880"><ele></ele><time>2024-9-14T11:23:5Z</time></trkpt>
<trkpt lat="44.2838950" lon="-73.9345370"><ele></ele><time>2024-9-14T11:23:8Z</time></trkpt>
<trkpt lat="44.2837230" lon="-73.9346760"><ele></ele><time>2024-9-14T11:23:11Z</time></trkpt>
<trkpt lat="44.2836630" lon="-73.9347120"><ele></ele><time>2024-9-14T11:23:14Z</time></trkpt>
<trkpt lat="44.2834830" lon="-73.9347540"><ele></ele><time>2024-9-14T11:23:17Z</time></trkpt>
<trkpt lat="44.2832470" lon="-73.9346720"><ele></ele><time>2024-9-14T11:23:20Z</time></trkpt>
<trkpt lat="44.2831920" lon="-73.9346270"><ele></ele><time>2024-9-14T11:23:23Z</time></trkpt>
<trkpt lat="44.2831430" lon="-73.9345810"><ele></ele><time>2024-9-14T11:23:26Z</time></trkpt>
<trkpt lat="44.2830010" lon="-73.9344070"><ele></ele><time>2024-9-14T11:23:29Z</time></trkpt>
<trkpt lat="44.2827680" lon="-73.9340570"><ele></ele><time>2024-9-14T11:23:32Z</time></trkpt>
<trkpt lat="44.2827240" lon="-73.9339780"><ele></ele><time>2024-9-14T11:23:35Z</time></trkpt>
<trkpt lat="44.2825710" lon="-73.9336470"><ele></ele><time>2024-9-14T11:23:38Z</time></trkpt>
<trkpt lat="44.2825100" lon="-73.9334840"><ele></ele><time>2024-9-14T11:23:41Z</time></trkpt>
<trkpt lat="44.2823310" lon="-73.9329080"><ele></ele><time>2024-9-14T11:23:44Z</time></trkpt>
<trkpt lat="44.2822310" lon="-73.9326790"><ele></ele><time>2024-9-14T11:23:47Z</time></trkpt>
<trkpt lat="44.2821370" lon="-73.9325460"><ele></ele><time>2024-9-14T11:23:50Z</time></trkpt>
<trkpt lat="44.2818830" lon="-73.9323890"><ele></ele><time>2024-9-14T11:23:53Z</time></trkpt>
<trkpt lat="44.2816040" lon="-73.9324180"><ele></ele><time>2024-9-14T11:23:56Z</time></trkpt>
<trkpt lat="44.2813540" lon="-73.9325920"><ele></ele><time>2024-9-14T11:23:59Z</time></trkpt>
<trkpt lat="44.2809810" lon="-73.9328490"><ele></ele><time>2024-9-14T11:24:2Z</time></trkpt>
<trkpt lat="44.2809150" lon="-73.9328720"><ele></ele><time>2024-9-14T11:24:5Z</time></trkpt>
<trkpt lat="44.2805790" lon="-73.9329200"><ele></ele><time>2024-9-14T11:24:8Z</time></trkpt>
<trkpt lat="44.2801770" lon="-73.9328650"><ele></ele><time>2024-9-14T11:24:11Z</time></trkpt>
<trkpt lat="44.2797470" lon="-73.9326770"><ele></ele><time>2024-9-14T11:24:14Z</time></trkpt>
<trkpt lat="44.2793950" lon="-73.9324720"><ele></ele><time>2024-9-14T11:24:17Z</time></trkpt>
<trkpt lat="44.2791020" lon="-73.9323760"><ele></ele><time>2024-9-14T11:24:20Z</time></trkpt>
<trkpt lat="44.2790460" lon="-73.9323740"><ele></ele><time>2024-9-14T11:24:23Z</time></trkpt>
<trkpt lat="44.2787720" lon="-73.9324020"><ele></ele><time>2024-9-14T11:24:26Z</time></trkpt>
<trkpt lat="44.2785410" lon="-73.9324530"><ele></ele><time>2024-9-14T11:24:29Z</time></trkpt>
<trkpt lat="44.2784990" lon="-73.9324660"><ele></ele><time>2024-9-14T11:24:32Z</time></trkpt>
<trkpt lat="44.2784600" lon="-73.9324790"><ele></ele><time>2024-9-14T11:24:35Z</time></trkpt>
<trkpt lat="44.2784220" lon="-73.9324910"><ele></ele><time>2024-9-14T11:24:38Z</time></trkpt>
<trkpt lat="44.2783830" lon="-73.9325040"><ele></ele><time>2024-9-14T11:24:41Z</time></trkpt>
<trkpt lat="44.2781770" lon="-73.9325560"><ele></ele><time>2024-9-14T11:24:44Z</time></trkpt>
<trkpt lat="44.2780940" lon="-73.9325770"><ele></ele><time>2024-9-14T11:24:47Z</time></trkpt>
<trkpt lat="44.2780540" lon="-73.9325890"><ele></ele><time>2024-9-14T11:24:50Z</time></trkpt>
<trkpt lat="44.2780150" lon="-73.9325990"><ele></ele><time>2024-9-14T11:24:53Z</time></trkpt>
<trkpt lat="44.2779760" lon="-73.9326070"><ele></ele><time>2024-9-14T11:24:56Z</time></trkpt>
<trkpt lat="44.2778620" lon="-73.9326530"><ele></ele><time>2024-9-14T11:24:59Z</time></trkpt>
<trkpt lat="44.2775550" lon="-73.9327970"><ele></ele><time>2024-9-14T11:25:2Z</time></trkpt>
<trkpt lat="44.2773730" lon="-73.9329240"><ele></ele><time>2024-9-14T11:25:5Z</time></trkpt>
<trkpt lat="44.2772490" lon="-73.9330380"><ele></ele><time>2024-9-14T11:25:8Z</time></trkpt>
<trkpt lat="44.2769790" lon="-73.9333320"><ele></ele><time>2024-9-14T11:25:11Z</time></trkpt>
<trkpt lat="44.2769390" lon="-73.9333760"><ele></ele><time>2024-9-14T11:25:14Z</time></trkpt>
<trkpt lat="44.2769010" lon="-73.9334160"><ele></ele><time>2024-9-14T11:25:17Z</time></trkpt>
<trkpt lat="44.2768640" lon="-73.9334540"><ele></ele><time>2024-9-14T11:25:20Z</time></trkpt>
<trkpt lat="44.2766260" lon="-73.9336950"><ele></ele><time>2024-9-14T11:25:23Z</time></trkpt>
<trkpt lat="44.2762930" lon="-73.9340280"><ele></ele><time>2024-9-14T11:25:26Z</time></trkpt>
<trkpt lat="44.2762140" lon="-73.9341200"><ele></ele><time>2024-9-14T11:25:29Z</time></trkpt>
<trkpt lat="44.2760640" lon="-73.9343220"><ele></ele><time>2024-9-14T11:25:32Z</time></trkpt>
<trkpt lat="44.2760010" lon="-73.9344350"><ele></ele><time>2024-9-14T11:25:35Z</time></trkpt>
<trkpt lat="44.2759210" lon="-73.9346320"><ele></ele><time>2024-9-14T11:25:38Z</time></trkpt>
<trkpt lat="44.2757920" lon="-73.9350930"><ele></ele><time>2024-9-14T11:25:41Z</time></trkpt>
<trkpt lat="44.2757450" lon="-73.9352420"><ele></ele><time>2024-9-14T11:25:44Z</time></trkpt>
<trkpt lat="44.2756230" lon="-73.9355290"><ele></ele><time>2024-9-14T11:25:47Z</time></trkpt>
<trkpt lat="44.2753440" lon="-73.9360060"><ele></ele><time>2024-9-14T11:25:50Z</time></trkpt>
<trkpt lat="44.2752980" lon="-73.9360680"><ele></ele><time>2024-9-14T11:25:53Z</time></trkpt>
<trkpt lat="44.2751010" lon="-73.9363120"><ele></ele><time>2024-9-14T11:25:56Z</time></trkpt>
<trkpt lat="44.2749870" lon="-73.9364420"><ele></ele><time>2024-9-14T11:25:59Z</time></trkpt>
<trkpt lat="44.2748180" lon="-73.9366370"><ele></ele><time>2024-9-14T11:26:2Z</time></trkpt>
<trkpt lat="44.2744570" lon="-73.9371240"><ele></ele><time>2024-9-14T11:26:5Z</time></trkpt>
<trkpt lat="44.2743310" lon="-73.9373280"><ele></ele><time>2024-9-14T11:26:8Z</time></trkpt>
<trkpt lat="44.2742300" lon="-73.9375220"><ele></ele><time>2024-9-14T11:26:11Z</time></trkpt>
<trkpt lat="44.2740700" lon="-73.9379360"><ele></ele><time>2024-9-14T11:26:14Z</time></trkpt>
<trkpt lat="44.2739410" lon="-73.9384470"><ele></ele><time>2024-9-14T11:26:17Z</time></trkpt>
<trkpt lat="44.2738650" lon="-73.9387640"><ele></ele><time>2024-9-14T11:26:20Z</time></trkpt>
<trkpt lat="44.2738480" lon="-73.9388260"><ele></ele><time>2024-9-14T11:26:23Z</time></trkpt>
<trkpt lat="44.2738290" lon="-73.9388880"><ele></ele><time>2024-9-14T11:26:26Z</time></trkpt>
<trkpt lat="44.2738100" lon="-73.9389480"><ele></ele><time>2024-9-14T11:26:29Z</time></trkpt>
<trkpt lat="44.2737880" lon="-73.9390050"><ele></ele><time>2024-9-14T11:26:32Z</time></trkpt>
<trkpt lat="44.2737620" lon="-73.9390560"><ele></ele><time>2024-9-14T11:26:35Z</time></trkpt>
<trkpt lat="44.2737020" lon="-73.9391560"><ele></ele><time>2024-9-14T11:26:38Z</time></trkpt>
<trkpt lat="44.2736640" lon="-73.9392090"><ele></ele><time>2024-9-14T11:26:41Z</time></trkpt>
<trkpt lat="44.2734750" lon="-73.9394380"><ele></ele><time>2024-9-14T11:26:44Z</time></trkpt>
<trkpt lat="44.2730880" lon="-73.9399160"><ele></ele><time>2024-9-14T11:26:47Z</time></trkpt>
<trkpt lat="44.2728520" lon="-73.9402820"><ele></ele><time>2024-9-14T11:26:50Z</time></trkpt>
<trkpt lat="44.2725770" lon="-73.9406630"><ele></ele><time>2024-9-14T11:26:53Z</time></trkpt>
<trkpt lat="44.2724740" lon="-73.9407770"><ele></ele><time>2024-9-14T11:26:56Z</time></trkpt>
<trkpt lat="44.2723750" lon="-73.9408900"><ele></ele><time>2024-9-14T11:26:59Z</time></trkpt>
<trkpt lat="44.2720830" lon="-73.9412120"><ele></ele><time>2024-9-14T11:27:2Z</time></trkpt>
<trkpt lat="44.2716920" lon="-73.9416000"><ele></ele><time>2024-9-14T11:27:5Z</time></trkpt>
<trkpt lat="44.2714140" lon="-73.9418270"><ele></ele><time>2024-9-14T11:27:8Z</time></trkpt>
<trkpt lat="44.2712920" lon="-73.9419120"><ele></ele><time>2024-9-14T11:27:11Z</time></trkpt>
<trkpt lat="44.2711960" lon="-73.9419840"><ele></ele><time>2024-9-14T11:27:14Z</time></trkpt>
<trkpt lat="44.2708640" lon="-73.9422160"><ele></ele><time>2024-9-14T11:27:17Z</time></trkpt>
<trkpt lat="44.2707560" lon="-73.9422990"><ele></ele><time>2024-9-14T11:27:20Z</time></trkpt>
<trkpt lat="44.2706540" lon="-73.9423680"><ele></ele><time>2024-9-14T11:27:23Z</time></trkpt>
<trkpt lat="44.2706040" lon="-73.9423960"><ele></ele><time>2024-9-14T11:27:26Z</time></trkpt>
<trkpt lat="44.2702660" lon="-73.9425490"><ele></ele><time>2024-9-14T11:27:29Z</time></trkpt>
<trkpt lat="44.2702020" lon="-73.9425770"><ele></ele><time>2024-9-14T11:27:32Z</time></trkpt>
<trkpt lat="44.2701330" lon="-73.9426070"><ele></ele><time>2024-9-14T11:27:35Z</time></trkpt>
<trkpt lat="44.2700600" lon="-73.9426400"><ele></ele><time>2024-9-14T11:27:38Z</time></trkpt>
<trkpt lat="44.2699800" lon="-73.9426800"><ele></ele><time>2024-9-14T11:27:41Z</time></trkpt>
<trkpt lat="44.2698960" lon="-73.9427210"><ele></ele><time>2024-9-14T11:27:44Z</time></trkpt>
<trkpt lat="44.2698170" lon="-73.9427640"><ele></ele><time>2024-9-14T11:27:47Z</time></trkpt>
<trkpt lat="44.2697400" lon="-73.9428150"><ele></ele><time>2024-9-14T11:27:50Z</time></trkpt>
<trkpt lat="44.2696650" lon="-73.9428720"><ele></ele><time>2024-9-14T11:27:53Z</time></trkpt>
<trkpt lat="44.2695940" lon="-73.9429280"><ele></ele><time>2024-9-14T11:27:56Z</time></trkpt>
<trkpt lat="44.2695290" lon="-73.9429910"><ele></ele><time>2024-9-14T11:27:59Z</time></trkpt>
<trkpt lat="44.2693580" lon="-73.9432300"><ele></ele><time>2024-9-14T11:28:2Z</time></trkpt>
<trkpt lat="44.2692550" lon="-73.9433850"><ele></ele><time>2024-9-14T11:28:5Z</time></trkpt>
<trkpt lat="44.2688690" lon="-73.9439960"><ele></ele><time>2024-9-14T11:28:8Z</time></trkpt>
<trkpt lat="44.2688360" lon="-73.9440780"><ele></ele><time>2024-9-14T11:28:11Z</time></trkpt>
<trkpt lat="44.2688110" lon="-73.9441690"><ele></ele><time>2024-9-14T11:28:14Z</time></trkpt>
<trkpt lat="44.2687960" lon="-73.9442610"><ele></ele><time>2024-9-14T11:28:17Z</time></trkpt>
<trkpt lat="44.2687890" lon="-73.9443630"><ele></ele><time>2024-9-14T11:28:20Z</time></trkpt>
<trkpt lat="44.2687930" lon="-73.9444610"><ele></ele><time>2024-9-14T11:28:23Z</time></trkpt>
<trkpt lat="44.2688330" lon="-73.9446450"><ele></ele><time>2024-9-14T11:28:26Z</time></trkpt>
<trkpt lat="44.2689330" lon="-73.9448820"><ele></ele><time>2024-9-14T11:28:29Z</time></trkpt>
<trkpt lat="44.2690100" lon="-73.9450340"><ele></ele><time>2024-9-14T11:28:32Z</time></trkpt>
<trkpt lat="44.2690410" lon="-73.9451130"><ele></ele><time>2024-9-14T11:28:35Z</time></trkpt>
<trkpt lat="44.2691060" lon="-73.9453620"><ele></ele><time>2024-9-14T11:28:38Z</time></trkpt>
<trkpt lat="44.2690990" lon="-73.9456940"><ele></ele><time>2024-9-14T11:28:41Z</time></trkpt>
<trkpt lat="44.2690100" lon="-73.9461070"><ele></ele><time>2024-9-14T11:28:44Z</time></trkpt>
<trkpt lat="44.2689430" lon="-73.9463170"><ele></ele><time>2024-9-14T11:28:47Z</time></trkpt>
<trkpt lat="44.2689240" lon="-73.9463650"><ele></ele><time>2024-9-14T11:28:50Z</time></trkpt>
<trkpt lat="44.2689050" lon="-73.9464120"><ele></ele><time>2024-9-14T11:28:53Z</time></trkpt>
<trkpt lat="44.2688850" lon="-73.9464560"><ele></ele><time>2024-9-14T11:28:56Z</time></trkpt>
<trkpt lat="44.2687060" lon="-73.9467420"><ele></ele><time>2024-9-14T11:28:59Z</time></trkpt>
<trkpt lat="44.2686750" lon="-73.9467810"><ele></ele><time>2024-9-14T11:29:2Z</time></trkpt>
<trkpt lat="44.2686450" lon="-73.9468160"><ele></ele><time>2024-9-14T11:29:5Z</time></trkpt>
<trkpt lat="44.2686130" lon="-73.9468500"><ele></ele><time>2024-9-14T11:29:8Z</time></trkpt>
<trkpt lat="44.2685820" lon="-73.9468890"><ele></ele><time>2024-9-14T11:29:11Z</time></trkpt>
<trkpt lat="44.2684870" lon="-73.9470240"><ele></ele><time>2024-9-14T11:29:14Z</time></trkpt>
<trkpt lat="44.2683270" lon="-73.9473520"><ele></ele><time>2024-9-14T11:29:17Z</time></trkpt>
<trkpt lat="44.2681330" lon="-73.9477680"><ele></ele><time>2024-9-14T11:29:20Z</time></trkpt>
<trkpt lat="44.2681040" lon="-73.9478130"><ele></ele><time>2024-9-14T11:29:23Z</time></trkpt>
<trkpt lat="44.2680790" lon="-73.9478500"><ele></ele><time>2024-9-14T11:29:26Z</time></trkpt>
<trkpt lat="44.2680640" lon="-73.9478820"><ele></ele><time>2024-9-14T11:29:29Z</time></trkpt>
<trkpt lat="44.2680520" lon="-73.9479070"><ele></ele><time>2024-9-14T11:29:32Z</time></trkpt>
<trkpt lat="44.2680440" lon="-73.9479300"><ele></ele><time>2024-9-14T11:29:35Z</time></trkpt>
<trkpt lat="44.2680250" lon="-73.9479510"><ele></ele><time>2024-9-14T11:29:38Z</time></trkpt>
<trkpt lat="44.2680230" lon="-73.9479470"><ele></ele><time>2024-9-14T11:29:41Z</time></trkpt>
<trkpt lat="44.2680170" lon="-73.9479440"><ele></ele><time>2024-9-14T11:29:44Z</time></trkpt>
<trkpt lat="44.2680070" lon="-73.9479500"><ele></ele><time>2024-9-14T11:29:47Z</time></trkpt>
<trkpt lat="44.2679950" lon="-73.9479560"><ele></ele><time>2024-9-14T11:29:50Z</time></trkpt>
<trkpt lat="44.2679630" lon="-73.9480020"><ele></ele><time>2024-9-14T11:29:53Z</time></trkpt>
<trkpt lat="44.2678360" lon="-73.9481630"><ele></ele><time>2024-9-14T11:29:56Z</time></trkpt>
<trkpt lat="44.2676740" lon="-73.9484790"><ele></ele><time>2024-9-14T11:29:59Z</time></trkpt>
<trkpt lat="44.2675690" lon="-73.9489750"><ele></ele><time>2024-9-14T11:30:2Z</time></trkpt>
<trkpt lat="44.2675070" lon="-73.9494020"><ele></ele><time>2024-9-14T11:30:5Z</time></trkpt>
<trkpt lat="44.2674620" lon="-73.9496370"><ele></ele><time>2024-9-14T11:30:8Z</time></trkpt>
<trkpt lat="44.2673330" lon="-73.9500530"><ele></ele><time>2024-9-14T11:30:11Z</time></trkpt>
<trkpt lat="44.2673120" lon="-73.9501160"><ele></ele><time>2024-9-14T11:30:14Z</time></trkpt>
<trkpt lat="44.2672770" lon="-73.9502370"><ele></ele><time>2024-9-14T11:30:17Z</time></trkpt>
<trkpt lat="44.2672420" lon="-73.9503500"><ele></ele><time>2024-9-14T11:30:20Z</time></trkpt>
<trkpt lat="44.2672050" lon="-73.9504440"><ele></ele><time>2024-9-14T11:30:23Z</time></trkpt>
<trkpt lat="44.2671420" lon="-73.9505960"><ele></ele><time>2024-9-14T11:30:26Z</time></trkpt>
<trkpt lat="44.2670730" lon="-73.9507550"><ele></ele><time>2024-9-14T11:30:29Z</time></trkpt>
<trkpt lat="44.2669660" lon="-73.9509580"><ele></ele><time>2024-9-14T11:30:32Z</time></trkpt>
<trkpt lat="44.2669060" lon="-73.9510670"><ele></ele><time>2024-9-14T11:30:35Z</time></trkpt>
<trkpt lat="44.2668400" lon="-73.9511720"><ele></ele><time>2024-9-14T11:30:38Z</time></trkpt>
<trkpt lat="44.2667260" lon="-73.9513440"><ele></ele><time>2024-9-14T11:30:41Z</time></trkpt>
<trkpt lat="44.2666610" lon="-73.9514260"><ele></ele><time>2024-9-14T11:30:44Z</time></trkpt>
<trkpt lat="44.2665030" lon="-73.9515780"><ele></ele><time>2024-9-14T11:30:47Z</time></trkpt>
<trkpt lat="44.2661660" lon="-73.9517750"><ele></ele><time>2024-9-14T11:30:50Z</time></trkpt>
<trkpt lat="44.2659320" lon="-73.9518550"><ele></ele><time>2024-9-14T11:30:53Z</time></trkpt>
<trkpt lat="44.2658410" lon="-73.9518780"><ele></ele><time>2024-9-14T11:30:56Z</time></trkpt>
<trkpt lat="44.2654990" lon="-73.9519820"><ele></ele><time>2024-9-14T11:30:59Z</time></trkpt>
<trkpt lat="44.2652830" lon="-73.9520410"><ele></ele><time>2024-9-14T11:31:2Z</time></trkpt>
<trkpt lat="44.2650140" lon="-73.9521120"><ele></ele><time>2024-9-14T11:31:5Z</time></trkpt>
<trkpt lat="44.2648040" lon="-73.9521820"><ele></ele><time>2024-9-14T11:31:8Z</time></trkpt>
<trkpt lat="44.2646380" lon="-73.9522320"><ele></ele><time>2024-9-14T11:31:11Z</time></trkpt>
<trkpt lat="44.2644230" lon="-73.9522970"><ele></ele><time>2024-9-14T11:31:14Z</time></trkpt>
<trkpt lat="44.2642050" lon="-73.9523680"><ele></ele><time>2024-9-14T11:31:17Z</time></trkpt>
<trkpt lat="44.2636530" lon="-73.9525320"><ele></ele><time>2024-9-14T11:31:20Z</time></trkpt>
<trkpt lat="44.2631020" lon="-73.9527030"><ele></ele><time>2024-9-14T11:31:23Z</time></trkpt>
<trkpt lat="44.2629890" lon="-73.9527410"><ele></ele><time>2024-9-14T11:31:26Z</time></trkpt>
<trkpt lat="44.2627730" lon="-73.9528050"><ele></ele><time>2024-9-14T11:31:29Z</time></trkpt>
<trkpt lat="44.2627180" lon="-73.9528200"><ele></ele><time>2024-9-14T11:31:32Z</time></trkpt>
<trkpt lat="44.2626630" lon="-73.9528370"><ele></ele><time>2024-9-14T11:31:35Z</time></trkpt>
<trkpt lat="44.2626090" lon="-73.9528530"><ele></ele><time>2024-9-14T11:31:38Z</time></trkpt>
<trkpt lat="44.2625560" lon="-73.9528730"><ele></ele><time>2024-9-14T11:31:41Z</time></trkpt>
<trkpt lat="44.2625020" lon="-73.9528910"><ele></ele><time>2024-9-14T11:31:44Z</time></trkpt>
<trkpt lat="44.2623530" lon="-73.9529350"><ele></ele><time>2024-9-14T11:31:47Z</time></trkpt>
<trkpt lat="44.2621940" lon="-73.9529810"><ele></ele><time>2024-9-14T11:31:50Z</time></trkpt>
<trkpt lat="44.2618480" lon="-73.9530830"><ele></ele><time>2024-9-14T11:31:53Z</time></trkpt>
<trkpt lat="44.2615220" lon="-73.9531850"><ele></ele><time>2024-9-14T11:31:56Z</time></trkpt>
<trkpt lat="44.2614650" lon="-73.9532020"><ele></ele><time>2024-9-14T11:31:59Z</time></trkpt>
<trkpt lat="44.2610130" lon="-73.9533310"><ele></ele><time>2024-9-14T11:32:2Z</time></trkpt>
<trkpt lat="44.2605910" lon="-73.9535350"><ele></ele><time>2024-9-14T11:32:5Z</time></trkpt>
<trkpt lat="44.2604070" lon="-73.9536980"><ele></ele><time>2024-9-14T11:32:8Z</time></trkpt>
<trkpt lat="44.2603200" lon="-73.9537880"><ele></ele><time>2024-9-14T11:32:11Z</time></trkpt>
<trkpt lat="44.2600580" lon="-73.9541450"><ele></ele><time>2024-9-14T11:32:14Z</time></trkpt>
<trkpt lat="44.2598880" lon="-73.9544690"><ele></ele><time>2024-9-14T11:32:17Z</time></trkpt>
<trkpt lat="44.2598600" lon="-73.9545410"><ele></ele><time>2024-9-14T11:32:20Z</time></trkpt>
<trkpt lat="44.2598340" lon="-73.9546160"><ele></ele><time>2024-9-14T11:32:23Z</time></trkpt>
<trkpt lat="44.2598130" lon="-73.9546960"><ele></ele><time>2024-9-14T11:32:26Z</time></trkpt>
<trkpt lat="44.2597950" lon="-73.9547740"><ele></ele><time>2024-9-14T11:32:29Z</time></trkpt>
<trkpt lat="44.2597410" lon="-73.9549970"><ele></ele><time>2024-9-14T11:32:32Z</time></trkpt>
<trkpt lat="44.2596600" lon="-73.9552890"><ele></ele><time>2024-9-14T11:32:35Z</time></trkpt>
<trkpt lat="44.2595650" lon="-73.9555480"><ele></ele><time>2024-9-14T11:32:38Z</time></trkpt>
<trkpt lat="44.2593180" lon="-73.9559930"><ele></ele><time>2024-9-14T11:32:41Z</time></trkpt>
<trkpt lat="44.2590320" lon="-73.9563380"><ele></ele><time>2024-9-14T11:32:44Z</time></trkpt>
<trkpt lat="44.2588590" lon="-73.9564980"><ele></ele><time>2024-9-14T11:32:47Z</time></trkpt>
<trkpt lat="44.2588170" lon="-73.9565350"><ele></ele><time>2024-9-14T11:32:50Z</time></trkpt>
<trkpt lat="44.2587750" lon="-73.9565770"><ele></ele><time>2024-9-14T11:32:53Z</time></trkpt>
<trkpt lat="44.2587310" lon="-73.9566170"><ele></ele><time>2024-9-14T11:32:56Z</time></trkpt>
<trkpt lat="44.2586870" lon="-73.9566610"><ele></ele><time>2024-9-14T11:32:59Z</time></trkpt>
<trkpt lat="44.2585980" lon="-73.9567830"><ele></ele><time>2024-9-14T11:33:2Z</time></trkpt>
<trkpt lat="44.2585050" lon="-73.9569480"><ele></ele><time>2024-9-14T11:33:5Z</time></trkpt>
<trkpt lat="44.2583960" lon="-73.9572180"><ele></ele><time>2024-9-14T11:33:8Z</time></trkpt>
<trkpt lat="44.2583400" lon="-73.9573950"><ele></ele><time>2024-9-14T11:33:11Z</time></trkpt>
<trkpt lat="44.2581530" lon="-73.9579930"><ele></ele><time>2024-9-14T11:33:14Z</time></trkpt>
<trkpt lat="44.2580620" lon="-73.9583160"><ele></ele><time>2024-9-14T11:33:17Z</time></trkpt>
<trkpt lat="44.2579800" lon="-73.9586050"><ele></ele><time>2024-9-14T11:33:20Z</time></trkpt>
<trkpt lat="44.2579000" lon="-73.9588620"><ele></ele><time>2024-9-14T11:33:23Z</time></trkpt>
<trkpt lat="44.2578640" lon="-73.9589800"><ele></ele><time>2024-9-14T11:33:26Z</time></trkpt>
<trkpt lat="44.2576950" lon="-73.9595670"><ele></ele><time>2024-9-14T11:33:29Z</time></trkpt>
<trkpt lat="44.2575290" lon="-73.9601180"><ele></ele><time>2024-9-14T11:33:32Z</time></trkpt>
<trkpt lat="44.2573290" lon="-73.9606590"><ele></ele><time>2024-9-14T11:33:35Z</time></trkpt>
<trkpt lat="44.2572500" lon="-73.9607660"><ele></ele><time>2024-9-14T11:33:38Z</time></trkpt>
<trkpt lat="44.2571220" lon="-73.9609110"><ele></ele><time>2024-9-14T11:33:41Z</time></trkpt>
<trkpt lat="44.2568280" lon="-73.9611540"><ele></ele><time>2024-9-14T11:33:44Z</time></trkpt>
<trkpt lat="44.2564200" lon="-73.9614900"><ele></ele><time>2024-9-14T11:33:47Z</time></trkpt>
<trkpt lat="44.2562890" lon="-73.9616100"><ele></ele><time>2024-9-14T11:33:50Z</time></trkpt>
<trkpt lat="44.2562570" lon="-73.9616600"><ele></ele><time>2024-9-14T11:33:53Z</time></trkpt>
<trkpt lat="44.2562320" lon="-73.9617130"><ele></ele><time>2024-9-14T11:33:56Z</time></trkpt>
<trkpt lat="44.2562180" lon="-73.9617750"><ele></ele><time>2024-9-14T11:33:59Z</time></trkpt>
<trkpt lat="44.2562190" lon="-73.9618390"><ele></ele><time>2024-9-14T11:34:2Z</time></trkpt>
<trkpt lat="44.2562380" lon="-73.9618950"><ele></ele><time>2024-9-14T11:34:5Z</time></trkpt>
<trkpt lat="44.2562690" lon="-73.9619460"><ele></ele><time>2024-9-14T11:34:8Z</time></trkpt>
<trkpt lat="44.2564150" lon="-73.9620250"><ele></ele><time>2024-9-14T11:34:11Z</time></trkpt>
<trkpt lat="44.2566930" lon="-73.9621560"><ele></ele><time>2024-9-14T11:34:14Z</time></trkpt>
<trkpt lat="44.2567880" lon="-73.9622080"><ele></ele><time>2024-9-14T11:34:17Z</time></trkpt>
<trkpt lat="44.2569300" lon="-73.9622860"><ele></ele><time>2024-9-14T11:34:20Z</time></trkpt>
<trkpt lat="44.2570780" lon="-73.9623680"><ele></ele><time>2024-9-14T11:34:23Z</time></trkpt>
<trkpt lat="44.2574320" lon="-73.9625440"><ele></ele><time>2024-9-14T11:34:26Z</time></trkpt>
<trkpt lat="44.2575490" lon="-73.9626080"><ele></ele><time>2024-9-14T11:34:29Z</time></trkpt>
<trkpt lat="44.2576550" lon="-73.9626640"><ele></ele><time>2024-9-14T11:34:32Z</time></trkpt>
<trkpt lat="44.2577500" lon="-73.9627160"><ele></ele><time>2024-9-14T11:34:35Z</time></trkpt>
<trkpt lat="44.2578650" lon="-73.9627790"><ele></ele><time>2024-9-14T11:34:38Z</time></trkpt>
<trkpt lat="44.2578990" lon="-73.9628030"><ele></ele><time>2024-9-14T11:34:41Z</time></trkpt>
<trkpt lat="44.2579330" lon="-73.9628250"><ele></ele><time>2024-9-14T11:34:44Z</time></trkpt>
<trkpt lat="44.2579640" lon="-73.9628500"><ele></ele><time>2024-9-14T11:34:47Z</time></trkpt>
<trkpt lat="44.2579980" lon="-73.9628760"><ele></ele><time>2024-9-14T11:34:50Z</time></trkpt>
<trkpt lat="44.2580630" lon="-73.9629230"><ele></ele><time>2024-9-14T11:34:53Z</time></trkpt>
<trkpt lat="44.2580930" lon="-73.9629500"><ele></ele><time>2024-9-14T11:34:56Z</time></trkpt>
<trkpt lat="44.2581250" lon="-73.9629720"><ele></ele><time>2024-9-14T11:34:59Z</time></trkpt>
<trkpt lat="44.2581560" lon="-73.9629990"><ele></ele><time>2024-9-14T11:35:2Z</time></trkpt>
<trkpt lat="44.2581830" lon="-73.9630270"><ele></ele><time>2024-9-14T11:35:5Z</time></trkpt>
<trkpt lat="44.2582670" lon="-73.9631100"><ele></ele><time>2024-9-14T11:35:8Z</time></trkpt>
<trkpt lat="44.2582940" lon="-73.9631400"><ele></ele><time>2024-9-14T11:35:11Z</time></trkpt>
<trkpt lat="44.2583210" lon="-73.9631690"><ele></ele><time>2024-9-14T11:35:14Z</time></trkpt>
<trkpt lat="44.2583460" lon="-73.9631970"><ele></ele><time>2024-9-14T11:35:17Z</time></trkpt>
<trkpt lat="44.2583720" lon="-73.9632240"><ele></ele><time>2024-9-14T11:35:20Z</time></trkpt>
<trkpt lat="44.2584710" lon="-73.9633330"><ele></ele><time>2024-9-14T11:35:23Z</time></trkpt>
<trkpt lat="44.2585200" lon="-73.9633880"><ele></ele><time>2024-9-14T11:35:26Z</time></trkpt>
<trkpt lat="44.2585440" lon="-73.9634170"><ele></ele><time>2024-9-14T11:35:29Z</time></trkpt>
<trkpt lat="44.2585680" lon="-73.9634460"><ele></ele><time>2024-9-14T11:35:32Z</time></trkpt>
<trkpt lat="44.2585910" lon="-73.9634780"><ele></ele><time>2024-9-14T11:35:35Z</time></trkpt>
<trkpt lat="44.2586140" lon="-73.9635100"><ele></ele><time>2024-9-14T11:35:38Z</time></trkpt>
<trkpt lat="44.2587060" lon="-73.9636270"><ele></ele><time>2024-9-14T11:35:41Z</time></trkpt>
<trkpt lat="44.2587280" lon="-73.9636580"><ele></ele><time>2024-9-14T11:35:44Z</time></trkpt>
<trkpt lat="44.2587510" lon="-73.9636920"><ele></ele><time>2024-9-14T11:35:47Z</time></trkpt>
<trkpt lat="44.2587680" lon="-73.9637260"><ele></ele><time>2024-9-14T11:35:50Z</time></trkpt>
<trkpt lat="44.2587880" lon="-73.9637540"><ele></ele><time>2024-9-14T11:35:53Z</time></trkpt>
<trkpt lat="44.2588670" lon="-73.9638880"><ele></ele><time>2024-9-14T11:35:56Z</time></trkpt>
<trkpt lat="44.2588870" lon="-73.9639230"><ele></ele><time>2024-9-14T11:35:59Z</time></trkpt>
<trkpt lat="44.2589050" lon="-73.9639590"><ele></ele><time>2024-9-14T11:36:2Z</time></trkpt>
<trkpt lat="44.2589240" lon="-73.9639940"><ele></ele><time>2024-9-14T11:36:5Z</time></trkpt>
<trkpt lat="44.2589450" lon="-73.9640280"><ele></ele><time>2024-9-14T11:36:8Z</time></trkpt>
<trkpt lat="44.2590610" lon="-73.9642430"><ele></ele><time>2024-9-14T11:36:11Z</time></trkpt>
<trkpt lat="44.2590940" lon="-73.9643220"><ele></ele><time>2024-9-14T11:36:14Z</time></trkpt>
<trkpt lat="44.2591100" lon="-73.9643630"><ele></ele><time>2024-9-14T11:36:17Z</time></trkpt>
<trkpt lat="44.2591300" lon="-73.9644030"><ele></ele><time>2024-9-14T11:36:20Z</time></trkpt>
<trkpt lat="44.2591490" lon="-73.9644400"><ele></ele><time>2024-9-14T11:36:23Z</time></trkpt>
<trkpt lat="44.2591680" lon="-73.9644840"><ele></ele><time>2024-9-14T11:36:26Z</time></trkpt>
<trkpt lat="44.2591820" lon="-73.9645280"><ele></ele><time>2024-9-14T11:36:29Z</time></trkpt>
<trkpt lat="44.2593150" lon="-73.9648320"><ele></ele><time>2024-9-14T11:36:32Z</time></trkpt>
<trkpt lat="44.2593330" lon="-73.9648720"><ele></ele><time>2024-9-14T11:36:35Z</time></trkpt>
<trkpt lat="44.2593550" lon="-73.9649120"><ele></ele><time>2024-9-14T11:36:38Z</time></trkpt>
<trkpt lat="44.2593740" lon="-73.9649540"><ele></ele><time>2024-9-14T11:36:41Z</time></trkpt>
<trkpt lat="44.2593920" lon="-73.9649970"><ele></ele><time>2024-9-14T11:36:44Z</time></trkpt>
<trkpt lat="44.2594120" lon="-73.9650390"><ele></ele><time>2024-9-14T11:36:47Z</time></trkpt>
<trkpt lat="44.2594550" lon="-73.9651320"><ele></ele><time>2024-9-14T11:36:50Z</time></trkpt>
<trkpt lat="44.2595490" lon="-73.9653280"><ele></ele><time>2024-9-14T11:36:53Z</time></trkpt>
<trkpt lat="44.2595710" lon="-73.9653680"><ele></ele><time>2024-9-14T11:36:56Z</time></trkpt>
<trkpt lat="44.2596740" lon="-73.9656010"><ele></ele><time>2024-9-14T11:36:59Z</time></trkpt>
<trkpt lat="44.2597570" lon="-73.9657700"><ele></ele><time>2024-9-14T11:37:2Z</time></trkpt>
<trkpt lat="44.2597940" lon="-73.9658460"><ele></ele><time>2024-9-14T11:37:5Z</time></trkpt>
<trkpt lat="44.2598110" lon="-73.9658840"><ele></ele><time>2024-9-14T11:37:8Z</time></trkpt>
<trkpt lat="44.2598510" lon="-73.9659450"><ele></ele><time>2024-9-14T11:37:11Z</time></trkpt>
<trkpt lat="44.2598690" lon="-73.9659660"><ele></ele><time>2024-9-14T11:37:14Z</time></trkpt>
<trkpt lat="44.2598810" lon="-73.9659900"><ele></ele><time>2024-9-14T11:37:17Z</time></trkpt>
<trkpt lat="44.2598770" lon="-73.9659870"><ele></ele><time>2024-9-14T11:37:20Z</time></trkpt>
<trkpt lat="44.2598800" lon="-73.9659940"><ele></ele><time>2024-9-14T11:37:23Z</time></trkpt>
<trkpt lat="44.2598980" lon="-73.9660620"><ele></ele><time>2024-9-14T11:37:26Z</time></trkpt>
<trkpt lat="44.2599410" lon="-73.9661620"><ele></ele><time>2024-9-14T11:37:29Z</time></trkpt>
<trkpt lat="44.2599930" lon="-73.9662760"><ele></ele><time>2024-9-14T11:37:32Z</time></trkpt>
<trkpt lat="44.2602010" lon="-73.9667050"><ele></ele><time>2024-9-14T11:37:35Z</time></trkpt>
<trkpt lat="44.2603230" lon="-73.9669360"><ele></ele><time>2024-9-14T11:37:38Z</time></trkpt>
<trkpt lat="44.2603540" lon="-73.9669860"><ele></ele><time>2024-9-14T11:37:41Z</time></trkpt>
<trkpt lat="44.2603840" lon="-73.9670360"><ele></ele><time>2024-9-14T11:37:44Z</time></trkpt>
<trkpt lat="44.2604150" lon="-73.9670810"><ele></ele><time>2024-9-14T11:37:47Z</time></trkpt>
<trkpt lat="44.2604440" lon="-73.9671270"><ele></ele><time>2024-9-14T11:37:50Z</time></trkpt>
<trkpt lat="44.2606190" lon="-73.9673690"><ele></ele><time>2024-9-14T11:37:53Z</time></trkpt>
<trkpt lat="44.2608620" lon="-73.9676730"><ele></ele><time>2024-9-14T11:37:56Z</time></trkpt>
<trkpt lat="44.2609530" lon="-73.9677710"><ele></ele><time>2024-9-14T11:37:59Z</time></trkpt>
<trkpt lat="44.2613240" lon="-73.9681440"><ele></ele><time>2024-9-14T11:38:2Z</time></trkpt>
<trkpt lat="44.2615730" lon="-73.9683240"><ele></ele><time>2024-9-14T11:38:5Z</time></trkpt>
<trkpt lat="44.2617620" lon="-73.9684500"><ele></ele><time>2024-9-14T11:38:8Z</time></trkpt>
<trkpt lat="44.2618830" lon="-73.9685210"><ele></ele><time>2024-9-14T11:38:11Z</time></trkpt>
<trkpt lat="44.2619410" lon="-73.9685530"><ele></ele><time>2024-9-14T11:38:14Z</time></trkpt>
<trkpt lat="44.2620000" lon="-73.9685830"><ele></ele><time>2024-9-14T11:38:17Z</time></trkpt>
<trkpt lat="44.2620610" lon="-73.9686130"><ele></ele><time>2024-9-14T11:38:20Z</time></trkpt>
<trkpt lat="44.2621260" lon="-73.9686410"><ele></ele><time>2024-9-14T11:38:23Z</time></trkpt>
<trkpt lat="44.2621900" lon="-73.9686640"><ele></ele><time>2024-9-14T11:38:26Z</time></trkpt>
<trkpt lat="44.2626230" lon="-73.9688440"><ele></ele><time>2024-9-14T11:38:29Z</time></trkpt>
<trkpt lat="44.2629900" lon="-73.9689810"><ele></ele><time>2024-9-14T11:38:32Z</time></trkpt>
<trkpt lat="44.2632340" lon="-73.9690790"><ele></ele><time>2024-9-14T11:38:35Z</time></trkpt>
<trkpt lat="44.2635970" lon="-73.9692150"><ele></ele><time>2024-9-14T11:38:38Z</time></trkpt>
<trkpt lat="44.2637220" lon="-73.9692580"><ele></ele><time>2024-9-14T11:38:41Z</time></trkpt>
<trkpt lat="44.2642240" lon="-73.9694460"><ele></ele><time>2024-9-14T11:38:44Z</time></trkpt>
<trkpt lat="44.2647730" lon="-73.9696710"><ele></ele><time>2024-9-14T11:38:47Z</time></trkpt>
<trkpt lat="44.2648320" lon="-73.9697000"><ele></ele><time>2024-9-14T11:38:50Z</time></trkpt>
<trkpt lat="44.2653590" lon="-73.9699820"><ele></ele><time>2024-9-14T11:38:53Z</time></trkpt>
<trkpt lat="44.2658400" lon="-73.9703080"><ele></ele><time>2024-9-14T11:38:56Z</time></trkpt>
<trkpt lat="44.2662460" lon="-73.9706340"><ele></ele><time>2024-9-14T11:38:59Z</time></trkpt>
<trkpt lat="44.2665980" lon="-73.9709630"><ele></ele><time>2024-9-14T11:39:2Z</time></trkpt>
<trkpt lat="44.2666450" lon="-73.9710130"><ele></ele><time>2024-9-14T11:39:5Z</time></trkpt>
<trkpt lat="44.2666930" lon="-73.9710650"><ele></ele><time>2024-9-14T11:39:8Z</time></trkpt>
<trkpt lat="44.2667390" lon="-73.9711160"><ele></ele><time>2024-9-14T11:39:11Z</time></trkpt>
<trkpt lat="44.2667870" lon="-73.9711690"><ele></ele><time>2024-9-14T11:39:14Z</time></trkpt>
<trkpt lat="44.2670070" lon="-73.9714140"><ele></ele><time>2024-9-14T11:39:17Z</time></trkpt>
<trkpt lat="44.2673100" lon="-73.9718010"><ele></ele><time>2024-9-14T11:39:20Z</time></trkpt>
<trkpt lat="44.2675220" lon="-73.9721140"><ele></ele><time>2024-9-14T11:39:23Z</time></trkpt>
<trkpt lat="44.2676090" lon="-73.9722390"><ele></ele><time>2024-9-14T11:39:26Z</time></trkpt>
<trkpt lat="44.2679880" lon="-73.9728310"><ele></ele><time>2024-9-14T11:39:29Z</time></trkpt>
<trkpt lat="44.2682660" lon="-73.9733400"><ele></ele><time>2024-9-14T11:39:32Z</time></trkpt>
<trkpt lat="44.2684940" lon="-73.9737780"><ele></ele><time>2024-9-14T11:39:35Z</time></trkpt>
<trkpt lat="44.2687090" lon="-73.9741490"><ele></ele><time>2024-9-14T11:39:38Z</time></trkpt>
<trkpt lat="44.2689830" lon="-73.9746320"><ele></ele><time>2024-9-14T11:39:41Z</time></trkpt>
<trkpt lat="44.2690550" lon="-73.9747800"><ele></ele><time>2024-9-14T11:39:44Z</time></trkpt>
<trkpt lat="44.2692720" lon="-73.9752280"><ele></ele><time>2024-9-14T11:39:47Z</time></trkpt>
<trkpt lat="44.2695860" lon="-73.9758970"><ele></ele><time>2024-9-14T11:39:50Z</time></trkpt>
<trkpt lat="44.2697870" lon="-73.9763190"><ele></ele><time>2024-9-14T11:39:53Z</time></trkpt>
<trkpt lat="44.2700770" lon="-73.9769110"><ele></ele><time>2024-9-14T11:39:56Z</time></trkpt>
<trkpt lat="44.2701130" lon="-73.9769790"><ele></ele><time>2024-9-14T11:39:59Z</time></trkpt>
<trkpt lat="44.2703200" lon="-73.9774010"><ele></ele><time>2024-9-14T11:40:2Z</time></trkpt>
<trkpt lat="44.2704340" lon="-73.9776230"><ele></ele><time>2024-9-14T11:40:5Z</time></trkpt>
<trkpt lat="44.2705960" lon="-73.9779180"><ele></ele><time>2024-9-14T11:40:8Z</time></trkpt>
<trkpt lat="44.2706850" lon="-73.9780450"><ele></ele><time>2024-9-14T11:40:11Z</time></trkpt>
<trkpt lat="44.2709020" lon="-73.9783530"><ele></ele><time>2024-9-14T11:40:14Z</time></trkpt>
<trkpt lat="44.2710010" lon="-73.9784910"><ele></ele><time>2024-9-14T11:40:17Z</time></trkpt>
<trkpt lat="44.2711290" lon="-73.9786770"><ele></ele><time>2024-9-14T11:40:20Z</time></trkpt>
<trkpt lat="44.2712000" lon="-73.9787670"><ele></ele><time>2024-9-14T11:40:23Z</time></trkpt>
<trkpt lat="44.2714140" lon="-73.9790490"><ele></ele><time>2024-9-14T11:40:26Z</time></trkpt>
<trkpt lat="44.2715640" lon="-73.9792310"><ele></ele><time>2024-9-14T11:40:29Z</time></trkpt>
<trkpt lat="44.2716830" lon="-73.9793430"><ele></ele><time>2024-9-14T11:40:32Z</time></trkpt>
<trkpt lat="44.2717690" lon="-73.9793980"><ele></ele><time>2024-9-14T11:40:35Z</time></trkpt>
<trkpt lat="44.2719060" lon="-73.9794380"><ele></ele><time>2024-9-14T11:40:38Z</time></trkpt>
<trkpt lat="44.2719580" lon="-73.9794420"><ele></ele><time>2024-9-14T11:40:41Z</time></trkpt>
<trkpt lat="44.2720110" lon="-73.9794380"><ele></ele><time>2024-9-14T11:40:44Z</time></trkpt>
<trkpt lat="44.2722720" lon="-73.9794320"><ele></ele><time>2024-9-14T11:40:47Z</time></trkpt>
<trkpt lat="44.2723230" lon="-73.9794340"><ele></ele><time>2024-9-14T11:40:50Z</time></trkpt>
<trkpt lat="44.2724230" lon="-73.9794320"><ele></ele><time>2024-9-14T11:40:53Z</time></trkpt>
<trkpt lat="44.2725710" lon="-73.9794670"><ele></ele><time>2024-9-14T11:40:56Z</time></trkpt>
<trkpt lat="44.2728830" lon="-73.9796240"><ele></ele><time>2024-9-14T11:40:59Z</time></trkpt>
<trkpt lat="44.2729340" lon="-73.9796560"><ele></ele><time>2024-9-14T11:41:2Z</time></trkpt>
<trkpt lat="44.2730340" lon="-73.9797180"><ele></ele><time>2024-9-14T11:41:5Z</time></trkpt>
<trkpt lat="44.2734520" lon="-73.9799790"><ele></ele><time>2024-9-14T11:41:8Z</time></trkpt>
<trkpt lat="44.2737530" lon="-73.9801840"><ele></ele><time>2024-9-14T11:41:11Z</time></trkpt>
<trkpt lat="44.2737970" lon="-73.9802140"><ele></ele><time>2024-9-14T11:41:14Z</time></trkpt>
<trkpt lat="44.2740380" lon="-73.9803700"><ele></ele><time>2024-9-14T11:41:17Z</time></trkpt>
<trkpt lat="44.2740840" lon="-73.9804100"><ele></ele><time>2024-9-14T11:41:20Z</time></trkpt>
<trkpt lat="44.2742740" lon="-73.9805470"><ele></ele><time>2024-9-14T11:41:23Z</time></trkpt>
<trkpt lat="44.2743710" lon="-73.9806110"><ele></ele><time>2024-9-14T11:41:26Z</time></trkpt>
<trkpt lat="44.2747090" lon="-73.9808180"><ele></ele><time>2024-9-14T11:41:29Z</time></trkpt>
<trkpt lat="44.2750110" lon="-73.9809330"><ele></ele><time>2024-9-14T11:41:32Z</time></trkpt>
<trkpt lat="44.2754880" lon="-73.9810210"><ele></ele><time>2024-9-14T11:41:35Z</time></trkpt>
<trkpt lat="44.2758580" lon="-73.9810860"><ele></ele><time>2024-9-14T11:41:38Z</time></trkpt>
<trkpt lat="44.2761070" lon="-73.9811260"><ele></ele><time>2024-9-14T11:41:41Z</time></trkpt>
<trkpt lat="44.2762000" lon="-73.9811380"><ele></ele><time>2024-9-14T11:41:44Z</time></trkpt>
<trkpt lat="44.2762740" lon="-73.9811570"><ele></ele><time>2024-9-14T11:41:47Z</time></trkpt>
<trkpt lat="44.2763610" lon="-73.9811740"><ele></ele><time>2024-9-14T11:41:50Z</time></trkpt>
<trkpt lat="44.2764120" lon="-73.9811730"><ele></ele><time>2024-9-14T11:41:53Z</time></trkpt>
<trkpt lat="44.2765750" lon="-73.9811280"><ele></ele><time>2024-9-14T11:41:56Z</time></trkpt>
<trkpt lat="44.2766380" lon="-73.9811190"><ele></ele><time>2024-9-14T11:41:59Z</time></trkpt>
<trkpt lat="44.2766990" lon="-73.9811090"><ele></ele><time>2024-9-14T11:42:2Z</time></trkpt>
<trkpt lat="44.2767640" lon="-73.9811150"><ele></ele><time>2024-9-14T11:42:5Z</time></trkpt>
<trkpt lat="44.2768290" lon="-73.9811320"><ele></ele><time>2024-9-14T11:42:8Z</time></trkpt>
<trkpt lat="44.2768950" lon="-73.9811540"><ele></ele><time>2024-9-14T11:42:11Z</time></trkpt>
<trkpt lat="44.2770140" lon="-73.9812460"><ele></ele><time>2024-9-14T11:42:14Z</time></trkpt>
<trkpt lat="44.2770680" lon="-73.9813080"><ele></ele><time>2024-9-14T11:42:17Z</time></trkpt>
<trkpt lat="44.2771120" lon="-73.9813750"><ele></ele><time>2024-9-14T11:42:20Z</time></trkpt>
<trkpt lat="44.2771520" lon="-73.9814460"><ele></ele><time>2024-9-14T11:42:23Z</time></trkpt>
<trkpt lat="44.2771920" lon="-73.9815210"><ele></ele><time>2024-9-14T11:42:26Z</time></trkpt>
<trkpt lat="44.2772300" lon="-73.9815920"><ele></ele><time>2024-9-14T11:42:29Z</time></trkpt>
<trkpt lat="44.2772590" lon="-73.9816620"><ele></ele><time>2024-9-14T11:42:32Z</time></trkpt>
<trkpt lat="44.2772870" lon="-73.9817290"><ele></ele><time>2024-9-14T11:42:35Z</time></trkpt>
<trkpt lat="44.2773120" lon="-73.9817970"><ele></ele><time>2024-9-14T11:42:38Z</time></trkpt>
<trkpt lat="44.2773370" lon="-73.9818630"><ele></ele><time>2024-9-14T11:42:41Z</time></trkpt>
<trkpt lat="44.2773610" lon="-73.9819190"><ele></ele><time>2024-9-14T11:42:44Z</time></trkpt>
<trkpt lat="44.2773860" lon="-73.9819650"><ele></ele><time>2024-9-14T11:42:47Z</time></trkpt>
<trkpt lat="44.2774990" lon="-73.9820800"><ele></ele><time>2024-9-14T11:42:50Z</time></trkpt>
<trkpt lat="44.2776590" lon="-73.9821430"><ele></ele><time>2024-9-14T11:42:53Z</time></trkpt>
<trkpt lat="44.2777390" lon="-73.9821720"><ele></ele><time>2024-9-14T11:42:56Z</time></trkpt>
<trkpt lat="44.2778600" lon="-73.9822100"><ele></ele><time>2024-9-14T11:42:59Z</time></trkpt>
<trkpt lat="44.2780580" lon="-73.9822400"><ele></ele><time>2024-9-14T11:43:2Z</time></trkpt>
<trkpt lat="44.2781680" lon="-73.9822240"><ele></ele><time>2024-9-14T11:43:5Z</time></trkpt>
<trkpt lat="44.2782640" lon="-73.9821780"><ele></ele><time>2024-9-14T11:43:8Z</time></trkpt>
<trkpt lat="44.2783980" lon="-73.9820960"><ele></ele><time>2024-9-14T11:43:11Z</time></trkpt>
<trkpt lat="44.2784270" lon="-73.9820740"><ele></ele><time>2024-9-14T11:43:14Z</time></trkpt>
<trkpt lat="44.2784540" lon="-73.9820490"><ele></ele><time>2024-9-14T11:43:17Z</time></trkpt>
<trkpt lat="44.2784780" lon="-73.9820200"><ele></ele><time>2024-9-14T11:43:20Z</time></trkpt>
<trkpt lat="44.2785030" lon="-73.9819900"><ele></ele><time>2024-9-14T11:43:23Z</time></trkpt>
<trkpt lat="44.2785780" lon="-73.9818830"><ele></ele><time>2024-9-14T11:43:26Z</time></trkpt>
<trkpt lat="44.2785900" lon="-73.9818450"><ele></ele><time>2024-9-14T11:43:29Z</time></trkpt>
<trkpt lat="44.2786050" lon="-73.9818100"><ele></ele><time>2024-9-14T11:43:32Z</time></trkpt>
<trkpt lat="44.2786150" lon="-73.9817810"><ele></ele><time>2024-9-14T11:43:35Z</time></trkpt>
<trkpt lat="44.2786280" lon="-73.9817510"><ele></ele><time>2024-9-14T11:43:38Z</time></trkpt>
<trkpt lat="44.2786770" lon="-73.9816660"><ele></ele><time>2024-9-14T11:43:41Z</time></trkpt>
<trkpt lat="44.2786970" lon="-73.9816330"><ele></ele><time>2024-9-14T11:43:44Z</time></trkpt>
<trkpt lat="44.2787150" lon="-73.9815800"><ele></ele><time>2024-9-14T11:43:47Z</time></trkpt>
<trkpt lat="44.2787440" lon="-73.9815350"><ele></ele><time>2024-9-14T11:43:50Z</time></trkpt>
<trkpt lat="44.2787640" lon="-73.9814820"><ele></ele><time>2024-9-14T11:43:53Z</time></trkpt>
<trkpt lat="44.2787890" lon="-73.9814340"><ele></ele><time>2024-9-14T11:43:56Z</time></trkpt>
<trkpt lat="44.2788800" lon="-73.9812710"><ele></ele><time>2024-9-14T11:43:59Z</time></trkpt>
<trkpt lat="44.2789000" lon="-73.9812280"><ele></ele><time>2024-9-14T11:44:2Z</time></trkpt>
<trkpt lat="44.2789210" lon="-73.9811890"><ele></ele><time>2024-9-14T11:44:5Z</time></trkpt>
<trkpt lat="44.2789430" lon="-73.9811510"><ele></ele><time>2024-9-14T11:44:8Z</time></trkpt>
<trkpt lat="44.2789660" lon="-73.9811170"><ele></ele><time>2024-9-14T11:44:11Z</time></trkpt>
<trkpt lat="44.2790280" lon="-73.9810000"><ele></ele><time>2024-9-14T11:44:14Z</time></trkpt>
<trkpt lat="44.2790490" lon="-73.9809610"><ele></ele><time>2024-9-14T11:44:17Z</time></trkpt>
<trkpt lat="44.2790720" lon="-73.9809280"><ele></ele><time>2024-9-14T11:44:20Z</time></trkpt>
<trkpt lat="44.2790920" lon="-73.9808870"><ele></ele><time>2024-9-14T11:44:23Z</time></trkpt>
<trkpt lat="44.2791130" lon="-73.9808500"><ele></ele><time>2024-9-14T11:44:26Z</time></trkpt>
<trkpt lat="44.2791330" lon="-73.9808110"><ele></ele><time>2024-9-14T11:44:29Z</time></trkpt>
<trkpt lat="44.2791530" lon="-73.9807790"><ele></ele><time>2024-9-14T11:44:32Z</time></trkpt>
<trkpt lat="44.2791700" lon="-73.9807480"><ele></ele><time>2024-9-14T11:44:35Z</time></trkpt>
<trkpt lat="44.2791860" lon="-73.9807160"><ele></ele><time>2024-9-14T11:44:38Z</time></trkpt>
<trkpt lat="44.2792160" lon="-73.9806540"><ele></ele><time>2024-9-14T11:44:41Z</time></trkpt>
<trkpt lat="44.2792500" lon="-73.9805960"><ele></ele><time>2024-9-14T11:44:44Z</time></trkpt>
<trkpt lat="44.2792670" lon="-73.9805640"><ele></ele><time>2024-9-14T11:44:47Z</time></trkpt>
<trkpt lat="44.2792850" lon="-73.9805350"><ele></ele><time>2024-9-14T11:44:50Z</time></trkpt>
<trkpt lat="44.2792970" lon="-73.9804960"><ele></ele><time>2024-9-14T11:44:53Z</time></trkpt>
<trkpt lat="44.2793130" lon="-73.9804640"><ele></ele><time>2024-9-14T11:44:56Z</time></trkpt>
<trkpt lat="44.2793490" lon="-73.9804050"><ele></ele><time>2024-9-14T11:44:59Z</time></trkpt>
<trkpt lat="44.2793870" lon="-73.9803400"><ele></ele><time>2024-9-14T11:45:2Z</time></trkpt>
<trkpt lat="44.2794060" lon="-73.9803110"><ele></ele><time>2024-9-14T11:45:5Z</time></trkpt>
<trkpt lat="44.2794210" lon="-73.9802850"><ele></ele><time>2024-9-14T11:45:8Z</time></trkpt>
<trkpt lat="44.2794360" lon="-73.9802550"><ele></ele><time>2024-9-14T11:45:11Z</time></trkpt>
<trkpt lat="44.2794370" lon="-73.9802180"><ele></ele><time>2024-9-14T11:45:14Z</time></trkpt>
<trkpt lat="44.2794330" lon="-73.9801870"><ele></ele><time>2024-9-14T11:45:17Z</time></trkpt>
<trkpt lat="44.2794340" lon="-73.9801710"><ele></ele><time>2024-9-14T11:45:20Z</time></trkpt>
<trkpt lat="44.2794360" lon="-73.9801550"><ele></ele><time>2024-9-14T11:45:23Z</time></trkpt>
<trkpt lat="44.2794330" lon="-73.9801620"><ele></ele><time>2024-9-14T11:45:26Z</time></trkpt>
<trkpt lat="44.2794350" lon="-73.9801550"><ele></ele><time>2024-9-14T11:45:29Z</time></trkpt>
<trkpt lat="44.2794360" lon="-73.9801540"><ele></ele><time>2024-9-14T11:45:32Z</time></trkpt>
<trkpt lat="44.2794400" lon="-73.9801500"><ele></ele><time>2024-9-14T11:45:35Z</time></trkpt>
<trkpt lat="44.2794450" lon="-73.9801440"><ele></ele><time>2024-9-14T11:45:38Z</time></trkpt>
<trkpt lat="44.2794640" lon="-73.9801290"><ele></ele><time>2024-9-14T11:45:41Z</time></trkpt>
<trkpt lat="44.2795390" lon="-73.9800900"><ele></ele><time>2024-9-14T11:45:44Z</time></trkpt>
<trkpt lat="44.2795460" lon="-73.9800900"><ele></ele><time>2024-9-14T11:45:47Z</time></trkpt>
<trkpt lat="44.2795490" lon="-73.9800950"><ele></ele><time>2024-9-14T11:45:50Z</time></trkpt>
<trkpt lat="44.2795710" lon="-73.9801310"><ele></ele><time>2024-9-14T11:45:53Z</time></trkpt>
<trkpt lat="44.2795890" lon="-73.9801520"><ele></ele><time>2024-9-14T11:45:56Z</time></trkpt>
<trkpt lat="44.2796380" lon="-73.9802000"><ele></ele><time>2024-9-14T11:45:59Z</time></trkpt>
<trkpt lat="44.2797320" lon="-73.9803030"><ele></ele><time>2024-9-14T11:46:2Z</time></trkpt>
<trkpt lat="44.2798060" lon="-73.9803950"><ele></ele><time>2024-9-14T11:46:5Z</time></trkpt>
<trkpt lat="44.2798280" lon="-73.9804250"><ele></ele><time>2024-9-14T11:46:8Z</time></trkpt>
<trkpt lat="44.2798490" lon="-73.9804580"><ele></ele><time>2024-9-14T11:46:11Z</time></trkpt>
<trkpt lat="44.2798750" lon="-73.9804850"><ele></ele><time>2024-9-14T11:46:14Z</time></trkpt>
<trkpt lat="44.2799000" lon="-73.9805140"><ele></ele><time>2024-9-14T11:46:17Z</time></trkpt>
<trkpt lat="44.2799740" lon="-73.9806030"><ele></ele><time>2024-9-14T11:46:20Z</time></trkpt>
<trkpt lat="44.2799990" lon="-73.9806250"><ele></ele><time>2024-9-14T11:46:23Z</time></trkpt>
<trkpt lat="44.2800220" lon="-73.9806470"><ele></ele><time>2024-9-14T11:46:26Z</time></trkpt>
<trkpt lat="44.2800490" lon="-73.9806710"><ele></ele><time>2024-9-14T11:46:29Z</time></trkpt>
<trkpt lat="44.2800730" lon="-73.9806960"><ele></ele><time>2024-9-14T11:46:32Z</time></trkpt>
<trkpt lat="44.2800980" lon="-73.9807210"><ele></ele><time>2024-9-14T11:46:35Z</time></trkpt>
<trkpt lat="44.2802880" lon="-73.9808940"><ele></ele><time>2024-9-14T11:46:38Z</time></trkpt>
<trkpt lat="44.2803180" lon="-73.9809250"><ele></ele><time>2024-9-14T11:46:41Z</time></trkpt>
<trkpt lat="44.2803470" lon="-73.9809570"><ele></ele><time>2024-9-14T11:46:44Z</time></trkpt>
<trkpt lat="44.2803790" lon="-73.9809850"><ele></ele><time>2024-9-14T11:46:47Z</time></trkpt>
<trkpt lat="44.2805080" lon="-73.9811100"><ele></ele><time>2024-9-14T11:46:50Z</time></trkpt>
<trkpt lat="44.2807830" lon="-73.9813690"><ele></ele><time>2024-9-14T11:46:53Z</time></trkpt>
<trkpt lat="44.2810310" lon="-73.9816210"><ele></ele><time>2024-9-14T11:46:56Z</time></trkpt>
<trkpt lat="44.2811700" lon="-73.9817570"><ele></ele><time>2024-9-14T11:46:59Z</time></trkpt>
<trkpt lat="44.2812180" lon="-73.9818110"><ele></ele><time>2024-9-14T11:47:2Z</time></trkpt>
<trkpt lat="44.2812450" lon="-73.9818360"><ele></ele><time>2024-9-14T11:47:5Z</time></trkpt>
<trkpt lat="44.2812660" lon="-73.9818600"><ele></ele><time>2024-9-14T11:47:8Z</time></trkpt>
<trkpt lat="44.2812870" lon="-73.9818890"><ele></ele><time>2024-9-14T11:47:11Z</time></trkpt>
<trkpt lat="44.2813080" lon="-73.9819120"><ele></ele><time>2024-9-14T11:47:14Z</time></trkpt>
<trkpt lat="44.2814060" lon="-73.9819950"><ele></ele><time>2024-9-14T11:47:17Z</time></trkpt>
<trkpt lat="44.2814530" lon="-73.9820380"><ele></ele><time>2024-9-14T11:47:20Z</time></trkpt>
<trkpt lat="44.2814720" lon="-73.9820680"><ele></ele><time>2024-9-14T11:47:23Z</time></trkpt>
<trkpt lat="44.2814940" lon="-73.9820920"><ele></ele><time>2024-9-14T11:47:26Z</time></trkpt>
<trkpt lat="44.2815140" lon="-73.9821180"><ele></ele><time>2024-9-14T11:47:29Z</time></trkpt>
<trkpt lat="44.2815350" lon="-73.9821410"><ele></ele><time>2024-9-14T11:47:32Z</time></trkpt>
<trkpt lat="44.2815830" lon="-73.9821940"><ele></ele><time>2024-9-14T11:47:35Z</time></trkpt>
<trkpt lat="44.2817780" lon="-73.9824160"><ele></ele><time>2024-9-14T11:47:38Z</time></trkpt>
<trkpt lat="44.2818050" lon="-73.9824480"><ele></ele><time>2024-9-14T11:47:41Z</time></trkpt>
<trkpt lat="44.2818270" lon="-73.9824800"><ele></ele><time>2024-9-14T11:47:44Z</time></trkpt>
<trkpt lat="44.2818500" lon="-73.9825080"><ele></ele><time>2024-9-14T11:47:47Z</time></trkpt>
<trkpt lat="44.2818750" lon="-73.9825360"><ele></ele><time>2024-9-14T11:47:50Z</time></trkpt>
<trkpt lat="44.2819890" lon="-73.9826520"><ele></ele><time>2024-9-14T11:47:53Z</time></trkpt>
<trkpt lat="44.2820930" lon="-73.9827480"><ele></ele><time>2024-9-14T11:47:56Z</time></trkpt>
<trkpt lat="44.2821290" lon="-73.9827740"><ele></ele><time>2024-9-14T11:47:59Z</time></trkpt>
<trkpt lat="44.2821650" lon="-73.9827990"><ele></ele><time>2024-9-14T11:48:2Z</time></trkpt>
<trkpt lat="44.2822040" lon="-73.9828260"><ele></ele><time>2024-9-14T11:48:5Z</time></trkpt>
<trkpt lat="44.2822480" lon="-73.9828520"><ele></ele><time>2024-9-14T11:48:8Z</time></trkpt>
<trkpt lat="44.2825370" lon="-73.9830690"><ele></ele><time>2024-9-14T11:48:11Z</time></trkpt>
<trkpt lat="44.2828510" lon="-73.9833570"><ele></ele><time>2024-9-14T11:48:14Z</time></trkpt>
<trkpt lat="44.2830750" lon="-73.9836020"><ele></ele><time>2024-9-14T11:48:17Z</time></trkpt>
<trkpt lat="44.2833200" lon="-73.9839310"><ele></ele><time>2024-9-14T11:48:20Z</time></trkpt>
<trkpt lat="44.2833480" lon="-73.9839590"><ele></ele><time>2024-9-14T11:48:23Z</time></trkpt>
<trkpt lat="44.2833770" lon="-73.9839880"><ele></ele><time>2024-9-14T11:48:26Z</time></trkpt>
<trkpt lat="44.2834040" lon="-73.9840200"><ele></ele><time>2024-9-14T11:48:29Z</time></trkpt>
<trkpt lat="44.2834820" lon="-73.9841100"><ele></ele><time>2024-9-14T11:48:32Z</time></trkpt>
<trkpt lat="44.2836300" lon="-73.9842210"><ele></ele><time>2024-9-14T11:48:35Z</time></trkpt>
<trkpt lat="44.2836620" lon="-73.9842370"><ele></ele><time>2024-9-14T11:48:38Z</time></trkpt>
<trkpt lat="44.2836940" lon="-73.9842490"><ele></ele><time>2024-9-14T11:48:41Z</time></trkpt>
<trkpt lat="44.2837230" lon="-73.9842640"><ele></ele><time>2024-9-14T11:48:44Z</time></trkpt>
<trkpt lat="44.2837550" lon="-73.9842730"><ele></ele><time>2024-9-14T11:48:47Z</time></trkpt>
<trkpt lat="44.2839520" lon="-73.9843040"><ele></ele><time>2024-9-14T11:48:50Z</time></trkpt>
<trkpt lat="44.2839850" lon="-73.9843080"><ele></ele><time>2024-9-14T11:48:53Z</time></trkpt>
<trkpt lat="44.2840180" lon="-73.9843130"><ele></ele><time>2024-9-14T11:48:56Z</time></trkpt>
<trkpt lat="44.2840500" lon="-73.9843140"><ele></ele><time>2024-9-14T11:48:59Z</time></trkpt>
<trkpt lat="44.2840810" lon="-73.9843180"><ele></ele><time>2024-9-14T11:49:2Z</time></trkpt>
<trkpt lat="44.2842020" lon="-73.9843300"><ele></ele><time>2024-9-14T11:49:5Z</time></trkpt>
<trkpt lat="44.2842300" lon="-73.9843340"><ele></ele><time>2024-9-14T11:49:8Z</time></trkpt>
<trkpt lat="44.2842570" lon="-73.9843340"><ele></ele><time>2024-9-14T11:49:11Z</time></trkpt>
<trkpt lat="44.2842850" lon="-73.9843350"><ele></ele><time>2024-9-14T11:49:14Z</time></trkpt>
<trkpt lat="44.2843140" lon="-73.9843370"><ele></ele><time>2024-9-14T11:49:17Z</time></trkpt>
<trkpt lat="44.2844660" lon="-73.9843070"><ele></ele><time>2024-9-14T11:49:20Z</time></trkpt>
<trkpt lat="44.2846920" lon="-73.9842410"><ele></ele><time>2024-9-14T11:49:23Z</time></trkpt>
<trkpt lat="44.2848120" lon="-73.9842010"><ele></ele><time>2024-9-14T11:49:26Z</time></trkpt>
<trkpt lat="44.2848400" lon="-73.9841830"><ele></ele><time>2024-9-14T11:49:29Z</time></trkpt>
<trkpt lat="44.2848690" lon="-73.9841670"><ele></ele><time>2024-9-14T11:49:32Z</time></trkpt>
<trkpt lat="44.2848960" lon="-73.9841530"><ele></ele><time>2024-9-14T11:49:35Z</time></trkpt>
<trkpt lat="44.2851160" lon="-73.9840270"><ele></ele><time>2024-9-14T11:49:38Z</time></trkpt>
<trkpt lat="44.2853070" lon="-73.9839050"><ele></ele><time>2024-9-14T11:49:41Z</time></trkpt>
<trkpt lat="44.2853790" lon="-73.9837550"><ele></ele><time>2024-9-14T11:49:44Z</time></trkpt>
<trkpt lat="44.2853380" lon="-73.9836630"><ele></ele><time>2024-9-14T11:49:47Z</time></trkpt>
<trkpt lat="44.2852730" lon="-73.9835570"><ele></ele><time>2024-9-14T11:49:50Z</time></trkpt>
<trkpt lat="44.2851270" lon="-73.9833340"><ele></ele><time>2024-9-14T11:49:53Z</time></trkpt>
<trkpt lat="44.2850850" lon="-73.9832780"><ele></ele><time>2024-9-14T11:49:56Z</time></trkpt>
<trkpt lat="44.2850420" lon="-73.9832280"><ele></ele><time>2024-9-14T11:49:59Z</time></trkpt>
<trkpt lat="44.2848630" lon="-73.9830640"><ele></ele><time>2024-9-14T11:50:2Z</time></trkpt>
<trkpt lat="44.2847680" lon="-73.9830090"><ele></ele><time>2024-9-14T11:50:5Z</time></trkpt>
<trkpt lat="44.2846830" lon="-73.9829680"><ele></ele><time>2024-9-14T11:50:8Z</time></trkpt>
<trkpt lat="44.2845700" lon="-73.9829150"><ele></ele><time>2024-9-14T11:50:11Z</time></trkpt>
<trkpt lat="44.2843450" lon="-73.9828690"><ele></ele><time>2024-9-14T11:50:14Z</time></trkpt>
<trkpt lat="44.2842660" lon="-73.9828520"><ele></ele><time>2024-9-14T11:50:17Z</time></trkpt>
<trkpt lat="44.2840530" lon="-73.9828020"><ele></ele><time>2024-9-14T11:50:20Z</time></trkpt>
<trkpt lat="44.2838430" lon="-73.9827290"><ele></ele><time>2024-9-14T11:50:23Z</time></trkpt>
<trkpt lat="44.2836390" lon="-73.9826720"><ele></ele><time>2024-9-14T11:50:26Z</time></trkpt>
<trkpt lat="44.2833150" lon="-73.9825800"><ele></ele><time>2024-9-14T11:50:29Z</time></trkpt>
<trkpt lat="44.2832490" lon="-73.9825530"><ele></ele><time>2024-9-14T11:50:32Z</time></trkpt>
<trkpt lat="44.2831870" lon="-73.9825190"><ele></ele><time>2024-9-14T11:50:35Z</time></trkpt>
<trkpt lat="44.2831240" lon="-73.9824730"><ele></ele><time>2024-9-14T11:50:38Z</time></trkpt>
<trkpt lat="44.2830060" lon="-73.9823700"><ele></ele><time>2024-9-14T11:50:41Z</time></trkpt>
<trkpt lat="44.2828420" lon="-73.9822270"><ele></ele><time>2024-9-14T11:50:44Z</time></trkpt>
<trkpt lat="44.2828020" lon="-73.9821900"><ele></ele><time>2024-9-14T11:50:47Z</time></trkpt>
<trkpt lat="44.2827750" lon="-73.9821540"><ele></ele><time>2024-9-14T11:50:50Z</time></trkpt>
<trkpt lat="44.2827590" lon="-73.9821080"><ele></ele><time>2024-9-14T11:50:53Z</time></trkpt>
<trkpt lat="44.2827560" lon="-73.9820530"><ele></ele><time>2024-9-14T11:50:56Z</time></trkpt>
<trkpt lat="44.2827600" lon="-73.9820080"><ele></ele><time>2024-9-14T11:50:59Z</time></trkpt>
<trkpt lat="44.2828420" lon="-73.9818240"><ele></ele><time>2024-9-14T11:51:2Z</time></trkpt>
<trkpt lat="44.2828710" lon="-73.9817800"><ele></ele><time>2024-9-14T11:51:5Z</time></trkpt>
<trkpt lat="44.2829630" lon="-73.9816570"><ele></ele><time>2024-9-14T11:51:8Z</time></trkpt>
<trkpt lat="44.2830920" lon="-73.9815180"><ele></ele><time>2024-9-14T11:51:11Z</time></trkpt>
<trkpt lat="44.2831260" lon="-73.9814760"><ele></ele><time>2024-9-14T11:51:14Z</time></trkpt>
<trkpt lat="44.2833980" lon="-73.9811850"><ele></ele><time>2024-9-14T11:51:17Z</time></trkpt>
<trkpt lat="44.2835420" lon="-73.9810350"><ele></ele><time>2024-9-14T11:51:20Z</time></trkpt>
<trkpt lat="44.2836050" lon="-73.9809600"><ele></ele><time>2024-9-14T11:51:23Z</time></trkpt>
<trkpt lat="44.2837990" lon="-73.9807680"><ele></ele><time>2024-9-14T11:51:26Z</time></trkpt>
<trkpt lat="44.2838340" lon="-73.9807220"><ele></ele><time>2024-9-14T11:51:29Z</time></trkpt>
<trkpt lat="44.2839910" lon="-73.9805450"><ele></ele><time>2024-9-14T11:51:32Z</time></trkpt>
<trkpt lat="44.2841490" lon="-73.9803770"><ele></ele><time>2024-9-14T11:51:35Z</time></trkpt>
<trkpt lat="44.2843030" lon="-73.9802170"><ele></ele><time>2024-9-14T11:51:38Z</time></trkpt>
<trkpt lat="44.2843790" lon="-73.9801440"><ele></ele><time>2024-9-14T11:51:41Z</time></trkpt>
<trkpt lat="44.2845380" lon="-73.9799780"><ele></ele><time>2024-9-14T11:51:44Z</time></trkpt>
<trkpt lat="44.2848060" lon="-73.9797190"><ele></ele><time>2024-9-14T11:51:47Z</time></trkpt>
<trkpt lat="44.2848450" lon="-73.9796820"><ele></ele><time>2024-9-14T11:51:50Z</time></trkpt>
<trkpt lat="44.2850790" lon="-73.9794770"><ele></ele><time>2024-9-14T11:51:53Z</time></trkpt>
<trkpt lat="44.2851170" lon="-73.9794470"><ele></ele><time>2024-9-14T11:51:56Z</time></trkpt>
<trkpt lat="44.2854030" lon="-73.9792250"><ele></ele><time>2024-9-14T11:51:59Z</time></trkpt>
<trkpt lat="44.2857200" lon="-73.9790350"><ele></ele><time>2024-9-14T11:52:2Z</time></trkpt>
<trkpt lat="44.2860190" lon="-73.9788680"><ele></ele><time>2024-9-14T11:52:5Z</time></trkpt>
<trkpt lat="44.2861230" lon="-73.9788200"><ele></ele><time>2024-9-14T11:52:8Z</time></trkpt>
<trkpt lat="44.2862740" lon="-73.9787700"><ele></ele><time>2024-9-14T11:52:11Z</time></trkpt>
<trkpt lat="44.2864190" lon="-73.9787400"><ele></ele><time>2024-9-14T11:52:14Z</time></trkpt>
<trkpt lat="44.2866180" lon="-73.9787320"><ele></ele><time>2024-9-14T11:52:17Z</time></trkpt>
<trkpt lat="44.2867800" lon="-73.9787440"><ele></ele><time>2024-9-14T11:52:20Z</time></trkpt>
<trkpt lat="44.2872180" lon="-73.9787890"><ele></ele><time>2024-9-14T11:52:23Z</time></trkpt>
<trkpt lat="44.2875400" lon="-73.9788660"><ele></ele><time>2024-9-14T11:52:26Z</time></trkpt>
<trkpt lat="44.2878890" lon="-73.9789750"><ele></ele><time>2024-9-14T11:52:29Z</time></trkpt>
<trkpt lat="44.2882740" lon="-73.9790690"><ele></ele><time>2024-9-14T11:52:32Z</time></trkpt>
<trkpt lat="44.2885520" lon="-73.9791280"><ele></ele><time>2024-9-14T11:52:35Z</time></trkpt>
<trkpt lat="44.2886830" lon="-73.9791610"><ele></ele><time>2024-9-14T11:52:38Z</time></trkpt>
<trkpt lat="44.2887210" lon="-73.9791780"><ele></ele><time>2024-9-14T11:52:41Z</time></trkpt>
<trkpt lat="44.2887600" lon="-73.9791940"><ele></ele><time>2024-9-14T11:52:44Z</time></trkpt>
<trkpt lat="44.2887990" lon="-73.9792110"><ele></ele><time>2024-9-14T11:52:47Z</time></trkpt>
<trkpt lat="44.2888420" lon="-73.9792300"><ele></ele><time>2024-9-14T11:52:50Z</time></trkpt>
<trkpt lat="44.2891190" lon="-73.9793420"><ele></ele><time>2024-9-14T11:52:53Z</time></trkpt>
<trkpt lat="44.2892100" lon="-73.9793770"><ele></ele><time>2024-9-14T11:52:56Z</time></trkpt>
<trkpt lat="44.2894060" lon="-73.9794150"><ele></ele><time>2024-9-14T11:52:59Z</time></trkpt>
<trkpt lat="44.2894600" lon="-73.9794140"><ele></ele><time>2024-9-14T11:53:2Z</time></trkpt>
<trkpt lat="44.2896850" lon="-73.9793700"><ele></ele><time>2024-9-14T11:53:5Z</time></trkpt>
<trkpt lat="44.2900520" lon="-73.9792180"><ele></ele><time>2024-9-14T11:53:8Z</time></trkpt>
<trkpt lat="44.2903140" lon="-73.9790720"><ele></ele><time>2024-9-14T11:53:11Z</time></trkpt>
<trkpt lat="44.2903590" lon="-73.9790490"><ele></ele><time>2024-9-14T11:53:14Z</time></trkpt>
<trkpt lat="44.2904020" lon="-73.9790260"><ele></ele><time>2024-9-14T11:53:17Z</time></trkpt>
<trkpt lat="44.2907090" lon="-73.9788780"><ele></ele><time>2024-9-14T11:53:20Z</time></trkpt>
<trkpt lat="44.2909880" lon="-73.9787440"><ele></ele><time>2024-9-14T11:53:23Z</time></trkpt>
<trkpt lat="44.2910320" lon="-73.9787270"><ele></ele><time>2024-9-14T11:53:26Z</time></trkpt>
<trkpt lat="44.2910790" lon="-73.9787010"><ele></ele><time>2024-9-14T11:53:29Z</time></trkpt>
<trkpt lat="44.2911270" lon="-73.9786760"><ele></ele><time>2024-9-14T11:53:32Z</time></trkpt>
<trkpt lat="44.2913560" lon="-73.9785590"><ele></ele><time>2024-9-14T11:53:35Z</time></trkpt>
<trkpt lat="44.2915780" lon="-73.9784260"><ele></ele><time>2024-9-14T11:53:38Z</time></trkpt>
<trkpt lat="44.2916660" lon="-73.9783890"><ele></ele><time>2024-9-14T11:53:41Z</time></trkpt>
<trkpt lat="44.2917110" lon="-73.9783700"><ele></ele><time>2024-9-14T11:53:44Z</time></trkpt>
<trkpt lat="44.2918000" lon="-73.9783200"><ele></ele><time>2024-9-14T11:53:47Z</time></trkpt>
<trkpt lat="44.2918510" lon="-73.9782910"><ele></ele><time>2024-9-14T11:53:50Z</time></trkpt>
<trkpt lat="44.2918990" lon="-73.9782630"><ele></ele><time>2024-9-14T11:53:53Z</time></trkpt>
<trkpt lat="44.2919450" lon="-73.9782390"><ele></ele><time>2024-9-14T11:53:56Z</time></trkpt>
<trkpt lat="44.2919900" lon="-73.9782170"><ele></ele><time>2024-9-14T11:53:59Z</time></trkpt>
<trkpt lat="44.2921170" lon="-73.9781420"><ele></ele><time>2024-9-14T11:54:2Z</time></trkpt>
<trkpt lat="44.2921970" lon="-73.9780890"><ele></ele><time>2024-9-14T11:54:5Z</time></trkpt>
<trkpt lat="44.2925150" lon="-73.9778610"><ele></ele><time>2024-9-14T11:54:8Z</time></trkpt>
<trkpt lat="44.2925550" lon="-73.9778230"><ele></ele><time>2024-9-14T11:54:11Z</time></trkpt>
<trkpt lat="44.2926860" lon="-73.9777180"><ele></ele><time>2024-9-14T11:54:14Z</time></trkpt>
<trkpt lat="44.2929490" lon="-73.9774660"><ele></ele><time>2024-9-14T11:54:17Z</time></trkpt>
<trkpt lat="44.2929890" lon="-73.9774200"><ele></ele><time>2024-9-14T11:54:20Z</time></trkpt>
<trkpt lat="44.2930700" lon="-73.9773240"><ele></ele><time>2024-9-14T11:54:23Z</time></trkpt>
<trkpt lat="44.2931580" lon="-73.9772120"><ele></ele><time>2024-9-14T11:54:26Z</time></trkpt>
<trkpt lat="44.2932310" lon="-73.9771070"><ele></ele><time>2024-9-14T11:54:29Z</time></trkpt>
<trkpt lat="44.2932990" lon="-73.9769930"><ele></ele><time>2024-9-14T11:54:32Z</time></trkpt>
<trkpt lat="44.2933720" lon="-73.9767720"><ele></ele><time>2024-9-14T11:54:35Z</time></trkpt>
<trkpt lat="44.2933820" lon="-73.9765220"><ele></ele><time>2024-9-14T11:54:38Z</time></trkpt>
<trkpt lat="44.2933830" lon="-73.9764380"><ele></ele><time>2024-9-14T11:54:41Z</time></trkpt>
<trkpt lat="44.2933770" lon="-73.9758360"><ele></ele><time>2024-9-14T11:54:44Z</time></trkpt>
<trkpt lat="44.2933830" lon="-73.9752560"><ele></ele><time>2024-9-14T11:54:47Z</time></trkpt>
<trkpt lat="44.2933880" lon="-73.9751780"><ele></ele><time>2024-9-14T11:54:50Z</time></trkpt>
<trkpt lat="44.2933940" lon="-73.9750990"><ele></ele><time>2024-9-14T11:54:53Z</time></trkpt>
<trkpt lat="44.2934030" lon="-73.9750140"><ele></ele><time>2024-9-14T11:54:56Z</time></trkpt>
<trkpt lat="44.2934480" lon="-73.9747690"><ele></ele><time>2024-9-14T11:54:59Z</time></trkpt>
<trkpt lat="44.2934760" lon="-73.9746920"><ele></ele><time>2024-9-14T11:55:2Z</time></trkpt>
<trkpt lat="44.2935800" lon="-73.9744760"><ele></ele><time>2024-9-14T11:55:5Z</time></trkpt>
<trkpt lat="44.2936700" lon="-73.9743520"><ele></ele><time>2024-9-14T11:55:8Z</time></trkpt>
<trkpt lat="44.2937760" lon="-73.9742460"><ele></ele><time>2024-9-14T11:55:11Z</time></trkpt>
<trkpt lat="44.2938340" lon="-73.9742000"><ele></ele><time>2024-9-14T11:55:14Z</time></trkpt>
<trkpt lat="44.2938950" lon="-73.9741570"><ele></ele><time>2024-9-14T11:55:17Z</time></trkpt>
<trkpt lat="44.2939560" lon="-73.9741220"><ele></ele><time>2024-9-14T11:55:20Z</time></trkpt>
<trkpt lat="44.2940210" lon="-73.9740870"><ele></ele><time>2024-9-14T11:55:23Z</time></trkpt>
<trkpt lat="44.2940850" lon="-73.9740550"><ele></ele><time>2024-9-14T11:55:26Z</time></trkpt>
<trkpt lat="44.2943830" lon="-73.9739110"><ele></ele><time>2024-9-14T11:55:29Z</time></trkpt>
<trkpt lat="44.2946250" lon="-73.9738060"><ele></ele><time>2024-9-14T11:55:32Z</time></trkpt>
<trkpt lat="44.2947460" lon="-73.9737590"><ele></ele><time>2024-9-14T11:55:35Z</time></trkpt>
<trkpt lat="44.2948060" lon="-73.9737330"><ele></ele><time>2024-9-14T11:55:38Z</time></trkpt>
<trkpt lat="44.2950780" lon="-73.9736500"><ele></ele><time>2024-9-14T11:55:41Z</time></trkpt>
<trkpt lat="44.2952960" lon="-73.9736240"><ele></ele><time>2024-9-14T11:55:44Z</time></trkpt>
<trkpt lat="44.2954810" lon="-73.9736420"><ele></ele><time>2024-9-14T11:55:47Z</time></trkpt>
<trkpt lat="44.2956220" lon="-73.9736680"><ele></ele><time>2024-9-14T11:55:50Z</time></trkpt>
<trkpt lat="44.2959310" lon="-73.9737440"><ele></ele><time>2024-9-14T11:55:53Z</time></trkpt>
<trkpt lat="44.2963090" lon="-73.9738500"><ele></ele><time>2024-9-14T11:55:56Z</time></trkpt>
<trkpt lat="44.2966930" lon="-73.9739910"><ele></ele><time>2024-9-14T11:55:59Z</time></trkpt>
<trkpt lat="44.2970920" lon="-73.9741550"><ele></ele><time>2024-9-14T11:56:2Z</time></trkpt>
<trkpt lat="44.2974410" lon="-73.9743790"><ele></ele><time>2024-9-14T11:56:5Z</time></trkpt>
<trkpt lat="44.2975260" lon="-73.9744710"><ele></ele><time>2024-9-14T11:56:8Z</time></trkpt>
<trkpt lat="44.2976300" lon="-73.9746370"><ele></ele><time>2024-9-14T11:56:11Z</time></trkpt>
<trkpt lat="44.2977130" lon="-73.9748920"><ele></ele><time>2024-9-14T11:56:14Z</time></trkpt>
<trkpt lat="44.2977310" lon="-73.9750250"><ele></ele><time>2024-9-14T11:56:17Z</time></trkpt>
<trkpt lat="44.2977140" lon="-73.9755410"><ele></ele><time>2024-9-14T11:56:20Z</time></trkpt>
<trkpt lat="44.2976860" lon="-73.9758300"><ele></ele><time>2024-9-14T11:56:23Z</time></trkpt>
<trkpt lat="44.2976430" lon="-73.9761450"><ele></ele><time>2024-9-14T11:56:26Z</time></trkpt>
<trkpt lat="44.2975810" lon="-73.9765130"><ele></ele><time>2024-9-14T11:56:29Z</time></trkpt>
<trkpt lat="44.2975530" lon="-73.9766460"><ele></ele><time>2024-9-14T11:56:32Z</time></trkpt>
<trkpt lat="44.2974900" lon="-73.9768880"><ele></ele><time>2024-9-14T11:56:35Z</time></trkpt>
<trkpt lat="44.2974430" lon="-73.9770510"><ele></ele><time>2024-9-14T11:56:38Z</time></trkpt>
<trkpt lat="44.2973820" lon="-73.9772420"><ele></ele><time>2024-9-14T11:56:41Z</time></trkpt>
<trkpt lat="44.2973550" lon="-73.9773340"><ele></ele><time>2024-9-14T11:56:44Z</time></trkpt>
<trkpt lat="44.2972670" lon="-73.9776400"><ele></ele><time>2024-9-14T11:56:47Z</time></trkpt>
<trkpt lat="44.2972550" lon="-73.9776850"><ele></ele><time>2024-9-14T11:56:50Z</time></trkpt>
<trkpt lat="44.2971740" lon="-73.9779510"><ele></ele><time>2024-9-14T11:56:53Z</time></trkpt>
<trkpt lat="44.2971240" lon="-73.9781100"><ele></ele><time>2024-9-14T11:56:56Z</time></trkpt>
<trkpt lat="44.2971200" lon="-73.9781310"><ele></ele><time>2024-9-14T11:56:59Z</time></trkpt>
<trkpt lat="44.2971010" lon="-73.9781770"><ele></ele><time>2024-9-14T11:57:2Z</time></trkpt>
<trkpt lat="44.2970620" lon="-73.9783210"><ele></ele><time>2024-9-14T11:57:5Z</time></trkpt>
<trkpt lat="44.2970510" lon="-73.9784020"><ele></ele><time>2024-9-14T11:57:8Z</time></trkpt>
<trkpt lat="44.2970410" lon="-73.9784610"><ele></ele><time>2024-9-14T11:57:11Z</time></trkpt>
<trkpt lat="44.2970380" lon="-73.9784660"><ele></ele><time>2024-9-14T11:57:14Z</time></trkpt>
<trkpt lat="44.2970370" lon="-73.9784690"><ele></ele><time>2024-9-14T11:57:17Z</time></trkpt>
<trkpt lat="44.2970280" lon="-73.9784840"><ele></ele><time>2024-9-14T11:57:20Z</time></trkpt>
<trkpt lat="44.2970190" lon="-73.9785060"><ele></ele><time>2024-9-14T11:57:23Z</time></trkpt>
<trkpt lat="44.2969410" lon="-73.9787130"><ele></ele><time>2024-9-14T11:57:26Z</time></trkpt>
<trkpt lat="44.2968200" lon="-73.9791440"><ele></ele><time>2024-9-14T11:57:29Z</time></trkpt>
<trkpt lat="44.2967110" lon="-73.9794920"><ele></ele><time>2024-9-14T11:57:32Z</time></trkpt>
<trkpt lat="44.2966940" lon="-73.9795460"><ele></ele><time>2024-9-14T11:57:35Z</time></trkpt>
<trkpt lat="44.2966770" lon="-73.9795990"><ele></ele><time>2024-9-14T11:57:38Z</time></trkpt>
<trkpt lat="44.2966590" lon="-73.9796510"><ele></ele><time>2024-9-14T11:57:41Z</time></trkpt>
<trkpt lat="44.2966420" lon="-73.9796970"><ele></ele><time>2024-9-14T11:57:44Z</time></trkpt>
<trkpt lat="44.2966260" lon="-73.9797400"><ele></ele><time>2024-9-14T11:57:47Z</time></trkpt>
<trkpt lat="44.2966120" lon="-73.9797830"><ele></ele><time>2024-9-14T11:57:50Z</time></trkpt>
<trkpt lat="44.2965670" lon="-73.9799220"><ele></ele><time>2024-9-14T11:57:53Z</time></trkpt>
<trkpt lat="44.2964830" lon="-73.9801560"><ele></ele><time>2024-9-14T11:57:56Z</time></trkpt>
<trkpt lat="44.2964640" lon="-73.9802040"><ele></ele><time>2024-9-14T11:57:59Z</time></trkpt>
<trkpt lat="44.2964440" lon="-73.9802500"><ele></ele><time>2024-9-14T11:58:2Z</time></trkpt>
<trkpt lat="44.2964230" lon="-73.9802930"><ele></ele><time>2024-9-14T11:58:5Z</time></trkpt>
<trkpt lat="44.2963990" lon="-73.9803330"><ele></ele><time>2024-9-14T11:58:8Z</time></trkpt>
<trkpt lat="44.2963730" lon="-73.9803700"><ele></ele><time>2024-9-14T11:58:11Z</time></trkpt>
<trkpt lat="44.2963400" lon="-73.9804080"><ele></ele><time>2024-9-14T11:58:14Z</time></trkpt>
<trkpt lat="44.2962590" lon="-73.9804690"><ele></ele><time>2024-9-14T11:58:17Z</time></trkpt>
<trkpt lat="44.2961080" lon="-73.9805160"><ele></ele><time>2024-9-14T11:58:20Z</time></trkpt>
<trkpt lat="44.2960030" lon="-73.9805260"><ele></ele><time>2024-9-14T11:58:23Z</time></trkpt>
<trkpt lat="44.2958930" lon="-73.9805270"><ele></ele><time>2024-9-14T11:58:26Z</time></trkpt>
<trkpt lat="44.2957230" lon="-73.9805260"><ele></ele><time>2024-9-14T11:58:29Z</time></trkpt>
<trkpt lat="44.2953330" lon="-73.9805180"><ele></ele><time>2024-9-14T11:58:32Z</time></trkpt>
<trkpt lat="44.2952260" lon="-73.9805140"><ele></ele><time>2024-9-14T11:58:35Z</time></trkpt>
<trkpt lat="44.2950110" lon="-73.9805370"><ele></ele><time>2024-9-14T11:58:38Z</time></trkpt>
<trkpt lat="44.2949140" lon="-73.9805800"><ele></ele><time>2024-9-14T11:58:41Z</time></trkpt>
<trkpt lat="44.2948730" lon="-73.9806140"><ele></ele><time>2024-9-14T11:58:44Z</time></trkpt>
<trkpt lat="44.2947780" lon="-73.9807710"><ele></ele><time>2024-9-14T11:58:47Z</time></trkpt>
<trkpt lat="44.2947550" lon="-73.9808330"><ele></ele><time>2024-9-14T11:58:50Z</time></trkpt>
<trkpt lat="44.2947160" lon="-73.9809630"><ele></ele><time>2024-9-14T11:58:53Z</time></trkpt>
<trkpt lat="44.2946630" lon="-73.9811440"><ele></ele><time>2024-9-14T11:58:56Z</time></trkpt>
<trkpt lat="44.2945290" lon="-73.9815080"><ele></ele><time>2024-9-14T11:58:59Z</time></trkpt>
<trkpt lat="44.2944330" lon="-73.9816860"><ele></ele><time>2024-9-14T11:59:2Z</time></trkpt>
<trkpt lat="44.2943440" lon="-73.9817780"><ele></ele><time>2024-9-14T11:59:5Z</time></trkpt>
<trkpt lat="44.2942010" lon="-73.9819090"><ele></ele><time>2024-9-14T11:59:8Z</time></trkpt>
<trkpt lat="44.2940980" lon="-73.9820140"><ele></ele><time>2024-9-14T11:59:11Z</time></trkpt>
<trkpt lat="44.2937760" lon="-73.9823910"><ele></ele><time>2024-9-14T11:59:14Z</time></trkpt>
<trkpt lat="44.2937270" lon="-73.9824600"><ele></ele><time>2024-9-14T11:59:17Z</time></trkpt>
<trkpt lat="44.2936780" lon="-73.9825300"><ele></ele><time>2024-9-14T11:59:20Z</time></trkpt>
<trkpt lat="44.2936360" lon="-73.9826080"><ele></ele><time>2024-9-14T11:59:23Z</time></trkpt>
<trkpt lat="44.2936000" lon="-73.9826900"><ele></ele><time>2024-9-14T11:59:26Z</time></trkpt>
<trkpt lat="44.2935670" lon="-73.9827800"><ele></ele><time>2024-9-14T11:59:29Z</time></trkpt>
<trkpt lat="44.2934270" lon="-73.9831950"><ele></ele><time>2024-9-14T11:59:32Z</time></trkpt>
<trkpt lat="44.2933640" lon="-73.9833370"><ele></ele><time>2024-9-14T11:59:35Z</time></trkpt>
<trkpt lat="44.2932440" lon="-73.9835690"><ele></ele><time>2024-9-14T11:59:38Z</time></trkpt>
<trkpt lat="44.2932200" lon="-73.9836120"><ele></ele><time>2024-9-14T11:59:41Z</time></trkpt>
<trkpt lat="44.2931270" lon="-73.9837390"><ele></ele><time>2024-9-14T11:59:44Z</time></trkpt>
<trkpt lat="44.2930790" lon="-73.9838030"><ele></ele><time>2024-9-14T11:59:47Z</time></trkpt>
<trkpt lat="44.2930230" lon="-73.9838850"><ele></ele><time>2024-9-14T11:59:50Z</time></trkpt>
<trkpt lat="44.2929320" lon="-73.9840350"><ele></ele><time>2024-9-14T11:59:53Z</time></trkpt>
<trkpt lat="44.2926800" lon="-73.9844040"><ele></ele><time>2024-9-14T11:59:56Z</time></trkpt>
<trkpt lat="44.2926450" lon="-73.9844570"><ele></ele><time>2024-9-14T11:59:59Z</time></trkpt>
<trkpt lat="44.2926060" lon="-73.9845060"><ele></ele><time>2024-9-14T12:0:2Z</time></trkpt>
<trkpt lat="44.2924480" lon="-73.9846770"><ele></ele><time>2024-9-14T12:0:5Z</time></trkpt>
<trkpt lat="44.2923610" lon="-73.9847500"><ele></ele><time>2024-9-14T12:0:8Z</time></trkpt>
<trkpt lat="44.2921790" lon="-73.9848580"><ele></ele><time>2024-9-14T12:0:11Z</time></trkpt>
<trkpt lat="44.2921310" lon="-73.9848780"><ele></ele><time>2024-9-14T12:0:14Z</time></trkpt>
<trkpt lat="44.2919010" lon="-73.9849580"><ele></ele><time>2024-9-14T12:0:17Z</time></trkpt>
<trkpt lat="44.2917730" lon="-73.9849740"><ele></ele><time>2024-9-14T12:0:20Z</time></trkpt>
<trkpt lat="44.2916710" lon="-73.9849890"><ele></ele><time>2024-9-14T12:0:23Z</time></trkpt>
<trkpt lat="44.2916580" lon="-73.9849540"><ele></ele><time>2024-9-14T12:0:26Z</time></trkpt>
<trkpt lat="44.2916470" lon="-73.9848830"><ele></ele><time>2024-9-14T12:0:29Z</time></trkpt>
<trkpt lat="44.2916480" lon="-73.9848760"><ele></ele><time>2024-9-14T12:0:32Z</time></trkpt>
<trkpt lat="44.2916530" lon="-73.9848660"><ele></ele><time>2024-9-14T12:0:35Z</time></trkpt>
<trkpt lat="44.2916650" lon="-73.9848550"><ele></ele><time>2024-9-14T12:0:38Z</time></trkpt>
<trkpt lat="44.2916910" lon="-73.9848170"><ele></ele><time>2024-9-14T12:0:41Z</time></trkpt>
<trkpt lat="44.2916820" lon="-73.9847890"><ele></ele><time>2024-9-14T12:0:44Z</time></trkpt>
<trkpt lat="44.2916390" lon="-73.9848440"><ele></ele><time>2024-9-14T12:0:47Z</time></trkpt>
<trkpt lat="44.2915950" lon="-73.9849000"><ele></ele><time>2024-9-14T12:0:50Z</time></trkpt>
<trkpt lat="44.2915510" lon="-73.9849560"><ele></ele><time>2024-9-14T12:0:53Z</time></trkpt>
<trkpt lat="44.2915070" lon="-73.9850120"><ele></ele><time>2024-9-14T12:0:56Z</time></trkpt>
<trkpt lat="44.2914580" lon="-73.9850100"><ele></ele><time>2024-9-14T12:0:59Z</time></trkpt>
<trkpt lat="44.2914110" lon="-73.9850090"><ele></ele><time>2024-9-14T12:1:2Z</time></trkpt>
<trkpt lat="44.2913580" lon="-73.9850060"><ele></ele><time>2024-9-14T12:1:5Z</time></trkpt>
<trkpt lat="44.2913040" lon="-73.9850030"><ele></ele><time>2024-9-14T12:1:8Z</time></trkpt>
<trkpt lat="44.2912510" lon="-73.9850070"><ele></ele><time>2024-9-14T12:1:11Z</time></trkpt>
<trkpt lat="44.2911950" lon="-73.9850120"><ele></ele><time>2024-9-14T12:1:14Z</time></trkpt>
<trkpt lat="44.2908770" lon="-73.9850500"><ele></ele><time>2024-9-14T12:1:17Z</time></trkpt>
<trkpt lat="44.2905490" lon="-73.9851080"><ele></ele><time>2024-9-14T12:1:20Z</time></trkpt>
<trkpt lat="44.2902340" lon="-73.9851630"><ele></ele><time>2024-9-14T12:1:23Z</time></trkpt>
<trkpt lat="44.2900830" lon="-73.9851930"><ele></ele><time>2024-9-14T12:1:26Z</time></trkpt>
<trkpt lat="44.2900020" lon="-73.9852140"><ele></ele><time>2024-9-14T12:1:29Z</time></trkpt>
<trkpt lat="44.2899310" lon="-73.9852290"><ele></ele><time>2024-9-14T12:1:32Z</time></trkpt>
<trkpt lat="44.2899320" lon="-73.9852280"><ele></ele><time>2024-9-14T12:1:35Z</time></trkpt>
<trkpt lat="44.2899260" lon="-73.9852290"><ele></ele><time>2024-9-14T12:1:38Z</time></trkpt>
<trkpt lat="44.2899130" lon="-73.9852270"><ele></ele><time>2024-9-14T12:1:41Z</time></trkpt>
<trkpt lat="44.2898610" lon="-73.9852360"><ele></ele><time>2024-9-14T12:1:44Z</time></trkpt>
<trkpt lat="44.2897600" lon="-73.9852430"><ele></ele><time>2024-9-14T12:1:47Z</time></trkpt>
<trkpt lat="44.2897530" lon="-73.9852440"><ele></ele><time>2024-9-14T12:1:50Z</time></trkpt>
<trkpt lat="44.2897430" lon="-73.9852490"><ele></ele><time>2024-9-14T12:1:53Z</time></trkpt>
<trkpt lat="44.2897290" lon="-73.9852390"><ele></ele><time>2024-9-14T12:1:56Z</time></trkpt>
<trkpt lat="44.2897270" lon="-73.9852340"><ele></ele><time>2024-9-14T12:1:59Z</time></trkpt>
<trkpt lat="44.2897210" lon="-73.9852030"><ele></ele><time>2024-9-14T12:2:2Z</time></trkpt>
<trkpt lat="44.2896680" lon="-73.9852180"><ele></ele><time>2024-9-14T12:2:5Z</time></trkpt>
<trkpt lat="44.2896490" lon="-73.9852220"><ele></ele><time>2024-9-14T12:2:8Z</time></trkpt>
<trkpt lat="44.2896210" lon="-73.9852240"><ele></ele><time>2024-9-14T12:2:11Z</time></trkpt>
<trkpt lat="44.2894700" lon="-73.9852370"><ele></ele><time>2024-9-14T12:2:14Z</time></trkpt>
<trkpt lat="44.2893470" lon="-73.9852440"><ele></ele><time>2024-9-14T12:2:17Z</time></trkpt>
<trkpt lat="44.2892570" lon="-73.9852510"><ele></ele><time>2024-9-14T12:2:20Z</time></trkpt>
<trkpt lat="44.2891150" lon="-73.9852590"><ele></ele><time>2024-9-14T12:2:23Z</time></trkpt>
<trkpt lat="44.2889800" lon="-73.9852660"><ele></ele><time>2024-9-14T12:2:26Z</time></trkpt>
<trkpt lat="44.2886880" lon="-73.9852930"><ele></ele><time>2024-9-14T12:2:29Z</time></trkpt>
<trkpt lat="44.2886930" lon="-73.9852970"><ele></ele><time>2024-9-14T12:2:32Z</time></trkpt>
<trkpt lat="44.2886890" lon="-73.9853010"><ele></ele><time>2024-9-14T12:2:35Z</time></trkpt>
<trkpt lat="44.2886800" lon="-73.9853030"><ele></ele><time>2024-9-14T12:2:38Z</time></trkpt>
<trkpt lat="44.2886820" lon="-73.9853040"><ele></ele><time>2024-9-14T12:2:41Z</time></trkpt>
<trkpt lat="44.2886740" lon="-73.9853040"><ele></ele><time>2024-9-14T12:2:44Z</time></trkpt>
<trkpt lat="44.2886270" lon="-73.9853060"><ele></ele><time>2024-9-14T12:2:47Z</time></trkpt>
<trkpt lat="44.2884300" lon="-73.9853090"><ele></ele><time>2024-9-14T12:2:50Z</time></trkpt>
<trkpt lat="44.2882620" lon="-73.9853140"><ele></ele><time>2024-9-14T12:2:53Z</time></trkpt>
<trkpt lat="44.2882270" lon="-73.9853120"><ele></ele><time>2024-9-14T12:2:56Z</time></trkpt>
<trkpt lat="44.2880700" lon="-73.9853010"><ele></ele><time>2024-9-14T12:2:59Z</time></trkpt>
<trkpt lat="44.2879770" lon="-73.9853050"><ele></ele><time>2024-9-14T12:3:2Z</time></trkpt>
<trkpt lat="44.2878010" lon="-73.9853040"><ele></ele><time>2024-9-14T12:3:5Z</time></trkpt>
<trkpt lat="44.2876280" lon="-73.9852890"><ele></ele><time>2024-9-14T12:3:8Z</time></trkpt>
<trkpt lat="44.2873860" lon="-73.9852810"><ele></ele><time>2024-9-14T12:3:11Z</time></trkpt>
<trkpt lat="44.2873490" lon="-73.9852870"><ele></ele><time>2024-9-14T12:3:14Z</time></trkpt>
<trkpt lat="44.2872620" lon="-73.9852980"><ele></ele><time>2024-9-14T12:3:17Z</time></trkpt>
<trkpt lat="44.2872080" lon="-73.9853060"><ele></ele><time>2024-9-14T12:3:20Z</time></trkpt>
<trkpt lat="44.2871640" lon="-73.9853080"><ele></ele><time>2024-9-14T12:3:23Z</time></trkpt>
<trkpt lat="44.2871180" lon="-73.9853030"><ele></ele><time>2024-9-14T12:3:26Z</time></trkpt>
<trkpt lat="44.2870750" lon="-73.9852950"><ele></ele><time>2024-9-14T12:3:29Z</time></trkpt>
<trkpt lat="44.2867600" lon="-73.9852640"><ele></ele><time>2024-9-14T12:3:32Z</time></trkpt>
<trkpt lat="44.2866580" lon="-73.9852520"><ele></ele><time>2024-9-14T12:3:35Z</time></trkpt>
<trkpt lat="44.2865130" lon="-73.9852070"><ele></ele><time>2024-9-14T12:3:38Z</time></trkpt>
<trkpt lat="44.2863820" lon="-73.9851660"><ele></ele><time>2024-9-14T12:3:41Z</time></trkpt>
<trkpt lat="44.2862620" lon="-73.9850910"><ele></ele><time>2024-9-14T12:3:44Z</time></trkpt>
<trkpt lat="44.2860520" lon="-73.9848920"><ele></ele><time>2024-9-14T12:3:47Z</time></trkpt>
<trkpt lat="44.2859110" lon="-73.9846910"><ele></ele><time>2024-9-14T12:3:50Z</time></trkpt>
<trkpt lat="44.2856460" lon="-73.9842900"><ele></ele><time>2024-9-14T12:3:53Z</time></trkpt>
<trkpt lat="44.2854580" lon="-73.9841430"><ele></ele><time>2024-9-14T12:3:56Z</time></trkpt>
<trkpt lat="44.2854110" lon="-73.9841230"><ele></ele><time>2024-9-14T12:3:59Z</time></trkpt>
<trkpt lat="44.2853570" lon="-73.9841120"><ele></ele><time>2024-9-14T12:4:2Z</time></trkpt>
<trkpt lat="44.2852410" lon="-73.9840970"><ele></ele><time>2024-9-14T12:4:5Z</time></trkpt>
<trkpt lat="44.2851780" lon="-73.9841040"><ele></ele><time>2024-9-14T12:4:8Z</time></trkpt>
<trkpt lat="44.2849820" lon="-73.9842200"><ele></ele><time>2024-9-14T12:4:11Z</time></trkpt>
<trkpt lat="44.2848460" lon="-73.9842960"><ele></ele><time>2024-9-14T12:4:14Z</time></trkpt>
<trkpt lat="44.2845700" lon="-73.9844180"><ele></ele><time>2024-9-14T12:4:17Z</time></trkpt>
<trkpt lat="44.2844970" lon="-73.9844300"><ele></ele><time>2024-9-14T12:4:20Z</time></trkpt>
<trkpt lat="44.2843490" lon="-73.9844380"><ele></ele><time>2024-9-14T12:4:23Z</time></trkpt>
<trkpt lat="44.2842720" lon="-73.9844360"><ele></ele><time>2024-9-14T12:4:26Z</time></trkpt>
<trkpt lat="44.2841950" lon="-73.9844320"><ele></ele><time>2024-9-14T12:4:29Z</time></trkpt>
<trkpt lat="44.2841170" lon="-73.9844250"><ele></ele><time>2024-9-14T12:4:32Z</time></trkpt>
<trkpt lat="44.2840390" lon="-73.9844170"><ele></ele><time>2024-9-14T12:4:35Z</time></trkpt>
<trkpt lat="44.2837830" lon="-73.9843820"><ele></ele><time>2024-9-14T12:4:38Z</time></trkpt>
<trkpt lat="44.2836940" lon="-73.9843500"><ele></ele><time>2024-9-14T12:4:41Z</time></trkpt>
<trkpt lat="44.2836120" lon="-73.9843070"><ele></ele><time>2024-9-14T12:4:44Z</time></trkpt>
<trkpt lat="44.2835240" lon="-73.9842620"><ele></ele><time>2024-9-14T12:4:47Z</time></trkpt>
<trkpt lat="44.2834360" lon="-73.9842020"><ele></ele><time>2024-9-14T12:4:50Z</time></trkpt>
<trkpt lat="44.2833510" lon="-73.9841340"><ele></ele><time>2024-9-14T12:4:53Z</time></trkpt>
<trkpt lat="44.2832750" lon="-73.9840440"><ele></ele><time>2024-9-14T12:4:56Z</time></trkpt>
<trkpt lat="44.2832050" lon="-73.9839610"><ele></ele><time>2024-9-14T12:4:59Z</time></trkpt>
<trkpt lat="44.2831340" lon="-73.9838690"><ele></ele><time>2024-9-14T12:5:2Z</time></trkpt>
<trkpt lat="44.2830610" lon="-73.9837710"><ele></ele><time>2024-9-14T12:5:5Z</time></trkpt>
<trkpt lat="44.2829880" lon="-73.9836720"><ele></ele><time>2024-9-14T12:5:8Z</time></trkpt>
<trkpt lat="44.2829120" lon="-73.9835780"><ele></ele><time>2024-9-14T12:5:11Z</time></trkpt>
<trkpt lat="44.2828350" lon="-73.9834840"><ele></ele><time>2024-9-14T12:5:14Z</time></trkpt>
<trkpt lat="44.2826770" lon="-73.9833240"><ele></ele><time>2024-9-14T12:5:17Z</time></trkpt>
<trkpt lat="44.2826000" lon="-73.9832590"><ele></ele><time>2024-9-14T12:5:20Z</time></trkpt>
<trkpt lat="44.2825260" lon="-73.9831990"><ele></ele><time>2024-9-14T12:5:23Z</time></trkpt>
<trkpt lat="44.2824590" lon="-73.9831430"><ele></ele><time>2024-9-14T12:5:26Z</time></trkpt>
<trkpt lat="44.2823940" lon="-73.9830890"><ele></ele><time>2024-9-14T12:5:29Z</time></trkpt>
<trkpt lat="44.2823290" lon="-73.9830360"><ele></ele><time>2024-9-14T12:5:32Z</time></trkpt>
<trkpt lat="44.2819100" lon="-73.9826610"><ele></ele><time>2024-9-14T12:5:35Z</time></trkpt>
<trkpt lat="44.2816280" lon="-73.9823380"><ele></ele><time>2024-9-14T12:5:38Z</time></trkpt>
<trkpt lat="44.2815670" lon="-73.9822740"><ele></ele><time>2024-9-14T12:5:41Z</time></trkpt>
<trkpt lat="44.2815010" lon="-73.9822140"><ele></ele><time>2024-9-14T12:5:44Z</time></trkpt>
<trkpt lat="44.2814360" lon="-73.9821450"><ele></ele><time>2024-9-14T12:5:47Z</time></trkpt>
<trkpt lat="44.2813700" lon="-73.9820730"><ele></ele><time>2024-9-14T12:5:50Z</time></trkpt>
<trkpt lat="44.2812970" lon="-73.9819990"><ele></ele><time>2024-9-14T12:5:53Z</time></trkpt>
<trkpt lat="44.2812240" lon="-73.9819280"><ele></ele><time>2024-9-14T12:5:56Z</time></trkpt>
<trkpt lat="44.2811460" lon="-73.9818570"><ele></ele><time>2024-9-14T12:5:59Z</time></trkpt>
<trkpt lat="44.2810700" lon="-73.9817790"><ele></ele><time>2024-9-14T12:6:2Z</time></trkpt>
<trkpt lat="44.2809890" lon="-73.9817030"><ele></ele><time>2024-9-14T12:6:5Z</time></trkpt>
<trkpt lat="44.2809180" lon="-73.9816070"><ele></ele><time>2024-9-14T12:6:8Z</time></trkpt>
<trkpt lat="44.2808420" lon="-73.9815130"><ele></ele><time>2024-9-14T12:6:11Z</time></trkpt>
<trkpt lat="44.2807620" lon="-73.9814360"><ele></ele><time>2024-9-14T12:6:14Z</time></trkpt>
<trkpt lat="44.2806850" lon="-73.9813590"><ele></ele><time>2024-9-14T12:6:17Z</time></trkpt>
<trkpt lat="44.2806110" lon="-73.9812790"><ele></ele><time>2024-9-14T12:6:20Z</time></trkpt>
<trkpt lat="44.2805410" lon="-73.9812050"><ele></ele><time>2024-9-14T12:6:23Z</time></trkpt>
<trkpt lat="44.2804680" lon="-73.9811350"><ele></ele><time>2024-9-14T12:6:26Z</time></trkpt>
<trkpt lat="44.2803970" lon="-73.9810660"><ele></ele><time>2024-9-14T12:6:29Z</time></trkpt>
<trkpt lat="44.2802520" lon="-73.9809590"><ele></ele><time>2024-9-14T12:6:32Z</time></trkpt>
<trkpt lat="44.2798870" lon="-73.9806340"><ele></ele><time>2024-9-14T12:6:35Z</time></trkpt>
<trkpt lat="44.2798400" lon="-73.9805830"><ele></ele><time>2024-9-14T12:6:38Z</time></trkpt>
<trkpt lat="44.2797960" lon="-73.9805360"><ele></ele><time>2024-9-14T12:6:41Z</time></trkpt>
<trkpt lat="44.2797550" lon="-73.9804950"><ele></ele><time>2024-9-14T12:6:44Z</time></trkpt>
<trkpt lat="44.2797180" lon="-73.9804560"><ele></ele><time>2024-9-14T12:6:47Z</time></trkpt>
<trkpt lat="44.2796870" lon="-73.9804220"><ele></ele><time>2024-9-14T12:6:50Z</time></trkpt>
<trkpt lat="44.2796630" lon="-73.9803810"><ele></ele><time>2024-9-14T12:6:53Z</time></trkpt>
<trkpt lat="44.2796390" lon="-73.9803530"><ele></ele><time>2024-9-14T12:6:56Z</time></trkpt>
<trkpt lat="44.2796210" lon="-73.9803330"><ele></ele><time>2024-9-14T12:6:59Z</time></trkpt>
<trkpt lat="44.2796030" lon="-73.9803320"><ele></ele><time>2024-9-14T12:7:2Z</time></trkpt>
<trkpt lat="44.2795900" lon="-73.9803260"><ele></ele><time>2024-9-14T12:7:5Z</time></trkpt>
<trkpt lat="44.2795800" lon="-73.9803180"><ele></ele><time>2024-9-14T12:7:8Z</time></trkpt>
<trkpt lat="44.2795820" lon="-73.9803240"><ele></ele><time>2024-9-14T12:7:11Z</time></trkpt>
<trkpt lat="44.2795820" lon="-73.9803240"><ele></ele><time>2024-9-14T12:7:14Z</time></trkpt>
<trkpt lat="44.2795770" lon="-73.9803230"><ele></ele><time>2024-9-14T12:7:17Z</time></trkpt>
<trkpt lat="44.2795010" lon="-73.9802360"><ele></ele><time>2024-9-14T12:7:20Z</time></trkpt>
<trkpt lat="44.2793720" lon="-73.9800590"><ele></ele><time>2024-9-14T12:7:23Z</time></trkpt>
<trkpt lat="44.2793080" lon="-73.9799840"><ele></ele><time>2024-9-14T12:7:26Z</time></trkpt>
<trkpt lat="44.2790410" lon="-73.9797260"><ele></ele><time>2024-9-14T12:7:29Z</time></trkpt>
<trkpt lat="44.2790040" lon="-73.9796860"><ele></ele><time>2024-9-14T12:7:32Z</time></trkpt>
<trkpt lat="44.2788310" lon="-73.9794830"><ele></ele><time>2024-9-14T12:7:35Z</time></trkpt>
<trkpt lat="44.2787780" lon="-73.9793920"><ele></ele><time>2024-9-14T12:7:38Z</time></trkpt>
<trkpt lat="44.2786670" lon="-73.9791340"><ele></ele><time>2024-9-14T12:7:41Z</time></trkpt>
<trkpt lat="44.2786240" lon="-73.9789570"><ele></ele><time>2024-9-14T12:7:44Z</time></trkpt>
<trkpt lat="44.2785600" lon="-73.9785100"><ele></ele><time>2024-9-14T12:7:47Z</time></trkpt>
<trkpt lat="44.2785390" lon="-73.9783530"><ele></ele><time>2024-9-14T12:7:50Z</time></trkpt>
<trkpt lat="44.2784850" lon="-73.9778940"><ele></ele><time>2024-9-14T12:7:53Z</time></trkpt>
<trkpt lat="44.2784620" lon="-73.9777400"><ele></ele><time>2024-9-14T12:7:56Z</time></trkpt>
<trkpt lat="44.2784330" lon="-73.9775060"><ele></ele><time>2024-9-14T12:7:59Z</time></trkpt>
<trkpt lat="44.2784070" lon="-73.9771970"><ele></ele><time>2024-9-14T12:8:2Z</time></trkpt>
<trkpt lat="44.2784160" lon="-73.9766660"><ele></ele><time>2024-9-14T12:8:5Z</time></trkpt>
<trkpt lat="44.2784960" lon="-73.9761940"><ele></ele><time>2024-9-14T12:8:8Z</time></trkpt>
<trkpt lat="44.2786430" lon="-73.9757210"><ele></ele><time>2024-9-14T12:8:11Z</time></trkpt>
<trkpt lat="44.2787740" lon="-73.9754510"><ele></ele><time>2024-9-14T12:8:14Z</time></trkpt>
<trkpt lat="44.2788220" lon="-73.9753640"><ele></ele><time>2024-9-14T12:8:17Z</time></trkpt>
<trkpt lat="44.2789360" lon="-73.9751950"><ele></ele><time>2024-9-14T12:8:20Z</time></trkpt>
<trkpt lat="44.2793470" lon="-73.9746690"><ele></ele><time>2024-9-14T12:8:23Z</time></trkpt>
<trkpt lat="44.2794010" lon="-73.9745900"><ele></ele><time>2024-9-14T12:8:26Z</time></trkpt>
<trkpt lat="44.2794510" lon="-73.9745140"><ele></ele><time>2024-9-14T12:8:29Z</time></trkpt>
<trkpt lat="44.2794970" lon="-73.9744370"><ele></ele><time>2024-9-14T12:8:32Z</time></trkpt>
<trkpt lat="44.2795420" lon="-73.9743600"><ele></ele><time>2024-9-14T12:8:35Z</time></trkpt>
<trkpt lat="44.2795830" lon="-73.9742850"><ele></ele><time>2024-9-14T12:8:38Z</time></trkpt>
<trkpt lat="44.2796210" lon="-73.9742130"><ele></ele><time>2024-9-14T12:8:41Z</time></trkpt>
<trkpt lat="44.2796540" lon="-73.9741410"><ele></ele><time>2024-9-14T12:8:44Z</time></trkpt>
<trkpt lat="44.2797710" lon="-73.9738300"><ele></ele><time>2024-9-14T12:8:47Z</time></trkpt>
<trkpt lat="44.2797820" lon="-73.9738010"><ele></ele><time>2024-9-14T12:8:50Z</time></trkpt>
<trkpt lat="44.2798400" lon="-73.9736430"><ele></ele><time>2024-9-14T12:8:53Z</time></trkpt>
<trkpt lat="44.2798870" lon="-73.9734000"><ele></ele><time>2024-9-14T12:8:56Z</time></trkpt>
<trkpt lat="44.2798880" lon="-73.9733900"><ele></ele><time>2024-9-14T12:8:59Z</time></trkpt>
<trkpt lat="44.2798910" lon="-73.9733990"><ele></ele><time>2024-9-14T12:9:2Z</time></trkpt>
<trkpt lat="44.2798980" lon="-73.9733980"><ele></ele><time>2024-9-14T12:9:5Z</time></trkpt>
<trkpt lat="44.2799050" lon="-73.9734010"><ele></ele><time>2024-9-14T12:9:8Z</time></trkpt>
<trkpt lat="44.2799550" lon="-73.9734000"><ele></ele><time>2024-9-14T12:9:11Z</time></trkpt>
<trkpt lat="44.2799640" lon="-73.9733970"><ele></ele><time>2024-9-14T12:9:14Z</time></trkpt>
<trkpt lat="44.2799720" lon="-73.9733890"><ele></ele><time>2024-9-14T12:9:17Z</time></trkpt>
<trkpt lat="44.2799780" lon="-73.9733760"><ele></ele><time>2024-9-14T12:9:20Z</time></trkpt>
<trkpt lat="44.2799900" lon="-73.9733520"><ele></ele><time>2024-9-14T12:9:23Z</time></trkpt>
<trkpt lat="44.2800620" lon="-73.9732170"><ele></ele><time>2024-9-14T12:9:26Z</time></trkpt>
<trkpt lat="44.2802110" lon="-73.9729740"><ele></ele><time>2024-9-14T12:9:29Z</time></trkpt>
<trkpt lat="44.2804390" lon="-73.9726790"><ele></ele><time>2024-9-14T12:9:32Z</time></trkpt>
<trkpt lat="44.2806520" lon="-73.9724420"><ele></ele><time>2024-9-14T12:9:35Z</time></trkpt>
<trkpt lat="44.2807880" lon="-73.9722700"><ele></ele><time>2024-9-14T12:9:38Z</time></trkpt>
<trkpt lat="44.2808450" lon="-73.9722060"><ele></ele><time>2024-9-14T12:9:41Z</time></trkpt>
<trkpt lat="44.2808720" lon="-73.9721770"><ele></ele><time>2024-9-14T12:9:44Z</time></trkpt>
<trkpt lat="44.2808990" lon="-73.9721490"><ele></ele><time>2024-9-14T12:9:47Z</time></trkpt>
<trkpt lat="44.2809260" lon="-73.9721190"><ele></ele><time>2024-9-14T12:9:50Z</time></trkpt>
<trkpt lat="44.2809510" lon="-73.9720870"><ele></ele><time>2024-9-14T12:9:53Z</time></trkpt>
<trkpt lat="44.2810560" lon="-73.9719590"><ele></ele><time>2024-9-14T12:9:56Z</time></trkpt>
<trkpt lat="44.2812300" lon="-73.9717680"><ele></ele><time>2024-9-14T12:9:59Z</time></trkpt>
<trkpt lat="44.2812570" lon="-73.9717370"><ele></ele><time>2024-9-14T12:10:2Z</time></trkpt>
<trkpt lat="44.2812850" lon="-73.9717050"><ele></ele><time>2024-9-14T12:10:5Z</time></trkpt>
<trkpt lat="44.2813160" lon="-73.9716710"><ele></ele><time>2024-9-14T12:10:8Z</time></trkpt>
<trkpt lat="44.2813470" lon="-73.9716350"><ele></ele><time>2024-9-14T12:10:11Z</time></trkpt>
<trkpt lat="44.2815390" lon="-73.9714140"><ele></ele><time>2024-9-14T12:10:14Z</time></trkpt>
<trkpt lat="44.2815690" lon="-73.9713820"><ele></ele><time>2024-9-14T12:10:17Z</time></trkpt>
<trkpt lat="44.2817130" lon="-73.9712300"><ele></ele><time>2024-9-14T12:10:20Z</time></trkpt>
<trkpt lat="44.2817420" lon="-73.9711980"><ele></ele><time>2024-9-14T12:10:23Z</time></trkpt>
<trkpt lat="44.2817690" lon="-73.9711680"><ele></ele><time>2024-9-14T12:10:26Z</time></trkpt>
<trkpt lat="44.2817970" lon="-73.9711400"><ele></ele><time>2024-9-14T12:10:29Z</time></trkpt>
<trkpt lat="44.2819940" lon="-73.9709320"><ele></ele><time>2024-9-14T12:10:32Z</time></trkpt>
<trkpt lat="44.2820810" lon="-73.9708380"><ele></ele><time>2024-9-14T12:10:35Z</time></trkpt>
<trkpt lat="44.2822500" lon="-73.9706720"><ele></ele><time>2024-9-14T12:10:38Z</time></trkpt>
<trkpt lat="44.2822810" lon="-73.9706410"><ele></ele><time>2024-9-14T12:10:41Z</time></trkpt>
<trkpt lat="44.2823120" lon="-73.9706090"><ele></ele><time>2024-9-14T12:10:44Z</time></trkpt>
<trkpt lat="44.2823460" lon="-73.9705800"><ele></ele><time>2024-9-14T12:10:47Z</time></trkpt>
<trkpt lat="44.2823790" lon="-73.9705500"><ele></ele><time>2024-9-14T12:10:50Z</time></trkpt>
<trkpt lat="44.2825400" lon="-73.9703800"><ele></ele><time>2024-9-14T12:10:53Z</time></trkpt>
<trkpt lat="44.2827880" lon="-73.9701320"><ele></ele><time>2024-9-14T12:10:56Z</time></trkpt>
<trkpt lat="44.2828200" lon="-73.9701010"><ele></ele><time>2024-9-14T12:10:59Z</time></trkpt>
<trkpt lat="44.2828520" lon="-73.9700680"><ele></ele><time>2024-9-14T12:11:2Z</time></trkpt>
<trkpt lat="44.2828830" lon="-73.9700380"><ele></ele><time>2024-9-14T12:11:5Z</time></trkpt>
<trkpt lat="44.2829150" lon="-73.9700040"><ele></ele><time>2024-9-14T12:11:8Z</time></trkpt>
<trkpt lat="44.2829450" lon="-73.9699740"><ele></ele><time>2024-9-14T12:11:11Z</time></trkpt>
<trkpt lat="44.2831320" lon="-73.9697850"><ele></ele><time>2024-9-14T12:11:14Z</time></trkpt>
<trkpt lat="44.2833520" lon="-73.9695660"><ele></ele><time>2024-9-14T12:11:17Z</time></trkpt>
<trkpt lat="44.2833860" lon="-73.9695320"><ele></ele><time>2024-9-14T12:11:20Z</time></trkpt>
<trkpt lat="44.2834170" lon="-73.9694970"><ele></ele><time>2024-9-14T12:11:23Z</time></trkpt>
<trkpt lat="44.2834520" lon="-73.9694590"><ele></ele><time>2024-9-14T12:11:26Z</time></trkpt>
<trkpt lat="44.2834870" lon="-73.9694180"><ele></ele><time>2024-9-14T12:11:29Z</time></trkpt>
<trkpt lat="44.2836250" lon="-73.9692640"><ele></ele><time>2024-9-14T12:11:32Z</time></trkpt>
<trkpt lat="44.2838170" lon="-73.9690550"><ele></ele><time>2024-9-14T12:11:35Z</time></trkpt>
<trkpt lat="44.2838570" lon="-73.9690110"><ele></ele><time>2024-9-14T12:11:38Z</time></trkpt>
<trkpt lat="44.2839420" lon="-73.9689120"><ele></ele><time>2024-9-14T12:11:41Z</time></trkpt>
<trkpt lat="44.2841510" lon="-73.9686560"><ele></ele><time>2024-9-14T12:11:44Z</time></trkpt>
<trkpt lat="44.2844520" lon="-73.9682300"><ele></ele><time>2024-9-14T12:11:47Z</time></trkpt>
<trkpt lat="44.2846540" lon="-73.9679170"><ele></ele><time>2024-9-14T12:11:50Z</time></trkpt>
<trkpt lat="44.2846810" lon="-73.9678720"><ele></ele><time>2024-9-14T12:11:53Z</time></trkpt>
<trkpt lat="44.2847040" lon="-73.9678290"><ele></ele><time>2024-9-14T12:11:56Z</time></trkpt>
<trkpt lat="44.2847290" lon="-73.9677920"><ele></ele><time>2024-9-14T12:11:59Z</time></trkpt>
<trkpt lat="44.2847540" lon="-73.9677550"><ele></ele><time>2024-9-14T12:12:2Z</time></trkpt>
<trkpt lat="44.2847790" lon="-73.9677200"><ele></ele><time>2024-9-14T12:12:5Z</time></trkpt>
<trkpt lat="44.2848300" lon="-73.9676390"><ele></ele><time>2024-9-14T12:12:8Z</time></trkpt>
<trkpt lat="44.2849330" lon="-73.9674690"><ele></ele><time>2024-9-14T12:12:11Z</time></trkpt>
<trkpt lat="44.2850340" lon="-73.9673100"><ele></ele><time>2024-9-14T12:12:14Z</time></trkpt>
<trkpt lat="44.2850570" lon="-73.9672700"><ele></ele><time>2024-9-14T12:12:17Z</time></trkpt>
<trkpt lat="44.2850820" lon="-73.9672300"><ele></ele><time>2024-9-14T12:12:20Z</time></trkpt>
<trkpt lat="44.2851070" lon="-73.9671890"><ele></ele><time>2024-9-14T12:12:23Z</time></trkpt>
<trkpt lat="44.2851310" lon="-73.9671480"><ele></ele><time>2024-9-14T12:12:26Z</time></trkpt>
<trkpt lat="44.2853340" lon="-73.9668210"><ele></ele><time>2024-9-14T12:12:29Z</time></trkpt>
<trkpt lat="44.2855430" lon="-73.9664800"><ele></ele><time>2024-9-14T12:12:32Z</time></trkpt>
<trkpt lat="44.2857720" lon="-73.9661170"><ele></ele><time>2024-9-14T12:12:35Z</time></trkpt>
<trkpt lat="44.2858160" lon="-73.9660490"><ele></ele><time>2024-9-14T12:12:38Z</time></trkpt>
<trkpt lat="44.2860160" lon="-73.9657250"><ele></ele><time>2024-9-14T12:12:41Z</time></trkpt>
<trkpt lat="44.2860730" lon="-73.9656290"><ele></ele><time>2024-9-14T12:12:44Z</time></trkpt>
<trkpt lat="44.2861330" lon="-73.9655360"><ele></ele><time>2024-9-14T12:12:47Z</time></trkpt>
<trkpt lat="44.2861980" lon="-73.9654410"><ele></ele><time>2024-9-14T12:12:50Z</time></trkpt>
<trkpt lat="44.2862660" lon="-73.9653420"><ele></ele><time>2024-9-14T12:12:53Z</time></trkpt>
<trkpt lat="44.2863360" lon="-73.9652400"><ele></ele><time>2024-9-14T12:12:56Z</time></trkpt>
<trkpt lat="44.2864090" lon="-73.9651350"><ele></ele><time>2024-9-14T12:12:59Z</time></trkpt>
<trkpt lat="44.2864850" lon="-73.9650280"><ele></ele><time>2024-9-14T12:13:2Z</time></trkpt>
<trkpt lat="44.2865660" lon="-73.9649140"><ele></ele><time>2024-9-14T12:13:5Z</time></trkpt>
<trkpt lat="44.2866420" lon="-73.9648050"><ele></ele><time>2024-9-14T12:13:8Z</time></trkpt>
<trkpt lat="44.2867210" lon="-73.9646940"><ele></ele><time>2024-9-14T12:13:11Z</time></trkpt>
<trkpt lat="44.2868000" lon="-73.9645790"><ele></ele><time>2024-9-14T12:13:14Z</time></trkpt>
<trkpt lat="44.2868790" lon="-73.9644620"><ele></ele><time>2024-9-14T12:13:17Z</time></trkpt>
<trkpt lat="44.2869580" lon="-73.9643430"><ele></ele><time>2024-9-14T12:13:20Z</time></trkpt>
<trkpt lat="44.2870410" lon="-73.9642230"><ele></ele><time>2024-9-14T12:13:23Z</time></trkpt>
<trkpt lat="44.2871230" lon="-73.9641040"><ele></ele><time>2024-9-14T12:13:26Z</time></trkpt>
<trkpt lat="44.2872090" lon="-73.9639780"><ele></ele><time>2024-9-14T12:13:29Z</time></trkpt>
<trkpt lat="44.2872920" lon="-73.9638610"><ele></ele><time>2024-9-14T12:13:32Z</time></trkpt>
<trkpt lat="44.2873760" lon="-73.9637420"><ele></ele><time>2024-9-14T12:13:35Z</time></trkpt>
<trkpt lat="44.2874610" lon="-73.9636210"><ele></ele><time>2024-9-14T12:13:38Z</time></trkpt>
<trkpt lat="44.2875440" lon="-73.9634990"><ele></ele><time>2024-9-14T12:13:41Z</time></trkpt>
<trkpt lat="44.2876280" lon="-73.9633780"><ele></ele><time>2024-9-14T12:13:44Z</time></trkpt>
<trkpt lat="44.2877130" lon="-73.9632580"><ele></ele><time>2024-9-14T12:13:47Z</time></trkpt>
<trkpt lat="44.2877980" lon="-73.9631390"><ele></ele><time>2024-9-14T12:13:50Z</time></trkpt>
<trkpt lat="44.2878880" lon="-73.9630130"><ele></ele><time>2024-9-14T12:13:53Z</time></trkpt>
<trkpt lat="44.2879720" lon="-73.9628950"><ele></ele><time>2024-9-14T12:13:56Z</time></trkpt>
<trkpt lat="44.2880540" lon="-73.9627740"><ele></ele><time>2024-9-14T12:13:59Z</time></trkpt>
<trkpt lat="44.2881350" lon="-73.9626550"><ele></ele><time>2024-9-14T12:14:2Z</time></trkpt>
<trkpt lat="44.2882160" lon="-73.9625390"><ele></ele><time>2024-9-14T12:14:5Z</time></trkpt>
<trkpt lat="44.2882930" lon="-73.9624260"><ele></ele><time>2024-9-14T12:14:8Z</time></trkpt>
<trkpt lat="44.2883710" lon="-73.9623130"><ele></ele><time>2024-9-14T12:14:11Z</time></trkpt>
<trkpt lat="44.2884410" lon="-73.9622110"><ele></ele><time>2024-9-14T12:14:14Z</time></trkpt>
<trkpt lat="44.2885120" lon="-73.9621110"><ele></ele><time>2024-9-14T12:14:17Z</time></trkpt>
<trkpt lat="44.2887690" lon="-73.9617390"><ele></ele><time>2024-9-14T12:14:20Z</time></trkpt>
<trkpt lat="44.2888940" lon="-73.9615590"><ele></ele><time>2024-9-14T12:14:23Z</time></trkpt>
<trkpt lat="44.2889520" lon="-73.9614740"><ele></ele><time>2024-9-14T12:14:26Z</time></trkpt>
<trkpt lat="44.2890080" lon="-73.9613910"><ele></ele><time>2024-9-14T12:14:29Z</time></trkpt>
<trkpt lat="44.2890620" lon="-73.9613100"><ele></ele><time>2024-9-14T12:14:32Z</time></trkpt>
<trkpt lat="44.2891680" lon="-73.9611530"><ele></ele><time>2024-9-14T12:14:35Z</time></trkpt>
<trkpt lat="44.2892710" lon="-73.9609990"><ele></ele><time>2024-9-14T12:14:38Z</time></trkpt>
<trkpt lat="44.2895050" lon="-73.9606500"><ele></ele><time>2024-9-14T12:14:41Z</time></trkpt>
<trkpt lat="44.2895520" lon="-73.9605740"><ele></ele><time>2024-9-14T12:14:44Z</time></trkpt>
<trkpt lat="44.2898790" lon="-73.9599930"><ele></ele><time>2024-9-14T12:14:47Z</time></trkpt>
<trkpt lat="44.2901800" lon="-73.9593080"><ele></ele><time>2024-9-14T12:14:50Z</time></trkpt>
<trkpt lat="44.2902240" lon="-73.9592100"><ele></ele><time>2024-9-14T12:14:53Z</time></trkpt>
<trkpt lat="44.2902710" lon="-73.9591100"><ele></ele><time>2024-9-14T12:14:56Z</time></trkpt>
<trkpt lat="44.2903150" lon="-73.9590170"><ele></ele><time>2024-9-14T12:14:59Z</time></trkpt>
<trkpt lat="44.2903570" lon="-73.9589260"><ele></ele><time>2024-9-14T12:15:2Z</time></trkpt>
<trkpt lat="44.2904810" lon="-73.9586650"><ele></ele><time>2024-9-14T12:15:5Z</time></trkpt>
<trkpt lat="44.2907020" lon="-73.9582360"><ele></ele><time>2024-9-14T12:15:8Z</time></trkpt>
<trkpt lat="44.2907640" lon="-73.9581070"><ele></ele><time>2024-9-14T12:15:11Z</time></trkpt>
<trkpt lat="44.2907910" lon="-73.9580450"><ele></ele><time>2024-9-14T12:15:14Z</time></trkpt>
<trkpt lat="44.2908200" lon="-73.9579860"><ele></ele><time>2024-9-14T12:15:17Z</time></trkpt>
<trkpt lat="44.2908460" lon="-73.9579290"><ele></ele><time>2024-9-14T12:15:20Z</time></trkpt>
<trkpt lat="44.2908710" lon="-73.9578680"><ele></ele><time>2024-9-14T12:15:23Z</time></trkpt>
<trkpt lat="44.2910570" lon="-73.9573650"><ele></ele><time>2024-9-14T12:15:26Z</time></trkpt>
<trkpt lat="44.2912160" lon="-73.9567910"><ele></ele><time>2024-9-14T12:15:29Z</time></trkpt>
<trkpt lat="44.2913310" lon="-73.9563320"><ele></ele><time>2024-9-14T12:15:32Z</time></trkpt>
<trkpt lat="44.2913640" lon="-73.9562080"><ele></ele><time>2024-9-14T12:15:35Z</time></trkpt>
<trkpt lat="44.2913990" lon="-73.9560730"><ele></ele><time>2024-9-14T12:15:38Z</time></trkpt>
<trkpt lat="44.2914310" lon="-73.9559400"><ele></ele><time>2024-9-14T12:15:41Z</time></trkpt>
<trkpt lat="44.2914630" lon="-73.9558010"><ele></ele><time>2024-9-14T12:15:44Z</time></trkpt>
<trkpt lat="44.2914930" lon="-73.9556590"><ele></ele><time>2024-9-14T12:15:47Z</time></trkpt>
<trkpt lat="44.2915220" lon="-73.9555090"><ele></ele><time>2024-9-14T12:15:50Z</time></trkpt>
<trkpt lat="44.2915500" lon="-73.9553560"><ele></ele><time>2024-9-14T12:15:53Z</time></trkpt>
<trkpt lat="44.2915780" lon="-73.9552010"><ele></ele><time>2024-9-14T12:15:56Z</time></trkpt>
<trkpt lat="44.2916040" lon="-73.9550440"><ele></ele><time>2024-9-14T12:15:59Z</time></trkpt>
<trkpt lat="44.2916330" lon="-73.9548780"><ele></ele><time>2024-9-14T12:16:2Z</time></trkpt>
<trkpt lat="44.2916640" lon="-73.9547230"><ele></ele><time>2024-9-14T12:16:5Z</time></trkpt>
<trkpt lat="44.2916950" lon="-73.9545720"><ele></ele><time>2024-9-14T12:16:8Z</time></trkpt>
<trkpt lat="44.2917270" lon="-73.9544240"><ele></ele><time>2024-9-14T12:16:11Z</time></trkpt>
<trkpt lat="44.2917580" lon="-73.9542770"><ele></ele><time>2024-9-14T12:16:14Z</time></trkpt>
<trkpt lat="44.2917900" lon="-73.9541340"><ele></ele><time>2024-9-14T12:16:17Z</time></trkpt>
<trkpt lat="44.2918240" lon="-73.9539920"><ele></ele><time>2024-9-14T12:16:20Z</time></trkpt>
<trkpt lat="44.2918620" lon="-73.9538420"><ele></ele><time>2024-9-14T12:16:23Z</time></trkpt>
<trkpt lat="44.2918970" lon="-73.9537020"><ele></ele><time>2024-9-14T12:16:26Z</time></trkpt>
<trkpt lat="44.2919330" lon="-73.9535660"><ele></ele><time>2024-9-14T12:16:29Z</time></trkpt>
<trkpt lat="44.2919670" lon="-73.9534320"><ele></ele><time>2024-9-14T12:16:32Z</time></trkpt>
<trkpt lat="44.2919990" lon="-73.9532980"><ele></ele><time>2024-9-14T12:16:35Z</time></trkpt>
<trkpt lat="44.2920300" lon="-73.9531650"><ele></ele><time>2024-9-14T12:16:38Z</time></trkpt>
<trkpt lat="44.2920580" lon="-73.9530330"><ele></ele><time>2024-9-14T12:16:41Z</time></trkpt>
<trkpt lat="44.2920830" lon="-73.9529020"><ele></ele><time>2024-9-14T12:16:44Z</time></trkpt>
<trkpt lat="44.2921050" lon="-73.9527630"><ele></ele><time>2024-9-14T12:16:47Z</time></trkpt>
<trkpt lat="44.2921220" lon="-73.9526280"><ele></ele><time>2024-9-14T12:16:50Z</time></trkpt>
<trkpt lat="44.2921500" lon="-73.9523630"><ele></ele><time>2024-9-14T12:16:53Z</time></trkpt>
<trkpt lat="44.2921630" lon="-73.9522320"><ele></ele><time>2024-9-14T12:16:56Z</time></trkpt>
<trkpt lat="44.2921750" lon="-73.9521040"><ele></ele><time>2024-9-14T12:16:59Z</time></trkpt>
<trkpt lat="44.2921880" lon="-73.9519730"><ele></ele><time>2024-9-14T12:17:2Z</time></trkpt>
<trkpt lat="44.2922030" lon="-73.9518400"><ele></ele><time>2024-9-14T12:17:5Z</time></trkpt>
<trkpt lat="44.2922380" lon="-73.9516080"><ele></ele><time>2024-9-14T12:17:8Z</time></trkpt>
<trkpt lat="44.2923600" lon="-73.9511430"><ele></ele><time>2024-9-14T12:17:11Z</time></trkpt>
<trkpt lat="44.2925380" lon="-73.9507320"><ele></ele><time>2024-9-14T12:17:14Z</time></trkpt>
<trkpt lat="44.2925730" lon="-73.9506690"><ele></ele><time>2024-9-14T12:17:17Z</time></trkpt>
<trkpt lat="44.2926120" lon="-73.9506040"><ele></ele><time>2024-9-14T12:17:20Z</time></trkpt>
<trkpt lat="44.2926480" lon="-73.9505430"><ele></ele><time>2024-9-14T12:17:23Z</time></trkpt>
<trkpt lat="44.2926840" lon="-73.9504830"><ele></ele><time>2024-9-14T12:17:26Z</time></trkpt>
<trkpt lat="44.2927210" lon="-73.9504280"><ele></ele><time>2024-9-14T12:17:29Z</time></trkpt>
<trkpt lat="44.2928000" lon="-73.9503120"><ele></ele><time>2024-9-14T12:17:32Z</time></trkpt>
<trkpt lat="44.2928840" lon="-73.9501990"><ele></ele><time>2024-9-14T12:17:35Z</time></trkpt>
<trkpt lat="44.2931190" lon="-73.9499490"><ele></ele><time>2024-9-14T12:17:38Z</time></trkpt>
<trkpt lat="44.2935230" lon="-73.9496260"><ele></ele><time>2024-9-14T12:17:41Z</time></trkpt>
<trkpt lat="44.2940820" lon="-73.9493090"><ele></ele><time>2024-9-14T12:17:44Z</time></trkpt>
<trkpt lat="44.2946110" lon="-73.9489600"><ele></ele><time>2024-9-14T12:17:47Z</time></trkpt>
<trkpt lat="44.2949160" lon="-73.9486490"><ele></ele><time>2024-9-14T12:17:50Z</time></trkpt>
<trkpt lat="44.2952160" lon="-73.9482240"><ele></ele><time>2024-9-14T12:17:53Z</time></trkpt>
<trkpt lat="44.2956430" lon="-73.9477010"><ele></ele><time>2024-9-14T12:17:56Z</time></trkpt>
<trkpt lat="44.2958110" lon="-73.9475110"><ele></ele><time>2024-9-14T12:17:59Z</time></trkpt>
<trkpt lat="44.2958680" lon="-73.9474430"><ele></ele><time>2024-9-14T12:18:2Z</time></trkpt>
<trkpt lat="44.2959270" lon="-73.9473700"><ele></ele><time>2024-9-14T12:18:5Z</time></trkpt>
<trkpt lat="44.2959840" lon="-73.9472970"><ele></ele><time>2024-9-14T12:18:8Z</time></trkpt>
<trkpt lat="44.2960410" lon="-73.9472170"><ele></ele><time>2024-9-14T12:18:11Z</time></trkpt>
<trkpt lat="44.2962100" lon="-73.9469410"><ele></ele><time>2024-9-14T12:18:14Z</time></trkpt>
<trkpt lat="44.2962630" lon="-73.9468460"><ele></ele><time>2024-9-14T12:18:17Z</time></trkpt>
<trkpt lat="44.2963120" lon="-73.9467500"><ele></ele><time>2024-9-14T12:18:20Z</time></trkpt>
<trkpt lat="44.2963620" lon="-73.9466490"><ele></ele><time>2024-9-14T12:18:23Z</time></trkpt>
<trkpt lat="44.2964090" lon="-73.9465460"><ele></ele><time>2024-9-14T12:18:26Z</time></trkpt>
<trkpt lat="44.2965510" lon="-73.9462270"><ele></ele><time>2024-9-14T12:18:29Z</time></trkpt>
<trkpt lat="44.2965930" lon="-73.9461150"><ele></ele><time>2024-9-14T12:18:32Z</time></trkpt>
<trkpt lat="44.2966360" lon="-73.9459990"><ele></ele><time>2024-9-14T12:18:35Z</time></trkpt>
<trkpt lat="44.2966750" lon="-73.9458770"><ele></ele><time>2024-9-14T12:18:38Z</time></trkpt>
<trkpt lat="44.2967110" lon="-73.9457480"><ele></ele><time>2024-9-14T12:18:41Z</time></trkpt>
<trkpt lat="44.2967400" lon="-73.9456130"><ele></ele><time>2024-9-14T12:18:44Z</time></trkpt>
<trkpt lat="44.2967550" lon="-73.9454730"><ele></ele><time>2024-9-14T12:18:47Z</time></trkpt>
<trkpt lat="44.2967720" lon="-73.9453280"><ele></ele><time>2024-9-14T12:18:50Z</time></trkpt>
<trkpt lat="44.2967820" lon="-73.9451700"><ele></ele><time>2024-9-14T12:18:53Z</time></trkpt>
<trkpt lat="44.2967840" lon="-73.9450170"><ele></ele><time>2024-9-14T12:18:56Z</time></trkpt>
<trkpt lat="44.2967760" lon="-73.9448610"><ele></ele><time>2024-9-14T12:18:59Z</time></trkpt>
<trkpt lat="44.2967590" lon="-73.9447010"><ele></ele><time>2024-9-14T12:19:2Z</time></trkpt>
<trkpt lat="44.2967370" lon="-73.9445430"><ele></ele><time>2024-9-14T12:19:5Z</time></trkpt>
<trkpt lat="44.2967130" lon="-73.9443870"><ele></ele><time>2024-9-14T12:19:8Z</time></trkpt>
<trkpt lat="44.2966890" lon="-73.9442280"><ele></ele><time>2024-9-14T12:19:11Z</time></trkpt>
<trkpt lat="44.2966660" lon="-73.9440590"><ele></ele><time>2024-9-14T12:19:14Z</time></trkpt>
<trkpt lat="44.2966470" lon="-73.9439020"><ele></ele><time>2024-9-14T12:19:17Z</time></trkpt>
<trkpt lat="44.2966300" lon="-73.9437450"><ele></ele><time>2024-9-14T12:19:20Z</time></trkpt>
<trkpt lat="44.2966220" lon="-73.9435860"><ele></ele><time>2024-9-14T12:19:23Z</time></trkpt>
<trkpt lat="44.2966240" lon="-73.9434270"><ele></ele><time>2024-9-14T12:19:26Z</time></trkpt>
<trkpt lat="44.2966310" lon="-73.9432690"><ele></ele><time>2024-9-14T12:19:29Z</time></trkpt>
<trkpt lat="44.2966470" lon="-73.9431140"><ele></ele><time>2024-9-14T12:19:32Z</time></trkpt>
<trkpt lat="44.2966740" lon="-73.9429710"><ele></ele><time>2024-9-14T12:19:35Z</time></trkpt>
<trkpt lat="44.2967110" lon="-73.9428300"><ele></ele><time>2024-9-14T12:19:38Z</time></trkpt>
<trkpt lat="44.2967500" lon="-73.9427030"><ele></ele><time>2024-9-14T12:19:41Z</time></trkpt>
<trkpt lat="44.2968910" lon="-73.9423800"><ele></ele><time>2024-9-14T12:19:44Z</time></trkpt>
<trkpt lat="44.2969440" lon="-73.9422870"><ele></ele><time>2024-9-14T12:19:47Z</time></trkpt>
<trkpt lat="44.2970610" lon="-73.9421220"><ele></ele><time>2024-9-14T12:19:50Z</time></trkpt>
<trkpt lat="44.2971650" lon="-73.9419840"><ele></ele><time>2024-9-14T12:19:53Z</time></trkpt>
<trkpt lat="44.2973110" lon="-73.9418310"><ele></ele><time>2024-9-14T12:19:56Z</time></trkpt>
<trkpt lat="44.2973990" lon="-73.9417560"><ele></ele><time>2024-9-14T12:19:59Z</time></trkpt>
<trkpt lat="44.2974460" lon="-73.9417220"><ele></ele><time>2024-9-14T12:20:2Z</time></trkpt>
<trkpt lat="44.2974860" lon="-73.9416930"><ele></ele><time>2024-9-14T12:20:5Z</time></trkpt>
<trkpt lat="44.2975280" lon="-73.9416700"><ele></ele><time>2024-9-14T12:20:8Z</time></trkpt>
<trkpt lat="44.2975680" lon="-73.9416490"><ele></ele><time>2024-9-14T12:20:11Z</time></trkpt>
<trkpt lat="44.2976050" lon="-73.9416230"><ele></ele><time>2024-9-14T12:20:14Z</time></trkpt>
<trkpt lat="44.2977740" lon="-73.9415170"><ele></ele><time>2024-9-14T12:20:17Z</time></trkpt>
<trkpt lat="44.2978650" lon="-73.9414630"><ele></ele><time>2024-9-14T12:20:20Z</time></trkpt>
<trkpt lat="44.2980640" lon="-73.9413190"><ele></ele><time>2024-9-14T12:20:23Z</time></trkpt>
<trkpt lat="44.2981670" lon="-73.9412300"><ele></ele><time>2024-9-14T12:20:26Z</time></trkpt>
<trkpt lat="44.2985090" lon="-73.9408730"><ele></ele><time>2024-9-14T12:20:29Z</time></trkpt>
<trkpt lat="44.2987870" lon="-73.9404580"><ele></ele><time>2024-9-14T12:20:32Z</time></trkpt>
<trkpt lat="44.2988400" lon="-73.9403620"><ele></ele><time>2024-9-14T12:20:35Z</time></trkpt>
<trkpt lat="44.2989420" lon="-73.9401630"><ele></ele><time>2024-9-14T12:20:38Z</time></trkpt>
<trkpt lat="44.2990260" lon="-73.9399620"><ele></ele><time>2024-9-14T12:20:41Z</time></trkpt>
<trkpt lat="44.2990660" lon="-73.9398570"><ele></ele><time>2024-9-14T12:20:44Z</time></trkpt>
<trkpt lat="44.2991010" lon="-73.9397500"><ele></ele><time>2024-9-14T12:20:47Z</time></trkpt>
<trkpt lat="44.2991340" lon="-73.9396430"><ele></ele><time>2024-9-14T12:20:50Z</time></trkpt>
<trkpt lat="44.2991700" lon="-73.9395380"><ele></ele><time>2024-9-14T12:20:53Z</time></trkpt>
<trkpt lat="44.2992470" lon="-73.9393000"><ele></ele><time>2024-9-14T12:20:56Z</time></trkpt>
<trkpt lat="44.2993740" lon="-73.9389170"><ele></ele><time>2024-9-14T12:20:59Z</time></trkpt>
<trkpt lat="44.2996180" lon="-73.9383650"><ele></ele><time>2024-9-14T12:21:2Z</time></trkpt>
<trkpt lat="44.2999020" lon="-73.9378810"><ele></ele><time>2024-9-14T12:21:5Z</time></trkpt>
<trkpt lat="44.3003010" lon="-73.9373160"><ele></ele><time>2024-9-14T12:21:8Z</time></trkpt>
<trkpt lat="44.3005840" lon="-73.9369150"><ele></ele><time>2024-9-14T12:21:11Z</time></trkpt>
<trkpt lat="44.3007220" lon="-73.9367150"><ele></ele><time>2024-9-14T12:21:14Z</time></trkpt>
<trkpt lat="44.3009470" lon="-73.9362800"><ele></ele><time>2024-9-14T12:21:17Z</time></trkpt>
<trkpt lat="44.3009740" lon="-73.9362010"><ele></ele><time>2024-9-14T12:21:20Z</time></trkpt>
<trkpt lat="44.3010730" lon="-73.9358970"><ele></ele><time>2024-9-14T12:21:23Z</time></trkpt>
<trkpt lat="44.3012120" lon="-73.9353450"><ele></ele><time>2024-9-14T12:21:26Z</time></trkpt>
<trkpt lat="44.3012440" lon="-73.9351760"><ele></ele><time>2024-9-14T12:21:29Z</time></trkpt>
<trkpt lat="44.3012830" lon="-73.9346410"><ele></ele><time>2024-9-14T12:21:32Z</time></trkpt>
<trkpt lat="44.3012230" lon="-73.9341250"><ele></ele><time>2024-9-14T12:21:35Z</time></trkpt>
<trkpt lat="44.3010940" lon="-73.9336260"><ele></ele><time>2024-9-14T12:21:38Z</time></trkpt>
<trkpt lat="44.3009020" lon="-73.9330430"><ele></ele><time>2024-9-14T12:21:41Z</time></trkpt>
<trkpt lat="44.3006840" lon="-73.9323810"><ele></ele><time>2024-9-14T12:21:44Z</time></trkpt>
<trkpt lat="44.3004720" lon="-73.9317580"><ele></ele><time>2024-9-14T12:21:47Z</time></trkpt>
<trkpt lat="44.3004010" lon="-73.9315570"><ele></ele><time>2024-9-14T12:21:50Z</time></trkpt>
<trkpt lat="44.3003630" lon="-73.9314480"><ele></ele><time>2024-9-14T12:21:53Z</time></trkpt>
<trkpt lat="44.3003290" lon="-73.9313420"><ele></ele><time>2024-9-14T12:21:56Z</time></trkpt>
<trkpt lat="44.3002920" lon="-73.9312370"><ele></ele><time>2024-9-14T12:21:59Z</time></trkpt>
<trkpt lat="44.3002580" lon="-73.9311310"><ele></ele><time>2024-9-14T12:22:2Z</time></trkpt>
<trkpt lat="44.3002230" lon="-73.9310250"><ele></ele><time>2024-9-14T12:22:5Z</time></trkpt>
<trkpt lat="44.3001920" lon="-73.9309190"><ele></ele><time>2024-9-14T12:22:8Z</time></trkpt>
<trkpt lat="44.3001610" lon="-73.9308120"><ele></ele><time>2024-9-14T12:22:11Z</time></trkpt>
<trkpt lat="44.3000390" lon="-73.9302790"><ele></ele><time>2024-9-14T12:22:14Z</time></trkpt>
<trkpt lat="44.2999730" lon="-73.9297460"><ele></ele><time>2024-9-14T12:22:17Z</time></trkpt>
<trkpt lat="44.2999700" lon="-73.9295420"><ele></ele><time>2024-9-14T12:22:20Z</time></trkpt>
<trkpt lat="44.3000160" lon="-73.9288680"><ele></ele><time>2024-9-14T12:22:23Z</time></trkpt>
<trkpt lat="44.3001210" lon="-73.9283330"><ele></ele><time>2024-9-14T12:22:26Z</time></trkpt>
<trkpt lat="44.3003050" lon="-73.9277700"><ele></ele><time>2024-9-14T12:22:29Z</time></trkpt>
<trkpt lat="44.3005460" lon="-73.9272900"><ele></ele><time>2024-9-14T12:22:32Z</time></trkpt>
<trkpt lat="44.3008030" lon="-73.9269370"><ele></ele><time>2024-9-14T12:22:35Z</time></trkpt>
<trkpt lat="44.3011190" lon="-73.9263910"><ele></ele><time>2024-9-14T12:22:38Z</time></trkpt>
<trkpt lat="44.3012120" lon="-73.9261810"><ele></ele><time>2024-9-14T12:22:41Z</time></trkpt>
<trkpt lat="44.3012410" lon="-73.9261120"><ele></ele><time>2024-9-14T12:22:44Z</time></trkpt>
<trkpt lat="44.3012710" lon="-73.9260390"><ele></ele><time>2024-9-14T12:22:47Z</time></trkpt>
<trkpt lat="44.3012980" lon="-73.9259610"><ele></ele><time>2024-9-14T12:22:50Z</time></trkpt>
<trkpt lat="44.3013230" lon="-73.9258840"><ele></ele><time>2024-9-14T12:22:53Z</time></trkpt>
<trkpt lat="44.3013730" lon="-73.9257280"><ele></ele><time>2024-9-14T12:22:56Z</time></trkpt>
<trkpt lat="44.3015870" lon="-73.9249900"><ele></ele><time>2024-9-14T12:22:59Z</time></trkpt>
<trkpt lat="44.3017580" lon="-73.9243890"><ele></ele><time>2024-9-14T12:23:2Z</time></trkpt>
<trkpt lat="44.3019670" lon="-73.9237210"><ele></ele><time>2024-9-14T12:23:5Z</time></trkpt>
<trkpt lat="44.3020080" lon="-73.9235920"><ele></ele><time>2024-9-14T12:23:8Z</time></trkpt>
<trkpt lat="44.3020280" lon="-73.9235330"><ele></ele><time>2024-9-14T12:23:11Z</time></trkpt>
<trkpt lat="44.3020460" lon="-73.9234770"><ele></ele><time>2024-9-14T12:23:14Z</time></trkpt>
<trkpt lat="44.3020630" lon="-73.9234220"><ele></ele><time>2024-9-14T12:23:17Z</time></trkpt>
<trkpt lat="44.3020790" lon="-73.9233660"><ele></ele><time>2024-9-14T12:23:20Z</time></trkpt>
<trkpt lat="44.3021340" lon="-73.9232010"><ele></ele><time>2024-9-14T12:23:23Z</time></trkpt>
<trkpt lat="44.3021570" lon="-73.9231480"><ele></ele><time>2024-9-14T12:23:26Z</time></trkpt>
<trkpt lat="44.3021760" lon="-73.9230970"><ele></ele><time>2024-9-14T12:23:29Z</time></trkpt>
<trkpt lat="44.3021950" lon="-73.9230450"><ele></ele><time>2024-9-14T12:23:32Z</time></trkpt>
<trkpt lat="44.3022140" lon="-73.9229940"><ele></ele><time>2024-9-14T12:23:35Z</time></trkpt>
<trkpt lat="44.3023130" lon="-73.9227380"><ele></ele><time>2024-9-14T12:23:38Z</time></trkpt>
<trkpt lat="44.3023570" lon="-73.9226360"><ele></ele><time>2024-9-14T12:23:41Z</time></trkpt>
<trkpt lat="44.3024110" lon="-73.9225330"><ele></ele><time>2024-9-14T12:23:44Z</time></trkpt>
<trkpt lat="44.3024360" lon="-73.9224800"><ele></ele><time>2024-9-14T12:23:47Z</time></trkpt>
<trkpt lat="44.3024720" lon="-73.9224210"><ele></ele><time>2024-9-14T12:23:50Z</time></trkpt>
<trkpt lat="44.3025010" lon="-73.9223640"><ele></ele><time>2024-9-14T12:23:53Z</time></trkpt>
<trkpt lat="44.3025290" lon="-73.9223090"><ele></ele><time>2024-9-14T12:23:56Z</time></trkpt>
<trkpt lat="44.3025600" lon="-73.9222490"><ele></ele><time>2024-9-14T12:23:59Z</time></trkpt>
<trkpt lat="44.3027890" lon="-73.9218190"><ele></ele><time>2024-9-14T12:24:2Z</time></trkpt>
<trkpt lat="44.3029320" lon="-73.9215580"><ele></ele><time>2024-9-14T12:24:5Z</time></trkpt>
<trkpt lat="44.3029840" lon="-73.9214670"><ele></ele><time>2024-9-14T12:24:8Z</time></trkpt>
<trkpt lat="44.3030400" lon="-73.9213740"><ele></ele><time>2024-9-14T12:24:11Z</time></trkpt>
<trkpt lat="44.3030970" lon="-73.9212790"><ele></ele><time>2024-9-14T12:24:14Z</time></trkpt>
<trkpt lat="44.3031540" lon="-73.9211830"><ele></ele><time>2024-9-14T12:24:17Z</time></trkpt>
<trkpt lat="44.3033280" lon="-73.9208950"><ele></ele><time>2024-9-14T12:24:20Z</time></trkpt>
<trkpt lat="44.3033900" lon="-73.9207970"><ele></ele><time>2024-9-14T12:24:23Z</time></trkpt>
<trkpt lat="44.3034550" lon="-73.9207010"><ele></ele><time>2024-9-14T12:24:26Z</time></trkpt>
<trkpt lat="44.3035180" lon="-73.9206070"><ele></ele><time>2024-9-14T12:24:29Z</time></trkpt>
<trkpt lat="44.3035900" lon="-73.9205070"><ele></ele><time>2024-9-14T12:24:32Z</time></trkpt>
<trkpt lat="44.3039860" lon="-73.9199890"><ele></ele><time>2024-9-14T12:24:35Z</time></trkpt>
<trkpt lat="44.3040470" lon="-73.9199070"><ele></ele><time>2024-9-14T12:24:38Z</time></trkpt>
<trkpt lat="44.3041020" lon="-73.9198330"><ele></ele><time>2024-9-14T12:24:41Z</time></trkpt>
<trkpt lat="44.3041560" lon="-73.9197600"><ele></ele><time>2024-9-14T12:24:44Z</time></trkpt>
<trkpt lat="44.3042060" lon="-73.9196880"><ele></ele><time>2024-9-14T12:24:47Z</time></trkpt>
<trkpt lat="44.3042560" lon="-73.9196180"><ele></ele><time>2024-9-14T12:24:50Z</time></trkpt>
<trkpt lat="44.3043070" lon="-73.9195510"><ele></ele><time>2024-9-14T12:24:53Z</time></trkpt>
<trkpt lat="44.3043560" lon="-73.9194850"><ele></ele><time>2024-9-14T12:24:56Z</time></trkpt>
<trkpt lat="44.3044060" lon="-73.9194130"><ele></ele><time>2024-9-14T12:24:59Z</time></trkpt>
<trkpt lat="44.3044530" lon="-73.9193460"><ele></ele><time>2024-9-14T12:25:2Z</time></trkpt>
<trkpt lat="44.3045000" lon="-73.9192780"><ele></ele><time>2024-9-14T12:25:5Z</time></trkpt>
<trkpt lat="44.3046250" lon="-73.9190670"><ele></ele><time>2024-9-14T12:25:8Z</time></trkpt>
<trkpt lat="44.3048950" lon="-73.9185400"><ele></ele><time>2024-9-14T12:25:11Z</time></trkpt>
<trkpt lat="44.3050410" lon="-73.9182220"><ele></ele><time>2024-9-14T12:25:14Z</time></trkpt>
<trkpt lat="44.3051860" lon="-73.9179120"><ele></ele><time>2024-9-14T12:25:17Z</time></trkpt>
<trkpt lat="44.3053420" lon="-73.9176110"><ele></ele><time>2024-9-14T12:25:20Z</time></trkpt>
<trkpt lat="44.3054730" lon="-73.9174010"><ele></ele><time>2024-9-14T12:25:23Z</time></trkpt>
<trkpt lat="44.3057290" lon="-73.9171090"><ele></ele><time>2024-9-14T12:25:26Z</time></trkpt>
<trkpt lat="44.3061820" lon="-73.9167450"><ele></ele><time>2024-9-14T12:25:29Z</time></trkpt>
<trkpt lat="44.3065160" lon="-73.9164430"><ele></ele><time>2024-9-14T12:25:32Z</time></trkpt>
<trkpt lat="44.3068600" lon="-73.9160180"><ele></ele><time>2024-9-14T12:25:35Z</time></trkpt>
<trkpt lat="44.3071680" lon="-73.9156460"><ele></ele><time>2024-9-14T12:25:38Z</time></trkpt>
<trkpt lat="44.3075660" lon="-73.9153580"><ele></ele><time>2024-9-14T12:25:41Z</time></trkpt>
<trkpt lat="44.3078450" lon="-73.9152850"><ele></ele><time>2024-9-14T12:25:44Z</time></trkpt>
<trkpt lat="44.3078990" lon="-73.9152760"><ele></ele><time>2024-9-14T12:25:47Z</time></trkpt>
<trkpt lat="44.3082320" lon="-73.9152760"><ele></ele><time>2024-9-14T12:25:50Z</time></trkpt>
<trkpt lat="44.3085860" lon="-73.9153120"><ele></ele><time>2024-9-14T12:25:53Z</time></trkpt>
<trkpt lat="44.3087630" lon="-73.9153620"><ele></ele><time>2024-9-14T12:25:56Z</time></trkpt>
<trkpt lat="44.3090010" lon="-73.9154280"><ele></ele><time>2024-9-14T12:25:59Z</time></trkpt>
<trkpt lat="44.3094860" lon="-73.9154870"><ele></ele><time>2024-9-14T12:26:2Z</time></trkpt>
<trkpt lat="44.3098950" lon="-73.9155350"><ele></ele><time>2024-9-14T12:26:5Z</time></trkpt>
<trkpt lat="44.3102430" lon="-73.9154900"><ele></ele><time>2024-9-14T12:26:8Z</time></trkpt>
<trkpt lat="44.3106730" lon="-73.9153310"><ele></ele><time>2024-9-14T12:26:11Z</time></trkpt>
<trkpt lat="44.3110800" lon="-73.9150900"><ele></ele><time>2024-9-14T12:26:14Z</time></trkpt>
<trkpt lat="44.3113030" lon="-73.9149700"><ele></ele><time>2024-9-14T12:26:17Z</time></trkpt>
<trkpt lat="44.3113760" lon="-73.9149310"><ele></ele><time>2024-9-14T12:26:20Z</time></trkpt>
<trkpt lat="44.3114480" lon="-73.9148880"><ele></ele><time>2024-9-14T12:26:23Z</time></trkpt>
<trkpt lat="44.3115220" lon="-73.9148480"><ele></ele><time>2024-9-14T12:26:26Z</time></trkpt>
<trkpt lat="44.3115970" lon="-73.9148090"><ele></ele><time>2024-9-14T12:26:29Z</time></trkpt>
<trkpt lat="44.3121080" lon="-73.9145420"><ele></ele><time>2024-9-14T12:26:32Z</time></trkpt>
<trkpt lat="44.3121850" lon="-73.9145100"><ele></ele><time>2024-9-14T12:26:35Z</time></trkpt>
<trkpt lat="44.3126370" lon="-73.9144070"><ele></ele><time>2024-9-14T12:26:38Z</time></trkpt>
<trkpt lat="44.3130850" lon="-73.9144320"><ele></ele><time>2024-9-14T12:26:41Z</time></trkpt>
<trkpt lat="44.3135800" lon="-73.9146140"><ele></ele><time>2024-9-14T12:26:44Z</time></trkpt>
<trkpt lat="44.3136530" lon="-73.9146450"><ele></ele><time>2024-9-14T12:26:47Z</time></trkpt>
<trkpt lat="44.3137270" lon="-73.9146730"><ele></ele><time>2024-9-14T12:26:50Z</time></trkpt>
<trkpt lat="44.3138010" lon="-73.9146990"><ele></ele><time>2024-9-14T12:26:53Z</time></trkpt>
<trkpt lat="44.3138780" lon="-73.9147230"><ele></ele><time>2024-9-14T12:26:56Z</time></trkpt>
<trkpt lat="44.3139540" lon="-73.9147440"><ele></ele><time>2024-9-14T12:26:59Z</time></trkpt>
<trkpt lat="44.3141010" lon="-73.9147780"><ele></ele><time>2024-9-14T12:27:2Z</time></trkpt>
<trkpt lat="44.3146850" lon="-73.9148680"><ele></ele><time>2024-9-14T12:27:5Z</time></trkpt>
<trkpt lat="44.3152510" lon="-73.9149720"><ele></ele><time>2024-9-14T12:27:8Z</time></trkpt>
<trkpt lat="44.3157230" lon="-73.9151960"><ele></ele><time>2024-9-14T12:27:11Z</time></trkpt>
<trkpt lat="44.3161970" lon="-73.9154730"><ele></ele><time>2024-9-14T12:27:14Z</time></trkpt>
<trkpt lat="44.3163300" lon="-73.9155370"><ele></ele><time>2024-9-14T12:27:17Z</time></trkpt>
<trkpt lat="44.3165290" lon="-73.9156120"><ele></ele><time>2024-9-14T12:27:20Z</time></trkpt>
<trkpt lat="44.3165950" lon="-73.9156290"><ele></ele><time>2024-9-14T12:27:23Z</time></trkpt>
<trkpt lat="44.3166610" lon="-73.9156420"><ele></ele><time>2024-9-14T12:27:26Z</time></trkpt>
<trkpt lat="44.3167280" lon="-73.9156500"><ele></ele><time>2024-9-14T12:27:29Z</time></trkpt>
<trkpt lat="44.3167960" lon="-73.9156550"><ele></ele><time>2024-9-14T12:27:32Z</time></trkpt>
<trkpt lat="44.3170040" lon="-73.9156560"><ele></ele><time>2024-9-14T12:27:35Z</time></trkpt>
<trkpt lat="44.3172050" lon="-73.9156360"><ele></ele><time>2024-9-14T12:27:38Z</time></trkpt>
<trkpt lat="44.3173940" lon="-73.9155910"><ele></ele><time>2024-9-14T12:27:41Z</time></trkpt>
<trkpt lat="44.3178200" lon="-73.9154470"><ele></ele><time>2024-9-14T12:27:44Z</time></trkpt>
<trkpt lat="44.3182220" lon="-73.9153150"><ele></ele><time>2024-9-14T12:27:47Z</time></trkpt>
<trkpt lat="44.3187330" lon="-73.9151470"><ele></ele><time>2024-9-14T12:27:50Z</time></trkpt>
<trkpt lat="44.3192340" lon="-73.9149760"><ele></ele><time>2024-9-14T12:27:53Z</time></trkpt>
<trkpt lat="44.3196480" lon="-73.9148250"><ele></ele><time>2024-9-14T12:27:56Z</time></trkpt>
<trkpt lat="44.3199950" lon="-73.9146520"><ele></ele><time>2024-9-14T12:27:59Z</time></trkpt>
<trkpt lat="44.3201340" lon="-73.9145550"><ele></ele><time>2024-9-14T12:28:2Z</time></trkpt>
<trkpt lat="44.3203020" lon="-73.9144080"><ele></ele><time>2024-9-14T12:28:5Z</time></trkpt>
<trkpt lat="44.3205840" lon="-73.9141000"><ele></ele><time>2024-9-14T12:28:8Z</time></trkpt>
<trkpt lat="44.3208810" lon="-73.9137470"><ele></ele><time>2024-9-14T12:28:11Z</time></trkpt>
<trkpt lat="44.3211790" lon="-73.9133940"><ele></ele><time>2024-9-14T12:28:14Z</time></trkpt>
<trkpt lat="44.3216350" lon="-73.9129510"><ele></ele><time>2024-9-14T12:28:17Z</time></trkpt>
<trkpt lat="44.3218330" lon="-73.9128190"><ele></ele><time>2024-9-14T12:28:20Z</time></trkpt>
<trkpt lat="44.3220470" lon="-73.9127160"><ele></ele><time>2024-9-14T12:28:23Z</time></trkpt>
<trkpt lat="44.3223620" lon="-73.9126040"><ele></ele><time>2024-9-14T12:28:26Z</time></trkpt>
<trkpt lat="44.3224460" lon="-73.9125790"><ele></ele><time>2024-9-14T12:28:29Z</time></trkpt>
<trkpt lat="44.3225300" lon="-73.9125530"><ele></ele><time>2024-9-14T12:28:32Z</time></trkpt>
<trkpt lat="44.3226140" lon="-73.9125290"><ele></ele><time>2024-9-14T12:28:35Z</time></trkpt>
<trkpt lat="44.3226980" lon="-73.9125050"><ele></ele><time>2024-9-14T12:28:38Z</time></trkpt>
<trkpt lat="44.3230270" lon="-73.9124090"><ele></ele><time>2024-9-14T12:28:41Z</time></trkpt>
<trkpt lat="44.3231020" lon="-73.9123880"><ele></ele><time>2024-9-14T12:28:44Z</time></trkpt>
<trkpt lat="44.3231740" lon="-73.9123620"><ele></ele><time>2024-9-14T12:28:47Z</time></trkpt>
<trkpt lat="44.3232440" lon="-73.9123330"><ele></ele><time>2024-9-14T12:28:50Z</time></trkpt>
<trkpt lat="44.3234970" lon="-73.9122150"><ele></ele><time>2024-9-14T12:28:53Z</time></trkpt>
<trkpt lat="44.3238140" lon="-73.9120460"><ele></ele><time>2024-9-14T12:28:56Z</time></trkpt>
<trkpt lat="44.3241180" lon="-73.9118760"><ele></ele><time>2024-9-14T12:28:59Z</time></trkpt>
<trkpt lat="44.3244500" lon="-73.9116860"><ele></ele><time>2024-9-14T12:29:2Z</time></trkpt>
<trkpt lat="44.3249270" lon="-73.9114110"><ele></ele><time>2024-9-14T12:29:5Z</time></trkpt>
<trkpt lat="44.3253170" lon="-73.9111820"><ele></ele><time>2024-9-14T12:29:8Z</time></trkpt>
<trkpt lat="44.3256340" lon="-73.9109880"><ele></ele><time>2024-9-14T12:29:11Z</time></trkpt>
<trkpt lat="44.3257390" lon="-73.9109240"><ele></ele><time>2024-9-14T12:29:14Z</time></trkpt>
<trkpt lat="44.3261760" lon="-73.9106650"><ele></ele><time>2024-9-14T12:29:17Z</time></trkpt>
<trkpt lat="44.3266740" lon="-73.9103390"><ele></ele><time>2024-9-14T12:29:20Z</time></trkpt>
<trkpt lat="44.3270530" lon="-73.9100000"><ele></ele><time>2024-9-14T12:29:23Z</time></trkpt>
<trkpt lat="44.3274490" lon="-73.9094640"><ele></ele><time>2024-9-14T12:29:26Z</time></trkpt>
<trkpt lat="44.3274980" lon="-73.9093840"><ele></ele><time>2024-9-14T12:29:29Z</time></trkpt>
<trkpt lat="44.3275500" lon="-73.9093010"><ele></ele><time>2024-9-14T12:29:32Z</time></trkpt>
<trkpt lat="44.3276030" lon="-73.9092160"><ele></ele><time>2024-9-14T12:29:35Z</time></trkpt>
<trkpt lat="44.3276550" lon="-73.9091250"><ele></ele><time>2024-9-14T12:29:38Z</time></trkpt>
<trkpt lat="44.3277060" lon="-73.9090300"><ele></ele><time>2024-9-14T12:29:41Z</time></trkpt>
<trkpt lat="44.3277630" lon="-73.9089270"><ele></ele><time>2024-9-14T12:29:44Z</time></trkpt>
<trkpt lat="44.3278190" lon="-73.9088270"><ele></ele><time>2024-9-14T12:29:47Z</time></trkpt>
<trkpt lat="44.3278780" lon="-73.9087270"><ele></ele><time>2024-9-14T12:29:50Z</time></trkpt>
<trkpt lat="44.3279350" lon="-73.9086280"><ele></ele><time>2024-9-14T12:29:53Z</time></trkpt>
<trkpt lat="44.3279910" lon="-73.9085260"><ele></ele><time>2024-9-14T12:29:56Z</time></trkpt>
<trkpt lat="44.3280470" lon="-73.9084200"><ele></ele><time>2024-9-14T12:29:59Z</time></trkpt>
<trkpt lat="44.3281050" lon="-73.9083120"><ele></ele><time>2024-9-14T12:30:2Z</time></trkpt>
<trkpt lat="44.3281660" lon="-73.9082030"><ele></ele><time>2024-9-14T12:30:5Z</time></trkpt>
<trkpt lat="44.3282200" lon="-73.9080980"><ele></ele><time>2024-9-14T12:30:8Z</time></trkpt>
<trkpt lat="44.3284130" lon="-73.9076910"><ele></ele><time>2024-9-14T12:30:11Z</time></trkpt>
<trkpt lat="44.3284580" lon="-73.9075920"><ele></ele><time>2024-9-14T12:30:14Z</time></trkpt>
<trkpt lat="44.3285060" lon="-73.9074940"><ele></ele><time>2024-9-14T12:30:17Z</time></trkpt>
<trkpt lat="44.3285530" lon="-73.9074060"><ele></ele><time>2024-9-14T12:30:20Z</time></trkpt>
<trkpt lat="44.3286490" lon="-73.9072430"><ele></ele><time>2024-9-14T12:30:23Z</time></trkpt>
<trkpt lat="44.3287030" lon="-73.9071700"><ele></ele><time>2024-9-14T12:30:26Z</time></trkpt>
<trkpt lat="44.3288700" lon="-73.9069800"><ele></ele><time>2024-9-14T12:30:29Z</time></trkpt>
<trkpt lat="44.3290510" lon="-73.9067990"><ele></ele><time>2024-9-14T12:30:32Z</time></trkpt>
<trkpt lat="44.3291120" lon="-73.9067410"><ele></ele><time>2024-9-14T12:30:35Z</time></trkpt>
<trkpt lat="44.3295690" lon="-73.9062850"><ele></ele><time>2024-9-14T12:30:38Z</time></trkpt>
<trkpt lat="44.3296230" lon="-73.9062280"><ele></ele><time>2024-9-14T12:30:41Z</time></trkpt>
<trkpt lat="44.3300420" lon="-73.9058100"><ele></ele><time>2024-9-14T12:30:44Z</time></trkpt>
<trkpt lat="44.3304910" lon="-73.9053600"><ele></ele><time>2024-9-14T12:30:47Z</time></trkpt>
<trkpt lat="44.3305440" lon="-73.9053080"><ele></ele><time>2024-9-14T12:30:50Z</time></trkpt>
<trkpt lat="44.3309850" lon="-73.9048560"><ele></ele><time>2024-9-14T12:30:53Z</time></trkpt>
<trkpt lat="44.3310330" lon="-73.9048070"><ele></ele><time>2024-9-14T12:30:56Z</time></trkpt>
<trkpt lat="44.3314840" lon="-73.9043550"><ele></ele><time>2024-9-14T12:30:59Z</time></trkpt>
<trkpt lat="44.3315340" lon="-73.9043040"><ele></ele><time>2024-9-14T12:31:2Z</time></trkpt>
<trkpt lat="44.3315830" lon="-73.9042530"><ele></ele><time>2024-9-14T12:31:5Z</time></trkpt>
<trkpt lat="44.3316370" lon="-73.9042000"><ele></ele><time>2024-9-14T12:31:8Z</time></trkpt>
<trkpt lat="44.3316860" lon="-73.9041480"><ele></ele><time>2024-9-14T12:31:11Z</time></trkpt>
<trkpt lat="44.3319920" lon="-73.9038450"><ele></ele><time>2024-9-14T12:31:14Z</time></trkpt>
<trkpt lat="44.3320400" lon="-73.9037950"><ele></ele><time>2024-9-14T12:31:17Z</time></trkpt>
<trkpt lat="44.3320890" lon="-73.9037460"><ele></ele><time>2024-9-14T12:31:20Z</time></trkpt>
<trkpt lat="44.3321370" lon="-73.9036960"><ele></ele><time>2024-9-14T12:31:23Z</time></trkpt>
<trkpt lat="44.3321870" lon="-73.9036440"><ele></ele><time>2024-9-14T12:31:26Z</time></trkpt>
<trkpt lat="44.3322370" lon="-73.9035900"><ele></ele><time>2024-9-14T12:31:29Z</time></trkpt>
<trkpt lat="44.3324410" lon="-73.9033790"><ele></ele><time>2024-9-14T12:31:32Z</time></trkpt>
<trkpt lat="44.3328750" lon="-73.9028980"><ele></ele><time>2024-9-14T12:31:35Z</time></trkpt>
<trkpt lat="44.3329200" lon="-73.9028440"><ele></ele><time>2024-9-14T12:31:38Z</time></trkpt>
<trkpt lat="44.3333260" lon="-73.9023470"><ele></ele><time>2024-9-14T12:31:41Z</time></trkpt>
<trkpt lat="44.3333690" lon="-73.9022900"><ele></ele><time>2024-9-14T12:31:44Z</time></trkpt>
<trkpt lat="44.3337620" lon="-73.9017820"><ele></ele><time>2024-9-14T12:31:47Z</time></trkpt>
<trkpt lat="44.3341150" lon="-73.9013170"><ele></ele><time>2024-9-14T12:31:50Z</time></trkpt>
<trkpt lat="44.3344560" lon="-73.9008400"><ele></ele><time>2024-9-14T12:31:53Z</time></trkpt>
<trkpt lat="44.3347460" lon="-73.9004550"><ele></ele><time>2024-9-14T12:31:56Z</time></trkpt>
<trkpt lat="44.3348130" lon="-73.9003670"><ele></ele><time>2024-9-14T12:31:59Z</time></trkpt>
<trkpt lat="44.3348450" lon="-73.9003230"><ele></ele><time>2024-9-14T12:32:2Z</time></trkpt>
<trkpt lat="44.3348740" lon="-73.9002840"><ele></ele><time>2024-9-14T12:32:5Z</time></trkpt>
<trkpt lat="44.3349030" lon="-73.9002460"><ele></ele><time>2024-9-14T12:32:8Z</time></trkpt>
<trkpt lat="44.3349330" lon="-73.9002060"><ele></ele><time>2024-9-14T12:32:11Z</time></trkpt>
<trkpt lat="44.3351030" lon="-73.8999550"><ele></ele><time>2024-9-14T12:32:14Z</time></trkpt>
<trkpt lat="44.3352470" lon="-73.8997510"><ele></ele><time>2024-9-14T12:32:17Z</time></trkpt>
<trkpt lat="44.3353000" lon="-73.8996690"><ele></ele><time>2024-9-14T12:32:20Z</time></trkpt>
<trkpt lat="44.3353780" lon="-73.8995380"><ele></ele><time>2024-9-14T12:32:23Z</time></trkpt>
<trkpt lat="44.3354040" lon="-73.8994950"><ele></ele><time>2024-9-14T12:32:26Z</time></trkpt>
<trkpt lat="44.3354270" lon="-73.8994520"><ele></ele><time>2024-9-14T12:32:29Z</time></trkpt>
<trkpt lat="44.3354540" lon="-73.8994070"><ele></ele><time>2024-9-14T12:32:32Z</time></trkpt>
<trkpt lat="44.3354790" lon="-73.8993660"><ele></ele><time>2024-9-14T12:32:35Z</time></trkpt>
<trkpt lat="44.3357050" lon="-73.8990260"><ele></ele><time>2024-9-14T12:32:38Z</time></trkpt>
<trkpt lat="44.3359770" lon="-73.8986780"><ele></ele><time>2024-9-14T12:32:41Z</time></trkpt>
<trkpt lat="44.3363250" lon="-73.8982260"><ele></ele><time>2024-9-14T12:32:44Z</time></trkpt>
<trkpt lat="44.3364140" lon="-73.8981010"><ele></ele><time>2024-9-14T12:32:47Z</time></trkpt>
<trkpt lat="44.3365030" lon="-73.8979780"><ele></ele><time>2024-9-14T12:32:50Z</time></trkpt>
<trkpt lat="44.3366390" lon="-73.8977820"><ele></ele><time>2024-9-14T12:32:53Z</time></trkpt>
<trkpt lat="44.3366870" lon="-73.8977180"><ele></ele><time>2024-9-14T12:32:56Z</time></trkpt>
<trkpt lat="44.3369620" lon="-73.8972940"><ele></ele><time>2024-9-14T12:32:59Z</time></trkpt>
<trkpt lat="44.3372030" lon="-73.8968570"><ele></ele><time>2024-9-14T12:33:2Z</time></trkpt>
<trkpt lat="44.3373750" lon="-73.8964910"><ele></ele><time>2024-9-14T12:33:5Z</time></trkpt>
<trkpt lat="44.3374450" lon="-73.8963200"><ele></ele><time>2024-9-14T12:33:8Z</time></trkpt>
<trkpt lat="44.3374820" lon="-73.8962260"><ele></ele><time>2024-9-14T12:33:11Z</time></trkpt>
<trkpt lat="44.3375220" lon="-73.8961300"><ele></ele><time>2024-9-14T12:33:14Z</time></trkpt>
<trkpt lat="44.3375630" lon="-73.8960300"><ele></ele><time>2024-9-14T12:33:17Z</time></trkpt>
<trkpt lat="44.3376030" lon="-73.8959220"><ele></ele><time>2024-9-14T12:33:20Z</time></trkpt>
<trkpt lat="44.3376440" lon="-73.8958010"><ele></ele><time>2024-9-14T12:33:23Z</time></trkpt>
<trkpt lat="44.3376850" lon="-73.8956810"><ele></ele><time>2024-9-14T12:33:26Z</time></trkpt>
<trkpt lat="44.3377280" lon="-73.8955570"><ele></ele><time>2024-9-14T12:33:29Z</time></trkpt>
<trkpt lat="44.3377700" lon="-73.8954300"><ele></ele><time>2024-9-14T12:33:32Z</time></trkpt>
<trkpt lat="44.3378600" lon="-73.8951710"><ele></ele><time>2024-9-14T12:33:35Z</time></trkpt>
<trkpt lat="44.3379100" lon="-73.8950380"><ele></ele><time>2024-9-14T12:33:38Z</time></trkpt>
<trkpt lat="44.3379580" lon="-73.8949110"><ele></ele><time>2024-9-14T12:33:41Z</time></trkpt>
<trkpt lat="44.3380080" lon="-73.8947880"><ele></ele><time>2024-9-14T12:33:44Z</time></trkpt>
<trkpt lat="44.3380580" lon="-73.8946690"><ele></ele><time>2024-9-14T12:33:47Z</time></trkpt>
<trkpt lat="44.3381070" lon="-73.8945520"><ele></ele><time>2024-9-14T12:33:50Z</time></trkpt>
<trkpt lat="44.3381540" lon="-73.8944380"><ele></ele><time>2024-9-14T12:33:53Z</time></trkpt>
<trkpt lat="44.3382000" lon="-73.8943290"><ele></ele><time>2024-9-14T12:33:56Z</time></trkpt>
<trkpt lat="44.3384040" lon="-73.8939230"><ele></ele><time>2024-9-14T12:33:59Z</time></trkpt>
<trkpt lat="44.3384660" lon="-73.8938350"><ele></ele><time>2024-9-14T12:34:2Z</time></trkpt>
<trkpt lat="44.3386050" lon="-73.8936620"><ele></ele><time>2024-9-14T12:34:5Z</time></trkpt>
<trkpt lat="44.3386810" lon="-73.8935730"><ele></ele><time>2024-9-14T12:34:8Z</time></trkpt>
<trkpt lat="44.3387640" lon="-73.8934750"><ele></ele><time>2024-9-14T12:34:11Z</time></trkpt>
<trkpt lat="44.3388400" lon="-73.8933660"><ele></ele><time>2024-9-14T12:34:14Z</time></trkpt>
<trkpt lat="44.3389120" lon="-73.8932410"><ele></ele><time>2024-9-14T12:34:17Z</time></trkpt>
<trkpt lat="44.3389740" lon="-73.8931070"><ele></ele><time>2024-9-14T12:34:20Z</time></trkpt>
<trkpt lat="44.3390280" lon="-73.8929630"><ele></ele><time>2024-9-14T12:34:23Z</time></trkpt>
<trkpt lat="44.3390670" lon="-73.8928140"><ele></ele><time>2024-9-14T12:34:26Z</time></trkpt>
<trkpt lat="44.3390930" lon="-73.8926640"><ele></ele><time>2024-9-14T12:34:29Z</time></trkpt>
<trkpt lat="44.3391160" lon="-73.8925150"><ele></ele><time>2024-9-14T12:34:32Z</time></trkpt>
<trkpt lat="44.3391370" lon="-73.8923660"><ele></ele><time>2024-9-14T12:34:35Z</time></trkpt>
<trkpt lat="44.3391550" lon="-73.8922320"><ele></ele><time>2024-9-14T12:34:38Z</time></trkpt>
<trkpt lat="44.3391720" lon="-73.8921030"><ele></ele><time>2024-9-14T12:34:41Z</time></trkpt>
<trkpt lat="44.3391870" lon="-73.8919820"><ele></ele><time>2024-9-14T12:34:44Z</time></trkpt>
<trkpt lat="44.3392030" lon="-73.8918690"><ele></ele><time>2024-9-14T12:34:47Z</time></trkpt>
<trkpt lat="44.3392690" lon="-73.8914640"><ele></ele><time>2024-9-14T12:34:50Z</time></trkpt>
<trkpt lat="44.3392920" lon="-73.8913710"><ele></ele><time>2024-9-14T12:34:53Z</time></trkpt>
<trkpt lat="44.3393890" lon="-73.8910990"><ele></ele><time>2024-9-14T12:34:56Z</time></trkpt>
<trkpt lat="44.3394380" lon="-73.8910130"><ele></ele><time>2024-9-14T12:34:59Z</time></trkpt>
<trkpt lat="44.3396980" lon="-73.8906820"><ele></ele><time>2024-9-14T12:35:2Z</time></trkpt>
<trkpt lat="44.3397740" lon="-73.8906090"><ele></ele><time>2024-9-14T12:35:5Z</time></trkpt>
<trkpt lat="44.3398540" lon="-73.8905380"><ele></ele><time>2024-9-14T12:35:8Z</time></trkpt>
<trkpt lat="44.3399410" lon="-73.8904670"><ele></ele><time>2024-9-14T12:35:11Z</time></trkpt>
<trkpt lat="44.3400270" lon="-73.8903930"><ele></ele><time>2024-9-14T12:35:14Z</time></trkpt>
<trkpt lat="44.3401210" lon="-73.8903160"><ele></ele><time>2024-9-14T12:35:17Z</time></trkpt>
<trkpt lat="44.3402110" lon="-73.8902400"><ele></ele><time>2024-9-14T12:35:20Z</time></trkpt>
<trkpt lat="44.3402990" lon="-73.8901620"><ele></ele><time>2024-9-14T12:35:23Z</time></trkpt>
<trkpt lat="44.3403870" lon="-73.8900830"><ele></ele><time>2024-9-14T12:35:26Z</time></trkpt>
<trkpt lat="44.3404760" lon="-73.8900060"><ele></ele><time>2024-9-14T12:35:29Z</time></trkpt>
<trkpt lat="44.3405630" lon="-73.8899300"><ele></ele><time>2024-9-14T12:35:32Z</time></trkpt>
<trkpt lat="44.3406450" lon="-73.8898500"><ele></ele><time>2024-9-14T12:35:35Z</time></trkpt>
<trkpt lat="44.3407260" lon="-73.8897600"><ele></ele><time>2024-9-14T12:35:38Z</time></trkpt>
<trkpt lat="44.3409330" lon="-73.8894670"><ele></ele><time>2024-9-14T12:35:41Z</time></trkpt>
<trkpt lat="44.3409910" lon="-73.8893610"><ele></ele><time>2024-9-14T12:35:44Z</time></trkpt>
<trkpt lat="44.3410430" lon="-73.8892530"><ele></ele><time>2024-9-14T12:35:47Z</time></trkpt>
<trkpt lat="44.3410890" lon="-73.8891420"><ele></ele><time>2024-9-14T12:35:50Z</time></trkpt>
<trkpt lat="44.3411290" lon="-73.8890300"><ele></ele><time>2024-9-14T12:35:53Z</time></trkpt>
<trkpt lat="44.3411660" lon="-73.8889120"><ele></ele><time>2024-9-14T12:35:56Z</time></trkpt>
<trkpt lat="44.3412020" lon="-73.8888000"><ele></ele><time>2024-9-14T12:35:59Z</time></trkpt>
<trkpt lat="44.3413960" lon="-73.8881910"><ele></ele><time>2024-9-14T12:36:2Z</time></trkpt>
<trkpt lat="44.3414600" lon="-73.8880100"><ele></ele><time>2024-9-14T12:36:5Z</time></trkpt>
<trkpt lat="44.3414970" lon="-73.8879260"><ele></ele><time>2024-9-14T12:36:8Z</time></trkpt>
<trkpt lat="44.3415350" lon="-73.8878440"><ele></ele><time>2024-9-14T12:36:11Z</time></trkpt>
<trkpt lat="44.3415740" lon="-73.8877640"><ele></ele><time>2024-9-14T12:36:14Z</time></trkpt>
<trkpt lat="44.3416140" lon="-73.8876860"><ele></ele><time>2024-9-14T12:36:17Z</time></trkpt>
<trkpt lat="44.3419100" lon="-73.8871750"><ele></ele><time>2024-9-14T12:36:20Z</time></trkpt>
<trkpt lat="44.3422340" lon="-73.8865180"><ele></ele><time>2024-9-14T12:36:23Z</time></trkpt>
<trkpt lat="44.3423420" lon="-73.8862300"><ele></ele><time>2024-9-14T12:36:26Z</time></trkpt>
<trkpt lat="44.3423740" lon="-73.8861330"><ele></ele><time>2024-9-14T12:36:29Z</time></trkpt>
<trkpt lat="44.3424060" lon="-73.8860360"><ele></ele><time>2024-9-14T12:36:32Z</time></trkpt>
<trkpt lat="44.3424400" lon="-73.8859390"><ele></ele><time>2024-9-14T12:36:35Z</time></trkpt>
<trkpt lat="44.3424680" lon="-73.8858420"><ele></ele><time>2024-9-14T12:36:38Z</time></trkpt>
<trkpt lat="44.3425670" lon="-73.8854560"><ele></ele><time>2024-9-14T12:36:41Z</time></trkpt>
<trkpt lat="44.3426090" lon="-73.8852880"><ele></ele><time>2024-9-14T12:36:44Z</time></trkpt>
<trkpt lat="44.3427120" lon="-73.8848550"><ele></ele><time>2024-9-14T12:36:47Z</time></trkpt>
<trkpt lat="44.3427970" lon="-73.8845450"><ele></ele><time>2024-9-14T12:36:50Z</time></trkpt>
<trkpt lat="44.3428580" lon="-73.8843540"><ele></ele><time>2024-9-14T12:36:53Z</time></trkpt>
<trkpt lat="44.3428810" lon="-73.8842880"><ele></ele><time>2024-9-14T12:36:56Z</time></trkpt>
<trkpt lat="44.3429050" lon="-73.8842260"><ele></ele><time>2024-9-14T12:36:59Z</time></trkpt>
<trkpt lat="44.3429320" lon="-73.8841660"><ele></ele><time>2024-9-14T12:37:2Z</time></trkpt>
<trkpt lat="44.3429630" lon="-73.8841070"><ele></ele><time>2024-9-14T12:37:5Z</time></trkpt>
<trkpt lat="44.3430730" lon="-73.8839310"><ele></ele><time>2024-9-14T12:37:8Z</time></trkpt>
<trkpt lat="44.3433340" lon="-73.8836340"><ele></ele><time>2024-9-14T12:37:11Z</time></trkpt>
<trkpt lat="44.3433910" lon="-73.8835740"><ele></ele><time>2024-9-14T12:37:14Z</time></trkpt>
<trkpt lat="44.3434490" lon="-73.8835140"><ele></ele><time>2024-9-14T12:37:17Z</time></trkpt>
<trkpt lat="44.3435060" lon="-73.8834530"><ele></ele><time>2024-9-14T12:37:20Z</time></trkpt>
<trkpt lat="44.3435660" lon="-73.8833920"><ele></ele><time>2024-9-14T12:37:23Z</time></trkpt>
<trkpt lat="44.3436860" lon="-73.8832660"><ele></ele><time>2024-9-14T12:37:26Z</time></trkpt>
<trkpt lat="44.3438120" lon="-73.8831280"><ele></ele><time>2024-9-14T12:37:29Z</time></trkpt>
<trkpt lat="44.3440370" lon="-73.8828380"><ele></ele><time>2024-9-14T12:37:32Z</time></trkpt>
<trkpt lat="44.3440910" lon="-73.8827620"><ele></ele><time>2024-9-14T12:37:35Z</time></trkpt>
<trkpt lat="44.3441480" lon="-73.8826820"><ele></ele><time>2024-9-14T12:37:38Z</time></trkpt>
<trkpt lat="44.3442080" lon="-73.8825970"><ele></ele><time>2024-9-14T12:37:41Z</time></trkpt>
<trkpt lat="44.3442630" lon="-73.8825190"><ele></ele><time>2024-9-14T12:37:44Z</time></trkpt>
<trkpt lat="44.3444850" lon="-73.8822030"><ele></ele><time>2024-9-14T12:37:47Z</time></trkpt>
<trkpt lat="44.3448490" lon="-73.8818450"><ele></ele><time>2024-9-14T12:37:50Z</time></trkpt>
<trkpt lat="44.3451820" lon="-73.8816240"><ele></ele><time>2024-9-14T12:37:53Z</time></trkpt>
<trkpt lat="44.3455280" lon="-73.8813670"><ele></ele><time>2024-9-14T12:37:56Z</time></trkpt>
<trkpt lat="44.3455930" lon="-73.8813080"><ele></ele><time>2024-9-14T12:37:59Z</time></trkpt>
<trkpt lat="44.3456590" lon="-73.8812420"><ele></ele><time>2024-9-14T12:38:2Z</time></trkpt>
<trkpt lat="44.3457190" lon="-73.8811720"><ele></ele><time>2024-9-14T12:38:5Z</time></trkpt>
<trkpt lat="44.3457740" lon="-73.8810950"><ele></ele><time>2024-9-14T12:38:8Z</time></trkpt>
<trkpt lat="44.3458790" lon="-73.8809300"><ele></ele><time>2024-9-14T12:38:11Z</time></trkpt>
<trkpt lat="44.3460190" lon="-73.8806450"><ele></ele><time>2024-9-14T12:38:14Z</time></trkpt>
<trkpt lat="44.3460630" lon="-73.8805370"><ele></ele><time>2024-9-14T12:38:17Z</time></trkpt>
<trkpt lat="44.3461010" lon="-73.8804340"><ele></ele><time>2024-9-14T12:38:20Z</time></trkpt>
<trkpt lat="44.3461390" lon="-73.8803320"><ele></ele><time>2024-9-14T12:38:23Z</time></trkpt>
<trkpt lat="44.3462120" lon="-73.8801340"><ele></ele><time>2024-9-14T12:38:26Z</time></trkpt>
<trkpt lat="44.3463730" lon="-73.8796480"><ele></ele><time>2024-9-14T12:38:29Z</time></trkpt>
<trkpt lat="44.3465270" lon="-73.8791960"><ele></ele><time>2024-9-14T12:38:32Z</time></trkpt>
<trkpt lat="44.3465560" lon="-73.8791040"><ele></ele><time>2024-9-14T12:38:35Z</time></trkpt>
<trkpt lat="44.3465850" lon="-73.8790170"><ele></ele><time>2024-9-14T12:38:38Z</time></trkpt>
<trkpt lat="44.3466150" lon="-73.8789290"><ele></ele><time>2024-9-14T12:38:41Z</time></trkpt>
<trkpt lat="44.3466440" lon="-73.8788430"><ele></ele><time>2024-9-14T12:38:44Z</time></trkpt>
<trkpt lat="44.3468630" lon="-73.8781910"><ele></ele><time>2024-9-14T12:38:47Z</time></trkpt>
<trkpt lat="44.3470750" lon="-73.8775540"><ele></ele><time>2024-9-14T12:38:50Z</time></trkpt>
<trkpt lat="44.3472480" lon="-73.8770320"><ele></ele><time>2024-9-14T12:38:53Z</time></trkpt>
<trkpt lat="44.3473530" lon="-73.8767280"><ele></ele><time>2024-9-14T12:38:56Z</time></trkpt>
<trkpt lat="44.3473790" lon="-73.8766590"><ele></ele><time>2024-9-14T12:38:59Z</time></trkpt>
<trkpt lat="44.3474090" lon="-73.8765840"><ele></ele><time>2024-9-14T12:39:2Z</time></trkpt>
<trkpt lat="44.3474370" lon="-73.8765130"><ele></ele><time>2024-9-14T12:39:5Z</time></trkpt>
<trkpt lat="44.3474640" lon="-73.8764350"><ele></ele><time>2024-9-14T12:39:8Z</time></trkpt>
<trkpt lat="44.3474890" lon="-73.8763580"><ele></ele><time>2024-9-14T12:39:11Z</time></trkpt>
<trkpt lat="44.3477270" lon="-73.8756720"><ele></ele><time>2024-9-14T12:39:14Z</time></trkpt>
<trkpt lat="44.3478980" lon="-73.8751420"><ele></ele><time>2024-9-14T12:39:17Z</time></trkpt>
<trkpt lat="44.3480990" lon="-73.8745380"><ele></ele><time>2024-9-14T12:39:20Z</time></trkpt>
<trkpt lat="44.3482140" lon="-73.8741790"><ele></ele><time>2024-9-14T12:39:23Z</time></trkpt>
<trkpt lat="44.3482470" lon="-73.8740440"><ele></ele><time>2024-9-14T12:39:26Z</time></trkpt>
<trkpt lat="44.3483140" lon="-73.8736730"><ele></ele><time>2024-9-14T12:39:29Z</time></trkpt>
<trkpt lat="44.3483450" lon="-73.8734080"><ele></ele><time>2024-9-14T12:39:32Z</time></trkpt>
<trkpt lat="44.3483490" lon="-73.8733580"><ele></ele><time>2024-9-14T12:39:35Z</time></trkpt>
<trkpt lat="44.3483540" lon="-73.8733090"><ele></ele><time>2024-9-14T12:39:38Z</time></trkpt>
<trkpt lat="44.3483590" lon="-73.8732600"><ele></ele><time>2024-9-14T12:39:41Z</time></trkpt>
<trkpt lat="44.3483640" lon="-73.8732080"><ele></ele><time>2024-9-14T12:39:44Z</time></trkpt>
<trkpt lat="44.3483930" lon="-73.8728060"><ele></ele><time>2024-9-14T12:39:47Z</time></trkpt>
<trkpt lat="44.3483930" lon="-73.8727550"><ele></ele><time>2024-9-14T12:39:50Z</time></trkpt>
<trkpt lat="44.3483930" lon="-73.8727040"><ele></ele><time>2024-9-14T12:39:53Z</time></trkpt>
<trkpt lat="44.3483950" lon="-73.8726530"><ele></ele><time>2024-9-14T12:39:56Z</time></trkpt>
<trkpt lat="44.3483940" lon="-73.8726030"><ele></ele><time>2024-9-14T12:39:59Z</time></trkpt>
<trkpt lat="44.3483940" lon="-73.8723520"><ele></ele><time>2024-9-14T12:40:2Z</time></trkpt>
<trkpt lat="44.3483660" lon="-73.8719690"><ele></ele><time>2024-9-14T12:40:5Z</time></trkpt>
<trkpt lat="44.3483620" lon="-73.8719120"><ele></ele><time>2024-9-14T12:40:8Z</time></trkpt>
<trkpt lat="44.3483560" lon="-73.8718580"><ele></ele><time>2024-9-14T12:40:11Z</time></trkpt>
<trkpt lat="44.3483480" lon="-73.8718030"><ele></ele><time>2024-9-14T12:40:14Z</time></trkpt>
<trkpt lat="44.3483380" lon="-73.8717500"><ele></ele><time>2024-9-14T12:40:17Z</time></trkpt>
<trkpt lat="44.3483250" lon="-73.8716930"><ele></ele><time>2024-9-14T12:40:20Z</time></trkpt>
<trkpt lat="44.3482940" lon="-73.8715290"><ele></ele><time>2024-9-14T12:40:23Z</time></trkpt>
<trkpt lat="44.3482500" lon="-73.8712900"><ele></ele><time>2024-9-14T12:40:26Z</time></trkpt>
<trkpt lat="44.3481900" lon="-73.8710860"><ele></ele><time>2024-9-14T12:40:29Z</time></trkpt>
<trkpt lat="44.3480140" lon="-73.8705340"><ele></ele><time>2024-9-14T12:40:32Z</time></trkpt>
<trkpt lat="44.3478440" lon="-73.8701450"><ele></ele><time>2024-9-14T12:40:35Z</time></trkpt>
<trkpt lat="44.3478010" lon="-73.8700650"><ele></ele><time>2024-9-14T12:40:38Z</time></trkpt>
<trkpt lat="44.3477590" lon="-73.8699850"><ele></ele><time>2024-9-14T12:40:41Z</time></trkpt>
<trkpt lat="44.3477170" lon="-73.8699070"><ele></ele><time>2024-9-14T12:40:44Z</time></trkpt>
<trkpt lat="44.3475740" lon="-73.8696700"><ele></ele><time>2024-9-14T12:40:47Z</time></trkpt>
<trkpt lat="44.3475180" lon="-73.8695900"><ele></ele><time>2024-9-14T12:40:50Z</time></trkpt>
<trkpt lat="44.3474580" lon="-73.8695010"><ele></ele><time>2024-9-14T12:40:53Z</time></trkpt>
<trkpt lat="44.3473990" lon="-73.8694130"><ele></ele><time>2024-9-14T12:40:56Z</time></trkpt>
<trkpt lat="44.3473420" lon="-73.8693190"><ele></ele><time>2024-9-14T12:40:59Z</time></trkpt>
<trkpt lat="44.3472280" lon="-73.8691210"><ele></ele><time>2024-9-14T12:41:2Z</time></trkpt>
<trkpt lat="44.3471710" lon="-73.8690170"><ele></ele><time>2024-9-14T12:41:5Z</time></trkpt>
<trkpt lat="44.3471150" lon="-73.8689070"><ele></ele><time>2024-9-14T12:41:8Z</time></trkpt>
<trkpt lat="44.3470630" lon="-73.8687920"><ele></ele><time>2024-9-14T12:41:11Z</time></trkpt>
<trkpt lat="44.3470120" lon="-73.8686650"><ele></ele><time>2024-9-14T12:41:14Z</time></trkpt>
<trkpt lat="44.3469750" lon="-73.8685360"><ele></ele><time>2024-9-14T12:41:17Z</time></trkpt>
<trkpt lat="44.3469370" lon="-73.8684060"><ele></ele><time>2024-9-14T12:41:20Z</time></trkpt>
<trkpt lat="44.3469080" lon="-73.8682790"><ele></ele><time>2024-9-14T12:41:23Z</time></trkpt>
<trkpt lat="44.3468860" lon="-73.8681500"><ele></ele><time>2024-9-14T12:41:26Z</time></trkpt>
<trkpt lat="44.3468700" lon="-73.8680240"><ele></ele><time>2024-9-14T12:41:29Z</time></trkpt>
<trkpt lat="44.3468580" lon="-73.8678990"><ele></ele><time>2024-9-14T12:41:32Z</time></trkpt>
<trkpt lat="44.3468600" lon="-73.8673990"><ele></ele><time>2024-9-14T12:41:35Z</time></trkpt>
<trkpt lat="44.3468710" lon="-73.8672810"><ele></ele><time>2024-9-14T12:41:38Z</time></trkpt>
<trkpt lat="44.3468870" lon="-73.8671630"><ele></ele><time>2024-9-14T12:41:41Z</time></trkpt>
<trkpt lat="44.3469060" lon="-73.8670450"><ele></ele><time>2024-9-14T12:41:44Z</time></trkpt>
<trkpt lat="44.3469280" lon="-73.8669250"><ele></ele><time>2024-9-14T12:41:47Z</time></trkpt>
<trkpt lat="44.3469530" lon="-73.8667970"><ele></ele><time>2024-9-14T12:41:50Z</time></trkpt>
<trkpt lat="44.3469810" lon="-73.8666720"><ele></ele><time>2024-9-14T12:41:53Z</time></trkpt>
<trkpt lat="44.3470100" lon="-73.8665470"><ele></ele><time>2024-9-14T12:41:56Z</time></trkpt>
<trkpt lat="44.3471080" lon="-73.8660240"><ele></ele><time>2024-9-14T12:41:59Z</time></trkpt>
<trkpt lat="44.3471360" lon="-73.8658890"><ele></ele><time>2024-9-14T12:42:2Z</time></trkpt>
<trkpt lat="44.3471620" lon="-73.8657600"><ele></ele><time>2024-9-14T12:42:5Z</time></trkpt>
<trkpt lat="44.3471890" lon="-73.8656330"><ele></ele><time>2024-9-14T12:42:8Z</time></trkpt>
<trkpt lat="44.3472210" lon="-73.8655090"><ele></ele><time>2024-9-14T12:42:11Z</time></trkpt>
<trkpt lat="44.3473510" lon="-73.8651450"><ele></ele><time>2024-9-14T12:42:14Z</time></trkpt>
<trkpt lat="44.3473990" lon="-73.8650260"><ele></ele><time>2024-9-14T12:42:17Z</time></trkpt>
<trkpt lat="44.3474550" lon="-73.8649100"><ele></ele><time>2024-9-14T12:42:20Z</time></trkpt>
<trkpt lat="44.3475160" lon="-73.8647980"><ele></ele><time>2024-9-14T12:42:23Z</time></trkpt>
<trkpt lat="44.3475770" lon="-73.8646850"><ele></ele><time>2024-9-14T12:42:26Z</time></trkpt>
<trkpt lat="44.3476410" lon="-73.8645720"><ele></ele><time>2024-9-14T12:42:29Z</time></trkpt>
<trkpt lat="44.3477080" lon="-73.8644600"><ele></ele><time>2024-9-14T12:42:32Z</time></trkpt>
<trkpt lat="44.3477810" lon="-73.8643460"><ele></ele><time>2024-9-14T12:42:35Z</time></trkpt>
<trkpt lat="44.3479300" lon="-73.8641130"><ele></ele><time>2024-9-14T12:42:38Z</time></trkpt>
<trkpt lat="44.3480030" lon="-73.8640010"><ele></ele><time>2024-9-14T12:42:41Z</time></trkpt>
<trkpt lat="44.3480740" lon="-73.8638900"><ele></ele><time>2024-9-14T12:42:44Z</time></trkpt>
<trkpt lat="44.3481410" lon="-73.8637800"><ele></ele><time>2024-9-14T12:42:47Z</time></trkpt>
<trkpt lat="44.3482080" lon="-73.8636680"><ele></ele><time>2024-9-14T12:42:50Z</time></trkpt>
<trkpt lat="44.3485120" lon="-73.8631630"><ele></ele><time>2024-9-14T12:42:53Z</time></trkpt>
<trkpt lat="44.3485640" lon="-73.8630710"><ele></ele><time>2024-9-14T12:42:56Z</time></trkpt>
<trkpt lat="44.3486150" lon="-73.8629820"><ele></ele><time>2024-9-14T12:42:59Z</time></trkpt>
<trkpt lat="44.3486640" lon="-73.8628950"><ele></ele><time>2024-9-14T12:43:2Z</time></trkpt>
<trkpt lat="44.3487120" lon="-73.8628090"><ele></ele><time>2024-9-14T12:43:5Z</time></trkpt>
<trkpt lat="44.3488040" lon="-73.8626220"><ele></ele><time>2024-9-14T12:43:8Z</time></trkpt>
<trkpt lat="44.3488910" lon="-73.8624430"><ele></ele><time>2024-9-14T12:43:11Z</time></trkpt>
<trkpt lat="44.3489690" lon="-73.8622780"><ele></ele><time>2024-9-14T12:43:14Z</time></trkpt>
<trkpt lat="44.3490910" lon="-73.8620260"><ele></ele><time>2024-9-14T12:43:17Z</time></trkpt>
<trkpt lat="44.3493620" lon="-73.8614790"><ele></ele><time>2024-9-14T12:43:20Z</time></trkpt>
<trkpt lat="44.3494830" lon="-73.8612600"><ele></ele><time>2024-9-14T12:43:23Z</time></trkpt>
<trkpt lat="44.3497470" lon="-73.8608340"><ele></ele><time>2024-9-14T12:43:26Z</time></trkpt>
<trkpt lat="44.3500040" lon="-73.8604020"><ele></ele><time>2024-9-14T12:43:29Z</time></trkpt>
<trkpt lat="44.3500480" lon="-73.8603210"><ele></ele><time>2024-9-14T12:43:32Z</time></trkpt>
<trkpt lat="44.3500960" lon="-73.8602400"><ele></ele><time>2024-9-14T12:43:35Z</time></trkpt>
<trkpt lat="44.3501460" lon="-73.8601620"><ele></ele><time>2024-9-14T12:43:38Z</time></trkpt>
<trkpt lat="44.3501940" lon="-73.8600770"><ele></ele><time>2024-9-14T12:43:41Z</time></trkpt>
<trkpt lat="44.3502980" lon="-73.8599020"><ele></ele><time>2024-9-14T12:43:44Z</time></trkpt>
<trkpt lat="44.3504240" lon="-73.8597190"><ele></ele><time>2024-9-14T12:43:47Z</time></trkpt>
<trkpt lat="44.3504930" lon="-73.8596260"><ele></ele><time>2024-9-14T12:43:50Z</time></trkpt>
<trkpt lat="44.3505640" lon="-73.8595290"><ele></ele><time>2024-9-14T12:43:53Z</time></trkpt>
<trkpt lat="44.3506400" lon="-73.8594320"><ele></ele><time>2024-9-14T12:43:56Z</time></trkpt>
<trkpt lat="44.3507230" lon="-73.8593250"><ele></ele><time>2024-9-14T12:43:59Z</time></trkpt>
<trkpt lat="44.3508100" lon="-73.8592140"><ele></ele><time>2024-9-14T12:44:2Z</time></trkpt>
<trkpt lat="44.3509020" lon="-73.8591040"><ele></ele><time>2024-9-14T12:44:5Z</time></trkpt>
<trkpt lat="44.3510020" lon="-73.8589810"><ele></ele><time>2024-9-14T12:44:8Z</time></trkpt>
<trkpt lat="44.3510970" lon="-73.8588570"><ele></ele><time>2024-9-14T12:44:11Z</time></trkpt>
<trkpt lat="44.3511940" lon="-73.8587350"><ele></ele><time>2024-9-14T12:44:14Z</time></trkpt>
<trkpt lat="44.3512950" lon="-73.8586100"><ele></ele><time>2024-9-14T12:44:17Z</time></trkpt>
<trkpt lat="44.3513940" lon="-73.8584820"><ele></ele><time>2024-9-14T12:44:20Z</time></trkpt>
<trkpt lat="44.3514940" lon="-73.8583490"><ele></ele><time>2024-9-14T12:44:23Z</time></trkpt>
<trkpt lat="44.3515950" lon="-73.8582110"><ele></ele><time>2024-9-14T12:44:26Z</time></trkpt>
<trkpt lat="44.3516970" lon="-73.8580670"><ele></ele><time>2024-9-14T12:44:29Z</time></trkpt>
<trkpt lat="44.3517890" lon="-73.8579360"><ele></ele><time>2024-9-14T12:44:32Z</time></trkpt>
<trkpt lat="44.3518760" lon="-73.8578140"><ele></ele><time>2024-9-14T12:44:35Z</time></trkpt>
<trkpt lat="44.3519600" lon="-73.8576940"><ele></ele><time>2024-9-14T12:44:38Z</time></trkpt>
<trkpt lat="44.3520350" lon="-73.8575750"><ele></ele><time>2024-9-14T12:44:41Z</time></trkpt>
<trkpt lat="44.3521030" lon="-73.8574510"><ele></ele><time>2024-9-14T12:44:44Z</time></trkpt>
<trkpt lat="44.3521600" lon="-73.8573260"><ele></ele><time>2024-9-14T12:44:47Z</time></trkpt>
<trkpt lat="44.3522110" lon="-73.8571990"><ele></ele><time>2024-9-14T12:44:50Z</time></trkpt>
<trkpt lat="44.3522550" lon="-73.8570780"><ele></ele><time>2024-9-14T12:44:53Z</time></trkpt>
<trkpt lat="44.3522980" lon="-73.8569550"><ele></ele><time>2024-9-14T12:44:56Z</time></trkpt>
<trkpt lat="44.3523360" lon="-73.8568350"><ele></ele><time>2024-9-14T12:44:59Z</time></trkpt>
<trkpt lat="44.3523740" lon="-73.8567180"><ele></ele><time>2024-9-14T12:45:2Z</time></trkpt>
<trkpt lat="44.3524490" lon="-73.8564840"><ele></ele><time>2024-9-14T12:45:5Z</time></trkpt>
<trkpt lat="44.3524890" lon="-73.8563630"><ele></ele><time>2024-9-14T12:45:8Z</time></trkpt>
<trkpt lat="44.3525300" lon="-73.8562460"><ele></ele><time>2024-9-14T12:45:11Z</time></trkpt>
<trkpt lat="44.3525760" lon="-73.8561350"><ele></ele><time>2024-9-14T12:45:14Z</time></trkpt>
<trkpt lat="44.3526260" lon="-73.8560260"><ele></ele><time>2024-9-14T12:45:17Z</time></trkpt>
<trkpt lat="44.3527320" lon="-73.8558090"><ele></ele><time>2024-9-14T12:45:20Z</time></trkpt>
<trkpt lat="44.3528640" lon="-73.8556080"><ele></ele><time>2024-9-14T12:45:23Z</time></trkpt>
<trkpt lat="44.3529410" lon="-73.8555060"><ele></ele><time>2024-9-14T12:45:26Z</time></trkpt>
<trkpt lat="44.3530170" lon="-73.8554150"><ele></ele><time>2024-9-14T12:45:29Z</time></trkpt>
<trkpt lat="44.3530940" lon="-73.8553230"><ele></ele><time>2024-9-14T12:45:32Z</time></trkpt>
<trkpt lat="44.3531750" lon="-73.8552310"><ele></ele><time>2024-9-14T12:45:35Z</time></trkpt>
<trkpt lat="44.3532590" lon="-73.8551350"><ele></ele><time>2024-9-14T12:45:38Z</time></trkpt>
<trkpt lat="44.3533450" lon="-73.8550410"><ele></ele><time>2024-9-14T12:45:41Z</time></trkpt>
<trkpt lat="44.3534330" lon="-73.8549450"><ele></ele><time>2024-9-14T12:45:44Z</time></trkpt>
<trkpt lat="44.3535270" lon="-73.8548400"><ele></ele><time>2024-9-14T12:45:47Z</time></trkpt>
<trkpt lat="44.3536150" lon="-73.8547420"><ele></ele><time>2024-9-14T12:45:50Z</time></trkpt>
<trkpt lat="44.3537020" lon="-73.8546450"><ele></ele><time>2024-9-14T12:45:53Z</time></trkpt>
<trkpt lat="44.3537850" lon="-73.8545450"><ele></ele><time>2024-9-14T12:45:56Z</time></trkpt>
<trkpt lat="44.3538660" lon="-73.8544470"><ele></ele><time>2024-9-14T12:45:59Z</time></trkpt>
<trkpt lat="44.3539480" lon="-73.8543450"><ele></ele><time>2024-9-14T12:46:2Z</time></trkpt>
<trkpt lat="44.3540260" lon="-73.8542390"><ele></ele><time>2024-9-14T12:46:5Z</time></trkpt>
<trkpt lat="44.3541090" lon="-73.8541270"><ele></ele><time>2024-9-14T12:46:8Z</time></trkpt>
<trkpt lat="44.3541880" lon="-73.8540180"><ele></ele><time>2024-9-14T12:46:11Z</time></trkpt>
<trkpt lat="44.3542650" lon="-73.8539080"><ele></ele><time>2024-9-14T12:46:14Z</time></trkpt>
<trkpt lat="44.3543370" lon="-73.8537980"><ele></ele><time>2024-9-14T12:46:17Z</time></trkpt>
<trkpt lat="44.3544050" lon="-73.8536840"><ele></ele><time>2024-9-14T12:46:20Z</time></trkpt>
<trkpt lat="44.3544690" lon="-73.8535660"><ele></ele><time>2024-9-14T12:46:23Z</time></trkpt>
<trkpt lat="44.3545340" lon="-73.8534500"><ele></ele><time>2024-9-14T12:46:26Z</time></trkpt>
<trkpt lat="44.3545930" lon="-73.8533350"><ele></ele><time>2024-9-14T12:46:29Z</time></trkpt>
<trkpt lat="44.3546550" lon="-73.8532150"><ele></ele><time>2024-9-14T12:46:32Z</time></trkpt>
<trkpt lat="44.3547100" lon="-73.8531040"><ele></ele><time>2024-9-14T12:46:35Z</time></trkpt>
<trkpt lat="44.3547640" lon="-73.8529900"><ele></ele><time>2024-9-14T12:46:38Z</time></trkpt>
<trkpt lat="44.3548150" lon="-73.8528780"><ele></ele><time>2024-9-14T12:46:41Z</time></trkpt>
<trkpt lat="44.3549200" lon="-73.8526610"><ele></ele><time>2024-9-14T12:46:44Z</time></trkpt>
<trkpt lat="44.3552580" lon="-73.8520270"><ele></ele><time>2024-9-14T12:46:47Z</time></trkpt>
<trkpt lat="44.3553170" lon="-73.8519280"><ele></ele><time>2024-9-14T12:46:50Z</time></trkpt>
<trkpt lat="44.3553780" lon="-73.8518320"><ele></ele><time>2024-9-14T12:46:53Z</time></trkpt>
<trkpt lat="44.3554410" lon="-73.8517360"><ele></ele><time>2024-9-14T12:46:56Z</time></trkpt>
<trkpt lat="44.3557260" lon="-73.8513650"><ele></ele><time>2024-9-14T12:46:59Z</time></trkpt>
<trkpt lat="44.3557970" lon="-73.8512820"><ele></ele><time>2024-9-14T12:47:2Z</time></trkpt>
<trkpt lat="44.3558700" lon="-73.8512030"><ele></ele><time>2024-9-14T12:47:5Z</time></trkpt>
<trkpt lat="44.3559420" lon="-73.8511240"><ele></ele><time>2024-9-14T12:47:8Z</time></trkpt>
<trkpt lat="44.3560150" lon="-73.8510460"><ele></ele><time>2024-9-14T12:47:11Z</time></trkpt>
<trkpt lat="44.3563730" lon="-73.8506440"><ele></ele><time>2024-9-14T12:47:14Z</time></trkpt>
<trkpt lat="44.3564460" lon="-73.8505660"><ele></ele><time>2024-9-14T12:47:17Z</time></trkpt>
<trkpt lat="44.3565200" lon="-73.8504840"><ele></ele><time>2024-9-14T12:47:20Z</time></trkpt>
<trkpt lat="44.3565950" lon="-73.8504060"><ele></ele><time>2024-9-14T12:47:23Z</time></trkpt>
<trkpt lat="44.3566750" lon="-73.8503200"><ele></ele><time>2024-9-14T12:47:26Z</time></trkpt>
<trkpt lat="44.3567550" lon="-73.8502330"><ele></ele><time>2024-9-14T12:47:29Z</time></trkpt>
<trkpt lat="44.3568390" lon="-73.8501490"><ele></ele><time>2024-9-14T12:47:32Z</time></trkpt>
<trkpt lat="44.3569230" lon="-73.8500620"><ele></ele><time>2024-9-14T12:47:35Z</time></trkpt>
<trkpt lat="44.3570040" lon="-73.8499760"><ele></ele><time>2024-9-14T12:47:38Z</time></trkpt>
<trkpt lat="44.3570910" lon="-73.8498870"><ele></ele><time>2024-9-14T12:47:41Z</time></trkpt>
<trkpt lat="44.3571780" lon="-73.8498010"><ele></ele><time>2024-9-14T12:47:44Z</time></trkpt>
<trkpt lat="44.3572710" lon="-73.8497110"><ele></ele><time>2024-9-14T12:47:47Z</time></trkpt>
<trkpt lat="44.3573580" lon="-73.8496280"><ele></ele><time>2024-9-14T12:47:50Z</time></trkpt>
<trkpt lat="44.3574440" lon="-73.8495470"><ele></ele><time>2024-9-14T12:47:53Z</time></trkpt>
<trkpt lat="44.3575330" lon="-73.8494710"><ele></ele><time>2024-9-14T12:47:56Z</time></trkpt>
<trkpt lat="44.3576210" lon="-73.8493960"><ele></ele><time>2024-9-14T12:47:59Z</time></trkpt>
<trkpt lat="44.3580380" lon="-73.8490130"><ele></ele><time>2024-9-14T12:48:2Z</time></trkpt>
<trkpt lat="44.3581990" lon="-73.8488450"><ele></ele><time>2024-9-14T12:48:5Z</time></trkpt>
<trkpt lat="44.3584310" lon="-73.8485670"><ele></ele><time>2024-9-14T12:48:8Z</time></trkpt>
<trkpt lat="44.3585110" lon="-73.8484750"><ele></ele><time>2024-9-14T12:48:11Z</time></trkpt>
<trkpt lat="44.3585850" lon="-73.8483900"><ele></ele><time>2024-9-14T12:48:14Z</time></trkpt>
<trkpt lat="44.3586580" lon="-73.8482990"><ele></ele><time>2024-9-14T12:48:17Z</time></trkpt>
<trkpt lat="44.3587280" lon="-73.8482100"><ele></ele><time>2024-9-14T12:48:20Z</time></trkpt>
<trkpt lat="44.3588720" lon="-73.8480390"><ele></ele><time>2024-9-14T12:48:23Z</time></trkpt>
<trkpt lat="44.3593000" lon="-73.8475180"><ele></ele><time>2024-9-14T12:48:26Z</time></trkpt>
<trkpt lat="44.3593710" lon="-73.8474310"><ele></ele><time>2024-9-14T12:48:29Z</time></trkpt>
<trkpt lat="44.3594400" lon="-73.8473490"><ele></ele><time>2024-9-14T12:48:32Z</time></trkpt>
<trkpt lat="44.3595070" lon="-73.8472670"><ele></ele><time>2024-9-14T12:48:35Z</time></trkpt>
<trkpt lat="44.3595790" lon="-73.8471840"><ele></ele><time>2024-9-14T12:48:38Z</time></trkpt>
<trkpt lat="44.3596460" lon="-73.8471020"><ele></ele><time>2024-9-14T12:48:41Z</time></trkpt>
<trkpt lat="44.3599080" lon="-73.8467790"><ele></ele><time>2024-9-14T12:48:44Z</time></trkpt>
<trkpt lat="44.3603420" lon="-73.8462370"><ele></ele><time>2024-9-14T12:48:47Z</time></trkpt>
<trkpt lat="44.3604040" lon="-73.8461580"><ele></ele><time>2024-9-14T12:48:50Z</time></trkpt>
<trkpt lat="44.3604700" lon="-73.8460810"><ele></ele><time>2024-9-14T12:48:53Z</time></trkpt>
<trkpt lat="44.3605330" lon="-73.8460030"><ele></ele><time>2024-9-14T12:48:56Z</time></trkpt>
<trkpt lat="44.3605960" lon="-73.8459280"><ele></ele><time>2024-9-14T12:48:59Z</time></trkpt>
<trkpt lat="44.3606600" lon="-73.8458550"><ele></ele><time>2024-9-14T12:49:2Z</time></trkpt>
<trkpt lat="44.3607820" lon="-73.8457030"><ele></ele><time>2024-9-14T12:49:5Z</time></trkpt>
<trkpt lat="44.3609750" lon="-73.8454650"><ele></ele><time>2024-9-14T12:49:8Z</time></trkpt>
<trkpt lat="44.3611590" lon="-73.8452400"><ele></ele><time>2024-9-14T12:49:11Z</time></trkpt>
<trkpt lat="44.3612180" lon="-73.8451660"><ele></ele><time>2024-9-14T12:49:14Z</time></trkpt>
<trkpt lat="44.3612770" lon="-73.8450930"><ele></ele><time>2024-9-14T12:49:17Z</time></trkpt>
<trkpt lat="44.3613340" lon="-73.8450190"><ele></ele><time>2024-9-14T12:49:20Z</time></trkpt>
<trkpt lat="44.3613940" lon="-73.8449420"><ele></ele><time>2024-9-14T12:49:23Z</time></trkpt>
<trkpt lat="44.3617270" lon="-73.8445280"><ele></ele><time>2024-9-14T12:49:26Z</time></trkpt>
<trkpt lat="44.3618360" lon="-73.8443930"><ele></ele><time>2024-9-14T12:49:29Z</time></trkpt>
<trkpt lat="44.3618890" lon="-73.8443300"><ele></ele><time>2024-9-14T12:49:32Z</time></trkpt>
<trkpt lat="44.3619440" lon="-73.8442670"><ele></ele><time>2024-9-14T12:49:35Z</time></trkpt>
<trkpt lat="44.3619950" lon="-73.8442020"><ele></ele><time>2024-9-14T12:49:38Z</time></trkpt>
<trkpt lat="44.3620430" lon="-73.8441370"><ele></ele><time>2024-9-14T12:49:41Z</time></trkpt>
<trkpt lat="44.3620960" lon="-73.8440710"><ele></ele><time>2024-9-14T12:49:44Z</time></trkpt>
<trkpt lat="44.3624230" lon="-73.8436520"><ele></ele><time>2024-9-14T12:49:47Z</time></trkpt>
<trkpt lat="44.3628290" lon="-73.8431430"><ele></ele><time>2024-9-14T12:49:50Z</time></trkpt>
<trkpt lat="44.3631210" lon="-73.8428000"><ele></ele><time>2024-9-14T12:49:53Z</time></trkpt>
<trkpt lat="44.3631710" lon="-73.8427440"><ele></ele><time>2024-9-14T12:49:56Z</time></trkpt>
<trkpt lat="44.3632250" lon="-73.8426880"><ele></ele><time>2024-9-14T12:49:59Z</time></trkpt>
<trkpt lat="44.3632780" lon="-73.8426370"><ele></ele><time>2024-9-14T12:50:2Z</time></trkpt>
<trkpt lat="44.3633290" lon="-73.8425870"><ele></ele><time>2024-9-14T12:50:5Z</time></trkpt>
<trkpt lat="44.3633800" lon="-73.8425370"><ele></ele><time>2024-9-14T12:50:8Z</time></trkpt>
<trkpt lat="44.3634340" lon="-73.8424890"><ele></ele><time>2024-9-14T12:50:11Z</time></trkpt>
<trkpt lat="44.3636000" lon="-73.8423430"><ele></ele><time>2024-9-14T12:50:14Z</time></trkpt>
<trkpt lat="44.3640870" lon="-73.8419230"><ele></ele><time>2024-9-14T12:50:17Z</time></trkpt>
<trkpt lat="44.3641540" lon="-73.8418650"><ele></ele><time>2024-9-14T12:50:20Z</time></trkpt>
<trkpt lat="44.3642220" lon="-73.8418090"><ele></ele><time>2024-9-14T12:50:23Z</time></trkpt>
<trkpt lat="44.3642910" lon="-73.8417490"><ele></ele><time>2024-9-14T12:50:26Z</time></trkpt>
<trkpt lat="44.3643600" lon="-73.8416880"><ele></ele><time>2024-9-14T12:50:29Z</time></trkpt>
<trkpt lat="44.3644300" lon="-73.8416300"><ele></ele><time>2024-9-14T12:50:32Z</time></trkpt>
<trkpt lat="44.3645690" lon="-73.8415080"><ele></ele><time>2024-9-14T12:50:35Z</time></trkpt>
<trkpt lat="44.3646470" lon="-73.8414460"><ele></ele><time>2024-9-14T12:50:38Z</time></trkpt>
<trkpt lat="44.3647210" lon="-73.8413900"><ele></ele><time>2024-9-14T12:50:41Z</time></trkpt>
<trkpt lat="44.3647950" lon="-73.8413370"><ele></ele><time>2024-9-14T12:50:44Z</time></trkpt>
<trkpt lat="44.3648750" lon="-73.8412840"><ele></ele><time>2024-9-14T12:50:47Z</time></trkpt>
<trkpt lat="44.3649540" lon="-73.8412310"><ele></ele><time>2024-9-14T12:50:50Z</time></trkpt>
<trkpt lat="44.3650350" lon="-73.8411860"><ele></ele><time>2024-9-14T12:50:53Z</time></trkpt>
<trkpt lat="44.3651210" lon="-73.8411460"><ele></ele><time>2024-9-14T12:50:56Z</time></trkpt>
<trkpt lat="44.3652110" lon="-73.8411100"><ele></ele><time>2024-9-14T12:50:59Z</time></trkpt>
<trkpt lat="44.3652970" lon="-73.8410750"><ele></ele><time>2024-9-14T12:51:2Z</time></trkpt>
<trkpt lat="44.3653850" lon="-73.8410470"><ele></ele><time>2024-9-14T12:51:5Z</time></trkpt>
<trkpt lat="44.3654760" lon="-73.8410200"><ele></ele><time>2024-9-14T12:51:8Z</time></trkpt>
<trkpt lat="44.3655680" lon="-73.8410010"><ele></ele><time>2024-9-14T12:51:11Z</time></trkpt>
<trkpt lat="44.3656650" lon="-73.8409810"><ele></ele><time>2024-9-14T12:51:14Z</time></trkpt>
<trkpt lat="44.3657630" lon="-73.8409650"><ele></ele><time>2024-9-14T12:51:17Z</time></trkpt>
<trkpt lat="44.3658640" lon="-73.8409460"><ele></ele><time>2024-9-14T12:51:20Z</time></trkpt>
<trkpt lat="44.3659670" lon="-73.8409260"><ele></ele><time>2024-9-14T12:51:23Z</time></trkpt>
<trkpt lat="44.3660640" lon="-73.8409090"><ele></ele><time>2024-9-14T12:51:26Z</time></trkpt>
<trkpt lat="44.3661620" lon="-73.8408890"><ele></ele><time>2024-9-14T12:51:29Z</time></trkpt>
<trkpt lat="44.3662630" lon="-73.8408720"><ele></ele><time>2024-9-14T12:51:32Z</time></trkpt>
<trkpt lat="44.3663610" lon="-73.8408520"><ele></ele><time>2024-9-14T12:51:35Z</time></trkpt>
<trkpt lat="44.3664620" lon="-73.8408290"><ele></ele><time>2024-9-14T12:51:38Z</time></trkpt>
<trkpt lat="44.3665650" lon="-73.8407980"><ele></ele><time>2024-9-14T12:51:41Z</time></trkpt>
<trkpt lat="44.3666730" lon="-73.8407660"><ele></ele><time>2024-9-14T12:51:44Z</time></trkpt>
<trkpt lat="44.3667760" lon="-73.8407310"><ele></ele><time>2024-9-14T12:51:47Z</time></trkpt>
<trkpt lat="44.3668810" lon="-73.8406950"><ele></ele><time>2024-9-14T12:51:50Z</time></trkpt>
<trkpt lat="44.3669880" lon="-73.8406550"><ele></ele><time>2024-9-14T12:51:53Z</time></trkpt>
<trkpt lat="44.3670920" lon="-73.8406030"><ele></ele><time>2024-9-14T12:51:56Z</time></trkpt>
<trkpt lat="44.3672020" lon="-73.8405470"><ele></ele><time>2024-9-14T12:51:59Z</time></trkpt>
<trkpt lat="44.3673060" lon="-73.8404830"><ele></ele><time>2024-9-14T12:52:2Z</time></trkpt>
<trkpt lat="44.3674100" lon="-73.8404140"><ele></ele><time>2024-9-14T12:52:5Z</time></trkpt>
<trkpt lat="44.3675160" lon="-73.8403370"><ele></ele><time>2024-9-14T12:52:8Z</time></trkpt>
<trkpt lat="44.3676120" lon="-73.8402510"><ele></ele><time>2024-9-14T12:52:11Z</time></trkpt>
<trkpt lat="44.3677040" lon="-73.8401630"><ele></ele><time>2024-9-14T12:52:14Z</time></trkpt>
<trkpt lat="44.3677930" lon="-73.8400670"><ele></ele><time>2024-9-14T12:52:17Z</time></trkpt>
<trkpt lat="44.3679640" lon="-73.8398640"><ele></ele><time>2024-9-14T12:52:20Z</time></trkpt>
<trkpt lat="44.3680450" lon="-73.8397590"><ele></ele><time>2024-9-14T12:52:23Z</time></trkpt>
<trkpt lat="44.3681180" lon="-73.8396470"><ele></ele><time>2024-9-14T12:52:26Z</time></trkpt>
<trkpt lat="44.3681840" lon="-73.8395350"><ele></ele><time>2024-9-14T12:52:29Z</time></trkpt>
<trkpt lat="44.3682460" lon="-73.8394240"><ele></ele><time>2024-9-14T12:52:32Z</time></trkpt>
<trkpt lat="44.3683690" lon="-73.8392090"><ele></ele><time>2024-9-14T12:52:35Z</time></trkpt>
<trkpt lat="44.3684270" lon="-73.8391090"><ele></ele><time>2024-9-14T12:52:38Z</time></trkpt>
<trkpt lat="44.3684850" lon="-73.8390080"><ele></ele><time>2024-9-14T12:52:41Z</time></trkpt>
<trkpt lat="44.3685390" lon="-73.8389070"><ele></ele><time>2024-9-14T12:52:44Z</time></trkpt>
<trkpt lat="44.3685970" lon="-73.8387990"><ele></ele><time>2024-9-14T12:52:47Z</time></trkpt>
<trkpt lat="44.3687070" lon="-73.8385970"><ele></ele><time>2024-9-14T12:52:50Z</time></trkpt>
<trkpt lat="44.3687620" lon="-73.8384950"><ele></ele><time>2024-9-14T12:52:53Z</time></trkpt>
<trkpt lat="44.3688170" lon="-73.8383960"><ele></ele><time>2024-9-14T12:52:56Z</time></trkpt>
<trkpt lat="44.3688740" lon="-73.8382990"><ele></ele><time>2024-9-14T12:52:59Z</time></trkpt>
<trkpt lat="44.3689300" lon="-73.8382020"><ele></ele><time>2024-9-14T12:53:2Z</time></trkpt>
<trkpt lat="44.3690360" lon="-73.8380030"><ele></ele><time>2024-9-14T12:53:5Z</time></trkpt>
<trkpt lat="44.3691920" lon="-73.8377230"><ele></ele><time>2024-9-14T12:53:8Z</time></trkpt>
<trkpt lat="44.3692950" lon="-73.8375340"><ele></ele><time>2024-9-14T12:53:11Z</time></trkpt>
<trkpt lat="44.3693470" lon="-73.8374350"><ele></ele><time>2024-9-14T12:53:14Z</time></trkpt>
<trkpt lat="44.3693980" lon="-73.8373430"><ele></ele><time>2024-9-14T12:53:17Z</time></trkpt>
<trkpt lat="44.3694480" lon="-73.8372500"><ele></ele><time>2024-9-14T12:53:20Z</time></trkpt>
<trkpt lat="44.3695000" lon="-73.8371570"><ele></ele><time>2024-9-14T12:53:23Z</time></trkpt>
<trkpt lat="44.3695550" lon="-73.8370680"><ele></ele><time>2024-9-14T12:53:26Z</time></trkpt>
<trkpt lat="44.3696100" lon="-73.8369770"><ele></ele><time>2024-9-14T12:53:29Z</time></trkpt>
<trkpt lat="44.3696700" lon="-73.8368900"><ele></ele><time>2024-9-14T12:53:32Z</time></trkpt>
<trkpt lat="44.3697290" lon="-73.8368080"><ele></ele><time>2024-9-14T12:53:35Z</time></trkpt>
<trkpt lat="44.3698550" lon="-73.8366440"><ele></ele><time>2024-9-14T12:53:38Z</time></trkpt>
<trkpt lat="44.3702610" lon="-73.8362250"><ele></ele><time>2024-9-14T12:53:41Z</time></trkpt>
<trkpt lat="44.3703360" lon="-73.8361640"><ele></ele><time>2024-9-14T12:53:44Z</time></trkpt>
<trkpt lat="44.3704140" lon="-73.8361080"><ele></ele><time>2024-9-14T12:53:47Z</time></trkpt>
<trkpt lat="44.3704900" lon="-73.8360570"><ele></ele><time>2024-9-14T12:53:50Z</time></trkpt>
<trkpt lat="44.3705670" lon="-73.8360070"><ele></ele><time>2024-9-14T12:53:53Z</time></trkpt>
<trkpt lat="44.3707980" lon="-73.8358860"><ele></ele><time>2024-9-14T12:53:56Z</time></trkpt>
<trkpt lat="44.3708820" lon="-73.8358470"><ele></ele><time>2024-9-14T12:53:59Z</time></trkpt>
<trkpt lat="44.3709620" lon="-73.8358200"><ele></ele><time>2024-9-14T12:54:2Z</time></trkpt>
<trkpt lat="44.3710420" lon="-73.8357930"><ele></ele><time>2024-9-14T12:54:5Z</time></trkpt>
<trkpt lat="44.3711190" lon="-73.8357680"><ele></ele><time>2024-9-14T12:54:8Z</time></trkpt>
<trkpt lat="44.3712040" lon="-73.8357470"><ele></ele><time>2024-9-14T12:54:11Z</time></trkpt>
<trkpt lat="44.3712860" lon="-73.8357340"><ele></ele><time>2024-9-14T12:54:14Z</time></trkpt>
<trkpt lat="44.3713670" lon="-73.8357230"><ele></ele><time>2024-9-14T12:54:17Z</time></trkpt>
<trkpt lat="44.3714500" lon="-73.8357110"><ele></ele><time>2024-9-14T12:54:20Z</time></trkpt>
<trkpt lat="44.3715320" lon="-73.8357070"><ele></ele><time>2024-9-14T12:54:23Z</time></trkpt>
<trkpt lat="44.3716100" lon="-73.8357060"><ele></ele><time>2024-9-14T12:54:26Z</time></trkpt>
<trkpt lat="44.3716880" lon="-73.8357020"><ele></ele><time>2024-9-14T12:54:29Z</time></trkpt>
<trkpt lat="44.3718340" lon="-73.8356960"><ele></ele><time>2024-9-14T12:54:32Z</time></trkpt>
<trkpt lat="44.3722510" lon="-73.8357010"><ele></ele><time>2024-9-14T12:54:35Z</time></trkpt>
<trkpt lat="44.3723810" lon="-73.8357030"><ele></ele><time>2024-9-14T12:54:38Z</time></trkpt>
<trkpt lat="44.3727410" lon="-73.8356940"><ele></ele><time>2024-9-14T12:54:41Z</time></trkpt>
<trkpt lat="44.3727950" lon="-73.8356880"><ele></ele><time>2024-9-14T12:54:44Z</time></trkpt>
<trkpt lat="44.3729110" lon="-73.8356820"><ele></ele><time>2024-9-14T12:54:47Z</time></trkpt>
<trkpt lat="44.3730260" lon="-73.8356760"><ele></ele><time>2024-9-14T12:54:50Z</time></trkpt>
<trkpt lat="44.3730800" lon="-73.8356710"><ele></ele><time>2024-9-14T12:54:53Z</time></trkpt>
<trkpt lat="44.3731920" lon="-73.8356580"><ele></ele><time>2024-9-14T12:54:56Z</time></trkpt>
<trkpt lat="44.3733710" lon="-73.8356360"><ele></ele><time>2024-9-14T12:54:59Z</time></trkpt>
<trkpt lat="44.3735410" lon="-73.8356210"><ele></ele><time>2024-9-14T12:55:2Z</time></trkpt>
<trkpt lat="44.3735950" lon="-73.8356110"><ele></ele><time>2024-9-14T12:55:5Z</time></trkpt>
<trkpt lat="44.3739230" lon="-73.8355400"><ele></ele><time>2024-9-14T12:55:8Z</time></trkpt>
<trkpt lat="44.3743480" lon="-73.8354330"><ele></ele><time>2024-9-14T12:55:11Z</time></trkpt>
<trkpt lat="44.3747850" lon="-73.8353090"><ele></ele><time>2024-9-14T12:55:14Z</time></trkpt>
<trkpt lat="44.3751410" lon="-73.8352100"><ele></ele><time>2024-9-14T12:55:17Z</time></trkpt>
<trkpt lat="44.3752000" lon="-73.8351940"><ele></ele><time>2024-9-14T12:55:20Z</time></trkpt>
<trkpt lat="44.3756230" lon="-73.8350290"><ele></ele><time>2024-9-14T12:55:23Z</time></trkpt>
<trkpt lat="44.3760150" lon="-73.8348010"><ele></ele><time>2024-9-14T12:55:26Z</time></trkpt>
<trkpt lat="44.3763050" lon="-73.8346300"><ele></ele><time>2024-9-14T12:55:29Z</time></trkpt>
<trkpt lat="44.3763530" lon="-73.8346010"><ele></ele><time>2024-9-14T12:55:32Z</time></trkpt>
<trkpt lat="44.3765430" lon="-73.8344990"><ele></ele><time>2024-9-14T12:55:35Z</time></trkpt>
<trkpt lat="44.3766830" lon="-73.8344290"><ele></ele><time>2024-9-14T12:55:38Z</time></trkpt>
<trkpt lat="44.3769520" lon="-73.8343090"><ele></ele><time>2024-9-14T12:55:41Z</time></trkpt>
<trkpt lat="44.3774130" lon="-73.8341010"><ele></ele><time>2024-9-14T12:55:44Z</time></trkpt>
<trkpt lat="44.3777870" lon="-73.8339230"><ele></ele><time>2024-9-14T12:55:47Z</time></trkpt>
<trkpt lat="44.3780590" lon="-73.8337960"><ele></ele><time>2024-9-14T12:55:50Z</time></trkpt>
<trkpt lat="44.3782730" lon="-73.8336880"><ele></ele><time>2024-9-14T12:55:53Z</time></trkpt>
<trkpt lat="44.3785020" lon="-73.8335650"><ele></ele><time>2024-9-14T12:55:56Z</time></trkpt>
<trkpt lat="44.3785450" lon="-73.8335470"><ele></ele><time>2024-9-14T12:55:59Z</time></trkpt>
<trkpt lat="44.3785910" lon="-73.8335220"><ele></ele><time>2024-9-14T12:56:2Z</time></trkpt>
<trkpt lat="44.3786380" lon="-73.8334960"><ele></ele><time>2024-9-14T12:56:5Z</time></trkpt>
<trkpt lat="44.3786900" lon="-73.8334670"><ele></ele><time>2024-9-14T12:56:8Z</time></trkpt>
<trkpt lat="44.3789680" lon="-73.8333000"><ele></ele><time>2024-9-14T12:56:11Z</time></trkpt>
<trkpt lat="44.3792690" lon="-73.8331110"><ele></ele><time>2024-9-14T12:56:14Z</time></trkpt>
<trkpt lat="44.3793320" lon="-73.8330700"><ele></ele><time>2024-9-14T12:56:17Z</time></trkpt>
<trkpt lat="44.3793960" lon="-73.8330270"><ele></ele><time>2024-9-14T12:56:20Z</time></trkpt>
<trkpt lat="44.3794630" lon="-73.8329870"><ele></ele><time>2024-9-14T12:56:23Z</time></trkpt>
<trkpt lat="44.3795310" lon="-73.8329430"><ele></ele><time>2024-9-14T12:56:26Z</time></trkpt>
<trkpt lat="44.3796750" lon="-73.8328460"><ele></ele><time>2024-9-14T12:56:29Z</time></trkpt>
<trkpt lat="44.3797500" lon="-73.8327990"><ele></ele><time>2024-9-14T12:56:32Z</time></trkpt>
<trkpt lat="44.3799020" lon="-73.8326890"><ele></ele><time>2024-9-14T12:56:35Z</time></trkpt>
<trkpt lat="44.3799830" lon="-73.8326310"><ele></ele><time>2024-9-14T12:56:38Z</time></trkpt>
<trkpt lat="44.3800580" lon="-73.8325680"><ele></ele><time>2024-9-14T12:56:41Z</time></trkpt>
<trkpt lat="44.3801330" lon="-73.8325060"><ele></ele><time>2024-9-14T12:56:44Z</time></trkpt>
<trkpt lat="44.3802100" lon="-73.8324400"><ele></ele><time>2024-9-14T12:56:47Z</time></trkpt>
<trkpt lat="44.3804090" lon="-73.8322560"><ele></ele><time>2024-9-14T12:56:50Z</time></trkpt>
<trkpt lat="44.3804660" lon="-73.8321890"><ele></ele><time>2024-9-14T12:56:53Z</time></trkpt>
<trkpt lat="44.3805230" lon="-73.8321410"><ele></ele><time>2024-9-14T12:56:56Z</time></trkpt>
<trkpt lat="44.3806320" lon="-73.8320320"><ele></ele><time>2024-9-14T12:56:59Z</time></trkpt>
<trkpt lat="44.3807870" lon="-73.8318910"><ele></ele><time>2024-9-14T12:57:2Z</time></trkpt>
<trkpt lat="44.3811770" lon="-73.8315170"><ele></ele><time>2024-9-14T12:57:5Z</time></trkpt>
<trkpt lat="44.3815300" lon="-73.8311660"><ele></ele><time>2024-9-14T12:57:8Z</time></trkpt>
<trkpt lat="44.3819580" lon="-73.8307320"><ele></ele><time>2024-9-14T12:57:11Z</time></trkpt>
<trkpt lat="44.3822970" lon="-73.8304060"><ele></ele><time>2024-9-14T12:57:14Z</time></trkpt>
<trkpt lat="44.3825140" lon="-73.8301740"><ele></ele><time>2024-9-14T12:57:17Z</time></trkpt>
<trkpt lat="44.3827410" lon="-73.8299480"><ele></ele><time>2024-9-14T12:57:20Z</time></trkpt>
<trkpt lat="44.3831810" lon="-73.8295070"><ele></ele><time>2024-9-14T12:57:23Z</time></trkpt>
<trkpt lat="44.3835040" lon="-73.8291880"><ele></ele><time>2024-9-14T12:57:26Z</time></trkpt>
<trkpt lat="44.3836930" lon="-73.8289910"><ele></ele><time>2024-9-14T12:57:29Z</time></trkpt>
<trkpt lat="44.3837690" lon="-73.8289080"><ele></ele><time>2024-9-14T12:57:32Z</time></trkpt>
<trkpt lat="44.3839140" lon="-73.8287550"><ele></ele><time>2024-9-14T12:57:35Z</time></trkpt>
<trkpt lat="44.3839490" lon="-73.8287180"><ele></ele><time>2024-9-14T12:57:38Z</time></trkpt>
<trkpt lat="44.3839850" lon="-73.8286770"><ele></ele><time>2024-9-14T12:57:41Z</time></trkpt>
<trkpt lat="44.3840170" lon="-73.8286370"><ele></ele><time>2024-9-14T12:57:44Z</time></trkpt>
<trkpt lat="44.3840500" lon="-73.8286030"><ele></ele><time>2024-9-14T12:57:47Z</time></trkpt>
<trkpt lat="44.3840830" lon="-73.8285660"><ele></ele><time>2024-9-14T12:57:50Z</time></trkpt>
<trkpt lat="44.3841530" lon="-73.8284950"><ele></ele><time>2024-9-14T12:57:53Z</time></trkpt>
<trkpt lat="44.3842920" lon="-73.8283500"><ele></ele><time>2024-9-14T12:57:56Z</time></trkpt>
<trkpt lat="44.3843920" lon="-73.8282360"><ele></ele><time>2024-9-14T12:57:59Z</time></trkpt>
<trkpt lat="44.3844220" lon="-73.8281980"><ele></ele><time>2024-9-14T12:58:2Z</time></trkpt>
<trkpt lat="44.3844550" lon="-73.8281590"><ele></ele><time>2024-9-14T12:58:5Z</time></trkpt>
<trkpt lat="44.3844890" lon="-73.8281220"><ele></ele><time>2024-9-14T12:58:8Z</time></trkpt>
<trkpt lat="44.3845270" lon="-73.8280820"><ele></ele><time>2024-9-14T12:58:11Z</time></trkpt>
<trkpt lat="44.3845650" lon="-73.8280430"><ele></ele><time>2024-9-14T12:58:14Z</time></trkpt>
<trkpt lat="44.3847140" lon="-73.8278800"><ele></ele><time>2024-9-14T12:58:17Z</time></trkpt>
<trkpt lat="44.3848350" lon="-73.8277500"><ele></ele><time>2024-9-14T12:58:20Z</time></trkpt>
<trkpt lat="44.3851540" lon="-73.8274100"><ele></ele><time>2024-9-14T12:58:23Z</time></trkpt>
<trkpt lat="44.3853080" lon="-73.8272410"><ele></ele><time>2024-9-14T12:58:26Z</time></trkpt>
<trkpt lat="44.3854800" lon="-73.8270590"><ele></ele><time>2024-9-14T12:58:29Z</time></trkpt>
<trkpt lat="44.3855400" lon="-73.8269960"><ele></ele><time>2024-9-14T12:58:32Z</time></trkpt>
<trkpt lat="44.3856000" lon="-73.8269300"><ele></ele><time>2024-9-14T12:58:35Z</time></trkpt>
<trkpt lat="44.3856630" lon="-73.8268590"><ele></ele><time>2024-9-14T12:58:38Z</time></trkpt>
<trkpt lat="44.3857260" lon="-73.8267930"><ele></ele><time>2024-9-14T12:58:41Z</time></trkpt>
<trkpt lat="44.3857910" lon="-73.8267220"><ele></ele><time>2024-9-14T12:58:44Z</time></trkpt>
<trkpt lat="44.3858550" lon="-73.8266480"><ele></ele><time>2024-9-14T12:58:47Z</time></trkpt>
<trkpt lat="44.3859220" lon="-73.8265800"><ele></ele><time>2024-9-14T12:58:50Z</time></trkpt>
<trkpt lat="44.3860510" lon="-73.8264340"><ele></ele><time>2024-9-14T12:58:53Z</time></trkpt>
<trkpt lat="44.3861110" lon="-73.8263660"><ele></ele><time>2024-9-14T12:58:56Z</time></trkpt>
<trkpt lat="44.3861670" lon="-73.8263010"><ele></ele><time>2024-9-14T12:58:59Z</time></trkpt>
<trkpt lat="44.3862230" lon="-73.8262380"><ele></ele><time>2024-9-14T12:59:2Z</time></trkpt>
<trkpt lat="44.3862770" lon="-73.8261760"><ele></ele><time>2024-9-14T12:59:5Z</time></trkpt>
<trkpt lat="44.3863280" lon="-73.8261110"><ele></ele><time>2024-9-14T12:59:8Z</time></trkpt>
<trkpt lat="44.3866720" lon="-73.8257190"><ele></ele><time>2024-9-14T12:59:11Z</time></trkpt>
<trkpt lat="44.3869410" lon="-73.8254110"><ele></ele><time>2024-9-14T12:59:14Z</time></trkpt>
<trkpt lat="44.3871150" lon="-73.8252100"><ele></ele><time>2024-9-14T12:59:17Z</time></trkpt>
<trkpt lat="44.3873940" lon="-73.8248940"><ele></ele><time>2024-9-14T12:59:20Z</time></trkpt>
<trkpt lat="44.3877050" lon="-73.8245570"><ele></ele><time>2024-9-14T12:59:23Z</time></trkpt>
<trkpt lat="44.3879860" lon="-73.8242420"><ele></ele><time>2024-9-14T12:59:26Z</time></trkpt>
<trkpt lat="44.3880440" lon="-73.8241800"><ele></ele><time>2024-9-14T12:59:29Z</time></trkpt>
<trkpt lat="44.3881040" lon="-73.8241200"><ele></ele><time>2024-9-14T12:59:32Z</time></trkpt>
<trkpt lat="44.3882230" lon="-73.8239840"><ele></ele><time>2024-9-14T12:59:35Z</time></trkpt>
<trkpt lat="44.3882830" lon="-73.8239180"><ele></ele><time>2024-9-14T12:59:38Z</time></trkpt>
<trkpt lat="44.3883450" lon="-73.8238530"><ele></ele><time>2024-9-14T12:59:41Z</time></trkpt>
<trkpt lat="44.3884080" lon="-73.8237930"><ele></ele><time>2024-9-14T12:59:44Z</time></trkpt>
<trkpt lat="44.3884670" lon="-73.8237310"><ele></ele><time>2024-9-14T12:59:47Z</time></trkpt>
<trkpt lat="44.3885240" lon="-73.8236690"><ele></ele><time>2024-9-14T12:59:50Z</time></trkpt>
<trkpt lat="44.3889000" lon="-73.8232570"><ele></ele><time>2024-9-14T12:59:53Z</time></trkpt>
<trkpt lat="44.3889820" lon="-73.8231600"><ele></ele><time>2024-9-14T12:59:56Z</time></trkpt>
<trkpt lat="44.3890600" lon="-73.8230780"><ele></ele><time>2024-9-14T12:59:59Z</time></trkpt>
<trkpt lat="44.3891270" lon="-73.8229970"><ele></ele><time>2024-9-14T13:0:2Z</time></trkpt>
<trkpt lat="44.3892540" lon="-73.8228470"><ele></ele><time>2024-9-14T13:0:5Z</time></trkpt>
<trkpt lat="44.3892860" lon="-73.8228070"><ele></ele><time>2024-9-14T13:0:8Z</time></trkpt>
<trkpt lat="44.3893190" lon="-73.8227740"><ele></ele><time>2024-9-14T13:0:11Z</time></trkpt>
<trkpt lat="44.3893470" lon="-73.8227440"><ele></ele><time>2024-9-14T13:0:14Z</time></trkpt>
<trkpt lat="44.3893750" lon="-73.8227110"><ele></ele><time>2024-9-14T13:0:17Z</time></trkpt>
<trkpt lat="44.3894720" lon="-73.8225680"><ele></ele><time>2024-9-14T13:0:20Z</time></trkpt>
<trkpt lat="44.3896240" lon="-73.8223970"><ele></ele><time>2024-9-14T13:0:23Z</time></trkpt>
<trkpt lat="44.3896440" lon="-73.8223710"><ele></ele><time>2024-9-14T13:0:26Z</time></trkpt>
<trkpt lat="44.3896670" lon="-73.8223480"><ele></ele><time>2024-9-14T13:0:29Z</time></trkpt>
<trkpt lat="44.3896850" lon="-73.8223270"><ele></ele><time>2024-9-14T13:0:32Z</time></trkpt>
<trkpt lat="44.3896970" lon="-73.8222980"><ele></ele><time>2024-9-14T13:0:35Z</time></trkpt>
<trkpt lat="44.3896960" lon="-73.8222770"><ele></ele><time>2024-9-14T13:0:38Z</time></trkpt>
<trkpt lat="44.3896970" lon="-73.8222690"><ele></ele><time>2024-9-14T13:0:41Z</time></trkpt>
<trkpt lat="44.3896960" lon="-73.8222720"><ele></ele><time>2024-9-14T13:0:44Z</time></trkpt>
<trkpt lat="44.3896970" lon="-73.8222650"><ele></ele><time>2024-9-14T13:0:47Z</time></trkpt>
<trkpt lat="44.3896980" lon="-73.8222400"><ele></ele><time>2024-9-14T13:0:50Z</time></trkpt>
<trkpt lat="44.3896950" lon="-73.8222420"><ele></ele><time>2024-9-14T13:0:53Z</time></trkpt>
<trkpt lat="44.3896940" lon="-73.8222550"><ele></ele><time>2024-9-14T13:0:56Z</time></trkpt>
<trkpt lat="44.3897020" lon="-73.8222580"><ele></ele><time>2024-9-14T13:0:59Z</time></trkpt>
<trkpt lat="44.3897110" lon="-73.8222630"><ele></ele><time>2024-9-14T13:1:2Z</time></trkpt>
<trkpt lat="44.3897140" lon="-73.8222620"><ele></ele><time>2024-9-14T13:1:5Z</time></trkpt>
<trkpt lat="44.3897150" lon="-73.8222620"><ele></ele><time>2024-9-14T13:1:8Z</time></trkpt>
<trkpt lat="44.3897250" lon="-73.8222770"><ele></ele><time>2024-9-14T13:1:11Z</time></trkpt>
<trkpt lat="44.3897800" lon="-73.8223720"><ele></ele><time>2024-9-14T13:1:14Z</time></trkpt>
<trkpt lat="44.3897910" lon="-73.8224050"><ele></ele><time>2024-9-14T13:1:17Z</time></trkpt>
<trkpt lat="44.3898200" lon="-73.8224550"><ele></ele><time>2024-9-14T13:1:20Z</time></trkpt>
<trkpt lat="44.3898570" lon="-73.8224910"><ele></ele><time>2024-9-14T13:1:23Z</time></trkpt>
<trkpt lat="44.3899510" lon="-73.8225960"><ele></ele><time>2024-9-14T13:1:26Z</time></trkpt>
<trkpt lat="44.3899790" lon="-73.8226900"><ele></ele><time>2024-9-14T13:1:29Z</time></trkpt>
<trkpt lat="44.3900080" lon="-73.8227900"><ele></ele><time>2024-9-14T13:1:32Z</time></trkpt>
<trkpt lat="44.3900360" lon="-73.8228970"><ele></ele><time>2024-9-14T13:1:35Z</time></trkpt>
<trkpt lat="44.3900740" lon="-73.8230490"><ele></ele><time>2024-9-14T13:1:38Z</time></trkpt>
<trkpt lat="44.3901300" lon="-73.8232490"><ele></ele><time>2024-9-14T13:1:41Z</time></trkpt>
<trkpt lat="44.3901430" lon="-73.8232970"><ele></ele><time>2024-9-14T13:1:44Z</time></trkpt>
<trkpt lat="44.3901540" lon="-73.8233450"><ele></ele><time>2024-9-14T13:1:47Z</time></trkpt>
<trkpt lat="44.3901640" lon="-73.8233920"><ele></ele><time>2024-9-14T13:1:50Z</time></trkpt>
<trkpt lat="44.3901760" lon="-73.8234390"><ele></ele><time>2024-9-14T13:1:53Z</time></trkpt>
<trkpt lat="44.3902450" lon="-73.8237200"><ele></ele><time>2024-9-14T13:1:56Z</time></trkpt>
<trkpt lat="44.3902540" lon="-73.8237680"><ele></ele><time>2024-9-14T13:1:59Z</time></trkpt>
<trkpt lat="44.3902640" lon="-73.8238170"><ele></ele><time>2024-9-14T13:2:2Z</time></trkpt>
<trkpt lat="44.3902750" lon="-73.8238660"><ele></ele><time>2024-9-14T13:2:5Z</time></trkpt>
<trkpt lat="44.3902860" lon="-73.8239150"><ele></ele><time>2024-9-14T13:2:8Z</time></trkpt>
<trkpt lat="44.3902970" lon="-73.8239600"><ele></ele><time>2024-9-14T13:2:11Z</time></trkpt>
<trkpt lat="44.3903400" lon="-73.8241380"><ele></ele><time>2024-9-14T13:2:14Z</time></trkpt>
<trkpt lat="44.3903770" lon="-73.8242770"><ele></ele><time>2024-9-14T13:2:17Z</time></trkpt>
<trkpt lat="44.3903890" lon="-73.8243190"><ele></ele><time>2024-9-14T13:2:20Z</time></trkpt>
<trkpt lat="44.3903990" lon="-73.8243630"><ele></ele><time>2024-9-14T13:2:23Z</time></trkpt>
<trkpt lat="44.3904100" lon="-73.8244060"><ele></ele><time>2024-9-14T13:2:26Z</time></trkpt>
<trkpt lat="44.3904200" lon="-73.8244490"><ele></ele><time>2024-9-14T13:2:29Z</time></trkpt>
<trkpt lat="44.3904310" lon="-73.8244910"><ele></ele><time>2024-9-14T13:2:32Z</time></trkpt>
<trkpt lat="44.3904660" lon="-73.8246540"><ele></ele><time>2024-9-14T13:2:35Z</time></trkpt>
<trkpt lat="44.3904770" lon="-73.8246950"><ele></ele><time>2024-9-14T13:2:38Z</time></trkpt>
<trkpt lat="44.3904870" lon="-73.8247360"><ele></ele><time>2024-9-14T13:2:41Z</time></trkpt>
<trkpt lat="44.3904970" lon="-73.8247790"><ele></ele><time>2024-9-14T13:2:44Z</time></trkpt>
<trkpt lat="44.3905060" lon="-73.8248200"><ele></ele><time>2024-9-14T13:2:47Z</time></trkpt>
<trkpt lat="44.3905350" lon="-73.8249420"><ele></ele><time>2024-9-14T13:2:50Z</time></trkpt>
<trkpt lat="44.3905450" lon="-73.8249810"><ele></ele><time>2024-9-14T13:2:53Z</time></trkpt>
<trkpt lat="44.3905550" lon="-73.8250220"><ele></ele><time>2024-9-14T13:2:56Z</time></trkpt>
<trkpt lat="44.3905650" lon="-73.8250640"><ele></ele><time>2024-9-14T13:2:59Z</time></trkpt>
<trkpt lat="44.3905740" lon="-73.8251040"><ele></ele><time>2024-9-14T13:3:2Z</time></trkpt>
<trkpt lat="44.3905840" lon="-73.8251450"><ele></ele><time>2024-9-14T13:3:5Z</time></trkpt>
<trkpt lat="44.3906150" lon="-73.8252580"><ele></ele><time>2024-9-14T13:3:8Z</time></trkpt>
<trkpt lat="44.3906250" lon="-73.8252970"><ele></ele><time>2024-9-14T13:3:11Z</time></trkpt>
<trkpt lat="44.3906340" lon="-73.8253340"><ele></ele><time>2024-9-14T13:3:14Z</time></trkpt>
<trkpt lat="44.3906430" lon="-73.8253730"><ele></ele><time>2024-9-14T13:3:17Z</time></trkpt>
<trkpt lat="44.3906540" lon="-73.8254120"><ele></ele><time>2024-9-14T13:3:20Z</time></trkpt>
<trkpt lat="44.3906950" lon="-73.8255670"><ele></ele><time>2024-9-14T13:3:23Z</time></trkpt>
<trkpt lat="44.3907060" lon="-73.8256050"><ele></ele><time>2024-9-14T13:3:26Z</time></trkpt>
<trkpt lat="44.3907180" lon="-73.8256430"><ele></ele><time>2024-9-14T13:3:29Z</time></trkpt>
<trkpt lat="44.3907290" lon="-73.8256820"><ele></ele><time>2024-9-14T13:3:32Z</time></trkpt>
<trkpt lat="44.3907730" lon="-73.8258410"><ele></ele><time>2024-9-14T13:3:35Z</time></trkpt>
<trkpt lat="44.3907840" lon="-73.8258820"><ele></ele><time>2024-9-14T13:3:38Z</time></trkpt>
<trkpt lat="44.3907940" lon="-73.8259220"><ele></ele><time>2024-9-14T13:3:41Z</time></trkpt>
<trkpt lat="44.3908050" lon="-73.8259610"><ele></ele><time>2024-9-14T13:3:44Z</time></trkpt>
<trkpt lat="44.3908160" lon="-73.8259990"><ele></ele><time>2024-9-14T13:3:47Z</time></trkpt>
<trkpt lat="44.3908670" lon="-73.8261580"><ele></ele><time>2024-9-14T13:3:50Z</time></trkpt>
<trkpt lat="44.3908820" lon="-73.8261960"><ele></ele><time>2024-9-14T13:3:53Z</time></trkpt>
<trkpt lat="44.3908950" lon="-73.8262340"><ele></ele><time>2024-9-14T13:3:56Z</time></trkpt>
<trkpt lat="44.3909080" lon="-73.8262720"><ele></ele><time>2024-9-14T13:3:59Z</time></trkpt>
<trkpt lat="44.3909220" lon="-73.8263110"><ele></ele><time>2024-9-14T13:4:2Z</time></trkpt>
<trkpt lat="44.3909840" lon="-73.8265040"><ele></ele><time>2024-9-14T13:4:5Z</time></trkpt>
<trkpt lat="44.3909980" lon="-73.8265410"><ele></ele><time>2024-9-14T13:4:8Z</time></trkpt>
<trkpt lat="44.3910120" lon="-73.8265780"><ele></ele><time>2024-9-14T13:4:11Z</time></trkpt>
<trkpt lat="44.3910280" lon="-73.8266170"><ele></ele><time>2024-9-14T13:4:14Z</time></trkpt>
<trkpt lat="44.3911030" lon="-73.8267990"><ele></ele><time>2024-9-14T13:4:17Z</time></trkpt>
<trkpt lat="44.3911170" lon="-73.8268370"><ele></ele><time>2024-9-14T13:4:20Z</time></trkpt>
<trkpt lat="44.3911320" lon="-73.8268760"><ele></ele><time>2024-9-14T13:4:23Z</time></trkpt>
<trkpt lat="44.3911480" lon="-73.8269140"><ele></ele><time>2024-9-14T13:4:26Z</time></trkpt>
<trkpt lat="44.3911640" lon="-73.8269520"><ele></ele><time>2024-9-14T13:4:29Z</time></trkpt>
<trkpt lat="44.3912800" lon="-73.8272100"><ele></ele><time>2024-9-14T13:4:32Z</time></trkpt>
<trkpt lat="44.3912950" lon="-73.8272470"><ele></ele><time>2024-9-14T13:4:35Z</time></trkpt>
<trkpt lat="44.3913110" lon="-73.8272870"><ele></ele><time>2024-9-14T13:4:38Z</time></trkpt>
<trkpt lat="44.3913280" lon="-73.8273250"><ele></ele><time>2024-9-14T13:4:41Z</time></trkpt>
<trkpt lat="44.3913450" lon="-73.8273630"><ele></ele><time>2024-9-14T13:4:44Z</time></trkpt>
<trkpt lat="44.3914540" lon="-73.8276080"><ele></ele><time>2024-9-14T13:4:47Z</time></trkpt>
<trkpt lat="44.3914740" lon="-73.8276460"><ele></ele><time>2024-9-14T13:4:50Z</time></trkpt>
<trkpt lat="44.3914940" lon="-73.8276860"><ele></ele><time>2024-9-14T13:4:53Z</time></trkpt>
<trkpt lat="44.3915150" lon="-73.8277330"><ele></ele><time>2024-9-14T13:4:56Z</time></trkpt>
<trkpt lat="44.3915350" lon="-73.8277760"><ele></ele><time>2024-9-14T13:4:59Z</time></trkpt>
<trkpt lat="44.3916140" lon="-73.8279430"><ele></ele><time>2024-9-14T13:5:2Z</time></trkpt>
<trkpt lat="44.3917490" lon="-73.8282310"><ele></ele><time>2024-9-14T13:5:5Z</time></trkpt>
<trkpt lat="44.3917680" lon="-73.8282710"><ele></ele><time>2024-9-14T13:5:8Z</time></trkpt>
<trkpt lat="44.3917890" lon="-73.8283090"><ele></ele><time>2024-9-14T13:5:11Z</time></trkpt>
<trkpt lat="44.3918100" lon="-73.8283520"><ele></ele><time>2024-9-14T13:5:14Z</time></trkpt>
<trkpt lat="44.3918290" lon="-73.8283950"><ele></ele><time>2024-9-14T13:5:17Z</time></trkpt>
<trkpt lat="44.3919640" lon="-73.8286880"><ele></ele><time>2024-9-14T13:5:20Z</time></trkpt>
<trkpt lat="44.3919820" lon="-73.8287240"><ele></ele><time>2024-9-14T13:5:23Z</time></trkpt>
<trkpt lat="44.3920010" lon="-73.8287630"><ele></ele><time>2024-9-14T13:5:26Z</time></trkpt>
<trkpt lat="44.3920200" lon="-73.8288040"><ele></ele><time>2024-9-14T13:5:29Z</time></trkpt>
<trkpt lat="44.3920400" lon="-73.8288450"><ele></ele><time>2024-9-14T13:5:32Z</time></trkpt>
<trkpt lat="44.3921540" lon="-73.8291000"><ele></ele><time>2024-9-14T13:5:35Z</time></trkpt>
<trkpt lat="44.3922330" lon="-73.8292810"><ele></ele><time>2024-9-14T13:5:38Z</time></trkpt>
<trkpt lat="44.3922530" lon="-73.8293230"><ele></ele><time>2024-9-14T13:5:41Z</time></trkpt>
<trkpt lat="44.3922730" lon="-73.8293650"><ele></ele><time>2024-9-14T13:5:44Z</time></trkpt>
<trkpt lat="44.3922920" lon="-73.8294060"><ele></ele><time>2024-9-14T13:5:47Z</time></trkpt>
<trkpt lat="44.3923130" lon="-73.8294470"><ele></ele><time>2024-9-14T13:5:50Z</time></trkpt>
<trkpt lat="44.3923770" lon="-73.8295720"><ele></ele><time>2024-9-14T13:5:53Z</time></trkpt>
<trkpt lat="44.3924530" lon="-73.8297410"><ele></ele><time>2024-9-14T13:5:56Z</time></trkpt>
<trkpt lat="44.3924730" lon="-73.8297830"><ele></ele><time>2024-9-14T13:5:59Z</time></trkpt>
<trkpt lat="44.3924930" lon="-73.8298280"><ele></ele><time>2024-9-14T13:6:2Z</time></trkpt>
<trkpt lat="44.3925130" lon="-73.8298710"><ele></ele><time>2024-9-14T13:6:5Z</time></trkpt>
<trkpt lat="44.3925310" lon="-73.8299150"><ele></ele><time>2024-9-14T13:6:8Z</time></trkpt>
<trkpt lat="44.3925510" lon="-73.8299520"><ele></ele><time>2024-9-14T13:6:11Z</time></trkpt>
<trkpt lat="44.3927320" lon="-73.8303310"><ele></ele><time>2024-9-14T13:6:14Z</time></trkpt>
<trkpt lat="44.3927520" lon="-73.8303740"><ele></ele><time>2024-9-14T13:6:17Z</time></trkpt>
<trkpt lat="44.3927720" lon="-73.8304160"><ele></ele><time>2024-9-14T13:6:20Z</time></trkpt>
<trkpt lat="44.3927910" lon="-73.8304570"><ele></ele><time>2024-9-14T13:6:23Z</time></trkpt>
<trkpt lat="44.3928130" lon="-73.8304980"><ele></ele><time>2024-9-14T13:6:26Z</time></trkpt>
<trkpt lat="44.3928950" lon="-73.8306540"><ele></ele><time>2024-9-14T13:6:29Z</time></trkpt>
<trkpt lat="44.3929130" lon="-73.8306930"><ele></ele><time>2024-9-14T13:6:32Z</time></trkpt>
<trkpt lat="44.3929320" lon="-73.8307340"><ele></ele><time>2024-9-14T13:6:35Z</time></trkpt>
<trkpt lat="44.3929490" lon="-73.8307750"><ele></ele><time>2024-9-14T13:6:38Z</time></trkpt>
<trkpt lat="44.3929680" lon="-73.8308140"><ele></ele><time>2024-9-14T13:6:41Z</time></trkpt>
<trkpt lat="44.3929870" lon="-73.8308480"><ele></ele><time>2024-9-14T13:6:44Z</time></trkpt>
<trkpt lat="44.3930250" lon="-73.8309210"><ele></ele><time>2024-9-14T13:6:47Z</time></trkpt>
<trkpt lat="44.3931040" lon="-73.8310630"><ele></ele><time>2024-9-14T13:6:50Z</time></trkpt>
<trkpt lat="44.3931260" lon="-73.8310970"><ele></ele><time>2024-9-14T13:6:53Z</time></trkpt>
<trkpt lat="44.3931460" lon="-73.8311320"><ele></ele><time>2024-9-14T13:6:56Z</time></trkpt>
<trkpt lat="44.3931680" lon="-73.8311650"><ele></ele><time>2024-9-14T13:6:59Z</time></trkpt>
<trkpt lat="44.3931890" lon="-73.8311950"><ele></ele><time>2024-9-14T13:7:2Z</time></trkpt>
<trkpt lat="44.3933140" lon="-73.8314060"><ele></ele><time>2024-9-14T13:7:5Z</time></trkpt>
<trkpt lat="44.3933360" lon="-73.8314400"><ele></ele><time>2024-9-14T13:7:8Z</time></trkpt>
<trkpt lat="44.3933570" lon="-73.8314760"><ele></ele><time>2024-9-14T13:7:11Z</time></trkpt>
<trkpt lat="44.3933790" lon="-73.8315110"><ele></ele><time>2024-9-14T13:7:14Z</time></trkpt>
<trkpt lat="44.3934020" lon="-73.8315410"><ele></ele><time>2024-9-14T13:7:17Z</time></trkpt>
<trkpt lat="44.3934480" lon="-73.8316080"><ele></ele><time>2024-9-14T13:7:20Z</time></trkpt>
<trkpt lat="44.3935170" lon="-73.8316990"><ele></ele><time>2024-9-14T13:7:23Z</time></trkpt>
<trkpt lat="44.3935400" lon="-73.8317290"><ele></ele><time>2024-9-14T13:7:26Z</time></trkpt>
<trkpt lat="44.3935630" lon="-73.8317590"><ele></ele><time>2024-9-14T13:7:29Z</time></trkpt>
<trkpt lat="44.3935860" lon="-73.8317900"><ele></ele><time>2024-9-14T13:7:32Z</time></trkpt>
<trkpt lat="44.3936100" lon="-73.8318220"><ele></ele><time>2024-9-14T13:7:35Z</time></trkpt>
<trkpt lat="44.3936310" lon="-73.8318550"><ele></ele><time>2024-9-14T13:7:38Z</time></trkpt>
<trkpt lat="44.3937010" lon="-73.8319490"><ele></ele><time>2024-9-14T13:7:41Z</time></trkpt>
<trkpt lat="44.3937250" lon="-73.8319820"><ele></ele><time>2024-9-14T13:7:44Z</time></trkpt>
<trkpt lat="44.3937480" lon="-73.8320150"><ele></ele><time>2024-9-14T13:7:47Z</time></trkpt>
<trkpt lat="44.3937720" lon="-73.8320470"><ele></ele><time>2024-9-14T13:7:50Z</time></trkpt>
<trkpt lat="44.3937970" lon="-73.8320760"><ele></ele><time>2024-9-14T13:7:53Z</time></trkpt>
<trkpt lat="44.3938210" lon="-73.8321050"><ele></ele><time>2024-9-14T13:7:56Z</time></trkpt>
<trkpt lat="44.3938680" lon="-73.8321710"><ele></ele><time>2024-9-14T13:7:59Z</time></trkpt>
<trkpt lat="44.3938920" lon="-73.8322020"><ele></ele><time>2024-9-14T13:8:2Z</time></trkpt>
<trkpt lat="44.3939170" lon="-73.8322330"><ele></ele><time>2024-9-14T13:8:5Z</time></trkpt>
<trkpt lat="44.3939400" lon="-73.8322610"><ele></ele><time>2024-9-14T13:8:8Z</time></trkpt>
<trkpt lat="44.3939640" lon="-73.8322900"><ele></ele><time>2024-9-14T13:8:11Z</time></trkpt>
<trkpt lat="44.3940780" lon="-73.8324380"><ele></ele><time>2024-9-14T13:8:14Z</time></trkpt>
<trkpt lat="44.3941020" lon="-73.8324670"><ele></ele><time>2024-9-14T13:8:17Z</time></trkpt>
<trkpt lat="44.3941260" lon="-73.8325000"><ele></ele><time>2024-9-14T13:8:20Z</time></trkpt>
<trkpt lat="44.3941520" lon="-73.8325260"><ele></ele><time>2024-9-14T13:8:23Z</time></trkpt>
<trkpt lat="44.3941800" lon="-73.8325570"><ele></ele><time>2024-9-14T13:8:26Z</time></trkpt>
<trkpt lat="44.3943200" lon="-73.8327390"><ele></ele><time>2024-9-14T13:8:29Z</time></trkpt>
<trkpt lat="44.3943410" lon="-73.8327630"><ele></ele><time>2024-9-14T13:8:32Z</time></trkpt>
<trkpt lat="44.3943620" lon="-73.8327880"><ele></ele><time>2024-9-14T13:8:35Z</time></trkpt>
<trkpt lat="44.3943830" lon="-73.8328160"><ele></ele><time>2024-9-14T13:8:38Z</time></trkpt>
<trkpt lat="44.3944070" lon="-73.8328450"><ele></ele><time>2024-9-14T13:8:41Z</time></trkpt>
<trkpt lat="44.3944790" lon="-73.8329320"><ele></ele><time>2024-9-14T13:8:44Z</time></trkpt>
<trkpt lat="44.3945240" lon="-73.8329840"><ele></ele><time>2024-9-14T13:8:47Z</time></trkpt>
<trkpt lat="44.3945460" lon="-73.8330120"><ele></ele><time>2024-9-14T13:8:50Z</time></trkpt>
<trkpt lat="44.3945690" lon="-73.8330390"><ele></ele><time>2024-9-14T13:8:53Z</time></trkpt>
<trkpt lat="44.3945920" lon="-73.8330650"><ele></ele><time>2024-9-14T13:8:56Z</time></trkpt>
<trkpt lat="44.3946150" lon="-73.8330950"><ele></ele><time>2024-9-14T13:8:59Z</time></trkpt>
<trkpt lat="44.3946840" lon="-73.8331790"><ele></ele><time>2024-9-14T13:9:2Z</time></trkpt>
<trkpt lat="44.3947060" lon="-73.8332090"><ele></ele><time>2024-9-14T13:9:5Z</time></trkpt>
<trkpt lat="44.3947300" lon="-73.8332400"><ele></ele><time>2024-9-14T13:9:8Z</time></trkpt>
<trkpt lat="44.3947550" lon="-73.8332700"><ele></ele><time>2024-9-14T13:9:11Z</time></trkpt>
<trkpt lat="44.3947790" lon="-73.8332960"><ele></ele><time>2024-9-14T13:9:14Z</time></trkpt>
<trkpt lat="44.3948030" lon="-73.8333210"><ele></ele><time>2024-9-14T13:9:17Z</time></trkpt>
<trkpt lat="44.3948940" lon="-73.8334170"><ele></ele><time>2024-9-14T13:9:20Z</time></trkpt>
<trkpt lat="44.3949170" lon="-73.8334460"><ele></ele><time>2024-9-14T13:9:23Z</time></trkpt>
<trkpt lat="44.3949410" lon="-73.8334730"><ele></ele><time>2024-9-14T13:9:26Z</time></trkpt>
<trkpt lat="44.3949660" lon="-73.8335010"><ele></ele><time>2024-9-14T13:9:29Z</time></trkpt>
<trkpt lat="44.3949890" lon="-73.8335280"><ele></ele><time>2024-9-14T13:9:32Z</time></trkpt>
<trkpt lat="44.3951180" lon="-73.8336820"><ele></ele><time>2024-9-14T13:9:35Z</time></trkpt>
<trkpt lat="44.3951410" lon="-73.8337070"><ele></ele><time>2024-9-14T13:9:38Z</time></trkpt>
<trkpt lat="44.3951640" lon="-73.8337320"><ele></ele><time>2024-9-14T13:9:41Z</time></trkpt>
<trkpt lat="44.3951870" lon="-73.8337580"><ele></ele><time>2024-9-14T13:9:44Z</time></trkpt>
<trkpt lat="44.3952100" lon="-73.8337850"><ele></ele><time>2024-9-14T13:9:47Z</time></trkpt>
<trkpt lat="44.3953030" lon="-73.8338860"><ele></ele><time>2024-9-14T13:9:50Z</time></trkpt>
<trkpt lat="44.3953250" lon="-73.8339110"><ele></ele><time>2024-9-14T13:9:53Z</time></trkpt>
<trkpt lat="44.3953470" lon="-73.8339380"><ele></ele><time>2024-9-14T13:9:56Z</time></trkpt>
<trkpt lat="44.3953670" lon="-73.8339640"><ele></ele><time>2024-9-14T13:9:59Z</time></trkpt>
<trkpt lat="44.3953880" lon="-73.8339890"><ele></ele><time>2024-9-14T13:10:2Z</time></trkpt>
<trkpt lat="44.3954810" lon="-73.8340970"><ele></ele><time>2024-9-14T13:10:5Z</time></trkpt>
<trkpt lat="44.3955030" lon="-73.8341260"><ele></ele><time>2024-9-14T13:10:8Z</time></trkpt>
<trkpt lat="44.3955250" lon="-73.8341520"><ele></ele><time>2024-9-14T13:10:11Z</time></trkpt>
<trkpt lat="44.3955480" lon="-73.8341790"><ele></ele><time>2024-9-14T13:10:14Z</time></trkpt>
<trkpt lat="44.3955690" lon="-73.8342050"><ele></ele><time>2024-9-14T13:10:17Z</time></trkpt>
<trkpt lat="44.3956800" lon="-73.8343280"><ele></ele><time>2024-9-14T13:10:20Z</time></trkpt>
<trkpt lat="44.3957040" lon="-73.8343540"><ele></ele><time>2024-9-14T13:10:23Z</time></trkpt>
<trkpt lat="44.3957240" lon="-73.8343790"><ele></ele><time>2024-9-14T13:10:26Z</time></trkpt>
<trkpt lat="44.3957440" lon="-73.8344070"><ele></ele><time>2024-9-14T13:10:29Z</time></trkpt>
<trkpt lat="44.3957640" lon="-73.8344370"><ele></ele><time>2024-9-14T13:10:32Z</time></trkpt>
<trkpt lat="44.3958490" lon="-73.8345370"><ele></ele><time>2024-9-14T13:10:35Z</time></trkpt>
<trkpt lat="44.3958670" lon="-73.8345640"><ele></ele><time>2024-9-14T13:10:38Z</time></trkpt>
<trkpt lat="44.3958860" lon="-73.8345860"><ele></ele><time>2024-9-14T13:10:41Z</time></trkpt>
<trkpt lat="44.3959050" lon="-73.8346100"><ele></ele><time>2024-9-14T13:10:44Z</time></trkpt>
<trkpt lat="44.3959250" lon="-73.8346320"><ele></ele><time>2024-9-14T13:10:47Z</time></trkpt>
<trkpt lat="44.3959460" lon="-73.8346560"><ele></ele><time>2024-9-14T13:10:50Z</time></trkpt>
<trkpt lat="44.3959870" lon="-73.8346980"><ele></ele><time>2024-9-14T13:10:53Z</time></trkpt>
<trkpt lat="44.3960270" lon="-73.8347430"><ele></ele><time>2024-9-14T13:10:56Z</time></trkpt>
<trkpt lat="44.3960450" lon="-73.8347580"><ele></ele><time>2024-9-14T13:10:59Z</time></trkpt>
<trkpt lat="44.3960640" lon="-73.8347790"><ele></ele><time>2024-9-14T13:11:2Z</time></trkpt>
<trkpt lat="44.3960830" lon="-73.8348000"><ele></ele><time>2024-9-14T13:11:5Z</time></trkpt>
<trkpt lat="44.3961020" lon="-73.8348250"><ele></ele><time>2024-9-14T13:11:8Z</time></trkpt>
<trkpt lat="44.3961770" lon="-73.8349080"><ele></ele><time>2024-9-14T13:11:11Z</time></trkpt>
<trkpt lat="44.3961990" lon="-73.8349290"><ele></ele><time>2024-9-14T13:11:14Z</time></trkpt>
<trkpt lat="44.3962180" lon="-73.8349490"><ele></ele><time>2024-9-14T13:11:17Z</time></trkpt>
<trkpt lat="44.3962380" lon="-73.8349700"><ele></ele><time>2024-9-14T13:11:20Z</time></trkpt>
<trkpt lat="44.3962570" lon="-73.8349910"><ele></ele><time>2024-9-14T13:11:23Z</time></trkpt>
<trkpt lat="44.3963680" lon="-73.8351210"><ele></ele><time>2024-9-14T13:11:26Z</time></trkpt>
<trkpt lat="44.3963870" lon="-73.8351450"><ele></ele><time>2024-9-14T13:11:29Z</time></trkpt>
<trkpt lat="44.3964050" lon="-73.8351680"><ele></ele><time>2024-9-14T13:11:32Z</time></trkpt>
<trkpt lat="44.3964240" lon="-73.8351890"><ele></ele><time>2024-9-14T13:11:35Z</time></trkpt>
<trkpt lat="44.3964440" lon="-73.8352110"><ele></ele><time>2024-9-14T13:11:38Z</time></trkpt>
<trkpt lat="44.3965330" lon="-73.8353310"><ele></ele><time>2024-9-14T13:11:41Z</time></trkpt>
<trkpt lat="44.3965520" lon="-73.8353550"><ele></ele><time>2024-9-14T13:11:44Z</time></trkpt>
<trkpt lat="44.3965720" lon="-73.8353830"><ele></ele><time>2024-9-14T13:11:47Z</time></trkpt>
<trkpt lat="44.3965910" lon="-73.8354060"><ele></ele><time>2024-9-14T13:11:50Z</time></trkpt>
<trkpt lat="44.3966460" lon="-73.8354750"><ele></ele><time>2024-9-14T13:11:53Z</time></trkpt>
<trkpt lat="44.3966640" lon="-73.8354990"><ele></ele><time>2024-9-14T13:11:56Z</time></trkpt>
<trkpt lat="44.3966840" lon="-73.8355190"><ele></ele><time>2024-9-14T13:11:59Z</time></trkpt>
<trkpt lat="44.3967010" lon="-73.8355420"><ele></ele><time>2024-9-14T13:12:2Z</time></trkpt>
<trkpt lat="44.3967170" lon="-73.8355650"><ele></ele><time>2024-9-14T13:12:5Z</time></trkpt>
<trkpt lat="44.3967350" lon="-73.8355850"><ele></ele><time>2024-9-14T13:12:8Z</time></trkpt>
<trkpt lat="44.3967920" lon="-73.8356550"><ele></ele><time>2024-9-14T13:12:11Z</time></trkpt>
<trkpt lat="44.3968110" lon="-73.8356780"><ele></ele><time>2024-9-14T13:12:14Z</time></trkpt>
<trkpt lat="44.3968300" lon="-73.8356950"><ele></ele><time>2024-9-14T13:12:17Z</time></trkpt>
<trkpt lat="44.3968470" lon="-73.8357140"><ele></ele><time>2024-9-14T13:12:20Z</time></trkpt>
<trkpt lat="44.3968640" lon="-73.8357370"><ele></ele><time>2024-9-14T13:12:23Z</time></trkpt>
<trkpt lat="44.3968980" lon="-73.8357880"><ele></ele><time>2024-9-14T13:12:26Z</time></trkpt>
<trkpt lat="44.3969330" lon="-73.8358340"><ele></ele><time>2024-9-14T13:12:29Z</time></trkpt>
<trkpt lat="44.3969500" lon="-73.8358550"><ele></ele><time>2024-9-14T13:12:32Z</time></trkpt>
<trkpt lat="44.3969670" lon="-73.8358780"><ele></ele><time>2024-9-14T13:12:35Z</time></trkpt>
<trkpt lat="44.3969840" lon="-73.8359040"><ele></ele><time>2024-9-14T13:12:38Z</time></trkpt>
<trkpt lat="44.3970020" lon="-73.8359260"><ele></ele><time>2024-9-14T13:12:41Z</time></trkpt>
<trkpt lat="44.3970220" lon="-73.8359480"><ele></ele><time>2024-9-14T13:12:44Z</time></trkpt>
<trkpt lat="44.3970600" lon="-73.8359960"><ele></ele><time>2024-9-14T13:12:47Z</time></trkpt>
<trkpt lat="44.3970770" lon="-73.8360180"><ele></ele><time>2024-9-14T13:12:50Z</time></trkpt>
<trkpt lat="44.3970940" lon="-73.8360370"><ele></ele><time>2024-9-14T13:12:53Z</time></trkpt>
<trkpt lat="44.3971090" lon="-73.8360610"><ele></ele><time>2024-9-14T13:12:56Z</time></trkpt>
<trkpt lat="44.3971260" lon="-73.8360860"><ele></ele><time>2024-9-14T13:12:59Z</time></trkpt>
<trkpt lat="44.3971450" lon="-73.8361100"><ele></ele><time>2024-9-14T13:13:2Z</time></trkpt>
<trkpt lat="44.3971940" lon="-73.8361860"><ele></ele><time>2024-9-14T13:13:5Z</time></trkpt>
<trkpt lat="44.3972120" lon="-73.8362090"><ele></ele><time>2024-9-14T13:13:8Z</time></trkpt>
<trkpt lat="44.3972290" lon="-73.8362330"><ele></ele><time>2024-9-14T13:13:11Z</time></trkpt>
<trkpt lat="44.3972460" lon="-73.8362590"><ele></ele><time>2024-9-14T13:13:14Z</time></trkpt>
<trkpt lat="44.3972640" lon="-73.8362810"><ele></ele><time>2024-9-14T13:13:17Z</time></trkpt>
<trkpt lat="44.3973490" lon="-73.8363970"><ele></ele><time>2024-9-14T13:13:20Z</time></trkpt>
<trkpt lat="44.3973680" lon="-73.8364210"><ele></ele><time>2024-9-14T13:13:23Z</time></trkpt>
<trkpt lat="44.3973850" lon="-73.8364430"><ele></ele><time>2024-9-14T13:13:26Z</time></trkpt>
<trkpt lat="44.3974000" lon="-73.8364650"><ele></ele><time>2024-9-14T13:13:29Z</time></trkpt>
<trkpt lat="44.3974140" lon="-73.8364930"><ele></ele><time>2024-9-14T13:13:32Z</time></trkpt>
<trkpt lat="44.3974720" lon="-73.8366080"><ele></ele><time>2024-9-14T13:13:35Z</time></trkpt>
<trkpt lat="44.3974880" lon="-73.8366330"><ele></ele><time>2024-9-14T13:13:38Z</time></trkpt>
<trkpt lat="44.3975030" lon="-73.8366570"><ele></ele><time>2024-9-14T13:13:41Z</time></trkpt>
<trkpt lat="44.3975170" lon="-73.8366860"><ele></ele><time>2024-9-14T13:13:44Z</time></trkpt>
<trkpt lat="44.3975350" lon="-73.8367170"><ele></ele><time>2024-9-14T13:13:47Z</time></trkpt>
<trkpt lat="44.3975960" lon="-73.8368160"><ele></ele><time>2024-9-14T13:13:50Z</time></trkpt>
<trkpt lat="44.3976110" lon="-73.8368450"><ele></ele><time>2024-9-14T13:13:53Z</time></trkpt>
<trkpt lat="44.3976270" lon="-73.8368740"><ele></ele><time>2024-9-14T13:13:56Z</time></trkpt>
<trkpt lat="44.3976430" lon="-73.8368990"><ele></ele><time>2024-9-14T13:13:59Z</time></trkpt>
<trkpt lat="44.3976590" lon="-73.8369260"><ele></ele><time>2024-9-14T13:14:2Z</time></trkpt>
<trkpt lat="44.3976750" lon="-73.8369510"><ele></ele><time>2024-9-14T13:14:5Z</time></trkpt>
<trkpt lat="44.3977040" lon="-73.8369980"><ele></ele><time>2024-9-14T13:14:8Z</time></trkpt>
<trkpt lat="44.3977350" lon="-73.8370450"><ele></ele><time>2024-9-14T13:14:11Z</time></trkpt>
<trkpt lat="44.3977500" lon="-73.8370700"><ele></ele><time>2024-9-14T13:14:14Z</time></trkpt>
<trkpt lat="44.3977630" lon="-73.8370950"><ele></ele><time>2024-9-14T13:14:17Z</time></trkpt>
<trkpt lat="44.3977750" lon="-73.8371240"><ele></ele><time>2024-9-14T13:14:20Z</time></trkpt>
<trkpt lat="44.3977880" lon="-73.8371480"><ele></ele><time>2024-9-14T13:14:23Z</time></trkpt>
<trkpt lat="44.3978010" lon="-73.8371760"><ele></ele><time>2024-9-14T13:14:26Z</time></trkpt>
<trkpt lat="44.3978440" lon="-73.8372490"><ele></ele><time>2024-9-14T13:14:29Z</time></trkpt>
<trkpt lat="44.3978610" lon="-73.8372740"><ele></ele><time>2024-9-14T13:14:32Z</time></trkpt>
<trkpt lat="44.3978740" lon="-73.8373030"><ele></ele><time>2024-9-14T13:14:35Z</time></trkpt>
<trkpt lat="44.3978900" lon="-73.8373320"><ele></ele><time>2024-9-14T13:14:38Z</time></trkpt>
<trkpt lat="44.3979050" lon="-73.8373580"><ele></ele><time>2024-9-14T13:14:41Z</time></trkpt>
<trkpt lat="44.3979750" lon="-73.8374890"><ele></ele><time>2024-9-14T13:14:44Z</time></trkpt>
<trkpt lat="44.3979900" lon="-73.8375120"><ele></ele><time>2024-9-14T13:14:47Z</time></trkpt>
<trkpt lat="44.3980040" lon="-73.8375350"><ele></ele><time>2024-9-14T13:14:50Z</time></trkpt>
<trkpt lat="44.3980180" lon="-73.8375610"><ele></ele><time>2024-9-14T13:14:53Z</time></trkpt>
<trkpt lat="44.3980310" lon="-73.8375850"><ele></ele><time>2024-9-14T13:14:56Z</time></trkpt>
<trkpt lat="44.3980850" lon="-73.8376860"><ele></ele><time>2024-9-14T13:14:59Z</time></trkpt>
<trkpt lat="44.3980980" lon="-73.8377160"><ele></ele><time>2024-9-14T13:15:2Z</time></trkpt>
<trkpt lat="44.3981130" lon="-73.8377410"><ele></ele><time>2024-9-14T13:15:5Z</time></trkpt>
<trkpt lat="44.3981280" lon="-73.8377680"><ele></ele><time>2024-9-14T13:15:8Z</time></trkpt>
<trkpt lat="44.3981410" lon="-73.8378000"><ele></ele><time>2024-9-14T13:15:11Z</time></trkpt>
<trkpt lat="44.3981800" lon="-73.8378800"><ele></ele><time>2024-9-14T13:15:14Z</time></trkpt>
<trkpt lat="44.3981920" lon="-73.8379100"><ele></ele><time>2024-9-14T13:15:17Z</time></trkpt>
<trkpt lat="44.3982030" lon="-73.8379410"><ele></ele><time>2024-9-14T13:15:20Z</time></trkpt>
<trkpt lat="44.3982160" lon="-73.8379690"><ele></ele><time>2024-9-14T13:15:23Z</time></trkpt>
<trkpt lat="44.3982270" lon="-73.8379930"><ele></ele><time>2024-9-14T13:15:26Z</time></trkpt>
<trkpt lat="44.3982810" lon="-73.8381090"><ele></ele><time>2024-9-14T13:15:29Z</time></trkpt>
<trkpt lat="44.3983080" lon="-73.8381730"><ele></ele><time>2024-9-14T13:15:32Z</time></trkpt>
<trkpt lat="44.3983220" lon="-73.8382020"><ele></ele><time>2024-9-14T13:15:35Z</time></trkpt>
<trkpt lat="44.3983350" lon="-73.8382350"><ele></ele><time>2024-9-14T13:15:38Z</time></trkpt>
<trkpt lat="44.3983500" lon="-73.8382630"><ele></ele><time>2024-9-14T13:15:41Z</time></trkpt>
<trkpt lat="44.3983630" lon="-73.8382940"><ele></ele><time>2024-9-14T13:15:44Z</time></trkpt>
<trkpt lat="44.3983920" lon="-73.8383570"><ele></ele><time>2024-9-14T13:15:47Z</time></trkpt>
<trkpt lat="44.3984330" lon="-73.8384490"><ele></ele><time>2024-9-14T13:15:50Z</time></trkpt>
<trkpt lat="44.3984460" lon="-73.8384780"><ele></ele><time>2024-9-14T13:15:53Z</time></trkpt>
<trkpt lat="44.3984590" lon="-73.8385070"><ele></ele><time>2024-9-14T13:15:56Z</time></trkpt>
<trkpt lat="44.3984700" lon="-73.8385390"><ele></ele><time>2024-9-14T13:15:59Z</time></trkpt>
<trkpt lat="44.3984850" lon="-73.8385690"><ele></ele><time>2024-9-14T13:16:2Z</time></trkpt>
<trkpt lat="44.3984960" lon="-73.8385940"><ele></ele><time>2024-9-14T13:16:5Z</time></trkpt>
<trkpt lat="44.3985370" lon="-73.8386750"><ele></ele><time>2024-9-14T13:16:8Z</time></trkpt>
<trkpt lat="44.3985520" lon="-73.8387010"><ele></ele><time>2024-9-14T13:16:11Z</time></trkpt>
<trkpt lat="44.3985670" lon="-73.8387260"><ele></ele><time>2024-9-14T13:16:14Z</time></trkpt>
<trkpt lat="44.3985770" lon="-73.8387520"><ele></ele><time>2024-9-14T13:16:17Z</time></trkpt>
<trkpt lat="44.3985920" lon="-73.8387800"><ele></ele><time>2024-9-14T13:16:20Z</time></trkpt>
<trkpt lat="44.3986680" lon="-73.8389300"><ele></ele><time>2024-9-14T13:16:23Z</time></trkpt>
<trkpt lat="44.3986810" lon="-73.8389540"><ele></ele><time>2024-9-14T13:16:26Z</time></trkpt>
<trkpt lat="44.3986930" lon="-73.8389800"><ele></ele><time>2024-9-14T13:16:29Z</time></trkpt>
<trkpt lat="44.3987040" lon="-73.8390060"><ele></ele><time>2024-9-14T13:16:32Z</time></trkpt>
<trkpt lat="44.3987160" lon="-73.8390310"><ele></ele><time>2024-9-14T13:16:35Z</time></trkpt>
<trkpt lat="44.3987750" lon="-73.8391700"><ele></ele><time>2024-9-14T13:16:38Z</time></trkpt>
<trkpt lat="44.3987990" lon="-73.8392200"><ele></ele><time>2024-9-14T13:16:41Z</time></trkpt>
<trkpt lat="44.3988110" lon="-73.8392450"><ele></ele><time>2024-9-14T13:16:44Z</time></trkpt>
<trkpt lat="44.3988240" lon="-73.8392670"><ele></ele><time>2024-9-14T13:16:47Z</time></trkpt>
<trkpt lat="44.3988360" lon="-73.8392960"><ele></ele><time>2024-9-14T13:16:50Z</time></trkpt>
<trkpt lat="44.3988880" lon="-73.8394160"><ele></ele><time>2024-9-14T13:16:53Z</time></trkpt>
<trkpt lat="44.3989110" lon="-73.8394700"><ele></ele><time>2024-9-14T13:16:56Z</time></trkpt>
<trkpt lat="44.3989240" lon="-73.8394960"><ele></ele><time>2024-9-14T13:16:59Z</time></trkpt>
<trkpt lat="44.3989370" lon="-73.8395240"><ele></ele><time>2024-9-14T13:17:2Z</time></trkpt>
<trkpt lat="44.3989500" lon="-73.8395510"><ele></ele><time>2024-9-14T13:17:5Z</time></trkpt>
<trkpt lat="44.3989640" lon="-73.8395770"><ele></ele><time>2024-9-14T13:17:8Z</time></trkpt>
<trkpt lat="44.3990150" lon="-73.8396910"><ele></ele><time>2024-9-14T13:17:11Z</time></trkpt>
<trkpt lat="44.3990290" lon="-73.8397170"><ele></ele><time>2024-9-14T13:17:14Z</time></trkpt>
<trkpt lat="44.3990420" lon="-73.8397440"><ele></ele><time>2024-9-14T13:17:17Z</time></trkpt>
<trkpt lat="44.3990530" lon="-73.8397700"><ele></ele><time>2024-9-14T13:17:20Z</time></trkpt>
<trkpt lat="44.3990650" lon="-73.8397960"><ele></ele><time>2024-9-14T13:17:23Z</time></trkpt>
<trkpt lat="44.3991190" lon="-73.8399340"><ele></ele><time>2024-9-14T13:17:26Z</time></trkpt>
<trkpt lat="44.3991310" lon="-73.8399610"><ele></ele><time>2024-9-14T13:17:29Z</time></trkpt>
<trkpt lat="44.3991390" lon="-73.8399890"><ele></ele><time>2024-9-14T13:17:32Z</time></trkpt>
<trkpt lat="44.3991490" lon="-73.8400130"><ele></ele><time>2024-9-14T13:17:35Z</time></trkpt>
<trkpt lat="44.3991610" lon="-73.8400380"><ele></ele><time>2024-9-14T13:17:38Z</time></trkpt>
<trkpt lat="44.3991870" lon="-73.8400880"><ele></ele><time>2024-9-14T13:17:41Z</time></trkpt>
<trkpt lat="44.3992470" lon="-73.8402190"><ele></ele><time>2024-9-14T13:17:44Z</time></trkpt>
<trkpt lat="44.3992590" lon="-73.8402440"><ele></ele><time>2024-9-14T13:17:47Z</time></trkpt>
<trkpt lat="44.3992700" lon="-73.8402700"><ele></ele><time>2024-9-14T13:17:50Z</time></trkpt>
<trkpt lat="44.3992810" lon="-73.8402950"><ele></ele><time>2024-9-14T13:17:53Z</time></trkpt>
<trkpt lat="44.3992920" lon="-73.8403200"><ele></ele><time>2024-9-14T13:17:56Z</time></trkpt>
<trkpt lat="44.3993360" lon="-73.8404180"><ele></ele><time>2024-9-14T13:17:59Z</time></trkpt>
<trkpt lat="44.3993470" lon="-73.8404440"><ele></ele><time>2024-9-14T13:18:2Z</time></trkpt>
<trkpt lat="44.3993590" lon="-73.8404660"><ele></ele><time>2024-9-14T13:18:5Z</time></trkpt>
<trkpt lat="44.3993680" lon="-73.8404900"><ele></ele><time>2024-9-14T13:18:8Z</time></trkpt>
<trkpt lat="44.3994270" lon="-73.8406140"><ele></ele><time>2024-9-14T13:18:11Z</time></trkpt>
<trkpt lat="44.3994530" lon="-73.8406610"><ele></ele><time>2024-9-14T13:18:14Z</time></trkpt>
<trkpt lat="44.3994650" lon="-73.8406850"><ele></ele><time>2024-9-14T13:18:17Z</time></trkpt>
<trkpt lat="44.3994780" lon="-73.8407080"><ele></ele><time>2024-9-14T13:18:20Z</time></trkpt>
<trkpt lat="44.3994880" lon="-73.8407300"><ele></ele><time>2024-9-14T13:18:23Z</time></trkpt>
<trkpt lat="44.3994970" lon="-73.8407550"><ele></ele><time>2024-9-14T13:18:26Z</time></trkpt>
<trkpt lat="44.3995070" lon="-73.8407780"><ele></ele><time>2024-9-14T13:18:29Z</time></trkpt>
<trkpt lat="44.3995610" lon="-73.8408900"><ele></ele><time>2024-9-14T13:18:32Z</time></trkpt>
<trkpt lat="44.3995700" lon="-73.8409130"><ele></ele><time>2024-9-14T13:18:35Z</time></trkpt>
<trkpt lat="44.3995820" lon="-73.8409390"><ele></ele><time>2024-9-14T13:18:38Z</time></trkpt>
<trkpt lat="44.3995890" lon="-73.8409640"><ele></ele><time>2024-9-14T13:18:41Z</time></trkpt>
<trkpt lat="44.3996000" lon="-73.8409840"><ele></ele><time>2024-9-14T13:18:44Z</time></trkpt>
<trkpt lat="44.3996310" lon="-73.8410540"><ele></ele><time>2024-9-14T13:18:47Z</time></trkpt>
<trkpt lat="44.3996410" lon="-73.8410760"><ele></ele><time>2024-9-14T13:18:50Z</time></trkpt>
<trkpt lat="44.3996510" lon="-73.8411010"><ele></ele><time>2024-9-14T13:18:53Z</time></trkpt>
<trkpt lat="44.3996610" lon="-73.8411280"><ele></ele><time>2024-9-14T13:18:56Z</time></trkpt>
<trkpt lat="44.3996730" lon="-73.8411540"><ele></ele><time>2024-9-14T13:18:59Z</time></trkpt>
<trkpt lat="44.3996850" lon="-73.8411790"><ele></ele><time>2024-9-14T13:19:2Z</time></trkpt>
<trkpt lat="44.3997180" lon="-73.8412570"><ele></ele><time>2024-9-14T13:19:5Z</time></trkpt>
<trkpt lat="44.3997320" lon="-73.8413070"><ele></ele><time>2024-9-14T13:19:8Z</time></trkpt>
<trkpt lat="44.3997410" lon="-73.8413330"><ele></ele><time>2024-9-14T13:19:11Z</time></trkpt>
<trkpt lat="44.3997520" lon="-73.8413560"><ele></ele><time>2024-9-14T13:19:14Z</time></trkpt>
<trkpt lat="44.3997610" lon="-73.8413790"><ele></ele><time>2024-9-14T13:19:17Z</time></trkpt>
<trkpt lat="44.3997720" lon="-73.8414040"><ele></ele><time>2024-9-14T13:19:20Z</time></trkpt>
<trkpt lat="44.3997840" lon="-73.8414270"><ele></ele><time>2024-9-14T13:19:23Z</time></trkpt>
<trkpt lat="44.3998390" lon="-73.8415490"><ele></ele><time>2024-9-14T13:19:26Z</time></trkpt>
<trkpt lat="44.3998520" lon="-73.8415720"><ele></ele><time>2024-9-14T13:19:29Z</time></trkpt>
<trkpt lat="44.3998630" lon="-73.8415980"><ele></ele><time>2024-9-14T13:19:32Z</time></trkpt>
<trkpt lat="44.3998750" lon="-73.8416250"><ele></ele><time>2024-9-14T13:19:35Z</time></trkpt>
<trkpt lat="44.3998840" lon="-73.8416510"><ele></ele><time>2024-9-14T13:19:38Z</time></trkpt>
<trkpt lat="44.3999330" lon="-73.8417680"><ele></ele><time>2024-9-14T13:19:41Z</time></trkpt>
<trkpt lat="44.3999400" lon="-73.8417950"><ele></ele><time>2024-9-14T13:19:44Z</time></trkpt>
<trkpt lat="44.3999520" lon="-73.8418200"><ele></ele><time>2024-9-14T13:19:47Z</time></trkpt>
<trkpt lat="44.3999620" lon="-73.8418420"><ele></ele><time>2024-9-14T13:19:50Z</time></trkpt>
<trkpt lat="44.3999710" lon="-73.8418660"><ele></ele><time>2024-9-14T13:19:53Z</time></trkpt>
<trkpt lat="44.3999810" lon="-73.8418920"><ele></ele><time>2024-9-14T13:19:56Z</time></trkpt>
<trkpt lat="44.4000000" lon="-73.8419430"><ele></ele><time>2024-9-14T13:19:59Z</time></trkpt>
<trkpt lat="44.4000440" lon="-73.8420730"><ele></ele><time>2024-9-14T13:20:2Z</time></trkpt>
<trkpt lat="44.4000550" lon="-73.8420980"><ele></ele><time>2024-9-14T13:20:5Z</time></trkpt>
<trkpt lat="44.4000670" lon="-73.8421250"><ele></ele><time>2024-9-14T13:20:8Z</time></trkpt>
<trkpt lat="44.4000750" lon="-73.8421510"><ele></ele><time>2024-9-14T13:20:11Z</time></trkpt>
<trkpt lat="44.4000870" lon="-73.8421760"><ele></ele><time>2024-9-14T13:20:14Z</time></trkpt>
<trkpt lat="44.4001360" lon="-73.8422960"><ele></ele><time>2024-9-14T13:20:17Z</time></trkpt>
<trkpt lat="44.4001720" lon="-73.8424010"><ele></ele><time>2024-9-14T13:20:20Z</time></trkpt>
<trkpt lat="44.4001800" lon="-73.8424260"><ele></ele><time>2024-9-14T13:20:23Z</time></trkpt>
<trkpt lat="44.4001890" lon="-73.8424500"><ele></ele><time>2024-9-14T13:20:26Z</time></trkpt>
<trkpt lat="44.4001950" lon="-73.8424770"><ele></ele><time>2024-9-14T13:20:29Z</time></trkpt>
<trkpt lat="44.4002050" lon="-73.8425020"><ele></ele><time>2024-9-14T13:20:32Z</time></trkpt>
<trkpt lat="44.4002670" lon="-73.8426830"><ele></ele><time>2024-9-14T13:20:35Z</time></trkpt>
<trkpt lat="44.4002730" lon="-73.8427100"><ele></ele><time>2024-9-14T13:20:38Z</time></trkpt>
<trkpt lat="44.4002810" lon="-73.8427360"><ele></ele><time>2024-9-14T13:20:41Z</time></trkpt>
<trkpt lat="44.4002910" lon="-73.8427620"><ele></ele><time>2024-9-14T13:20:44Z</time></trkpt>
<trkpt lat="44.4002980" lon="-73.8427890"><ele></ele><time>2024-9-14T13:20:47Z</time></trkpt>
<trkpt lat="44.4003130" lon="-73.8428450"><ele></ele><time>2024-9-14T13:20:50Z</time></trkpt>
<trkpt lat="44.4003400" lon="-73.8429500"><ele></ele><time>2024-9-14T13:20:53Z</time></trkpt>
<trkpt lat="44.4003470" lon="-73.8429780"><ele></ele><time>2024-9-14T13:20:56Z</time></trkpt>
<trkpt lat="44.4003540" lon="-73.8430040"><ele></ele><time>2024-9-14T13:20:59Z</time></trkpt>
<trkpt lat="44.4003620" lon="-73.8430290"><ele></ele><time>2024-9-14T13:21:2Z</time></trkpt>
<trkpt lat="44.4003750" lon="-73.8430810"><ele></ele><time>2024-9-14T13:21:5Z</time></trkpt>
<trkpt lat="44.4004110" lon="-73.8432180"><ele></ele><time>2024-9-14T13:21:8Z</time></trkpt>
<trkpt lat="44.4004160" lon="-73.8432460"><ele></ele><time>2024-9-14T13:21:11Z</time></trkpt>
<trkpt lat="44.4004260" lon="-73.8432710"><ele></ele><time>2024-9-14T13:21:14Z</time></trkpt>
<trkpt lat="44.4004330" lon="-73.8433000"><ele></ele><time>2024-9-14T13:21:17Z</time></trkpt>
<trkpt lat="44.4004380" lon="-73.8433260"><ele></ele><time>2024-9-14T13:21:20Z</time></trkpt>
<trkpt lat="44.4004630" lon="-73.8434370"><ele></ele><time>2024-9-14T13:21:23Z</time></trkpt>
<trkpt lat="44.4004690" lon="-73.8434640"><ele></ele><time>2024-9-14T13:21:26Z</time></trkpt>
<trkpt lat="44.4004760" lon="-73.8434950"><ele></ele><time>2024-9-14T13:21:29Z</time></trkpt>
<trkpt lat="44.4004830" lon="-73.8435210"><ele></ele><time>2024-9-14T13:21:32Z</time></trkpt>
<trkpt lat="44.4004870" lon="-73.8435500"><ele></ele><time>2024-9-14T13:21:35Z</time></trkpt>
<trkpt lat="44.4004910" lon="-73.8435790"><ele></ele><time>2024-9-14T13:21:38Z</time></trkpt>
<trkpt lat="44.4004970" lon="-73.8436350"><ele></ele><time>2024-9-14T13:21:41Z</time></trkpt>
<trkpt lat="44.4005100" lon="-73.8437550"><ele></ele><time>2024-9-14T13:21:44Z</time></trkpt>
<trkpt lat="44.4005130" lon="-73.8437870"><ele></ele><time>2024-9-14T13:21:47Z</time></trkpt>
<trkpt lat="44.4005160" lon="-73.8438140"><ele></ele><time>2024-9-14T13:21:50Z</time></trkpt>
<trkpt lat="44.4005210" lon="-73.8438400"><ele></ele><time>2024-9-14T13:21:53Z</time></trkpt>
<trkpt lat="44.4005250" lon="-73.8438670"><ele></ele><time>2024-9-14T13:21:56Z</time></trkpt>
<trkpt lat="44.4005470" lon="-73.8440350"><ele></ele><time>2024-9-14T13:21:59Z</time></trkpt>
<trkpt lat="44.4005550" lon="-73.8440610"><ele></ele><time>2024-9-14T13:22:2Z</time></trkpt>
<trkpt lat="44.4005590" lon="-73.8440900"><ele></ele><time>2024-9-14T13:22:5Z</time></trkpt>
<trkpt lat="44.4005650" lon="-73.8441190"><ele></ele><time>2024-9-14T13:22:8Z</time></trkpt>
<trkpt lat="44.4005680" lon="-73.8441490"><ele></ele><time>2024-9-14T13:22:11Z</time></trkpt>
<trkpt lat="44.4005730" lon="-73.8441760"><ele></ele><time>2024-9-14T13:22:14Z</time></trkpt>
<trkpt lat="44.4005950" lon="-73.8443160"><ele></ele><time>2024-9-14T13:22:17Z</time></trkpt>
<trkpt lat="44.4005970" lon="-73.8443430"><ele></ele><time>2024-9-14T13:22:20Z</time></trkpt>
<trkpt lat="44.4006010" lon="-73.8443720"><ele></ele><time>2024-9-14T13:22:23Z</time></trkpt>
<trkpt lat="44.4006070" lon="-73.8444000"><ele></ele><time>2024-9-14T13:22:26Z</time></trkpt>
<trkpt lat="44.4006120" lon="-73.8444290"><ele></ele><time>2024-9-14T13:22:29Z</time></trkpt>
<trkpt lat="44.4006320" lon="-73.8445910"><ele></ele><time>2024-9-14T13:22:32Z</time></trkpt>
<trkpt lat="44.4006360" lon="-73.8446210"><ele></ele><time>2024-9-14T13:22:35Z</time></trkpt>
<trkpt lat="44.4006390" lon="-73.8446480"><ele></ele><time>2024-9-14T13:22:38Z</time></trkpt>
<trkpt lat="44.4006430" lon="-73.8446770"><ele></ele><time>2024-9-14T13:22:41Z</time></trkpt>
<trkpt lat="44.4006450" lon="-73.8447050"><ele></ele><time>2024-9-14T13:22:44Z</time></trkpt>
<trkpt lat="44.4006560" lon="-73.8448820"><ele></ele><time>2024-9-14T13:22:47Z</time></trkpt>
<trkpt lat="44.4006560" lon="-73.8449120"><ele></ele><time>2024-9-14T13:22:50Z</time></trkpt>
<trkpt lat="44.4006550" lon="-73.8449450"><ele></ele><time>2024-9-14T13:22:53Z</time></trkpt>
<trkpt lat="44.4006580" lon="-73.8449770"><ele></ele><time>2024-9-14T13:22:56Z</time></trkpt>
<trkpt lat="44.4006620" lon="-73.8450090"><ele></ele><time>2024-9-14T13:22:59Z</time></trkpt>
<trkpt lat="44.4006640" lon="-73.8450680"><ele></ele><time>2024-9-14T13:23:2Z</time></trkpt>
<trkpt lat="44.4006660" lon="-73.8451820"><ele></ele><time>2024-9-14T13:23:5Z</time></trkpt>
<trkpt lat="44.4006650" lon="-73.8452110"><ele></ele><time>2024-9-14T13:23:8Z</time></trkpt>
<trkpt lat="44.4006640" lon="-73.8452420"><ele></ele><time>2024-9-14T13:23:11Z</time></trkpt>
<trkpt lat="44.4006620" lon="-73.8452710"><ele></ele><time>2024-9-14T13:23:14Z</time></trkpt>
<trkpt lat="44.4006630" lon="-73.8452990"><ele></ele><time>2024-9-14T13:23:17Z</time></trkpt>
<trkpt lat="44.4006670" lon="-73.8455040"><ele></ele><time>2024-9-14T13:23:20Z</time></trkpt>
<trkpt lat="44.4006680" lon="-73.8455330"><ele></ele><time>2024-9-14T13:23:23Z</time></trkpt>
<trkpt lat="44.4006670" lon="-73.8455640"><ele></ele><time>2024-9-14T13:23:26Z</time></trkpt>
<trkpt lat="44.4006650" lon="-73.8455920"><ele></ele><time>2024-9-14T13:23:29Z</time></trkpt>
<trkpt lat="44.4006650" lon="-73.8456250"><ele></ele><time>2024-9-14T13:23:32Z</time></trkpt>
<trkpt lat="44.4006680" lon="-73.8456550"><ele></ele><time>2024-9-14T13:23:35Z</time></trkpt>
<trkpt lat="44.4006660" lon="-73.8457450"><ele></ele><time>2024-9-14T13:23:38Z</time></trkpt>
<trkpt lat="44.4006690" lon="-73.8458060"><ele></ele><time>2024-9-14T13:23:41Z</time></trkpt>
<trkpt lat="44.4006690" lon="-73.8458380"><ele></ele><time>2024-9-14T13:23:44Z</time></trkpt>
<trkpt lat="44.4006690" lon="-73.8458670"><ele></ele><time>2024-9-14T13:23:47Z</time></trkpt>
<trkpt lat="44.4006670" lon="-73.8458960"><ele></ele><time>2024-9-14T13:23:50Z</time></trkpt>
<trkpt lat="44.4006670" lon="-73.8459250"><ele></ele><time>2024-9-14T13:23:53Z</time></trkpt>
<trkpt lat="44.4006660" lon="-73.8459570"><ele></ele><time>2024-9-14T13:23:56Z</time></trkpt>
<trkpt lat="44.4006580" lon="-73.8461730"><ele></ele><time>2024-9-14T13:23:59Z</time></trkpt>
<trkpt lat="44.4006550" lon="-73.8462020"><ele></ele><time>2024-9-14T13:24:2Z</time></trkpt>
<trkpt lat="44.4006500" lon="-73.8462320"><ele></ele><time>2024-9-14T13:24:5Z</time></trkpt>
<trkpt lat="44.4006480" lon="-73.8462590"><ele></ele><time>2024-9-14T13:24:8Z</time></trkpt>
<trkpt lat="44.4006460" lon="-73.8462890"><ele></ele><time>2024-9-14T13:24:11Z</time></trkpt>
<trkpt lat="44.4006380" lon="-73.8464440"><ele></ele><time>2024-9-14T13:24:14Z</time></trkpt>
<trkpt lat="44.4006340" lon="-73.8465070"><ele></ele><time>2024-9-14T13:24:17Z</time></trkpt>
<trkpt lat="44.4006310" lon="-73.8465370"><ele></ele><time>2024-9-14T13:24:20Z</time></trkpt>
<trkpt lat="44.4006270" lon="-73.8465640"><ele></ele><time>2024-9-14T13:24:23Z</time></trkpt>
<trkpt lat="44.4006240" lon="-73.8465930"><ele></ele><time>2024-9-14T13:24:26Z</time></trkpt>
<trkpt lat="44.4006000" lon="-73.8467140"><ele></ele><time>2024-9-14T13:24:29Z</time></trkpt>
<trkpt lat="44.4005860" lon="-73.8468380"><ele></ele><time>2024-9-14T13:24:32Z</time></trkpt>
<trkpt lat="44.4005840" lon="-73.8468700"><ele></ele><time>2024-9-14T13:24:35Z</time></trkpt>
<trkpt lat="44.4005800" lon="-73.8468980"><ele></ele><time>2024-9-14T13:24:38Z</time></trkpt>
<trkpt lat="44.4005770" lon="-73.8469260"><ele></ele><time>2024-9-14T13:24:41Z</time></trkpt>
<trkpt lat="44.4005730" lon="-73.8469550"><ele></ele><time>2024-9-14T13:24:44Z</time></trkpt>
<trkpt lat="44.4005310" lon="-73.8471940"><ele></ele><time>2024-9-14T13:24:47Z</time></trkpt>
<trkpt lat="44.4005290" lon="-73.8472260"><ele></ele><time>2024-9-14T13:24:50Z</time></trkpt>
<trkpt lat="44.4005250" lon="-73.8472540"><ele></ele><time>2024-9-14T13:24:53Z</time></trkpt>
<trkpt lat="44.4005190" lon="-73.8472820"><ele></ele><time>2024-9-14T13:24:56Z</time></trkpt>
<trkpt lat="44.4004840" lon="-73.8474550"><ele></ele><time>2024-9-14T13:24:59Z</time></trkpt>
<trkpt lat="44.4004770" lon="-73.8474850"><ele></ele><time>2024-9-14T13:25:2Z</time></trkpt>
<trkpt lat="44.4004730" lon="-73.8475140"><ele></ele><time>2024-9-14T13:25:5Z</time></trkpt>
<trkpt lat="44.4004700" lon="-73.8475430"><ele></ele><time>2024-9-14T13:25:8Z</time></trkpt>
<trkpt lat="44.4004650" lon="-73.8475680"><ele></ele><time>2024-9-14T13:25:11Z</time></trkpt>
<trkpt lat="44.4004390" lon="-73.8477030"><ele></ele><time>2024-9-14T13:25:14Z</time></trkpt>
<trkpt lat="44.4004310" lon="-73.8477640"><ele></ele><time>2024-9-14T13:25:17Z</time></trkpt>
<trkpt lat="44.4004250" lon="-73.8477920"><ele></ele><time>2024-9-14T13:25:20Z</time></trkpt>
<trkpt lat="44.4004180" lon="-73.8478230"><ele></ele><time>2024-9-14T13:25:23Z</time></trkpt>
<trkpt lat="44.4004150" lon="-73.8478540"><ele></ele><time>2024-9-14T13:25:26Z</time></trkpt>
<trkpt lat="44.4004070" lon="-73.8478800"><ele></ele><time>2024-9-14T13:25:29Z</time></trkpt>
<trkpt lat="44.4003910" lon="-73.8479600"><ele></ele><time>2024-9-14T13:25:32Z</time></trkpt>
<trkpt lat="44.4003790" lon="-73.8480140"><ele></ele><time>2024-9-14T13:25:35Z</time></trkpt>
<trkpt lat="44.4003720" lon="-73.8480420"><ele></ele><time>2024-9-14T13:25:38Z</time></trkpt>
<trkpt lat="44.4003670" lon="-73.8480680"><ele></ele><time>2024-9-14T13:25:41Z</time></trkpt>
<trkpt lat="44.4003600" lon="-73.8480920"><ele></ele><time>2024-9-14T13:25:44Z</time></trkpt>
<trkpt lat="44.4003540" lon="-73.8481140"><ele></ele><time>2024-9-14T13:25:47Z</time></trkpt>
<trkpt lat="44.4003410" lon="-73.8481610"><ele></ele><time>2024-9-14T13:25:50Z</time></trkpt>
<trkpt lat="44.4003080" lon="-73.8482940"><ele></ele><time>2024-9-14T13:25:53Z</time></trkpt>
<trkpt lat="44.4003030" lon="-73.8483200"><ele></ele><time>2024-9-14T13:25:56Z</time></trkpt>
<trkpt lat="44.4002990" lon="-73.8483460"><ele></ele><time>2024-9-14T13:25:59Z</time></trkpt>
<trkpt lat="44.4002920" lon="-73.8483740"><ele></ele><time>2024-9-14T13:26:2Z</time></trkpt>
<trkpt lat="44.4002870" lon="-73.8484030"><ele></ele><time>2024-9-14T13:26:5Z</time></trkpt>
<trkpt lat="44.4002520" lon="-73.8485390"><ele></ele><time>2024-9-14T13:26:8Z</time></trkpt>
<trkpt lat="44.4002440" lon="-73.8485670"><ele></ele><time>2024-9-14T13:26:11Z</time></trkpt>
<trkpt lat="44.4002360" lon="-73.8485910"><ele></ele><time>2024-9-14T13:26:14Z</time></trkpt>
<trkpt lat="44.4002290" lon="-73.8486200"><ele></ele><time>2024-9-14T13:26:17Z</time></trkpt>
<trkpt lat="44.4001910" lon="-73.8487570"><ele></ele><time>2024-9-14T13:26:20Z</time></trkpt>
<trkpt lat="44.4001810" lon="-73.8487850"><ele></ele><time>2024-9-14T13:26:23Z</time></trkpt>
<trkpt lat="44.4001720" lon="-73.8488100"><ele></ele><time>2024-9-14T13:26:26Z</time></trkpt>
<trkpt lat="44.4001630" lon="-73.8488390"><ele></ele><time>2024-9-14T13:26:29Z</time></trkpt>
<trkpt lat="44.4001510" lon="-73.8488650"><ele></ele><time>2024-9-14T13:26:32Z</time></trkpt>
<trkpt lat="44.4001150" lon="-73.8490010"><ele></ele><time>2024-9-14T13:26:35Z</time></trkpt>
<trkpt lat="44.4000960" lon="-73.8490510"><ele></ele><time>2024-9-14T13:26:38Z</time></trkpt>
<trkpt lat="44.4000860" lon="-73.8490800"><ele></ele><time>2024-9-14T13:26:41Z</time></trkpt>
<trkpt lat="44.4000760" lon="-73.8491050"><ele></ele><time>2024-9-14T13:26:44Z</time></trkpt>
<trkpt lat="44.4000650" lon="-73.8491300"><ele></ele><time>2024-9-14T13:26:47Z</time></trkpt>
<trkpt lat="44.4000540" lon="-73.8491550"><ele></ele><time>2024-9-14T13:26:50Z</time></trkpt>
<trkpt lat="44.4000430" lon="-73.8491780"><ele></ele><time>2024-9-14T13:26:53Z</time></trkpt>
<trkpt lat="44.3999950" lon="-73.8493190"><ele></ele><time>2024-9-14T13:26:56Z</time></trkpt>
<trkpt lat="44.3999800" lon="-73.8493470"><ele></ele><time>2024-9-14T13:26:59Z</time></trkpt>
<trkpt lat="44.3999710" lon="-73.8493770"><ele></ele><time>2024-9-14T13:27:2Z</time></trkpt>
<trkpt lat="44.3999590" lon="-73.8494030"><ele></ele><time>2024-9-14T13:27:5Z</time></trkpt>
<trkpt lat="44.3999480" lon="-73.8494300"><ele></ele><time>2024-9-14T13:27:8Z</time></trkpt>
<trkpt lat="44.3998940" lon="-73.8495590"><ele></ele><time>2024-9-14T13:27:11Z</time></trkpt>
<trkpt lat="44.3998830" lon="-73.8495870"><ele></ele><time>2024-9-14T13:27:14Z</time></trkpt>
<trkpt lat="44.3998730" lon="-73.8496150"><ele></ele><time>2024-9-14T13:27:17Z</time></trkpt>
<trkpt lat="44.3998620" lon="-73.8496380"><ele></ele><time>2024-9-14T13:27:20Z</time></trkpt>
<trkpt lat="44.3998540" lon="-73.8496630"><ele></ele><time>2024-9-14T13:27:23Z</time></trkpt>
<trkpt lat="44.3998000" lon="-73.8497930"><ele></ele><time>2024-9-14T13:27:26Z</time></trkpt>
<trkpt lat="44.3997890" lon="-73.8498190"><ele></ele><time>2024-9-14T13:27:29Z</time></trkpt>
<trkpt lat="44.3997780" lon="-73.8498430"><ele></ele><time>2024-9-14T13:27:32Z</time></trkpt>
<trkpt lat="44.3997670" lon="-73.8498680"><ele></ele><time>2024-9-14T13:27:35Z</time></trkpt>
<trkpt lat="44.3997570" lon="-73.8498950"><ele></ele><time>2024-9-14T13:27:38Z</time></trkpt>
<trkpt lat="44.3997470" lon="-73.8499210"><ele></ele><time>2024-9-14T13:27:41Z</time></trkpt>
<trkpt lat="44.3997080" lon="-73.8500290"><ele></ele><time>2024-9-14T13:27:44Z</time></trkpt>
<trkpt lat="44.3996930" lon="-73.8500780"><ele></ele><time>2024-9-14T13:27:47Z</time></trkpt>
<trkpt lat="44.3996840" lon="-73.8501040"><ele></ele><time>2024-9-14T13:27:50Z</time></trkpt>
<trkpt lat="44.3996730" lon="-73.8501320"><ele></ele><time>2024-9-14T13:27:53Z</time></trkpt>
<trkpt lat="44.3996630" lon="-73.8501570"><ele></ele><time>2024-9-14T13:27:56Z</time></trkpt>
<trkpt lat="44.3996550" lon="-73.8501850"><ele></ele><time>2024-9-14T13:27:59Z</time></trkpt>
<trkpt lat="44.3996240" lon="-73.8502670"><ele></ele><time>2024-9-14T13:28:2Z</time></trkpt>
<trkpt lat="44.3995960" lon="-73.8503470"><ele></ele><time>2024-9-14T13:28:5Z</time></trkpt>
<trkpt lat="44.3995860" lon="-73.8503730"><ele></ele><time>2024-9-14T13:28:8Z</time></trkpt>
<trkpt lat="44.3995730" lon="-73.8503990"><ele></ele><time>2024-9-14T13:28:11Z</time></trkpt>
<trkpt lat="44.3995670" lon="-73.8504260"><ele></ele><time>2024-9-14T13:28:14Z</time></trkpt>
<trkpt lat="44.3995570" lon="-73.8504530"><ele></ele><time>2024-9-14T13:28:17Z</time></trkpt>
<trkpt lat="44.3995050" lon="-73.8506280"><ele></ele><time>2024-9-14T13:28:20Z</time></trkpt>
<trkpt lat="44.3994980" lon="-73.8506570"><ele></ele><time>2024-9-14T13:28:23Z</time></trkpt>
<trkpt lat="44.3994900" lon="-73.8506840"><ele></ele><time>2024-9-14T13:28:26Z</time></trkpt>
<trkpt lat="44.3994820" lon="-73.8507120"><ele></ele><time>2024-9-14T13:28:29Z</time></trkpt>
<trkpt lat="44.3994760" lon="-73.8507400"><ele></ele><time>2024-9-14T13:28:32Z</time></trkpt>
<trkpt lat="44.3994550" lon="-73.8509210"><ele></ele><time>2024-9-14T13:28:35Z</time></trkpt>
<trkpt lat="44.3994530" lon="-73.8509530"><ele></ele><time>2024-9-14T13:28:38Z</time></trkpt>
<trkpt lat="44.3994480" lon="-73.8509820"><ele></ele><time>2024-9-14T13:28:41Z</time></trkpt>
<trkpt lat="44.3994490" lon="-73.8510100"><ele></ele><time>2024-9-14T13:28:44Z</time></trkpt>
<trkpt lat="44.3994470" lon="-73.8510400"><ele></ele><time>2024-9-14T13:28:47Z</time></trkpt>
<trkpt lat="44.3994320" lon="-73.8510950"><ele></ele><time>2024-9-14T13:28:50Z</time></trkpt>
<trkpt lat="44.3994270" lon="-73.8511150"><ele></ele><time>2024-9-14T13:28:53Z</time></trkpt>
<trkpt lat="44.3994260" lon="-73.8511090"><ele></ele><time>2024-9-14T13:28:56Z</time></trkpt>
<trkpt lat="44.3994300" lon="-73.8511060"><ele></ele><time>2024-9-14T13:28:59Z</time></trkpt>
<trkpt lat="44.3994260" lon="-73.8511060"><ele></ele><time>2024-9-14T13:29:2Z</time></trkpt>
<trkpt lat="44.3994130" lon="-73.8511130"><ele></ele><time>2024-9-14T13:29:5Z</time></trkpt>
<trkpt lat="44.3994130" lon="-73.8511350"><ele></ele><time>2024-9-14T13:29:8Z</time></trkpt>
<trkpt lat="44.3993680" lon="-73.8512770"><ele></ele><time>2024-9-14T13:29:11Z</time></trkpt>
<trkpt lat="44.3993580" lon="-73.8513400"><ele></ele><time>2024-9-14T13:29:14Z</time></trkpt>
<trkpt lat="44.3993480" lon="-73.8514360"><ele></ele><time>2024-9-14T13:29:17Z</time></trkpt>
<trkpt lat="44.3993460" lon="-73.8514680"><ele></ele><time>2024-9-14T13:29:20Z</time></trkpt>
<trkpt lat="44.3993430" lon="-73.8515000"><ele></ele><time>2024-9-14T13:29:23Z</time></trkpt>
<trkpt lat="44.3993390" lon="-73.8515280"><ele></ele><time>2024-9-14T13:29:26Z</time></trkpt>
<trkpt lat="44.3993350" lon="-73.8515590"><ele></ele><time>2024-9-14T13:29:29Z</time></trkpt>
<trkpt lat="44.3993260" lon="-73.8517330"><ele></ele><time>2024-9-14T13:29:32Z</time></trkpt>
<trkpt lat="44.3993240" lon="-73.8517640"><ele></ele><time>2024-9-14T13:29:35Z</time></trkpt>
<trkpt lat="44.3993250" lon="-73.8517930"><ele></ele><time>2024-9-14T13:29:38Z</time></trkpt>
<trkpt lat="44.3993250" lon="-73.8518210"><ele></ele><time>2024-9-14T13:29:41Z</time></trkpt>
<trkpt lat="44.3993220" lon="-73.8518500"><ele></ele><time>2024-9-14T13:29:44Z</time></trkpt>
<trkpt lat="44.3993170" lon="-73.8520310"><ele></ele><time>2024-9-14T13:29:47Z</time></trkpt>
<trkpt lat="44.3993140" lon="-73.8520580"><ele></ele><time>2024-9-14T13:29:50Z</time></trkpt>
<trkpt lat="44.3993130" lon="-73.8520880"><ele></ele><time>2024-9-14T13:29:53Z</time></trkpt>
<trkpt lat="44.3993140" lon="-73.8521180"><ele></ele><time>2024-9-14T13:29:56Z</time></trkpt>
<trkpt lat="44.3993140" lon="-73.8521500"><ele></ele><time>2024-9-14T13:29:59Z</time></trkpt>
<trkpt lat="44.3993200" lon="-73.8522650"><ele></ele><time>2024-9-14T13:30:2Z</time></trkpt>
<trkpt lat="44.3993240" lon="-73.8523920"><ele></ele><time>2024-9-14T13:30:5Z</time></trkpt>
<trkpt lat="44.3993240" lon="-73.8524250"><ele></ele><time>2024-9-14T13:30:8Z</time></trkpt>
<trkpt lat="44.3993270" lon="-73.8524570"><ele></ele><time>2024-9-14T13:30:11Z</time></trkpt>
<trkpt lat="44.3993290" lon="-73.8524860"><ele></ele><time>2024-9-14T13:30:14Z</time></trkpt>
<trkpt lat="44.3993540" lon="-73.8527170"><ele></ele><time>2024-9-14T13:30:17Z</time></trkpt>
<trkpt lat="44.3993550" lon="-73.8527460"><ele></ele><time>2024-9-14T13:30:20Z</time></trkpt>
<trkpt lat="44.3993580" lon="-73.8527730"><ele></ele><time>2024-9-14T13:30:23Z</time></trkpt>
<trkpt lat="44.3993590" lon="-73.8528060"><ele></ele><time>2024-9-14T13:30:26Z</time></trkpt>
<trkpt lat="44.3993660" lon="-73.8528270"><ele></ele><time>2024-9-14T13:30:29Z</time></trkpt>
<trkpt lat="44.3993770" lon="-73.8528840"><ele></ele><time>2024-9-14T13:30:32Z</time></trkpt>
<trkpt lat="44.3993990" lon="-73.8530260"><ele></ele><time>2024-9-14T13:30:35Z</time></trkpt>
<trkpt lat="44.3994040" lon="-73.8530570"><ele></ele><time>2024-9-14T13:30:38Z</time></trkpt>
<trkpt lat="44.3994070" lon="-73.8530870"><ele></ele><time>2024-9-14T13:30:41Z</time></trkpt>
<trkpt lat="44.3994120" lon="-73.8531160"><ele></ele><time>2024-9-14T13:30:44Z</time></trkpt>
<trkpt lat="44.3994170" lon="-73.8531480"><ele></ele><time>2024-9-14T13:30:47Z</time></trkpt>
<trkpt lat="44.3994590" lon="-73.8533190"><ele></ele><time>2024-9-14T13:30:50Z</time></trkpt>
<trkpt lat="44.3994660" lon="-73.8533470"><ele></ele><time>2024-9-14T13:30:53Z</time></trkpt>
<trkpt lat="44.3994730" lon="-73.8533730"><ele></ele><time>2024-9-14T13:30:56Z</time></trkpt>
<trkpt lat="44.3994770" lon="-73.8534010"><ele></ele><time>2024-9-14T13:30:59Z</time></trkpt>
<trkpt lat="44.3994830" lon="-73.8534290"><ele></ele><time>2024-9-14T13:31:2Z</time></trkpt>
<trkpt lat="44.3994870" lon="-73.8534580"><ele></ele><time>2024-9-14T13:31:5Z</time></trkpt>
<trkpt lat="44.3995060" lon="-73.8535400"><ele></ele><time>2024-9-14T13:31:8Z</time></trkpt>
<trkpt lat="44.3995390" lon="-73.8536690"><ele></ele><time>2024-9-14T13:31:11Z</time></trkpt>
<trkpt lat="44.3995440" lon="-73.8537010"><ele></ele><time>2024-9-14T13:31:14Z</time></trkpt>
<trkpt lat="44.3995480" lon="-73.8537320"><ele></ele><time>2024-9-14T13:31:17Z</time></trkpt>
<trkpt lat="44.3995540" lon="-73.8537630"><ele></ele><time>2024-9-14T13:31:20Z</time></trkpt>
<trkpt lat="44.3995600" lon="-73.8537950"><ele></ele><time>2024-9-14T13:31:23Z</time></trkpt>
<trkpt lat="44.3995660" lon="-73.8538230"><ele></ele><time>2024-9-14T13:31:26Z</time></trkpt>
<trkpt lat="44.3995960" lon="-73.8539610"><ele></ele><time>2024-9-14T13:31:29Z</time></trkpt>
<trkpt lat="44.3996010" lon="-73.8539880"><ele></ele><time>2024-9-14T13:31:32Z</time></trkpt>
<trkpt lat="44.3996050" lon="-73.8540160"><ele></ele><time>2024-9-14T13:31:35Z</time></trkpt>
<trkpt lat="44.3996110" lon="-73.8540430"><ele></ele><time>2024-9-14T13:31:38Z</time></trkpt>
<trkpt lat="44.3996170" lon="-73.8540700"><ele></ele><time>2024-9-14T13:31:41Z</time></trkpt>
<trkpt lat="44.3996560" lon="-73.8542440"><ele></ele><time>2024-9-14T13:31:44Z</time></trkpt>
<trkpt lat="44.3996630" lon="-73.8542750"><ele></ele><time>2024-9-14T13:31:47Z</time></trkpt>
<trkpt lat="44.3996690" lon="-73.8543050"><ele></ele><time>2024-9-14T13:31:50Z</time></trkpt>
<trkpt lat="44.3996760" lon="-73.8543350"><ele></ele><time>2024-9-14T13:31:53Z</time></trkpt>
<trkpt lat="44.3996780" lon="-73.8543630"><ele></ele><time>2024-9-14T13:31:56Z</time></trkpt>
<trkpt lat="44.3996940" lon="-73.8544690"><ele></ele><time>2024-9-14T13:31:59Z</time></trkpt>
<trkpt lat="44.3997120" lon="-73.8545220"><ele></ele><time>2024-9-14T13:32:2Z</time></trkpt>
<trkpt lat="44.3997200" lon="-73.8545490"><ele></ele><time>2024-9-14T13:32:5Z</time></trkpt>
<trkpt lat="44.3997260" lon="-73.8545760"><ele></ele><time>2024-9-14T13:32:8Z</time></trkpt>
<trkpt lat="44.3997300" lon="-73.8546030"><ele></ele><time>2024-9-14T13:32:11Z</time></trkpt>
<trkpt lat="44.3997450" lon="-73.8546580"><ele></ele><time>2024-9-14T13:32:14Z</time></trkpt>
<trkpt lat="44.3997690" lon="-73.8548460"><ele></ele><time>2024-9-14T13:32:17Z</time></trkpt>
<trkpt lat="44.3997720" lon="-73.8548730"><ele></ele><time>2024-9-14T13:32:20Z</time></trkpt>
<trkpt lat="44.3997790" lon="-73.8549050"><ele></ele><time>2024-9-14T13:32:23Z</time></trkpt>
<trkpt lat="44.3997830" lon="-73.8549320"><ele></ele><time>2024-9-14T13:32:26Z</time></trkpt>
<trkpt lat="44.3997860" lon="-73.8549630"><ele></ele><time>2024-9-14T13:32:29Z</time></trkpt>
<trkpt lat="44.3998000" lon="-73.8550490"><ele></ele><time>2024-9-14T13:32:32Z</time></trkpt>
<trkpt lat="44.3998060" lon="-73.8551360"><ele></ele><time>2024-9-14T13:32:35Z</time></trkpt>
<trkpt lat="44.3998090" lon="-73.8551640"><ele></ele><time>2024-9-14T13:32:38Z</time></trkpt>
<trkpt lat="44.3998140" lon="-73.8551950"><ele></ele><time>2024-9-14T13:32:41Z</time></trkpt>
<trkpt lat="44.3998180" lon="-73.8552230"><ele></ele><time>2024-9-14T13:32:44Z</time></trkpt>
<trkpt lat="44.3998190" lon="-73.8552510"><ele></ele><time>2024-9-14T13:32:47Z</time></trkpt>
<trkpt lat="44.3998210" lon="-73.8552810"><ele></ele><time>2024-9-14T13:32:50Z</time></trkpt>
<trkpt lat="44.3998290" lon="-73.8554220"><ele></ele><time>2024-9-14T13:32:53Z</time></trkpt>
<trkpt lat="44.3998280" lon="-73.8554510"><ele></ele><time>2024-9-14T13:32:56Z</time></trkpt>
<trkpt lat="44.3998310" lon="-73.8554810"><ele></ele><time>2024-9-14T13:32:59Z</time></trkpt>
<trkpt lat="44.3998330" lon="-73.8555100"><ele></ele><time>2024-9-14T13:33:2Z</time></trkpt>
<trkpt lat="44.3998360" lon="-73.8555400"><ele></ele><time>2024-9-14T13:33:5Z</time></trkpt>
<trkpt lat="44.3998550" lon="-73.8557150"><ele></ele><time>2024-9-14T13:33:8Z</time></trkpt>
<trkpt lat="44.3998550" lon="-73.8557460"><ele></ele><time>2024-9-14T13:33:11Z</time></trkpt>
<trkpt lat="44.3998580" lon="-73.8557760"><ele></ele><time>2024-9-14T13:33:14Z</time></trkpt>
<trkpt lat="44.3998590" lon="-73.8557980"><ele></ele><time>2024-9-14T13:33:17Z</time></trkpt>
<trkpt lat="44.3998570" lon="-73.8558240"><ele></ele><time>2024-9-14T13:33:20Z</time></trkpt>
<trkpt lat="44.3998590" lon="-73.8558490"><ele></ele><time>2024-9-14T13:33:23Z</time></trkpt>
<trkpt lat="44.3998640" lon="-73.8559040"><ele></ele><time>2024-9-14T13:33:26Z</time></trkpt>
<trkpt lat="44.3998700" lon="-73.8559870"><ele></ele><time>2024-9-14T13:33:29Z</time></trkpt>
<trkpt lat="44.3998730" lon="-73.8560150"><ele></ele><time>2024-9-14T13:33:32Z</time></trkpt>
<trkpt lat="44.3998740" lon="-73.8560450"><ele></ele><time>2024-9-14T13:33:35Z</time></trkpt>
<trkpt lat="44.3998740" lon="-73.8560710"><ele></ele><time>2024-9-14T13:33:38Z</time></trkpt>
<trkpt lat="44.3998730" lon="-73.8561000"><ele></ele><time>2024-9-14T13:33:41Z</time></trkpt>
<trkpt lat="44.3998760" lon="-73.8561500"><ele></ele><time>2024-9-14T13:33:44Z</time></trkpt>
<trkpt lat="44.3998730" lon="-73.8563210"><ele></ele><time>2024-9-14T13:33:47Z</time></trkpt>
<trkpt lat="44.3998710" lon="-73.8563550"><ele></ele><time>2024-9-14T13:33:50Z</time></trkpt>
<trkpt lat="44.3998710" lon="-73.8563860"><ele></ele><time>2024-9-14T13:33:53Z</time></trkpt>
<trkpt lat="44.3998720" lon="-73.8564180"><ele></ele><time>2024-9-14T13:33:56Z</time></trkpt>
<trkpt lat="44.3998710" lon="-73.8564450"><ele></ele><time>2024-9-14T13:33:59Z</time></trkpt>
<trkpt lat="44.3998750" lon="-73.8566460"><ele></ele><time>2024-9-14T13:34:2Z</time></trkpt>
<trkpt lat="44.3998740" lon="-73.8566680"><ele></ele><time>2024-9-14T13:34:5Z</time></trkpt>
<trkpt lat="44.3998770" lon="-73.8566920"><ele></ele><time>2024-9-14T13:34:8Z</time></trkpt>
<trkpt lat="44.3998760" lon="-73.8567150"><ele></ele><time>2024-9-14T13:34:11Z</time></trkpt>
<trkpt lat="44.3998750" lon="-73.8567380"><ele></ele><time>2024-9-14T13:34:14Z</time></trkpt>
<trkpt lat="44.3998740" lon="-73.8568470"><ele></ele><time>2024-9-14T13:34:17Z</time></trkpt>
<trkpt lat="44.3998730" lon="-73.8569310"><ele></ele><time>2024-9-14T13:34:20Z</time></trkpt>
<trkpt lat="44.3998750" lon="-73.8569580"><ele></ele><time>2024-9-14T13:34:23Z</time></trkpt>
<trkpt lat="44.3998720" lon="-73.8569880"><ele></ele><time>2024-9-14T13:34:26Z</time></trkpt>
<trkpt lat="44.3998700" lon="-73.8570140"><ele></ele><time>2024-9-14T13:34:29Z</time></trkpt>
<trkpt lat="44.3998640" lon="-73.8570440"><ele></ele><time>2024-9-14T13:34:32Z</time></trkpt>
<trkpt lat="44.3998620" lon="-73.8570690"><ele></ele><time>2024-9-14T13:34:35Z</time></trkpt>
<trkpt lat="44.3998610" lon="-73.8572080"><ele></ele><time>2024-9-14T13:34:38Z</time></trkpt>
<trkpt lat="44.3998600" lon="-73.8572370"><ele></ele><time>2024-9-14T13:34:41Z</time></trkpt>
<trkpt lat="44.3998530" lon="-73.8572620"><ele></ele><time>2024-9-14T13:34:44Z</time></trkpt>
<trkpt lat="44.3998520" lon="-73.8572880"><ele></ele><time>2024-9-14T13:34:47Z</time></trkpt>
<trkpt lat="44.3998500" lon="-73.8573140"><ele></ele><time>2024-9-14T13:34:50Z</time></trkpt>
<trkpt lat="44.3998380" lon="-73.8574490"><ele></ele><time>2024-9-14T13:34:53Z</time></trkpt>
<trkpt lat="44.3998360" lon="-73.8574780"><ele></ele><time>2024-9-14T13:34:56Z</time></trkpt>
<trkpt lat="44.3998330" lon="-73.8575010"><ele></ele><time>2024-9-14T13:34:59Z</time></trkpt>
<trkpt lat="44.3998290" lon="-73.8575290"><ele></ele><time>2024-9-14T13:35:2Z</time></trkpt>
<trkpt lat="44.3998330" lon="-73.8575570"><ele></ele><time>2024-9-14T13:35:5Z</time></trkpt>
<trkpt lat="44.3998370" lon="-73.8576450"><ele></ele><time>2024-9-14T13:35:8Z</time></trkpt>
<trkpt lat="44.3998310" lon="-73.8577650"><ele></ele><time>2024-9-14T13:35:11Z</time></trkpt>
<trkpt lat="44.3998320" lon="-73.8577940"><ele></ele><time>2024-9-14T13:35:14Z</time></trkpt>
<trkpt lat="44.3998340" lon="-73.8578250"><ele></ele><time>2024-9-14T13:35:17Z</time></trkpt>
<trkpt lat="44.3998350" lon="-73.8578530"><ele></ele><time>2024-9-14T13:35:20Z</time></trkpt>
<trkpt lat="44.3998370" lon="-73.8578810"><ele></ele><time>2024-9-14T13:35:23Z</time></trkpt>
<trkpt lat="44.3998380" lon="-73.8580460"><ele></ele><time>2024-9-14T13:35:26Z</time></trkpt>
<trkpt lat="44.3998370" lon="-73.8580740"><ele></ele><time>2024-9-14T13:35:29Z</time></trkpt>
<trkpt lat="44.3998350" lon="-73.8581010"><ele></ele><time>2024-9-14T13:35:32Z</time></trkpt>
<trkpt lat="44.3998360" lon="-73.8581280"><ele></ele><time>2024-9-14T13:35:35Z</time></trkpt>
<trkpt lat="44.3998390" lon="-73.8581540"><ele></ele><time>2024-9-14T13:35:38Z</time></trkpt>
<trkpt lat="44.3998440" lon="-73.8582900"><ele></ele><time>2024-9-14T13:35:41Z</time></trkpt>
<trkpt lat="44.3998440" lon="-73.8583410"><ele></ele><time>2024-9-14T13:35:44Z</time></trkpt>
<trkpt lat="44.3998410" lon="-73.8583690"><ele></ele><time>2024-9-14T13:35:47Z</time></trkpt>
<trkpt lat="44.3998400" lon="-73.8583960"><ele></ele><time>2024-9-14T13:35:50Z</time></trkpt>
<trkpt lat="44.3998390" lon="-73.8584240"><ele></ele><time>2024-9-14T13:35:53Z</time></trkpt>
<trkpt lat="44.3998430" lon="-73.8584510"><ele></ele><time>2024-9-14T13:35:56Z</time></trkpt>
<trkpt lat="44.3998440" lon="-73.8585340"><ele></ele><time>2024-9-14T13:35:59Z</time></trkpt>
<trkpt lat="44.3998470" lon="-73.8586200"><ele></ele><time>2024-9-14T13:36:2Z</time></trkpt>
<trkpt lat="44.3998450" lon="-73.8586490"><ele></ele><time>2024-9-14T13:36:5Z</time></trkpt>
<trkpt lat="44.3998430" lon="-73.8586780"><ele></ele><time>2024-9-14T13:36:8Z</time></trkpt>
<trkpt lat="44.3998420" lon="-73.8587080"><ele></ele><time>2024-9-14T13:36:11Z</time></trkpt>
<trkpt lat="44.3998410" lon="-73.8587700"><ele></ele><time>2024-9-14T13:36:14Z</time></trkpt>
<trkpt lat="44.3998480" lon="-73.8589210"><ele></ele><time>2024-9-14T13:36:17Z</time></trkpt>
<trkpt lat="44.3998490" lon="-73.8589490"><ele></ele><time>2024-9-14T13:36:20Z</time></trkpt>
<trkpt lat="44.3998520" lon="-73.8589780"><ele></ele><time>2024-9-14T13:36:23Z</time></trkpt>
<trkpt lat="44.3998520" lon="-73.8590060"><ele></ele><time>2024-9-14T13:36:26Z</time></trkpt>
<trkpt lat="44.3998490" lon="-73.8590320"><ele></ele><time>2024-9-14T13:36:29Z</time></trkpt>
<trkpt lat="44.3998430" lon="-73.8592340"><ele></ele><time>2024-9-14T13:36:32Z</time></trkpt>
<trkpt lat="44.3998450" lon="-73.8592620"><ele></ele><time>2024-9-14T13:36:35Z</time></trkpt>
<trkpt lat="44.3998420" lon="-73.8592870"><ele></ele><time>2024-9-14T13:36:38Z</time></trkpt>
<trkpt lat="44.3998460" lon="-73.8593110"><ele></ele><time>2024-9-14T13:36:41Z</time></trkpt>
<trkpt lat="44.3998420" lon="-73.8593380"><ele></ele><time>2024-9-14T13:36:44Z</time></trkpt>
<trkpt lat="44.3998380" lon="-73.8593900"><ele></ele><time>2024-9-14T13:36:47Z</time></trkpt>
<trkpt lat="44.3998430" lon="-73.8595340"><ele></ele><time>2024-9-14T13:36:50Z</time></trkpt>
<trkpt lat="44.3998410" lon="-73.8595640"><ele></ele><time>2024-9-14T13:36:53Z</time></trkpt>
<trkpt lat="44.3998390" lon="-73.8595910"><ele></ele><time>2024-9-14T13:36:56Z</time></trkpt>
<trkpt lat="44.3998380" lon="-73.8596170"><ele></ele><time>2024-9-14T13:36:59Z</time></trkpt>
<trkpt lat="44.3998360" lon="-73.8596420"><ele></ele><time>2024-9-14T13:37:2Z</time></trkpt>
<trkpt lat="44.3998300" lon="-73.8598560"><ele></ele><time>2024-9-14T13:37:5Z</time></trkpt>
<trkpt lat="44.3998290" lon="-73.8598870"><ele></ele><time>2024-9-14T13:37:8Z</time></trkpt>
<trkpt lat="44.3998300" lon="-73.8599200"><ele></ele><time>2024-9-14T13:37:11Z</time></trkpt>
<trkpt lat="44.3998310" lon="-73.8599500"><ele></ele><time>2024-9-14T13:37:14Z</time></trkpt>
<trkpt lat="44.3998320" lon="-73.8599780"><ele></ele><time>2024-9-14T13:37:17Z</time></trkpt>
<trkpt lat="44.3998280" lon="-73.8600920"><ele></ele><time>2024-9-14T13:37:20Z</time></trkpt>
<trkpt lat="44.3998210" lon="-73.8602200"><ele></ele><time>2024-9-14T13:37:23Z</time></trkpt>
<trkpt lat="44.3998220" lon="-73.8602490"><ele></ele><time>2024-9-14T13:37:26Z</time></trkpt>
<trkpt lat="44.3998220" lon="-73.8602730"><ele></ele><time>2024-9-14T13:37:29Z</time></trkpt>
<trkpt lat="44.3998220" lon="-73.8603020"><ele></ele><time>2024-9-14T13:37:32Z</time></trkpt>
<trkpt lat="44.3998240" lon="-73.8603300"><ele></ele><time>2024-9-14T13:37:35Z</time></trkpt>
<trkpt lat="44.3998190" lon="-73.8605300"><ele></ele><time>2024-9-14T13:37:38Z</time></trkpt>
<trkpt lat="44.3998180" lon="-73.8605600"><ele></ele><time>2024-9-14T13:37:41Z</time></trkpt>
<trkpt lat="44.3998180" lon="-73.8605930"><ele></ele><time>2024-9-14T13:37:44Z</time></trkpt>
<trkpt lat="44.3998180" lon="-73.8606210"><ele></ele><time>2024-9-14T13:37:47Z</time></trkpt>
<trkpt lat="44.3998170" lon="-73.8606520"><ele></ele><time>2024-9-14T13:37:50Z</time></trkpt>
<trkpt lat="44.3998150" lon="-73.8606810"><ele></ele><time>2024-9-14T13:37:53Z</time></trkpt>
<trkpt lat="44.3998160" lon="-73.8607680"><ele></ele><time>2024-9-14T13:37:56Z</time></trkpt>
<trkpt lat="44.3998200" lon="-73.8608910"><ele></ele><time>2024-9-14T13:37:59Z</time></trkpt>
<trkpt lat="44.3998220" lon="-73.8609180"><ele></ele><time>2024-9-14T13:38:2Z</time></trkpt>
<trkpt lat="44.3998230" lon="-73.8609520"><ele></ele><time>2024-9-14T13:38:5Z</time></trkpt>
<trkpt lat="44.3998220" lon="-73.8609830"><ele></ele><time>2024-9-14T13:38:8Z</time></trkpt>
<trkpt lat="44.3998240" lon="-73.8610150"><ele></ele><time>2024-9-14T13:38:11Z</time></trkpt>
<trkpt lat="44.3998200" lon="-73.8610470"><ele></ele><time>2024-9-14T13:38:14Z</time></trkpt>
<trkpt lat="44.3998210" lon="-73.8612570"><ele></ele><time>2024-9-14T13:38:17Z</time></trkpt>
<trkpt lat="44.3998210" lon="-73.8612860"><ele></ele><time>2024-9-14T13:38:20Z</time></trkpt>
<trkpt lat="44.3998210" lon="-73.8613150"><ele></ele><time>2024-9-14T13:38:23Z</time></trkpt>
<trkpt lat="44.3998210" lon="-73.8613450"><ele></ele><time>2024-9-14T13:38:26Z</time></trkpt>
<trkpt lat="44.3998210" lon="-73.8613740"><ele></ele><time>2024-9-14T13:38:29Z</time></trkpt>
<trkpt lat="44.3998190" lon="-73.8614920"><ele></ele><time>2024-9-14T13:38:32Z</time></trkpt>
<trkpt lat="44.3998260" lon="-73.8615500"><ele></ele><time>2024-9-14T13:38:35Z</time></trkpt>
<trkpt lat="44.3998280" lon="-73.8615810"><ele></ele><time>2024-9-14T13:38:38Z</time></trkpt>
<trkpt lat="44.3998290" lon="-73.8616110"><ele></ele><time>2024-9-14T13:38:41Z</time></trkpt>
<trkpt lat="44.3998280" lon="-73.8616410"><ele></ele><time>2024-9-14T13:38:44Z</time></trkpt>
<trkpt lat="44.3998250" lon="-73.8618000"><ele></ele><time>2024-9-14T13:38:47Z</time></trkpt>
<trkpt lat="44.3998270" lon="-73.8618250"><ele></ele><time>2024-9-14T13:38:50Z</time></trkpt>
<trkpt lat="44.3998240" lon="-73.8618570"><ele></ele><time>2024-9-14T13:38:53Z</time></trkpt>
<trkpt lat="44.3998240" lon="-73.8618870"><ele></ele><time>2024-9-14T13:38:56Z</time></trkpt>
<trkpt lat="44.3998260" lon="-73.8619140"><ele></ele><time>2024-9-14T13:38:59Z</time></trkpt>
<trkpt lat="44.3998240" lon="-73.8619420"><ele></ele><time>2024-9-14T13:39:2Z</time></trkpt>
<trkpt lat="44.3998230" lon="-73.8619980"><ele></ele><time>2024-9-14T13:39:5Z</time></trkpt>
<trkpt lat="44.3998110" lon="-73.8621420"><ele></ele><time>2024-9-14T13:39:8Z</time></trkpt>
<trkpt lat="44.3998120" lon="-73.8621670"><ele></ele><time>2024-9-14T13:39:11Z</time></trkpt>
<trkpt lat="44.3998120" lon="-73.8621960"><ele></ele><time>2024-9-14T13:39:14Z</time></trkpt>
<trkpt lat="44.3998120" lon="-73.8622260"><ele></ele><time>2024-9-14T13:39:17Z</time></trkpt>
<trkpt lat="44.3998130" lon="-73.8622540"><ele></ele><time>2024-9-14T13:39:20Z</time></trkpt>
<trkpt lat="44.3998130" lon="-73.8622840"><ele></ele><time>2024-9-14T13:39:23Z</time></trkpt>
<trkpt lat="44.3998130" lon="-73.8623980"><ele></ele><time>2024-9-14T13:39:26Z</time></trkpt>
<trkpt lat="44.3998150" lon="-73.8624230"><ele></ele><time>2024-9-14T13:39:29Z</time></trkpt>
<trkpt lat="44.3998140" lon="-73.8624490"><ele></ele><time>2024-9-14T13:39:32Z</time></trkpt>
<trkpt lat="44.3998140" lon="-73.8624760"><ele></ele><time>2024-9-14T13:39:35Z</time></trkpt>
<trkpt lat="44.3998160" lon="-73.8625040"><ele></ele><time>2024-9-14T13:39:38Z</time></trkpt>
<trkpt lat="44.3998160" lon="-73.8626790"><ele></ele><time>2024-9-14T13:39:41Z</time></trkpt>
<trkpt lat="44.3998170" lon="-73.8627090"><ele></ele><time>2024-9-14T13:39:44Z</time></trkpt>
<trkpt lat="44.3998130" lon="-73.8627350"><ele></ele><time>2024-9-14T13:39:47Z</time></trkpt>
<trkpt lat="44.3998130" lon="-73.8627620"><ele></ele><time>2024-9-14T13:39:50Z</time></trkpt>
<trkpt lat="44.3998120" lon="-73.8627910"><ele></ele><time>2024-9-14T13:39:53Z</time></trkpt>
<trkpt lat="44.3998180" lon="-73.8629290"><ele></ele><time>2024-9-14T13:39:56Z</time></trkpt>
<trkpt lat="44.3998180" lon="-73.8629560"><ele></ele><time>2024-9-14T13:39:59Z</time></trkpt>
<trkpt lat="44.3998190" lon="-73.8629790"><ele></ele><time>2024-9-14T13:40:2Z</time></trkpt>
<trkpt lat="44.3998180" lon="-73.8630080"><ele></ele><time>2024-9-14T13:40:5Z</time></trkpt>
<trkpt lat="44.3998170" lon="-73.8630340"><ele></ele><time>2024-9-14T13:40:8Z</time></trkpt>
<trkpt lat="44.3998220" lon="-73.8631460"><ele></ele><time>2024-9-14T13:40:11Z</time></trkpt>
<trkpt lat="44.3998240" lon="-73.8632020"><ele></ele><time>2024-9-14T13:40:14Z</time></trkpt>
<trkpt lat="44.3998240" lon="-73.8632290"><ele></ele><time>2024-9-14T13:40:17Z</time></trkpt>
<trkpt lat="44.3998210" lon="-73.8632610"><ele></ele><time>2024-9-14T13:40:20Z</time></trkpt>
<trkpt lat="44.3998240" lon="-73.8632870"><ele></ele><time>2024-9-14T13:40:23Z</time></trkpt>
<trkpt lat="44.3998240" lon="-73.8633160"><ele></ele><time>2024-9-14T13:40:26Z</time></trkpt>
<trkpt lat="44.3998210" lon="-73.8633420"><ele></ele><time>2024-9-14T13:40:29Z</time></trkpt>
<trkpt lat="44.3998140" lon="-73.8634840"><ele></ele><time>2024-9-14T13:40:32Z</time></trkpt>
<trkpt lat="44.3998170" lon="-73.8635120"><ele></ele><time>2024-9-14T13:40:35Z</time></trkpt>
<trkpt lat="44.3998160" lon="-73.8635420"><ele></ele><time>2024-9-14T13:40:38Z</time></trkpt>
<trkpt lat="44.3998180" lon="-73.8635720"><ele></ele><time>2024-9-14T13:40:41Z</time></trkpt>
<trkpt lat="44.3998180" lon="-73.8635970"><ele></ele><time>2024-9-14T13:40:44Z</time></trkpt>
<trkpt lat="44.3998220" lon="-73.8637620"><ele></ele><time>2024-9-14T13:40:47Z</time></trkpt>
<trkpt lat="44.3998200" lon="-73.8637880"><ele></ele><time>2024-9-14T13:40:50Z</time></trkpt>
<trkpt lat="44.3998210" lon="-73.8638150"><ele></ele><time>2024-9-14T13:40:53Z</time></trkpt>
<trkpt lat="44.3998210" lon="-73.8638420"><ele></ele><time>2024-9-14T13:40:56Z</time></trkpt>
<trkpt lat="44.3998240" lon="-73.8638660"><ele></ele><time>2024-9-14T13:40:59Z</time></trkpt>
<trkpt lat="44.3998330" lon="-73.8640320"><ele></ele><time>2024-9-14T13:41:2Z</time></trkpt>
<trkpt lat="44.3998350" lon="-73.8640590"><ele></ele><time>2024-9-14T13:41:5Z</time></trkpt>
<trkpt lat="44.3998330" lon="-73.8640860"><ele></ele><time>2024-9-14T13:41:8Z</time></trkpt>
<trkpt lat="44.3998360" lon="-73.8641140"><ele></ele><time>2024-9-14T13:41:11Z</time></trkpt>
<trkpt lat="44.3998390" lon="-73.8641430"><ele></ele><time>2024-9-14T13:41:14Z</time></trkpt>
<trkpt lat="44.3998420" lon="-73.8641720"><ele></ele><time>2024-9-14T13:41:17Z</time></trkpt>
<trkpt lat="44.3998510" lon="-73.8642610"><ele></ele><time>2024-9-14T13:41:20Z</time></trkpt>
<trkpt lat="44.3998620" lon="-73.8643740"><ele></ele><time>2024-9-14T13:41:23Z</time></trkpt>
<trkpt lat="44.3998640" lon="-73.8644030"><ele></ele><time>2024-9-14T13:41:26Z</time></trkpt>
<trkpt lat="44.3998690" lon="-73.8644310"><ele></ele><time>2024-9-14T13:41:29Z</time></trkpt>
<trkpt lat="44.3998690" lon="-73.8644570"><ele></ele><time>2024-9-14T13:41:32Z</time></trkpt>
<trkpt lat="44.3998730" lon="-73.8644860"><ele></ele><time>2024-9-14T13:41:35Z</time></trkpt>
<trkpt lat="44.3998950" lon="-73.8646790"><ele></ele><time>2024-9-14T13:41:38Z</time></trkpt>
<trkpt lat="44.3999000" lon="-73.8647070"><ele></ele><time>2024-9-14T13:41:41Z</time></trkpt>
<trkpt lat="44.3998990" lon="-73.8647380"><ele></ele><time>2024-9-14T13:41:44Z</time></trkpt>
<trkpt lat="44.3999050" lon="-73.8647660"><ele></ele><time>2024-9-14T13:41:47Z</time></trkpt>
<trkpt lat="44.3999060" lon="-73.8647900"><ele></ele><time>2024-9-14T13:41:50Z</time></trkpt>
<trkpt lat="44.3999140" lon="-73.8648730"><ele></ele><time>2024-9-14T13:41:53Z</time></trkpt>
<trkpt lat="44.3999270" lon="-73.8649780"><ele></ele><time>2024-9-14T13:41:56Z</time></trkpt>
<trkpt lat="44.3999300" lon="-73.8650060"><ele></ele><time>2024-9-14T13:41:59Z</time></trkpt>
<trkpt lat="44.3999380" lon="-73.8650340"><ele></ele><time>2024-9-14T13:42:2Z</time></trkpt>
<trkpt lat="44.3999390" lon="-73.8650590"><ele></ele><time>2024-9-14T13:42:5Z</time></trkpt>
<trkpt lat="44.3999650" lon="-73.8652610"><ele></ele><time>2024-9-14T13:42:8Z</time></trkpt>
<trkpt lat="44.3999690" lon="-73.8652900"><ele></ele><time>2024-9-14T13:42:11Z</time></trkpt>
<trkpt lat="44.3999740" lon="-73.8653130"><ele></ele><time>2024-9-14T13:42:14Z</time></trkpt>
<trkpt lat="44.3999810" lon="-73.8653360"><ele></ele><time>2024-9-14T13:42:17Z</time></trkpt>
<trkpt lat="44.3999880" lon="-73.8653590"><ele></ele><time>2024-9-14T13:42:20Z</time></trkpt>
<trkpt lat="44.4000140" lon="-73.8655050"><ele></ele><time>2024-9-14T13:42:23Z</time></trkpt>
<trkpt lat="44.4000160" lon="-73.8655350"><ele></ele><time>2024-9-14T13:42:26Z</time></trkpt>
<trkpt lat="44.4000230" lon="-73.8655610"><ele></ele><time>2024-9-14T13:42:29Z</time></trkpt>
<trkpt lat="44.4000280" lon="-73.8655900"><ele></ele><time>2024-9-14T13:42:32Z</time></trkpt>
<trkpt lat="44.4000330" lon="-73.8656180"><ele></ele><time>2024-9-14T13:42:35Z</time></trkpt>
<trkpt lat="44.4000650" lon="-73.8657950"><ele></ele><time>2024-9-14T13:42:38Z</time></trkpt>
<trkpt lat="44.4000730" lon="-73.8658200"><ele></ele><time>2024-9-14T13:42:41Z</time></trkpt>
<trkpt lat="44.4000790" lon="-73.8658480"><ele></ele><time>2024-9-14T13:42:44Z</time></trkpt>
<trkpt lat="44.4000850" lon="-73.8658710"><ele></ele><time>2024-9-14T13:42:47Z</time></trkpt>
<trkpt lat="44.4000920" lon="-73.8658970"><ele></ele><time>2024-9-14T13:42:50Z</time></trkpt>
<trkpt lat="44.4001140" lon="-73.8659730"><ele></ele><time>2024-9-14T13:42:53Z</time></trkpt>
<trkpt lat="44.4001250" lon="-73.8660220"><ele></ele><time>2024-9-14T13:42:56Z</time></trkpt>
<trkpt lat="44.4001470" lon="-73.8660500"><ele></ele><time>2024-9-14T13:42:59Z</time></trkpt>
<trkpt lat="44.4001520" lon="-73.8660670"><ele></ele><time>2024-9-14T13:43:2Z</time></trkpt>
<trkpt lat="44.4001810" lon="-73.8661790"><ele></ele><time>2024-9-14T13:43:5Z</time></trkpt>
<trkpt lat="44.4002330" lon="-73.8663450"><ele></ele><time>2024-9-14T13:43:8Z</time></trkpt>
<trkpt lat="44.4002380" lon="-73.8663740"><ele></ele><time>2024-9-14T13:43:11Z</time></trkpt>
<trkpt lat="44.4002440" lon="-73.8663990"><ele></ele><time>2024-9-14T13:43:14Z</time></trkpt>
<trkpt lat="44.4002510" lon="-73.8664260"><ele></ele><time>2024-9-14T13:43:17Z</time></trkpt>
<trkpt lat="44.4002860" lon="-73.8665370"><ele></ele><time>2024-9-14T13:43:20Z</time></trkpt>
<trkpt lat="44.4002980" lon="-73.8665600"><ele></ele><time>2024-9-14T13:43:23Z</time></trkpt>
<trkpt lat="44.4003070" lon="-73.8665880"><ele></ele><time>2024-9-14T13:43:26Z</time></trkpt>
<trkpt lat="44.4003170" lon="-73.8666150"><ele></ele><time>2024-9-14T13:43:29Z</time></trkpt>
<trkpt lat="44.4003210" lon="-73.8666430"><ele></ele><time>2024-9-14T13:43:32Z</time></trkpt>
<trkpt lat="44.4003290" lon="-73.8666740"><ele></ele><time>2024-9-14T13:43:35Z</time></trkpt>
<trkpt lat="44.4003540" lon="-73.8667540"><ele></ele><time>2024-9-14T13:43:38Z</time></trkpt>
<trkpt lat="44.4003660" lon="-73.8667750"><ele></ele><time>2024-9-14T13:43:41Z</time></trkpt>
<trkpt lat="44.4003730" lon="-73.8667970"><ele></ele><time>2024-9-14T13:43:44Z</time></trkpt>
<trkpt lat="44.4003810" lon="-73.8668180"><ele></ele><time>2024-9-14T13:43:47Z</time></trkpt>
<trkpt lat="44.4003900" lon="-73.8668430"><ele></ele><time>2024-9-14T13:43:50Z</time></trkpt>
<trkpt lat="44.4003990" lon="-73.8668680"><ele></ele><time>2024-9-14T13:43:53Z</time></trkpt>
<trkpt lat="44.4004270" lon="-73.8669380"><ele></ele><time>2024-9-14T13:43:56Z</time></trkpt>
<trkpt lat="44.4004600" lon="-73.8670110"><ele></ele><time>2024-9-14T13:43:59Z</time></trkpt>
<trkpt lat="44.4004700" lon="-73.8670300"><ele></ele><time>2024-9-14T13:44:2Z</time></trkpt>
<trkpt lat="44.4004770" lon="-73.8670610"><ele></ele><time>2024-9-14T13:44:5Z</time></trkpt>
<trkpt lat="44.4004860" lon="-73.8670810"><ele></ele><time>2024-9-14T13:44:8Z</time></trkpt>
<trkpt lat="44.4004940" lon="-73.8671020"><ele></ele><time>2024-9-14T13:44:11Z</time></trkpt>
<trkpt lat="44.4005440" lon="-73.8672190"><ele></ele><time>2024-9-14T13:44:14Z</time></trkpt>
<trkpt lat="44.4005530" lon="-73.8672390"><ele></ele><time>2024-9-14T13:44:17Z</time></trkpt>
<trkpt lat="44.4005670" lon="-73.8672560"><ele></ele><time>2024-9-14T13:44:20Z</time></trkpt>
<trkpt lat="44.4005730" lon="-73.8672810"><ele></ele><time>2024-9-14T13:44:23Z</time></trkpt>
<trkpt lat="44.4005790" lon="-73.8673110"><ele></ele><time>2024-9-14T13:44:26Z</time></trkpt>
<trkpt lat="44.4006380" lon="-73.8674540"><ele></ele><time>2024-9-14T13:44:29Z</time></trkpt>
<trkpt lat="44.4006510" lon="-73.8674770"><ele></ele><time>2024-9-14T13:44:32Z</time></trkpt>
<trkpt lat="44.4006620" lon="-73.8674950"><ele></ele><time>2024-9-14T13:44:35Z</time></trkpt>
<trkpt lat="44.4006720" lon="-73.8675100"><ele></ele><time>2024-9-14T13:44:38Z</time></trkpt>
<trkpt lat="44.4006830" lon="-73.8675320"><ele></ele><time>2024-9-14T13:44:41Z</time></trkpt>
<trkpt lat="44.4007460" lon="-73.8676780"><ele></ele><time>2024-9-14T13:44:44Z</time></trkpt>
<trkpt lat="44.4007570" lon="-73.8676970"><ele></ele><time>2024-9-14T13:44:47Z</time></trkpt>
<trkpt lat="44.4007660" lon="-73.8677180"><ele></ele><time>2024-9-14T13:44:50Z</time></trkpt>
<trkpt lat="44.4007800" lon="-73.8677420"><ele></ele><time>2024-9-14T13:44:53Z</time></trkpt>
<trkpt lat="44.4007940" lon="-73.8677650"><ele></ele><time>2024-9-14T13:44:56Z</time></trkpt>
<trkpt lat="44.4008540" lon="-73.8678910"><ele></ele><time>2024-9-14T13:44:59Z</time></trkpt>
<trkpt lat="44.4008680" lon="-73.8679110"><ele></ele><time>2024-9-14T13:45:2Z</time></trkpt>
<trkpt lat="44.4008770" lon="-73.8679330"><ele></ele><time>2024-9-14T13:45:5Z</time></trkpt>
<trkpt lat="44.4008910" lon="-73.8679550"><ele></ele><time>2024-9-14T13:45:8Z</time></trkpt>
<trkpt lat="44.4009070" lon="-73.8679800"><ele></ele><time>2024-9-14T13:45:11Z</time></trkpt>
<trkpt lat="44.4009220" lon="-73.8680030"><ele></ele><time>2024-9-14T13:45:14Z</time></trkpt>
<trkpt lat="44.4009460" lon="-73.8680470"><ele></ele><time>2024-9-14T13:45:17Z</time></trkpt>
<trkpt lat="44.4010020" lon="-73.8681500"><ele></ele><time>2024-9-14T13:45:20Z</time></trkpt>
<trkpt lat="44.4010160" lon="-73.8681690"><ele></ele><time>2024-9-14T13:45:23Z</time></trkpt>
<trkpt lat="44.4010300" lon="-73.8681910"><ele></ele><time>2024-9-14T13:45:26Z</time></trkpt>
<trkpt lat="44.4010430" lon="-73.8682160"><ele></ele><time>2024-9-14T13:45:29Z</time></trkpt>
<trkpt lat="44.4010550" lon="-73.8682380"><ele></ele><time>2024-9-14T13:45:32Z</time></trkpt>
<trkpt lat="44.4010680" lon="-73.8682620"><ele></ele><time>2024-9-14T13:45:35Z</time></trkpt>
<trkpt lat="44.4011500" lon="-73.8684080"><ele></ele><time>2024-9-14T13:45:38Z</time></trkpt>
<trkpt lat="44.4011630" lon="-73.8684330"><ele></ele><time>2024-9-14T13:45:41Z</time></trkpt>
<trkpt lat="44.4011780" lon="-73.8684570"><ele></ele><time>2024-9-14T13:45:44Z</time></trkpt>
<trkpt lat="44.4011930" lon="-73.8684850"><ele></ele><time>2024-9-14T13:45:47Z</time></trkpt>
<trkpt lat="44.4012050" lon="-73.8685090"><ele></ele><time>2024-9-14T13:45:50Z</time></trkpt>
<trkpt lat="44.4012160" lon="-73.8685330"><ele></ele><time>2024-9-14T13:45:53Z</time></trkpt>
<trkpt lat="44.4012630" lon="-73.8686290"><ele></ele><time>2024-9-14T13:45:56Z</time></trkpt>
<trkpt lat="44.4012910" lon="-73.8686960"><ele></ele><time>2024-9-14T13:45:59Z</time></trkpt>
<trkpt lat="44.4013030" lon="-73.8687180"><ele></ele><time>2024-9-14T13:46:2Z</time></trkpt>
<trkpt lat="44.4013170" lon="-73.8687380"><ele></ele><time>2024-9-14T13:46:5Z</time></trkpt>
<trkpt lat="44.4013280" lon="-73.8687620"><ele></ele><time>2024-9-14T13:46:8Z</time></trkpt>
<trkpt lat="44.4013400" lon="-73.8687870"><ele></ele><time>2024-9-14T13:46:11Z</time></trkpt>
<trkpt lat="44.4013600" lon="-73.8688290"><ele></ele><time>2024-9-14T13:46:14Z</time></trkpt>
<trkpt lat="44.4014100" lon="-73.8689460"><ele></ele><time>2024-9-14T13:46:17Z</time></trkpt>
<trkpt lat="44.4014200" lon="-73.8689690"><ele></ele><time>2024-9-14T13:46:20Z</time></trkpt>
<trkpt lat="44.4014330" lon="-73.8689980"><ele></ele><time>2024-9-14T13:46:23Z</time></trkpt>
<trkpt lat="44.4014450" lon="-73.8690250"><ele></ele><time>2024-9-14T13:46:26Z</time></trkpt>
<trkpt lat="44.4014560" lon="-73.8690500"><ele></ele><time>2024-9-14T13:46:29Z</time></trkpt>
<trkpt lat="44.4015220" lon="-73.8692260"><ele></ele><time>2024-9-14T13:46:32Z</time></trkpt>
<trkpt lat="44.4015300" lon="-73.8692510"><ele></ele><time>2024-9-14T13:46:35Z</time></trkpt>
<trkpt lat="44.4015400" lon="-73.8692770"><ele></ele><time>2024-9-14T13:46:38Z</time></trkpt>
<trkpt lat="44.4015510" lon="-73.8693010"><ele></ele><time>2024-9-14T13:46:41Z</time></trkpt>
<trkpt lat="44.4016090" lon="-73.8694490"><ele></ele><time>2024-9-14T13:46:44Z</time></trkpt>
<trkpt lat="44.4016170" lon="-73.8694740"><ele></ele><time>2024-9-14T13:46:47Z</time></trkpt>
<trkpt lat="44.4016240" lon="-73.8695010"><ele></ele><time>2024-9-14T13:46:50Z</time></trkpt>
<trkpt lat="44.4016320" lon="-73.8695260"><ele></ele><time>2024-9-14T13:46:53Z</time></trkpt>
<trkpt lat="44.4016380" lon="-73.8695510"><ele></ele><time>2024-9-14T13:46:56Z</time></trkpt>
<trkpt lat="44.4016770" lon="-73.8696720"><ele></ele><time>2024-9-14T13:46:59Z</time></trkpt>
<trkpt lat="44.4016970" lon="-73.8697500"><ele></ele><time>2024-9-14T13:47:2Z</time></trkpt>
<trkpt lat="44.4017020" lon="-73.8697760"><ele></ele><time>2024-9-14T13:47:5Z</time></trkpt>
<trkpt lat="44.4017080" lon="-73.8698000"><ele></ele><time>2024-9-14T13:47:8Z</time></trkpt>
<trkpt lat="44.4017150" lon="-73.8698260"><ele></ele><time>2024-9-14T13:47:11Z</time></trkpt>
<trkpt lat="44.4017230" lon="-73.8698510"><ele></ele><time>2024-9-14T13:47:14Z</time></trkpt>
<trkpt lat="44.4017450" lon="-73.8699290"><ele></ele><time>2024-9-14T13:47:17Z</time></trkpt>
<trkpt lat="44.4017600" lon="-73.8700060"><ele></ele><time>2024-9-14T13:47:20Z</time></trkpt>
<trkpt lat="44.4017610" lon="-73.8700340"><ele></ele><time>2024-9-14T13:47:23Z</time></trkpt>
<trkpt lat="44.4017640" lon="-73.8700620"><ele></ele><time>2024-9-14T13:47:26Z</time></trkpt>
<trkpt lat="44.4017690" lon="-73.8700900"><ele></ele><time>2024-9-14T13:47:29Z</time></trkpt>
<trkpt lat="44.4017730" lon="-73.8701180"><ele></ele><time>2024-9-14T13:47:32Z</time></trkpt>
<trkpt lat="44.4018050" lon="-73.8702960"><ele></ele><time>2024-9-14T13:47:35Z</time></trkpt>
<trkpt lat="44.4018080" lon="-73.8703250"><ele></ele><time>2024-9-14T13:47:38Z</time></trkpt>
<trkpt lat="44.4018120" lon="-73.8703530"><ele></ele><time>2024-9-14T13:47:41Z</time></trkpt>
<trkpt lat="44.4018150" lon="-73.8703810"><ele></ele><time>2024-9-14T13:47:44Z</time></trkpt>
<trkpt lat="44.4018200" lon="-73.8704100"><ele></ele><time>2024-9-14T13:47:47Z</time></trkpt>
<trkpt lat="44.4018220" lon="-73.8704390"><ele></ele><time>2024-9-14T13:47:50Z</time></trkpt>
<trkpt lat="44.4018320" lon="-73.8704960"><ele></ele><time>2024-9-14T13:47:53Z</time></trkpt>
<trkpt lat="44.4018490" lon="-73.8706010"><ele></ele><time>2024-9-14T13:47:56Z</time></trkpt>
<trkpt lat="44.4018520" lon="-73.8706300"><ele></ele><time>2024-9-14T13:47:59Z</time></trkpt>
<trkpt lat="44.4018560" lon="-73.8706600"><ele></ele><time>2024-9-14T13:48:2Z</time></trkpt>
<trkpt lat="44.4018610" lon="-73.8706860"><ele></ele><time>2024-9-14T13:48:5Z</time></trkpt>
<trkpt lat="44.4018650" lon="-73.8707140"><ele></ele><time>2024-9-14T13:48:8Z</time></trkpt>
<trkpt lat="44.4019000" lon="-73.8708980"><ele></ele><time>2024-9-14T13:48:11Z</time></trkpt>
<trkpt lat="44.4019040" lon="-73.8709250"><ele></ele><time>2024-9-14T13:48:14Z</time></trkpt>
<trkpt lat="44.4019080" lon="-73.8709540"><ele></ele><time>2024-9-14T13:48:17Z</time></trkpt>
<trkpt lat="44.4019120" lon="-73.8709830"><ele></ele><time>2024-9-14T13:48:20Z</time></trkpt>
<trkpt lat="44.4019160" lon="-73.8710130"><ele></ele><time>2024-9-14T13:48:23Z</time></trkpt>
<trkpt lat="44.4019430" lon="-73.8711950"><ele></ele><time>2024-9-14T13:48:26Z</time></trkpt>
<trkpt lat="44.4019480" lon="-73.8712230"><ele></ele><time>2024-9-14T13:48:29Z</time></trkpt>
<trkpt lat="44.4019520" lon="-73.8712490"><ele></ele><time>2024-9-14T13:48:32Z</time></trkpt>
<trkpt lat="44.4019580" lon="-73.8712770"><ele></ele><time>2024-9-14T13:48:35Z</time></trkpt>
<trkpt lat="44.4019630" lon="-73.8713080"><ele></ele><time>2024-9-14T13:48:38Z</time></trkpt>
<trkpt lat="44.4019690" lon="-73.8713370"><ele></ele><time>2024-9-14T13:48:41Z</time></trkpt>
<trkpt lat="44.4019750" lon="-73.8713680"><ele></ele><time>2024-9-14T13:48:44Z</time></trkpt>
<trkpt lat="44.4020040" lon="-73.8715520"><ele></ele><time>2024-9-14T13:48:47Z</time></trkpt>
<trkpt lat="44.4020060" lon="-73.8715790"><ele></ele><time>2024-9-14T13:48:50Z</time></trkpt>
<trkpt lat="44.4020120" lon="-73.8716100"><ele></ele><time>2024-9-14T13:48:53Z</time></trkpt>
<trkpt lat="44.4020170" lon="-73.8716410"><ele></ele><time>2024-9-14T13:48:56Z</time></trkpt>
<trkpt lat="44.4020210" lon="-73.8716680"><ele></ele><time>2024-9-14T13:48:59Z</time></trkpt>
<trkpt lat="44.4020540" lon="-73.8718580"><ele></ele><time>2024-9-14T13:49:2Z</time></trkpt>
<trkpt lat="44.4020730" lon="-73.8719580"><ele></ele><time>2024-9-14T13:49:5Z</time></trkpt>
<trkpt lat="44.4020780" lon="-73.8719920"><ele></ele><time>2024-9-14T13:49:8Z</time></trkpt>
<trkpt lat="44.4020820" lon="-73.8720270"><ele></ele><time>2024-9-14T13:49:11Z</time></trkpt>
<trkpt lat="44.4020850" lon="-73.8720600"><ele></ele><time>2024-9-14T13:49:14Z</time></trkpt>
<trkpt lat="44.4020930" lon="-73.8721290"><ele></ele><time>2024-9-14T13:49:17Z</time></trkpt>
<trkpt lat="44.4021290" lon="-73.8723230"><ele></ele><time>2024-9-14T13:49:20Z</time></trkpt>
<trkpt lat="44.4021350" lon="-73.8723540"><ele></ele><time>2024-9-14T13:49:23Z</time></trkpt>
<trkpt lat="44.4021400" lon="-73.8723850"><ele></ele><time>2024-9-14T13:49:26Z</time></trkpt>
<trkpt lat="44.4021470" lon="-73.8724170"><ele></ele><time>2024-9-14T13:49:29Z</time></trkpt>
<trkpt lat="44.4021550" lon="-73.8724510"><ele></ele><time>2024-9-14T13:49:32Z</time></trkpt>
<trkpt lat="44.4022010" lon="-73.8727160"><ele></ele><time>2024-9-14T13:49:35Z</time></trkpt>
<trkpt lat="44.4022070" lon="-73.8727480"><ele></ele><time>2024-9-14T13:49:38Z</time></trkpt>
<trkpt lat="44.4022130" lon="-73.8727810"><ele></ele><time>2024-9-14T13:49:41Z</time></trkpt>
<trkpt lat="44.4022190" lon="-73.8728160"><ele></ele><time>2024-9-14T13:49:44Z</time></trkpt>
<trkpt lat="44.4022350" lon="-73.8729560"><ele></ele><time>2024-9-14T13:49:47Z</time></trkpt>
<trkpt lat="44.4022590" lon="-73.8730610"><ele></ele><time>2024-9-14T13:49:50Z</time></trkpt>
<trkpt lat="44.4022670" lon="-73.8730970"><ele></ele><time>2024-9-14T13:49:53Z</time></trkpt>
<trkpt lat="44.4022730" lon="-73.8731330"><ele></ele><time>2024-9-14T13:49:56Z</time></trkpt>
<trkpt lat="44.4022810" lon="-73.8731730"><ele></ele><time>2024-9-14T13:49:59Z</time></trkpt>
<trkpt lat="44.4022870" lon="-73.8732100"><ele></ele><time>2024-9-14T13:50:2Z</time></trkpt>
<trkpt lat="44.4022920" lon="-73.8732500"><ele></ele><time>2024-9-14T13:50:5Z</time></trkpt>
<trkpt lat="44.4023350" lon="-73.8735690"><ele></ele><time>2024-9-14T13:50:8Z</time></trkpt>
<trkpt lat="44.4023400" lon="-73.8736090"><ele></ele><time>2024-9-14T13:50:11Z</time></trkpt>
<trkpt lat="44.4023460" lon="-73.8736540"><ele></ele><time>2024-9-14T13:50:14Z</time></trkpt>
<trkpt lat="44.4023530" lon="-73.8736970"><ele></ele><time>2024-9-14T13:50:17Z</time></trkpt>
<trkpt lat="44.4023600" lon="-73.8737390"><ele></ele><time>2024-9-14T13:50:20Z</time></trkpt>
<trkpt lat="44.4023750" lon="-73.8738760"><ele></ele><time>2024-9-14T13:50:23Z</time></trkpt>
<trkpt lat="44.4024230" lon="-73.8742340"><ele></ele><time>2024-9-14T13:50:26Z</time></trkpt>
<trkpt lat="44.4024280" lon="-73.8742870"><ele></ele><time>2024-9-14T13:50:29Z</time></trkpt>
<trkpt lat="44.4024320" lon="-73.8743370"><ele></ele><time>2024-9-14T13:50:32Z</time></trkpt>
<trkpt lat="44.4024360" lon="-73.8743850"><ele></ele><time>2024-9-14T13:50:35Z</time></trkpt>
<trkpt lat="44.4024420" lon="-73.8744330"><ele></ele><time>2024-9-14T13:50:38Z</time></trkpt>
<trkpt lat="44.4024620" lon="-73.8746290"><ele></ele><time>2024-9-14T13:50:41Z</time></trkpt>
<trkpt lat="44.4024910" lon="-73.8750220"><ele></ele><time>2024-9-14T13:50:44Z</time></trkpt>
<trkpt lat="44.4024900" lon="-73.8750690"><ele></ele><time>2024-9-14T13:50:47Z</time></trkpt>
<trkpt lat="44.4024900" lon="-73.8751130"><ele></ele><time>2024-9-14T13:50:50Z</time></trkpt>
<trkpt lat="44.4024900" lon="-73.8751570"><ele></ele><time>2024-9-14T13:50:53Z</time></trkpt>
<trkpt lat="44.4024910" lon="-73.8752020"><ele></ele><time>2024-9-14T13:50:56Z</time></trkpt>
<trkpt lat="44.4024840" lon="-73.8754120"><ele></ele><time>2024-9-14T13:50:59Z</time></trkpt>
<trkpt lat="44.4024740" lon="-73.8754970"><ele></ele><time>2024-9-14T13:51:2Z</time></trkpt>
<trkpt lat="44.4024700" lon="-73.8755390"><ele></ele><time>2024-9-14T13:51:5Z</time></trkpt>
<trkpt lat="44.4024710" lon="-73.8755820"><ele></ele><time>2024-9-14T13:51:8Z</time></trkpt>
<trkpt lat="44.4024720" lon="-73.8756240"><ele></ele><time>2024-9-14T13:51:11Z</time></trkpt>
<trkpt lat="44.4024700" lon="-73.8756650"><ele></ele><time>2024-9-14T13:51:14Z</time></trkpt>
<trkpt lat="44.4024670" lon="-73.8757070"><ele></ele><time>2024-9-14T13:51:17Z</time></trkpt>
<trkpt lat="44.4024640" lon="-73.8758860"><ele></ele><time>2024-9-14T13:51:20Z</time></trkpt>
<trkpt lat="44.4024630" lon="-73.8759310"><ele></ele><time>2024-9-14T13:51:23Z</time></trkpt>
<trkpt lat="44.4024590" lon="-73.8759740"><ele></ele><time>2024-9-14T13:51:26Z</time></trkpt>
<trkpt lat="44.4024560" lon="-73.8760150"><ele></ele><time>2024-9-14T13:51:29Z</time></trkpt>
<trkpt lat="44.4024510" lon="-73.8760570"><ele></ele><time>2024-9-14T13:51:32Z</time></trkpt>
<trkpt lat="44.4024340" lon="-73.8762700"><ele></ele><time>2024-9-14T13:51:35Z</time></trkpt>
<trkpt lat="44.4024310" lon="-73.8763140"><ele></ele><time>2024-9-14T13:51:38Z</time></trkpt>
<trkpt lat="44.4024270" lon="-73.8763620"><ele></ele><time>2024-9-14T13:51:41Z</time></trkpt>
<trkpt lat="44.4024210" lon="-73.8764050"><ele></ele><time>2024-9-14T13:51:44Z</time></trkpt>
<trkpt lat="44.4024160" lon="-73.8764490"><ele></ele><time>2024-9-14T13:51:47Z</time></trkpt>
<trkpt lat="44.4023840" lon="-73.8766710"><ele></ele><time>2024-9-14T13:51:50Z</time></trkpt>
<trkpt lat="44.4023770" lon="-73.8767170"><ele></ele><time>2024-9-14T13:51:53Z</time></trkpt>
<trkpt lat="44.4023690" lon="-73.8767600"><ele></ele><time>2024-9-14T13:51:56Z</time></trkpt>
<trkpt lat="44.4023600" lon="-73.8768030"><ele></ele><time>2024-9-14T13:51:59Z</time></trkpt>
<trkpt lat="44.4023520" lon="-73.8768420"><ele></ele><time>2024-9-14T13:52:2Z</time></trkpt>
<trkpt lat="44.4023390" lon="-73.8768910"><ele></ele><time>2024-9-14T13:52:5Z</time></trkpt>
<trkpt lat="44.4023190" lon="-73.8769160"><ele></ele><time>2024-9-14T13:52:8Z</time></trkpt>
<trkpt lat="44.4023090" lon="-73.8768740"><ele></ele><time>2024-9-14T13:52:11Z</time></trkpt>
<trkpt lat="44.4023090" lon="-73.8768300"><ele></ele><time>2024-9-14T13:52:14Z</time></trkpt>
<trkpt lat="44.4023170" lon="-73.8768110"><ele></ele><time>2024-9-14T13:52:17Z</time></trkpt>
<trkpt lat="44.4023400" lon="-73.8767330"><ele></ele><time>2024-9-14T13:52:20Z</time></trkpt>
<trkpt lat="44.4023570" lon="-73.8766770"><ele></ele><time>2024-9-14T13:52:23Z</time></trkpt>
<trkpt lat="44.4024110" lon="-73.8764700"><ele></ele><time>2024-9-14T13:52:26Z</time></trkpt>
<trkpt lat="44.4024250" lon="-73.8763700"><ele></ele><time>2024-9-14T13:52:29Z</time></trkpt>
<trkpt lat="44.4024430" lon="-73.8761310"><ele></ele><time>2024-9-14T13:52:32Z</time></trkpt>
<trkpt lat="44.4024740" lon="-73.8755590"><ele></ele><time>2024-9-14T13:52:35Z</time></trkpt>
<trkpt lat="44.4024770" lon="-73.8754120"><ele></ele><time>2024-9-14T13:52:38Z</time></trkpt>
<trkpt lat="44.4024750" lon="-73.8752680"><ele></ele><time>2024-9-14T13:52:41Z</time></trkpt>
<trkpt lat="44.4024720" lon="-73.8751270"><ele></ele><time>2024-9-14T13:52:44Z</time></trkpt>
<trkpt lat="44.4024670" lon="-73.8749920"><ele></ele><time>2024-9-14T13:52:47Z</time></trkpt>
<trkpt lat="44.4024600" lon="-73.8748530"><ele></ele><time>2024-9-14T13:52:50Z</time></trkpt>
<trkpt lat="44.4024500" lon="-73.8747220"><ele></ele><time>2024-9-14T13:52:53Z</time></trkpt>
<trkpt lat="44.4024380" lon="-73.8745910"><ele></ele><time>2024-9-14T13:52:56Z</time></trkpt>
<trkpt lat="44.4024240" lon="-73.8744590"><ele></ele><time>2024-9-14T13:52:59Z</time></trkpt>
<trkpt lat="44.4024080" lon="-73.8743290"><ele></ele><time>2024-9-14T13:53:2Z</time></trkpt>
<trkpt lat="44.4023930" lon="-73.8742000"><ele></ele><time>2024-9-14T13:53:5Z</time></trkpt>
<trkpt lat="44.4023750" lon="-73.8740710"><ele></ele><time>2024-9-14T13:53:8Z</time></trkpt>
<trkpt lat="44.4023560" lon="-73.8739450"><ele></ele><time>2024-9-14T13:53:11Z</time></trkpt>
<trkpt lat="44.4023360" lon="-73.8738140"><ele></ele><time>2024-9-14T13:53:14Z</time></trkpt>
<trkpt lat="44.4023150" lon="-73.8736900"><ele></ele><time>2024-9-14T13:53:17Z</time></trkpt>
<trkpt lat="44.4021870" lon="-73.8729480"><ele></ele><time>2024-9-14T13:53:20Z</time></trkpt>
<trkpt lat="44.4021640" lon="-73.8728210"><ele></ele><time>2024-9-14T13:53:23Z</time></trkpt>
<trkpt lat="44.4021430" lon="-73.8726920"><ele></ele><time>2024-9-14T13:53:26Z</time></trkpt>
<trkpt lat="44.4021230" lon="-73.8725630"><ele></ele><time>2024-9-14T13:53:29Z</time></trkpt>
<trkpt lat="44.4021000" lon="-73.8724290"><ele></ele><time>2024-9-14T13:53:32Z</time></trkpt>
<trkpt lat="44.4020790" lon="-73.8722940"><ele></ele><time>2024-9-14T13:53:35Z</time></trkpt>
<trkpt lat="44.4020580" lon="-73.8721590"><ele></ele><time>2024-9-14T13:53:38Z</time></trkpt>
<trkpt lat="44.4020350" lon="-73.8720160"><ele></ele><time>2024-9-14T13:53:41Z</time></trkpt>
<trkpt lat="44.4020140" lon="-73.8718780"><ele></ele><time>2024-9-14T13:53:44Z</time></trkpt>
<trkpt lat="44.4019910" lon="-73.8717350"><ele></ele><time>2024-9-14T13:53:47Z</time></trkpt>
<trkpt lat="44.4019680" lon="-73.8715910"><ele></ele><time>2024-9-14T13:53:50Z</time></trkpt>
<trkpt lat="44.4019420" lon="-73.8714430"><ele></ele><time>2024-9-14T13:53:53Z</time></trkpt>
<trkpt lat="44.4019160" lon="-73.8712900"><ele></ele><time>2024-9-14T13:53:56Z</time></trkpt>
<trkpt lat="44.4018890" lon="-73.8711380"><ele></ele><time>2024-9-14T13:53:59Z</time></trkpt>
<trkpt lat="44.4018620" lon="-73.8709810"><ele></ele><time>2024-9-14T13:54:2Z</time></trkpt>
<trkpt lat="44.4018350" lon="-73.8708120"><ele></ele><time>2024-9-14T13:54:5Z</time></trkpt>
<trkpt lat="44.4018100" lon="-73.8706460"><ele></ele><time>2024-9-14T13:54:8Z</time></trkpt>
<trkpt lat="44.4017830" lon="-73.8704760"><ele></ele><time>2024-9-14T13:54:11Z</time></trkpt>
<trkpt lat="44.4017530" lon="-73.8703050"><ele></ele><time>2024-9-14T13:54:14Z</time></trkpt>
<trkpt lat="44.4017210" lon="-73.8701240"><ele></ele><time>2024-9-14T13:54:17Z</time></trkpt>
<trkpt lat="44.4016840" lon="-73.8699430"><ele></ele><time>2024-9-14T13:54:20Z</time></trkpt>
<trkpt lat="44.4016410" lon="-73.8697630"><ele></ele><time>2024-9-14T13:54:23Z</time></trkpt>
<trkpt lat="44.4015910" lon="-73.8695820"><ele></ele><time>2024-9-14T13:54:26Z</time></trkpt>
<trkpt lat="44.4015320" lon="-73.8693910"><ele></ele><time>2024-9-14T13:54:29Z</time></trkpt>
<trkpt lat="44.4014670" lon="-73.8692100"><ele></ele><time>2024-9-14T13:54:32Z</time></trkpt>
<trkpt lat="44.4013950" lon="-73.8690310"><ele></ele><time>2024-9-14T13:54:35Z</time></trkpt>
<trkpt lat="44.4013170" lon="-73.8688570"><ele></ele><time>2024-9-14T13:54:38Z</time></trkpt>
<trkpt lat="44.4012320" lon="-73.8686830"><ele></ele><time>2024-9-14T13:54:41Z</time></trkpt>
<trkpt lat="44.4011450" lon="-73.8685160"><ele></ele><time>2024-9-14T13:54:44Z</time></trkpt>
<trkpt lat="44.4010480" lon="-73.8683390"><ele></ele><time>2024-9-14T13:54:47Z</time></trkpt>
<trkpt lat="44.4009560" lon="-73.8681730"><ele></ele><time>2024-9-14T13:54:50Z</time></trkpt>
<trkpt lat="44.4008690" lon="-73.8680090"><ele></ele><time>2024-9-14T13:54:53Z</time></trkpt>
<trkpt lat="44.4007830" lon="-73.8678460"><ele></ele><time>2024-9-14T13:54:56Z</time></trkpt>
<trkpt lat="44.4007040" lon="-73.8676920"><ele></ele><time>2024-9-14T13:54:59Z</time></trkpt>
<trkpt lat="44.4006330" lon="-73.8675440"><ele></ele><time>2024-9-14T13:55:2Z</time></trkpt>
<trkpt lat="44.4005650" lon="-73.8674020"><ele></ele><time>2024-9-14T13:55:5Z</time></trkpt>
<trkpt lat="44.4005010" lon="-73.8672610"><ele></ele><time>2024-9-14T13:55:8Z</time></trkpt>
<trkpt lat="44.4004410" lon="-73.8671220"><ele></ele><time>2024-9-14T13:55:11Z</time></trkpt>
<trkpt lat="44.4003790" lon="-73.8669750"><ele></ele><time>2024-9-14T13:55:14Z</time></trkpt>
<trkpt lat="44.4003240" lon="-73.8668340"><ele></ele><time>2024-9-14T13:55:17Z</time></trkpt>
<trkpt lat="44.4002760" lon="-73.8667000"><ele></ele><time>2024-9-14T13:55:20Z</time></trkpt>
<trkpt lat="44.4002310" lon="-73.8665650"><ele></ele><time>2024-9-14T13:55:23Z</time></trkpt>
<trkpt lat="44.4001870" lon="-73.8664310"><ele></ele><time>2024-9-14T13:55:26Z</time></trkpt>
<trkpt lat="44.4001450" lon="-73.8662930"><ele></ele><time>2024-9-14T13:55:29Z</time></trkpt>
<trkpt lat="44.4001050" lon="-73.8661520"><ele></ele><time>2024-9-14T13:55:32Z</time></trkpt>
<trkpt lat="44.4000640" lon="-73.8659990"><ele></ele><time>2024-9-14T13:55:35Z</time></trkpt>
<trkpt lat="44.4000250" lon="-73.8658500"><ele></ele><time>2024-9-14T13:55:38Z</time></trkpt>
<trkpt lat="44.3999870" lon="-73.8657010"><ele></ele><time>2024-9-14T13:55:41Z</time></trkpt>
<trkpt lat="44.3999530" lon="-73.8655480"><ele></ele><time>2024-9-14T13:55:44Z</time></trkpt>
<trkpt lat="44.3999210" lon="-73.8653930"><ele></ele><time>2024-9-14T13:55:47Z</time></trkpt>
<trkpt lat="44.3998930" lon="-73.8652360"><ele></ele><time>2024-9-14T13:55:50Z</time></trkpt>
<trkpt lat="44.3998650" lon="-73.8650730"><ele></ele><time>2024-9-14T13:55:53Z</time></trkpt>
<trkpt lat="44.3998400" lon="-73.8649120"><ele></ele><time>2024-9-14T13:55:56Z</time></trkpt>
<trkpt lat="44.3998170" lon="-73.8647360"><ele></ele><time>2024-9-14T13:55:59Z</time></trkpt>
<trkpt lat="44.3997990" lon="-73.8645630"><ele></ele><time>2024-9-14T13:56:2Z</time></trkpt>
<trkpt lat="44.3997820" lon="-73.8643860"><ele></ele><time>2024-9-14T13:56:5Z</time></trkpt>
<trkpt lat="44.3997680" lon="-73.8642030"><ele></ele><time>2024-9-14T13:56:8Z</time></trkpt>
<trkpt lat="44.3997580" lon="-73.8640130"><ele></ele><time>2024-9-14T13:56:11Z</time></trkpt>
<trkpt lat="44.3997480" lon="-73.8638180"><ele></ele><time>2024-9-14T13:56:14Z</time></trkpt>
<trkpt lat="44.3997410" lon="-73.8636180"><ele></ele><time>2024-9-14T13:56:17Z</time></trkpt>
<trkpt lat="44.3997400" lon="-73.8634000"><ele></ele><time>2024-9-14T13:56:20Z</time></trkpt>
<trkpt lat="44.3997400" lon="-73.8631880"><ele></ele><time>2024-9-14T13:56:23Z</time></trkpt>
<trkpt lat="44.3997400" lon="-73.8629980"><ele></ele><time>2024-9-14T13:56:26Z</time></trkpt>
<trkpt lat="44.3997380" lon="-73.8628430"><ele></ele><time>2024-9-14T13:56:29Z</time></trkpt>
<trkpt lat="44.3997380" lon="-73.8627140"><ele></ele><time>2024-9-14T13:56:32Z</time></trkpt>
<trkpt lat="44.3997400" lon="-73.8626190"><ele></ele><time>2024-9-14T13:56:35Z</time></trkpt>
<trkpt lat="44.3997430" lon="-73.8625490"><ele></ele><time>2024-9-14T13:56:38Z</time></trkpt>
<trkpt lat="44.3997430" lon="-73.8625060"><ele></ele><time>2024-9-14T13:56:41Z</time></trkpt>
<trkpt lat="44.3997440" lon="-73.8624870"><ele></ele><time>2024-9-14T13:56:44Z</time></trkpt>
<trkpt lat="44.3997420" lon="-73.8624830"><ele></ele><time>2024-9-14T13:56:47Z</time></trkpt>
<trkpt lat="44.3997480" lon="-73.8624920"><ele></ele><time>2024-9-14T13:56:50Z</time></trkpt>
<trkpt lat="44.3997510" lon="-73.8624940"><ele></ele><time>2024-9-14T13:56:53Z</time></trkpt>
<trkpt lat="44.3997510" lon="-73.8624900"><ele></ele><time>2024-9-14T13:56:56Z</time></trkpt>
<trkpt lat="44.3997560" lon="-73.8624580"><ele></ele><time>2024-9-14T13:56:59Z</time></trkpt>
<trkpt lat="44.3997750" lon="-73.8623790"><ele></ele><time>2024-9-14T13:57:2Z</time></trkpt>
<trkpt lat="44.3998220" lon="-73.8623860"><ele></ele><time>2024-9-14T13:57:5Z</time></trkpt>
<trkpt lat="44.3998260" lon="-73.8624890"><ele></ele><time>2024-9-14T13:57:8Z</time></trkpt>
<trkpt lat="44.3998230" lon="-73.8625250"><ele></ele><time>2024-9-14T13:57:11Z</time></trkpt>
<trkpt lat="44.3998250" lon="-73.8626830"><ele></ele><time>2024-9-14T13:57:14Z</time></trkpt>
<trkpt lat="44.3998250" lon="-73.8628390"><ele></ele><time>2024-9-14T13:57:17Z</time></trkpt>
<trkpt lat="44.3998240" lon="-73.8629140"><ele></ele><time>2024-9-14T13:57:20Z</time></trkpt>
<trkpt lat="44.3998210" lon="-73.8629860"><ele></ele><time>2024-9-14T13:57:23Z</time></trkpt>
<trkpt lat="44.3998200" lon="-73.8630220"><ele></ele><time>2024-9-14T13:57:26Z</time></trkpt>
<trkpt lat="44.3998190" lon="-73.8630550"><ele></ele><time>2024-9-14T13:57:29Z</time></trkpt>
<trkpt lat="44.3998210" lon="-73.8630910"><ele></ele><time>2024-9-14T13:57:32Z</time></trkpt>
<trkpt lat="44.3998210" lon="-73.8631300"><ele></ele><time>2024-9-14T13:57:35Z</time></trkpt>
<trkpt lat="44.3998200" lon="-73.8632430"><ele></ele><time>2024-9-14T13:57:38Z</time></trkpt>
<trkpt lat="44.3998210" lon="-73.8632810"><ele></ele><time>2024-9-14T13:57:41Z</time></trkpt>
<trkpt lat="44.3998200" lon="-73.8633180"><ele></ele><time>2024-9-14T13:57:44Z</time></trkpt>
<trkpt lat="44.3998210" lon="-73.8633520"><ele></ele><time>2024-9-14T13:57:47Z</time></trkpt>
<trkpt lat="44.3998200" lon="-73.8633870"><ele></ele><time>2024-9-14T13:57:50Z</time></trkpt>
<trkpt lat="44.3998190" lon="-73.8634230"><ele></ele><time>2024-9-14T13:57:53Z</time></trkpt>
<trkpt lat="44.3998110" lon="-73.8635480"><ele></ele><time>2024-9-14T13:57:56Z</time></trkpt>
<trkpt lat="44.3998120" lon="-73.8635750"><ele></ele><time>2024-9-14T13:57:59Z</time></trkpt>
<trkpt lat="44.3998110" lon="-73.8635990"><ele></ele><time>2024-9-14T13:58:2Z</time></trkpt>
<trkpt lat="44.3998100" lon="-73.8636190"><ele></ele><time>2024-9-14T13:58:5Z</time></trkpt>
<trkpt lat="44.3998080" lon="-73.8636250"><ele></ele><time>2024-9-14T13:58:8Z</time></trkpt>
<trkpt lat="44.3998000" lon="-73.8636370"><ele></ele><time>2024-9-14T13:58:11Z</time></trkpt>
<trkpt lat="44.3998030" lon="-73.8636410"><ele></ele><time>2024-9-14T13:58:14Z</time></trkpt>
<trkpt lat="44.3998100" lon="-73.8636250"><ele></ele><time>2024-9-14T13:58:17Z</time></trkpt>
<trkpt lat="44.3998070" lon="-73.8636290"><ele></ele><time>2024-9-14T13:58:20Z</time></trkpt>
<trkpt lat="44.3998070" lon="-73.8636370"><ele></ele><time>2024-9-14T13:58:23Z</time></trkpt>
<trkpt lat="44.3998060" lon="-73.8636500"><ele></ele><time>2024-9-14T13:58:26Z</time></trkpt>
<trkpt lat="44.3998080" lon="-73.8636680"><ele></ele><time>2024-9-14T13:58:29Z</time></trkpt>
<trkpt lat="44.3998140" lon="-73.8637690"><ele></ele><time>2024-9-14T13:58:32Z</time></trkpt>
<trkpt lat="44.3998230" lon="-73.8639580"><ele></ele><time>2024-9-14T13:58:35Z</time></trkpt>
<trkpt lat="44.3998230" lon="-73.8640310"><ele></ele><time>2024-9-14T13:58:38Z</time></trkpt>
<trkpt lat="44.3998240" lon="-73.8640650"><ele></ele><time>2024-9-14T13:58:41Z</time></trkpt>
<trkpt lat="44.3998250" lon="-73.8641030"><ele></ele><time>2024-9-14T13:58:44Z</time></trkpt>
<trkpt lat="44.3998280" lon="-73.8641350"><ele></ele><time>2024-9-14T13:58:47Z</time></trkpt>
<trkpt lat="44.3998290" lon="-73.8641700"><ele></ele><time>2024-9-14T13:58:50Z</time></trkpt>
<trkpt lat="44.3998320" lon="-73.8642040"><ele></ele><time>2024-9-14T13:58:53Z</time></trkpt>
<trkpt lat="44.3998380" lon="-73.8643050"><ele></ele><time>2024-9-14T13:58:56Z</time></trkpt>
<trkpt lat="44.3998430" lon="-73.8643750"><ele></ele><time>2024-9-14T13:58:59Z</time></trkpt>
<trkpt lat="44.3998460" lon="-73.8644070"><ele></ele><time>2024-9-14T13:59:2Z</time></trkpt>
<trkpt lat="44.3998490" lon="-73.8644390"><ele></ele><time>2024-9-14T13:59:5Z</time></trkpt>
<trkpt lat="44.3998510" lon="-73.8644700"><ele></ele><time>2024-9-14T13:59:8Z</time></trkpt>
<trkpt lat="44.3998500" lon="-73.8645020"><ele></ele><time>2024-9-14T13:59:11Z</time></trkpt>
<trkpt lat="44.3998550" lon="-73.8646010"><ele></ele><time>2024-9-14T13:59:14Z</time></trkpt>
<trkpt lat="44.3998640" lon="-73.8646970"><ele></ele><time>2024-9-14T13:59:17Z</time></trkpt>
<trkpt lat="44.3998710" lon="-73.8647300"><ele></ele><time>2024-9-14T13:59:20Z</time></trkpt>
<trkpt lat="44.3998770" lon="-73.8647620"><ele></ele><time>2024-9-14T13:59:23Z</time></trkpt>
<trkpt lat="44.3998820" lon="-73.8647920"><ele></ele><time>2024-9-14T13:59:26Z</time></trkpt>
<trkpt lat="44.3998830" lon="-73.8648260"><ele></ele><time>2024-9-14T13:59:29Z</time></trkpt>
<trkpt lat="44.3999020" lon="-73.8649920"><ele></ele><time>2024-9-14T13:59:32Z</time></trkpt>
<trkpt lat="44.3999060" lon="-73.8650220"><ele></ele><time>2024-9-14T13:59:35Z</time></trkpt>
<trkpt lat="44.3999100" lon="-73.8650500"><ele></ele><time>2024-9-14T13:59:38Z</time></trkpt>
<trkpt lat="44.3999160" lon="-73.8650760"><ele></ele><time>2024-9-14T13:59:41Z</time></trkpt>
<trkpt lat="44.3999350" lon="-73.8652080"><ele></ele><time>2024-9-14T13:59:44Z</time></trkpt>
<trkpt lat="44.3999400" lon="-73.8652340"><ele></ele><time>2024-9-14T13:59:47Z</time></trkpt>
<trkpt lat="44.3999480" lon="-73.8652560"><ele></ele><time>2024-9-14T13:59:50Z</time></trkpt>
<trkpt lat="44.3999520" lon="-73.8652820"><ele></ele><time>2024-9-14T13:59:53Z</time></trkpt>
<trkpt lat="44.3999560" lon="-73.8653070"><ele></ele><time>2024-9-14T13:59:56Z</time></trkpt>
<trkpt lat="44.3999610" lon="-73.8653350"><ele></ele><time>2024-9-14T13:59:59Z</time></trkpt>
<trkpt lat="44.3999660" lon="-73.8653610"><ele></ele><time>2024-9-14T14:0:2Z</time></trkpt>
<trkpt lat="44.3999980" lon="-73.8655300"><ele></ele><time>2024-9-14T14:0:5Z</time></trkpt>
<trkpt lat="44.4000020" lon="-73.8655590"><ele></ele><time>2024-9-14T14:0:8Z</time></trkpt>
<trkpt lat="44.4000080" lon="-73.8655880"><ele></ele><time>2024-9-14T14:0:11Z</time></trkpt>
<trkpt lat="44.4000170" lon="-73.8656170"><ele></ele><time>2024-9-14T14:0:14Z</time></trkpt>
<trkpt lat="44.4000220" lon="-73.8656480"><ele></ele><time>2024-9-14T14:0:17Z</time></trkpt>
<trkpt lat="44.4000490" lon="-73.8657640"><ele></ele><time>2024-9-14T14:0:20Z</time></trkpt>
<trkpt lat="44.4000580" lon="-73.8657930"><ele></ele><time>2024-9-14T14:0:23Z</time></trkpt>
<trkpt lat="44.4000630" lon="-73.8658230"><ele></ele><time>2024-9-14T14:0:26Z</time></trkpt>
<trkpt lat="44.4000710" lon="-73.8658510"><ele></ele><time>2024-9-14T14:0:29Z</time></trkpt>
<trkpt lat="44.4000800" lon="-73.8658810"><ele></ele><time>2024-9-14T14:0:32Z</time></trkpt>
<trkpt lat="44.4000890" lon="-73.8659120"><ele></ele><time>2024-9-14T14:0:35Z</time></trkpt>
<trkpt lat="44.4001140" lon="-73.8659980"><ele></ele><time>2024-9-14T14:0:38Z</time></trkpt>
<trkpt lat="44.4001400" lon="-73.8660780"><ele></ele><time>2024-9-14T14:0:41Z</time></trkpt>
<trkpt lat="44.4001460" lon="-73.8661030"><ele></ele><time>2024-9-14T14:0:44Z</time></trkpt>
<trkpt lat="44.4001540" lon="-73.8661290"><ele></ele><time>2024-9-14T14:0:47Z</time></trkpt>
<trkpt lat="44.4001630" lon="-73.8661530"><ele></ele><time>2024-9-14T14:0:50Z</time></trkpt>
<trkpt lat="44.4001710" lon="-73.8661790"><ele></ele><time>2024-9-14T14:0:53Z</time></trkpt>
<trkpt lat="44.4002100" lon="-73.8663090"><ele></ele><time>2024-9-14T14:0:56Z</time></trkpt>
<trkpt lat="44.4002140" lon="-73.8663360"><ele></ele><time>2024-9-14T14:0:59Z</time></trkpt>
<trkpt lat="44.4002230" lon="-73.8663620"><ele></ele><time>2024-9-14T14:1:2Z</time></trkpt>
<trkpt lat="44.4002310" lon="-73.8663900"><ele></ele><time>2024-9-14T14:1:5Z</time></trkpt>
<trkpt lat="44.4002380" lon="-73.8664190"><ele></ele><time>2024-9-14T14:1:8Z</time></trkpt>
<trkpt lat="44.4002920" lon="-73.8665770"><ele></ele><time>2024-9-14T14:1:11Z</time></trkpt>
<trkpt lat="44.4003020" lon="-73.8666050"><ele></ele><time>2024-9-14T14:1:14Z</time></trkpt>
<trkpt lat="44.4003100" lon="-73.8666310"><ele></ele><time>2024-9-14T14:1:17Z</time></trkpt>
<trkpt lat="44.4003180" lon="-73.8666560"><ele></ele><time>2024-9-14T14:1:20Z</time></trkpt>
<trkpt lat="44.4003260" lon="-73.8666830"><ele></ele><time>2024-9-14T14:1:23Z</time></trkpt>
<trkpt lat="44.4003730" lon="-73.8668140"><ele></ele><time>2024-9-14T14:1:26Z</time></trkpt>
<trkpt lat="44.4003870" lon="-73.8668460"><ele></ele><time>2024-9-14T14:1:29Z</time></trkpt>
<trkpt lat="44.4003960" lon="-73.8668740"><ele></ele><time>2024-9-14T14:1:32Z</time></trkpt>
<trkpt lat="44.4004060" lon="-73.8669030"><ele></ele><time>2024-9-14T14:1:35Z</time></trkpt>
<trkpt lat="44.4004150" lon="-73.8669310"><ele></ele><time>2024-9-14T14:1:38Z</time></trkpt>
<trkpt lat="44.4004640" lon="-73.8670570"><ele></ele><time>2024-9-14T14:1:41Z</time></trkpt>
<trkpt lat="44.4004730" lon="-73.8670810"><ele></ele><time>2024-9-14T14:1:44Z</time></trkpt>
<trkpt lat="44.4004820" lon="-73.8671050"><ele></ele><time>2024-9-14T14:1:47Z</time></trkpt>
<trkpt lat="44.4004940" lon="-73.8671280"><ele></ele><time>2024-9-14T14:1:50Z</time></trkpt>
<trkpt lat="44.4005490" lon="-73.8672390"><ele></ele><time>2024-9-14T14:1:53Z</time></trkpt>
<trkpt lat="44.4005590" lon="-73.8672630"><ele></ele><time>2024-9-14T14:1:56Z</time></trkpt>
<trkpt lat="44.4005690" lon="-73.8672890"><ele></ele><time>2024-9-14T14:1:59Z</time></trkpt>
<trkpt lat="44.4005780" lon="-73.8673130"><ele></ele><time>2024-9-14T14:2:2Z</time></trkpt>
<trkpt lat="44.4005890" lon="-73.8673330"><ele></ele><time>2024-9-14T14:2:5Z</time></trkpt>
<trkpt lat="44.4006170" lon="-73.8673950"><ele></ele><time>2024-9-14T14:2:8Z</time></trkpt>
<trkpt lat="44.4006570" lon="-73.8674760"><ele></ele><time>2024-9-14T14:2:11Z</time></trkpt>
<trkpt lat="44.4006700" lon="-73.8674970"><ele></ele><time>2024-9-14T14:2:14Z</time></trkpt>
<trkpt lat="44.4006840" lon="-73.8675180"><ele></ele><time>2024-9-14T14:2:17Z</time></trkpt>
<trkpt lat="44.4006970" lon="-73.8675440"><ele></ele><time>2024-9-14T14:2:20Z</time></trkpt>
<trkpt lat="44.4007050" lon="-73.8675650"><ele></ele><time>2024-9-14T14:2:23Z</time></trkpt>
<trkpt lat="44.4007540" lon="-73.8676520"><ele></ele><time>2024-9-14T14:2:26Z</time></trkpt>
<trkpt lat="44.4007660" lon="-73.8676760"><ele></ele><time>2024-9-14T14:2:29Z</time></trkpt>
<trkpt lat="44.4007810" lon="-73.8676990"><ele></ele><time>2024-9-14T14:2:32Z</time></trkpt>
<trkpt lat="44.4007930" lon="-73.8677230"><ele></ele><time>2024-9-14T14:2:35Z</time></trkpt>
<trkpt lat="44.4008050" lon="-73.8677440"><ele></ele><time>2024-9-14T14:2:38Z</time></trkpt>
<trkpt lat="44.4008600" lon="-73.8678650"><ele></ele><time>2024-9-14T14:2:41Z</time></trkpt>
<trkpt lat="44.4008720" lon="-73.8678840"><ele></ele><time>2024-9-14T14:2:44Z</time></trkpt>
<trkpt lat="44.4008830" lon="-73.8679040"><ele></ele><time>2024-9-14T14:2:47Z</time></trkpt>
<trkpt lat="44.4008930" lon="-73.8679280"><ele></ele><time>2024-9-14T14:2:50Z</time></trkpt>
<trkpt lat="44.4009060" lon="-73.8679530"><ele></ele><time>2024-9-14T14:2:53Z</time></trkpt>
<trkpt lat="44.4009180" lon="-73.8679770"><ele></ele><time>2024-9-14T14:2:56Z</time></trkpt>
<trkpt lat="44.4009290" lon="-73.8680000"><ele></ele><time>2024-9-14T14:2:59Z</time></trkpt>
<trkpt lat="44.4009980" lon="-73.8681630"><ele></ele><time>2024-9-14T14:3:2Z</time></trkpt>
<trkpt lat="44.4010070" lon="-73.8681810"><ele></ele><time>2024-9-14T14:3:5Z</time></trkpt>
<trkpt lat="44.4010150" lon="-73.8681960"><ele></ele><time>2024-9-14T14:3:8Z</time></trkpt>
<trkpt lat="44.4010260" lon="-73.8682140"><ele></ele><time>2024-9-14T14:3:11Z</time></trkpt>
<trkpt lat="44.4010670" lon="-73.8682870"><ele></ele><time>2024-9-14T14:3:14Z</time></trkpt>
<trkpt lat="44.4011190" lon="-73.8683850"><ele></ele><time>2024-9-14T14:3:17Z</time></trkpt>
<trkpt lat="44.4011330" lon="-73.8684030"><ele></ele><time>2024-9-14T14:3:20Z</time></trkpt>
<trkpt lat="44.4011450" lon="-73.8684190"><ele></ele><time>2024-9-14T14:3:23Z</time></trkpt>
<trkpt lat="44.4011550" lon="-73.8684330"><ele></ele><time>2024-9-14T14:3:26Z</time></trkpt>
<trkpt lat="44.4011670" lon="-73.8684500"><ele></ele><time>2024-9-14T14:3:29Z</time></trkpt>
<trkpt lat="44.4012340" lon="-73.8685840"><ele></ele><time>2024-9-14T14:3:32Z</time></trkpt>
<trkpt lat="44.4012430" lon="-73.8685990"><ele></ele><time>2024-9-14T14:3:35Z</time></trkpt>
<trkpt lat="44.4012530" lon="-73.8686160"><ele></ele><time>2024-9-14T14:3:38Z</time></trkpt>
<trkpt lat="44.4012620" lon="-73.8686330"><ele></ele><time>2024-9-14T14:3:41Z</time></trkpt>
<trkpt lat="44.4012690" lon="-73.8686530"><ele></ele><time>2024-9-14T14:3:44Z</time></trkpt>
<trkpt lat="44.4013080" lon="-73.8687290"><ele></ele><time>2024-9-14T14:3:47Z</time></trkpt>
<trkpt lat="44.4013650" lon="-73.8688490"><ele></ele><time>2024-9-14T14:3:50Z</time></trkpt>
<trkpt lat="44.4013760" lon="-73.8688730"><ele></ele><time>2024-9-14T14:3:53Z</time></trkpt>
<trkpt lat="44.4013850" lon="-73.8688960"><ele></ele><time>2024-9-14T14:3:56Z</time></trkpt>
<trkpt lat="44.4013930" lon="-73.8689240"><ele></ele><time>2024-9-14T14:3:59Z</time></trkpt>
<trkpt lat="44.4014010" lon="-73.8689530"><ele></ele><time>2024-9-14T14:4:2Z</time></trkpt>
<trkpt lat="44.4014140" lon="-73.8689750"><ele></ele><time>2024-9-14T14:4:5Z</time></trkpt>
<trkpt lat="44.4014530" lon="-73.8691020"><ele></ele><time>2024-9-14T14:4:8Z</time></trkpt>
<trkpt lat="44.4014750" lon="-73.8691510"><ele></ele><time>2024-9-14T14:4:11Z</time></trkpt>
<trkpt lat="44.4014850" lon="-73.8691740"><ele></ele><time>2024-9-14T14:4:14Z</time></trkpt>
<trkpt lat="44.4014930" lon="-73.8692000"><ele></ele><time>2024-9-14T14:4:17Z</time></trkpt>
<trkpt lat="44.4015020" lon="-73.8692220"><ele></ele><time>2024-9-14T14:4:20Z</time></trkpt>
<trkpt lat="44.4015170" lon="-73.8692640"><ele></ele><time>2024-9-14T14:4:23Z</time></trkpt>
<trkpt lat="44.4015680" lon="-73.8694160"><ele></ele><time>2024-9-14T14:4:26Z</time></trkpt>
<trkpt lat="44.4015750" lon="-73.8694370"><ele></ele><time>2024-9-14T14:4:29Z</time></trkpt>
<trkpt lat="44.4015830" lon="-73.8694590"><ele></ele><time>2024-9-14T14:4:32Z</time></trkpt>
<trkpt lat="44.4015900" lon="-73.8694810"><ele></ele><time>2024-9-14T14:4:35Z</time></trkpt>
<trkpt lat="44.4015970" lon="-73.8695030"><ele></ele><time>2024-9-14T14:4:38Z</time></trkpt>
<trkpt lat="44.4016240" lon="-73.8696150"><ele></ele><time>2024-9-14T14:4:41Z</time></trkpt>
<trkpt lat="44.4016440" lon="-73.8696800"><ele></ele><time>2024-9-14T14:4:44Z</time></trkpt>
<trkpt lat="44.4016530" lon="-73.8696990"><ele></ele><time>2024-9-14T14:4:47Z</time></trkpt>
<trkpt lat="44.4016600" lon="-73.8697170"><ele></ele><time>2024-9-14T14:4:50Z</time></trkpt>
<trkpt lat="44.4016680" lon="-73.8697390"><ele></ele><time>2024-9-14T14:4:53Z</time></trkpt>
<trkpt lat="44.4016750" lon="-73.8697620"><ele></ele><time>2024-9-14T14:4:56Z</time></trkpt>
<trkpt lat="44.4016810" lon="-73.8697880"><ele></ele><time>2024-9-14T14:4:59Z</time></trkpt>
<trkpt lat="44.4017120" lon="-73.8699370"><ele></ele><time>2024-9-14T14:5:2Z</time></trkpt>
<trkpt lat="44.4017180" lon="-73.8699610"><ele></ele><time>2024-9-14T14:5:5Z</time></trkpt>
<trkpt lat="44.4017220" lon="-73.8699830"><ele></ele><time>2024-9-14T14:5:8Z</time></trkpt>
<trkpt lat="44.4017250" lon="-73.8700110"><ele></ele><time>2024-9-14T14:5:11Z</time></trkpt>
<trkpt lat="44.4017280" lon="-73.8700350"><ele></ele><time>2024-9-14T14:5:14Z</time></trkpt>
<trkpt lat="44.4017620" lon="-73.8701920"><ele></ele><time>2024-9-14T14:5:17Z</time></trkpt>
<trkpt lat="44.4017700" lon="-73.8702320"><ele></ele><time>2024-9-14T14:5:20Z</time></trkpt>
<trkpt lat="44.4017720" lon="-73.8702540"><ele></ele><time>2024-9-14T14:5:23Z</time></trkpt>
<trkpt lat="44.4017760" lon="-73.8702760"><ele></ele><time>2024-9-14T14:5:26Z</time></trkpt>
<trkpt lat="44.4017780" lon="-73.8702990"><ele></ele><time>2024-9-14T14:5:29Z</time></trkpt>
<trkpt lat="44.4017810" lon="-73.8703250"><ele></ele><time>2024-9-14T14:5:32Z</time></trkpt>
<trkpt lat="44.4017880" lon="-73.8703710"><ele></ele><time>2024-9-14T14:5:35Z</time></trkpt>
<trkpt lat="44.4018280" lon="-73.8705350"><ele></ele><time>2024-9-14T14:5:38Z</time></trkpt>
<trkpt lat="44.4018320" lon="-73.8705570"><ele></ele><time>2024-9-14T14:5:41Z</time></trkpt>
<trkpt lat="44.4018370" lon="-73.8705810"><ele></ele><time>2024-9-14T14:5:44Z</time></trkpt>
<trkpt lat="44.4018410" lon="-73.8706070"><ele></ele><time>2024-9-14T14:5:47Z</time></trkpt>
<trkpt lat="44.4018440" lon="-73.8706340"><ele></ele><time>2024-9-14T14:5:50Z</time></trkpt>
<trkpt lat="44.4018710" lon="-73.8707840"><ele></ele><time>2024-9-14T14:5:53Z</time></trkpt>
<trkpt lat="44.4018810" lon="-73.8708350"><ele></ele><time>2024-9-14T14:5:56Z</time></trkpt>
<trkpt lat="44.4018850" lon="-73.8708580"><ele></ele><time>2024-9-14T14:5:59Z</time></trkpt>
<trkpt lat="44.4018870" lon="-73.8708800"><ele></ele><time>2024-9-14T14:6:2Z</time></trkpt>
<trkpt lat="44.4018920" lon="-73.8709060"><ele></ele><time>2024-9-14T14:6:5Z</time></trkpt>
<trkpt lat="44.4018980" lon="-73.8709310"><ele></ele><time>2024-9-14T14:6:8Z</time></trkpt>
<trkpt lat="44.4019080" lon="-73.8709900"><ele></ele><time>2024-9-14T14:6:11Z</time></trkpt>
<trkpt lat="44.4019340" lon="-73.8711940"><ele></ele><time>2024-9-14T14:6:14Z</time></trkpt>
<trkpt lat="44.4019460" lon="-73.8712560"><ele></ele><time>2024-9-14T14:6:17Z</time></trkpt>
<trkpt lat="44.4019510" lon="-73.8712880"><ele></ele><time>2024-9-14T14:6:20Z</time></trkpt>
<trkpt lat="44.4019580" lon="-73.8713190"><ele></ele><time>2024-9-14T14:6:23Z</time></trkpt>
<trkpt lat="44.4019620" lon="-73.8713500"><ele></ele><time>2024-9-14T14:6:26Z</time></trkpt>
<trkpt lat="44.4019650" lon="-73.8713820"><ele></ele><time>2024-9-14T14:6:29Z</time></trkpt>
<trkpt lat="44.4019690" lon="-73.8714100"><ele></ele><time>2024-9-14T14:6:32Z</time></trkpt>
<trkpt lat="44.4020040" lon="-73.8716440"><ele></ele><time>2024-9-14T14:6:35Z</time></trkpt>
<trkpt lat="44.4020130" lon="-73.8716780"><ele></ele><time>2024-9-14T14:6:38Z</time></trkpt>
<trkpt lat="44.4020160" lon="-73.8717090"><ele></ele><time>2024-9-14T14:6:41Z</time></trkpt>
<trkpt lat="44.4020220" lon="-73.8717380"><ele></ele><time>2024-9-14T14:6:44Z</time></trkpt>
<trkpt lat="44.4020440" lon="-73.8718760"><ele></ele><time>2024-9-14T14:6:47Z</time></trkpt>
<trkpt lat="44.4020510" lon="-73.8719340"><ele></ele><time>2024-9-14T14:6:50Z</time></trkpt>
<trkpt lat="44.4020580" lon="-73.8719630"><ele></ele><time>2024-9-14T14:6:53Z</time></trkpt>
<trkpt lat="44.4020650" lon="-73.8719910"><ele></ele><time>2024-9-14T14:6:56Z</time></trkpt>
<trkpt lat="44.4020690" lon="-73.8720180"><ele></ele><time>2024-9-14T14:6:59Z</time></trkpt>
<trkpt lat="44.4020730" lon="-73.8720480"><ele></ele><time>2024-9-14T14:7:2Z</time></trkpt>
<trkpt lat="44.4020850" lon="-73.8721040"><ele></ele><time>2024-9-14T14:7:5Z</time></trkpt>
<trkpt lat="44.4021220" lon="-73.8723110"><ele></ele><time>2024-9-14T14:7:8Z</time></trkpt>
<trkpt lat="44.4021280" lon="-73.8723440"><ele></ele><time>2024-9-14T14:7:11Z</time></trkpt>
<trkpt lat="44.4021330" lon="-73.8723710"><ele></ele><time>2024-9-14T14:7:14Z</time></trkpt>
<trkpt lat="44.4021400" lon="-73.8723980"><ele></ele><time>2024-9-14T14:7:17Z</time></trkpt>
<trkpt lat="44.4021430" lon="-73.8724310"><ele></ele><time>2024-9-14T14:7:20Z</time></trkpt>
<trkpt lat="44.4021540" lon="-73.8725290"><ele></ele><time>2024-9-14T14:7:23Z</time></trkpt>
<trkpt lat="44.4021830" lon="-73.8727120"><ele></ele><time>2024-9-14T14:7:26Z</time></trkpt>
<trkpt lat="44.4021870" lon="-73.8727420"><ele></ele><time>2024-9-14T14:7:29Z</time></trkpt>
<trkpt lat="44.4021920" lon="-73.8727740"><ele></ele><time>2024-9-14T14:7:32Z</time></trkpt>
<trkpt lat="44.4021980" lon="-73.8728050"><ele></ele><time>2024-9-14T14:7:35Z</time></trkpt>
<trkpt lat="44.4022040" lon="-73.8728370"><ele></ele><time>2024-9-14T14:7:38Z</time></trkpt>
<trkpt lat="44.4022340" lon="-73.8730210"><ele></ele><time>2024-9-14T14:7:41Z</time></trkpt>
<trkpt lat="44.4022540" lon="-73.8731070"><ele></ele><time>2024-9-14T14:7:44Z</time></trkpt>
<trkpt lat="44.4022570" lon="-73.8731340"><ele></ele><time>2024-9-14T14:7:47Z</time></trkpt>
<trkpt lat="44.4022630" lon="-73.8731650"><ele></ele><time>2024-9-14T14:7:50Z</time></trkpt>
<trkpt lat="44.4022680" lon="-73.8731940"><ele></ele><time>2024-9-14T14:7:53Z</time></trkpt>
<trkpt lat="44.4022700" lon="-73.8732270"><ele></ele><time>2024-9-14T14:7:56Z</time></trkpt>
<trkpt lat="44.4023090" lon="-73.8735100"><ele></ele><time>2024-9-14T14:7:59Z</time></trkpt>
<trkpt lat="44.4023290" lon="-73.8736430"><ele></ele><time>2024-9-14T14:8:2Z</time></trkpt>
<trkpt lat="44.4023340" lon="-73.8736780"><ele></ele><time>2024-9-14T14:8:5Z</time></trkpt>
<trkpt lat="44.4023430" lon="-73.8737120"><ele></ele><time>2024-9-14T14:8:8Z</time></trkpt>
<trkpt lat="44.4023520" lon="-73.8737470"><ele></ele><time>2024-9-14T14:8:11Z</time></trkpt>
<trkpt lat="44.4023590" lon="-73.8737810"><ele></ele><time>2024-9-14T14:8:14Z</time></trkpt>
<trkpt lat="44.4023660" lon="-73.8738170"><ele></ele><time>2024-9-14T14:8:17Z</time></trkpt>
<trkpt lat="44.4024090" lon="-73.8741090"><ele></ele><time>2024-9-14T14:8:20Z</time></trkpt>
<trkpt lat="44.4024390" lon="-73.8743490"><ele></ele><time>2024-9-14T14:8:23Z</time></trkpt>
<trkpt lat="44.4024440" lon="-73.8743890"><ele></ele><time>2024-9-14T14:8:26Z</time></trkpt>
<trkpt lat="44.4024460" lon="-73.8744310"><ele></ele><time>2024-9-14T14:8:29Z</time></trkpt>
<trkpt lat="44.4024510" lon="-73.8744710"><ele></ele><time>2024-9-14T14:8:32Z</time></trkpt>
<trkpt lat="44.4024550" lon="-73.8745110"><ele></ele><time>2024-9-14T14:8:35Z</time></trkpt>
<trkpt lat="44.4024590" lon="-73.8745530"><ele></ele><time>2024-9-14T14:8:38Z</time></trkpt>
<trkpt lat="44.4024710" lon="-73.8747210"><ele></ele><time>2024-9-14T14:8:41Z</time></trkpt>
<trkpt lat="44.4024860" lon="-73.8750360"><ele></ele><time>2024-9-14T14:8:44Z</time></trkpt>
<trkpt lat="44.4024920" lon="-73.8750780"><ele></ele><time>2024-9-14T14:8:47Z</time></trkpt>
<trkpt lat="44.4024960" lon="-73.8751160"><ele></ele><time>2024-9-14T14:8:50Z</time></trkpt>
<trkpt lat="44.4024970" lon="-73.8751540"><ele></ele><time>2024-9-14T14:8:53Z</time></trkpt>
<trkpt lat="44.4025000" lon="-73.8751910"><ele></ele><time>2024-9-14T14:8:56Z</time></trkpt>
<trkpt lat="44.4025020" lon="-73.8753250"><ele></ele><time>2024-9-14T14:8:59Z</time></trkpt>
<trkpt lat="44.4025020" lon="-73.8754620"><ele></ele><time>2024-9-14T14:9:2Z</time></trkpt>
<trkpt lat="44.4025020" lon="-73.8754980"><ele></ele><time>2024-9-14T14:9:5Z</time></trkpt>
<trkpt lat="44.4025020" lon="-73.8755300"><ele></ele><time>2024-9-14T14:9:8Z</time></trkpt>
<trkpt lat="44.4025000" lon="-73.8755640"><ele></ele><time>2024-9-14T14:9:11Z</time></trkpt>
<trkpt lat="44.4025010" lon="-73.8755960"><ele></ele><time>2024-9-14T14:9:14Z</time></trkpt>
<trkpt lat="44.4024900" lon="-73.8758090"><ele></ele><time>2024-9-14T14:9:17Z</time></trkpt>
<trkpt lat="44.4024860" lon="-73.8758460"><ele></ele><time>2024-9-14T14:9:20Z</time></trkpt>
<trkpt lat="44.4024840" lon="-73.8758880"><ele></ele><time>2024-9-14T14:9:23Z</time></trkpt>
<trkpt lat="44.4024800" lon="-73.8759280"><ele></ele><time>2024-9-14T14:9:26Z</time></trkpt>
<trkpt lat="44.4024780" lon="-73.8759630"><ele></ele><time>2024-9-14T14:9:29Z</time></trkpt>
<trkpt lat="44.4024510" lon="-73.8760990"><ele></ele><time>2024-9-14T14:9:32Z</time></trkpt>
<trkpt lat="44.4024390" lon="-73.8761670"><ele></ele><time>2024-9-14T14:9:35Z</time></trkpt>
<trkpt lat="44.4024330" lon="-73.8761950"><ele></ele><time>2024-9-14T14:9:38Z</time></trkpt>
<trkpt lat="44.4024240" lon="-73.8762220"><ele></ele><time>2024-9-14T14:9:41Z</time></trkpt>
<trkpt lat="44.4024190" lon="-73.8762560"><ele></ele><time>2024-9-14T14:9:44Z</time></trkpt>
<trkpt lat="44.4024100" lon="-73.8762930"><ele></ele><time>2024-9-14T14:9:47Z</time></trkpt>
<trkpt lat="44.4023970" lon="-73.8763300"><ele></ele><time>2024-9-14T14:9:50Z</time></trkpt>
<trkpt lat="44.4023280" lon="-73.8765900"><ele></ele><time>2024-9-14T14:9:53Z</time></trkpt>
<trkpt lat="44.4023180" lon="-73.8766290"><ele></ele><time>2024-9-14T14:9:56Z</time></trkpt>
<trkpt lat="44.4023100" lon="-73.8766630"><ele></ele><time>2024-9-14T14:9:59Z</time></trkpt>
<trkpt lat="44.4022990" lon="-73.8766930"><ele></ele><time>2024-9-14T14:10:2Z</time></trkpt>
<trkpt lat="44.4022920" lon="-73.8767100"><ele></ele><time>2024-9-14T14:10:5Z</time></trkpt>
<trkpt lat="44.4022970" lon="-73.8767080"><ele></ele><time>2024-9-14T14:10:8Z</time></trkpt>
<trkpt lat="44.4022990" lon="-73.8767100"><ele></ele><time>2024-9-14T14:10:11Z</time></trkpt>
<trkpt lat="44.4023010" lon="-73.8767040"><ele></ele><time>2024-9-14T14:10:14Z</time></trkpt>
<trkpt lat="44.4023240" lon="-73.8766950"><ele></ele><time>2024-9-14T14:10:17Z</time></trkpt>
<trkpt lat="44.4023260" lon="-73.8766920"><ele></ele><time>2024-9-14T14:10:20Z</time></trkpt>
<trkpt lat="44.4023530" lon="-73.8766550"><ele></ele><time>2024-9-14T14:10:23Z</time></trkpt>
<trkpt lat="44.4023850" lon="-73.8765420"><ele></ele><time>2024-9-14T14:10:26Z</time></trkpt>
<trkpt lat="44.4023990" lon="-73.8764930"><ele></ele><time>2024-9-14T14:10:29Z</time></trkpt>
<trkpt lat="44.4024240" lon="-73.8763630"><ele></ele><time>2024-9-14T14:10:32Z</time></trkpt>
<trkpt lat="44.4024400" lon="-73.8762140"><ele></ele><time>2024-9-14T14:10:35Z</time></trkpt>
<trkpt lat="44.4024620" lon="-73.8759450"><ele></ele><time>2024-9-14T14:10:38Z</time></trkpt>
<trkpt lat="44.4024720" lon="-73.8757430"><ele></ele><time>2024-9-14T14:10:41Z</time></trkpt>
<trkpt lat="44.4024800" lon="-73.8756350"><ele></ele><time>2024-9-14T14:10:44Z</time></trkpt>
<trkpt lat="44.4024830" lon="-73.8755220"><ele></ele><time>2024-9-14T14:10:47Z</time></trkpt>
<trkpt lat="44.4024860" lon="-73.8754050"><ele></ele><time>2024-9-14T14:10:50Z</time></trkpt>
<trkpt lat="44.4024840" lon="-73.8752810"><ele></ele><time>2024-9-14T14:10:53Z</time></trkpt>
<trkpt lat="44.4024830" lon="-73.8751580"><ele></ele><time>2024-9-14T14:10:56Z</time></trkpt>
<trkpt lat="44.4024790" lon="-73.8750330"><ele></ele><time>2024-9-14T14:10:59Z</time></trkpt>
<trkpt lat="44.4024720" lon="-73.8749100"><ele></ele><time>2024-9-14T14:11:2Z</time></trkpt>
<trkpt lat="44.4024510" lon="-73.8746660"><ele></ele><time>2024-9-14T14:11:5Z</time></trkpt>
<trkpt lat="44.4024350" lon="-73.8745440"><ele></ele><time>2024-9-14T14:11:8Z</time></trkpt>
<trkpt lat="44.4024200" lon="-73.8744190"><ele></ele><time>2024-9-14T14:11:11Z</time></trkpt>
<trkpt lat="44.4024040" lon="-73.8742910"><ele></ele><time>2024-9-14T14:11:14Z</time></trkpt>
<trkpt lat="44.4023860" lon="-73.8741700"><ele></ele><time>2024-9-14T14:11:17Z</time></trkpt>
<trkpt lat="44.4023340" lon="-73.8738210"><ele></ele><time>2024-9-14T14:11:20Z</time></trkpt>
<trkpt lat="44.4023200" lon="-73.8737080"><ele></ele><time>2024-9-14T14:11:23Z</time></trkpt>
<trkpt lat="44.4023040" lon="-73.8735920"><ele></ele><time>2024-9-14T14:11:26Z</time></trkpt>
<trkpt lat="44.4022850" lon="-73.8734740"><ele></ele><time>2024-9-14T14:11:29Z</time></trkpt>
<trkpt lat="44.4022640" lon="-73.8733590"><ele></ele><time>2024-9-14T14:11:32Z</time></trkpt>
<trkpt lat="44.4022100" lon="-73.8730130"><ele></ele><time>2024-9-14T14:11:35Z</time></trkpt>
<trkpt lat="44.4021910" lon="-73.8728910"><ele></ele><time>2024-9-14T14:11:38Z</time></trkpt>
<trkpt lat="44.4021700" lon="-73.8727710"><ele></ele><time>2024-9-14T14:11:41Z</time></trkpt>
<trkpt lat="44.4021480" lon="-73.8726510"><ele></ele><time>2024-9-14T14:11:44Z</time></trkpt>
<trkpt lat="44.4021280" lon="-73.8725250"><ele></ele><time>2024-9-14T14:11:47Z</time></trkpt>
<trkpt lat="44.4021090" lon="-73.8724030"><ele></ele><time>2024-9-14T14:11:50Z</time></trkpt>
<trkpt lat="44.4020910" lon="-73.8722770"><ele></ele><time>2024-9-14T14:11:53Z</time></trkpt>
<trkpt lat="44.4020700" lon="-73.8721450"><ele></ele><time>2024-9-14T14:11:56Z</time></trkpt>
<trkpt lat="44.4020500" lon="-73.8720140"><ele></ele><time>2024-9-14T14:11:59Z</time></trkpt>
<trkpt lat="44.4020240" lon="-73.8718770"><ele></ele><time>2024-9-14T14:12:2Z</time></trkpt>
<trkpt lat="44.4020010" lon="-73.8717350"><ele></ele><time>2024-9-14T14:12:5Z</time></trkpt>
<trkpt lat="44.4019790" lon="-73.8715880"><ele></ele><time>2024-9-14T14:12:8Z</time></trkpt>
<trkpt lat="44.4019530" lon="-73.8714520"><ele></ele><time>2024-9-14T14:12:11Z</time></trkpt>
<trkpt lat="44.4019320" lon="-73.8713100"><ele></ele><time>2024-9-14T14:12:14Z</time></trkpt>
<trkpt lat="44.4019100" lon="-73.8711620"><ele></ele><time>2024-9-14T14:12:17Z</time></trkpt>
<trkpt lat="44.4018850" lon="-73.8710130"><ele></ele><time>2024-9-14T14:12:20Z</time></trkpt>
<trkpt lat="44.4018620" lon="-73.8708690"><ele></ele><time>2024-9-14T14:12:23Z</time></trkpt>
<trkpt lat="44.4018380" lon="-73.8707240"><ele></ele><time>2024-9-14T14:12:26Z</time></trkpt>
<trkpt lat="44.4018140" lon="-73.8705720"><ele></ele><time>2024-9-14T14:12:29Z</time></trkpt>
<trkpt lat="44.4017900" lon="-73.8704180"><ele></ele><time>2024-9-14T14:12:32Z</time></trkpt>
<trkpt lat="44.4017620" lon="-73.8702650"><ele></ele><time>2024-9-14T14:12:35Z</time></trkpt>
<trkpt lat="44.4017350" lon="-73.8701110"><ele></ele><time>2024-9-14T14:12:38Z</time></trkpt>
<trkpt lat="44.4017070" lon="-73.8699520"><ele></ele><time>2024-9-14T14:12:41Z</time></trkpt>
<trkpt lat="44.4016750" lon="-73.8698000"><ele></ele><time>2024-9-14T14:12:44Z</time></trkpt>
<trkpt lat="44.4016400" lon="-73.8696560"><ele></ele><time>2024-9-14T14:12:47Z</time></trkpt>
<trkpt lat="44.4016000" lon="-73.8695160"><ele></ele><time>2024-9-14T14:12:50Z</time></trkpt>
<trkpt lat="44.4015570" lon="-73.8693680"><ele></ele><time>2024-9-14T14:12:53Z</time></trkpt>
<trkpt lat="44.4015050" lon="-73.8692300"><ele></ele><time>2024-9-14T14:12:56Z</time></trkpt>
<trkpt lat="44.4014510" lon="-73.8690890"><ele></ele><time>2024-9-14T14:12:59Z</time></trkpt>
<trkpt lat="44.4013890" lon="-73.8689570"><ele></ele><time>2024-9-14T14:13:2Z</time></trkpt>
<trkpt lat="44.4013230" lon="-73.8688230"><ele></ele><time>2024-9-14T14:13:5Z</time></trkpt>
<trkpt lat="44.4012590" lon="-73.8686950"><ele></ele><time>2024-9-14T14:13:8Z</time></trkpt>
<trkpt lat="44.4012000" lon="-73.8685780"><ele></ele><time>2024-9-14T14:13:11Z</time></trkpt>
<trkpt lat="44.4011380" lon="-73.8684650"><ele></ele><time>2024-9-14T14:13:14Z</time></trkpt>
<trkpt lat="44.4010730" lon="-73.8683450"><ele></ele><time>2024-9-14T14:13:17Z</time></trkpt>
<trkpt lat="44.4010100" lon="-73.8682300"><ele></ele><time>2024-9-14T14:13:20Z</time></trkpt>
<trkpt lat="44.4009480" lon="-73.8681160"><ele></ele><time>2024-9-14T14:13:23Z</time></trkpt>
<trkpt lat="44.4008880" lon="-73.8680050"><ele></ele><time>2024-9-14T14:13:26Z</time></trkpt>
<trkpt lat="44.4008340" lon="-73.8679010"><ele></ele><time>2024-9-14T14:13:29Z</time></trkpt>
<trkpt lat="44.4007810" lon="-73.8677990"><ele></ele><time>2024-9-14T14:13:32Z</time></trkpt>
<trkpt lat="44.4007290" lon="-73.8676980"><ele></ele><time>2024-9-14T14:13:35Z</time></trkpt>
<trkpt lat="44.4006760" lon="-73.8675920"><ele></ele><time>2024-9-14T14:13:38Z</time></trkpt>
<trkpt lat="44.4006230" lon="-73.8674800"><ele></ele><time>2024-9-14T14:13:41Z</time></trkpt>
<trkpt lat="44.4005740" lon="-73.8673700"><ele></ele><time>2024-9-14T14:13:44Z</time></trkpt>
<trkpt lat="44.4005250" lon="-73.8672600"><ele></ele><time>2024-9-14T14:13:47Z</time></trkpt>
<trkpt lat="44.4004790" lon="-73.8671440"><ele></ele><time>2024-9-14T14:13:50Z</time></trkpt>
<trkpt lat="44.4004300" lon="-73.8670300"><ele></ele><time>2024-9-14T14:13:53Z</time></trkpt>
<trkpt lat="44.4003810" lon="-73.8669120"><ele></ele><time>2024-9-14T14:13:56Z</time></trkpt>
<trkpt lat="44.4003360" lon="-73.8667940"><ele></ele><time>2024-9-14T14:13:59Z</time></trkpt>
<trkpt lat="44.4002910" lon="-73.8666780"><ele></ele><time>2024-9-14T14:14:2Z</time></trkpt>
<trkpt lat="44.4002490" lon="-73.8665690"><ele></ele><time>2024-9-14T14:14:5Z</time></trkpt>
<trkpt lat="44.4002120" lon="-73.8664550"><ele></ele><time>2024-9-14T14:14:8Z</time></trkpt>
<trkpt lat="44.4001740" lon="-73.8663500"><ele></ele><time>2024-9-14T14:14:11Z</time></trkpt>
<trkpt lat="44.4001400" lon="-73.8662450"><ele></ele><time>2024-9-14T14:14:14Z</time></trkpt>
<trkpt lat="44.4001090" lon="-73.8661280"><ele></ele><time>2024-9-14T14:14:17Z</time></trkpt>
<trkpt lat="44.4000760" lon="-73.8660040"><ele></ele><time>2024-9-14T14:14:20Z</time></trkpt>
<trkpt lat="44.4000410" lon="-73.8658700"><ele></ele><time>2024-9-14T14:14:23Z</time></trkpt>
<trkpt lat="44.4000120" lon="-73.8657380"><ele></ele><time>2024-9-14T14:14:26Z</time></trkpt>
<trkpt lat="44.3999800" lon="-73.8656090"><ele></ele><time>2024-9-14T14:14:29Z</time></trkpt>
<trkpt lat="44.3999510" lon="-73.8654820"><ele></ele><time>2024-9-14T14:14:32Z</time></trkpt>
<trkpt lat="44.3999230" lon="-73.8653490"><ele></ele><time>2024-9-14T14:14:35Z</time></trkpt>
<trkpt lat="44.3998980" lon="-73.8652090"><ele></ele><time>2024-9-14T14:14:38Z</time></trkpt>
<trkpt lat="44.3998770" lon="-73.8650680"><ele></ele><time>2024-9-14T14:14:41Z</time></trkpt>
<trkpt lat="44.3998570" lon="-73.8649270"><ele></ele><time>2024-9-14T14:14:44Z</time></trkpt>
<trkpt lat="44.3998330" lon="-73.8647710"><ele></ele><time>2024-9-14T14:14:47Z</time></trkpt>
<trkpt lat="44.3998160" lon="-73.8646150"><ele></ele><time>2024-9-14T14:14:50Z</time></trkpt>
<trkpt lat="44.3998030" lon="-73.8644500"><ele></ele><time>2024-9-14T14:14:53Z</time></trkpt>
<trkpt lat="44.3997940" lon="-73.8642830"><ele></ele><time>2024-9-14T14:14:56Z</time></trkpt>
<trkpt lat="44.3997840" lon="-73.8641200"><ele></ele><time>2024-9-14T14:14:59Z</time></trkpt>
<trkpt lat="44.3997740" lon="-73.8639480"><ele></ele><time>2024-9-14T14:15:2Z</time></trkpt>
<trkpt lat="44.3997670" lon="-73.8637740"><ele></ele><time>2024-9-14T14:15:5Z</time></trkpt>
<trkpt lat="44.3997630" lon="-73.8635990"><ele></ele><time>2024-9-14T14:15:8Z</time></trkpt>
<trkpt lat="44.3997650" lon="-73.8634250"><ele></ele><time>2024-9-14T14:15:11Z</time></trkpt>
<trkpt lat="44.3997640" lon="-73.8632440"><ele></ele><time>2024-9-14T14:15:14Z</time></trkpt>
<trkpt lat="44.3997640" lon="-73.8630590"><ele></ele><time>2024-9-14T14:15:17Z</time></trkpt>
<trkpt lat="44.3997690" lon="-73.8628780"><ele></ele><time>2024-9-14T14:15:20Z</time></trkpt>
<trkpt lat="44.3997740" lon="-73.8626990"><ele></ele><time>2024-9-14T14:15:23Z</time></trkpt>
<trkpt lat="44.3997760" lon="-73.8625180"><ele></ele><time>2024-9-14T14:15:26Z</time></trkpt>
<trkpt lat="44.3997800" lon="-73.8623510"><ele></ele><time>2024-9-14T14:15:29Z</time></trkpt>
<trkpt lat="44.3997800" lon="-73.8621720"><ele></ele><time>2024-9-14T14:15:32Z</time></trkpt>
<trkpt lat="44.3997800" lon="-73.8619910"><ele></ele><time>2024-9-14T14:15:35Z</time></trkpt>
<trkpt lat="44.3997780" lon="-73.8618090"><ele></ele><time>2024-9-14T14:15:38Z</time></trkpt>
<trkpt lat="44.3997770" lon="-73.8616280"><ele></ele><time>2024-9-14T14:15:41Z</time></trkpt>
<trkpt lat="44.3997770" lon="-73.8614420"><ele></ele><time>2024-9-14T14:15:44Z</time></trkpt>
<trkpt lat="44.3997770" lon="-73.8612570"><ele></ele><time>2024-9-14T14:15:47Z</time></trkpt>
<trkpt lat="44.3997770" lon="-73.8610610"><ele></ele><time>2024-9-14T14:15:50Z</time></trkpt>
<trkpt lat="44.3997790" lon="-73.8608800"><ele></ele><time>2024-9-14T14:15:53Z</time></trkpt>
<trkpt lat="44.3997830" lon="-73.8606970"><ele></ele><time>2024-9-14T14:15:56Z</time></trkpt>
<trkpt lat="44.3997820" lon="-73.8605120"><ele></ele><time>2024-9-14T14:15:59Z</time></trkpt>
<trkpt lat="44.3997830" lon="-73.8603320"><ele></ele><time>2024-9-14T14:16:2Z</time></trkpt>
<trkpt lat="44.3997850" lon="-73.8601500"><ele></ele><time>2024-9-14T14:16:5Z</time></trkpt>
<trkpt lat="44.3997900" lon="-73.8599670"><ele></ele><time>2024-9-14T14:16:8Z</time></trkpt>
<trkpt lat="44.3997970" lon="-73.8597800"><ele></ele><time>2024-9-14T14:16:11Z</time></trkpt>
<trkpt lat="44.3997940" lon="-73.8595860"><ele></ele><time>2024-9-14T14:16:14Z</time></trkpt>
<trkpt lat="44.3997920" lon="-73.8594010"><ele></ele><time>2024-9-14T14:16:17Z</time></trkpt>
<trkpt lat="44.3997910" lon="-73.8592190"><ele></ele><time>2024-9-14T14:16:20Z</time></trkpt>
<trkpt lat="44.3997930" lon="-73.8590370"><ele></ele><time>2024-9-14T14:16:23Z</time></trkpt>
<trkpt lat="44.3997990" lon="-73.8588510"><ele></ele><time>2024-9-14T14:16:26Z</time></trkpt>
<trkpt lat="44.3998010" lon="-73.8586600"><ele></ele><time>2024-9-14T14:16:29Z</time></trkpt>
<trkpt lat="44.3998030" lon="-73.8584770"><ele></ele><time>2024-9-14T14:16:32Z</time></trkpt>
<trkpt lat="44.3998020" lon="-73.8582840"><ele></ele><time>2024-9-14T14:16:35Z</time></trkpt>
<trkpt lat="44.3998040" lon="-73.8581070"><ele></ele><time>2024-9-14T14:16:38Z</time></trkpt>
<trkpt lat="44.3998070" lon="-73.8579220"><ele></ele><time>2024-9-14T14:16:41Z</time></trkpt>
<trkpt lat="44.3998090" lon="-73.8577430"><ele></ele><time>2024-9-14T14:16:44Z</time></trkpt>
<trkpt lat="44.3998090" lon="-73.8575600"><ele></ele><time>2024-9-14T14:16:47Z</time></trkpt>
<trkpt lat="44.3998090" lon="-73.8573770"><ele></ele><time>2024-9-14T14:16:50Z</time></trkpt>
<trkpt lat="44.3998110" lon="-73.8571980"><ele></ele><time>2024-9-14T14:16:53Z</time></trkpt>
<trkpt lat="44.3998120" lon="-73.8570130"><ele></ele><time>2024-9-14T14:16:56Z</time></trkpt>
<trkpt lat="44.3998130" lon="-73.8568390"><ele></ele><time>2024-9-14T14:16:59Z</time></trkpt>
<trkpt lat="44.3998160" lon="-73.8566590"><ele></ele><time>2024-9-14T14:17:2Z</time></trkpt>
<trkpt lat="44.3998170" lon="-73.8564810"><ele></ele><time>2024-9-14T14:17:5Z</time></trkpt>
<trkpt lat="44.3998190" lon="-73.8563040"><ele></ele><time>2024-9-14T14:17:8Z</time></trkpt>
<trkpt lat="44.3998190" lon="-73.8561350"><ele></ele><time>2024-9-14T14:17:11Z</time></trkpt>
<trkpt lat="44.3998220" lon="-73.8559620"><ele></ele><time>2024-9-14T14:17:14Z</time></trkpt>
<trkpt lat="44.3998180" lon="-73.8557900"><ele></ele><time>2024-9-14T14:17:17Z</time></trkpt>
<trkpt lat="44.3998170" lon="-73.8556110"><ele></ele><time>2024-9-14T14:17:20Z</time></trkpt>
<trkpt lat="44.3998130" lon="-73.8554410"><ele></ele><time>2024-9-14T14:17:23Z</time></trkpt>
<trkpt lat="44.3997990" lon="-73.8552690"><ele></ele><time>2024-9-14T14:17:26Z</time></trkpt>
<trkpt lat="44.3997850" lon="-73.8550970"><ele></ele><time>2024-9-14T14:17:29Z</time></trkpt>
<trkpt lat="44.3997690" lon="-73.8549320"><ele></ele><time>2024-9-14T14:17:32Z</time></trkpt>
<trkpt lat="44.3997480" lon="-73.8547750"><ele></ele><time>2024-9-14T14:17:35Z</time></trkpt>
<trkpt lat="44.3997230" lon="-73.8546210"><ele></ele><time>2024-9-14T14:17:38Z</time></trkpt>
<trkpt lat="44.3996890" lon="-73.8544580"><ele></ele><time>2024-9-14T14:17:41Z</time></trkpt>
<trkpt lat="44.3996590" lon="-73.8543050"><ele></ele><time>2024-9-14T14:17:44Z</time></trkpt>
<trkpt lat="44.3996200" lon="-73.8541480"><ele></ele><time>2024-9-14T14:17:47Z</time></trkpt>
<trkpt lat="44.3995830" lon="-73.8539990"><ele></ele><time>2024-9-14T14:17:50Z</time></trkpt>
<trkpt lat="44.3995490" lon="-73.8538500"><ele></ele><time>2024-9-14T14:17:53Z</time></trkpt>
<trkpt lat="44.3995150" lon="-73.8537030"><ele></ele><time>2024-9-14T14:17:56Z</time></trkpt>
<trkpt lat="44.3994800" lon="-73.8535520"><ele></ele><time>2024-9-14T14:17:59Z</time></trkpt>
<trkpt lat="44.3994430" lon="-73.8533990"><ele></ele><time>2024-9-14T14:18:2Z</time></trkpt>
<trkpt lat="44.3994090" lon="-73.8532580"><ele></ele><time>2024-9-14T14:18:5Z</time></trkpt>
<trkpt lat="44.3993800" lon="-73.8531170"><ele></ele><time>2024-9-14T14:18:8Z</time></trkpt>
<trkpt lat="44.3993560" lon="-73.8529760"><ele></ele><time>2024-9-14T14:18:11Z</time></trkpt>
<trkpt lat="44.3993310" lon="-73.8528310"><ele></ele><time>2024-9-14T14:18:14Z</time></trkpt>
<trkpt lat="44.3993060" lon="-73.8526820"><ele></ele><time>2024-9-14T14:18:17Z</time></trkpt>
<trkpt lat="44.3992890" lon="-73.8525350"><ele></ele><time>2024-9-14T14:18:20Z</time></trkpt>
<trkpt lat="44.3992760" lon="-73.8523860"><ele></ele><time>2024-9-14T14:18:23Z</time></trkpt>
<trkpt lat="44.3992690" lon="-73.8522290"><ele></ele><time>2024-9-14T14:18:26Z</time></trkpt>
<trkpt lat="44.3992650" lon="-73.8520810"><ele></ele><time>2024-9-14T14:18:29Z</time></trkpt>
<trkpt lat="44.3992650" lon="-73.8519340"><ele></ele><time>2024-9-14T14:18:32Z</time></trkpt>
<trkpt lat="44.3992660" lon="-73.8517890"><ele></ele><time>2024-9-14T14:18:35Z</time></trkpt>
<trkpt lat="44.3992710" lon="-73.8516490"><ele></ele><time>2024-9-14T14:18:38Z</time></trkpt>
<trkpt lat="44.3992810" lon="-73.8515100"><ele></ele><time>2024-9-14T14:18:41Z</time></trkpt>
<trkpt lat="44.3992910" lon="-73.8513740"><ele></ele><time>2024-9-14T14:18:44Z</time></trkpt>
<trkpt lat="44.3993100" lon="-73.8512220"><ele></ele><time>2024-9-14T14:18:47Z</time></trkpt>
<trkpt lat="44.3993290" lon="-73.8510890"><ele></ele><time>2024-9-14T14:18:50Z</time></trkpt>
<trkpt lat="44.3993500" lon="-73.8509590"><ele></ele><time>2024-9-14T14:18:53Z</time></trkpt>
<trkpt lat="44.3993730" lon="-73.8508330"><ele></ele><time>2024-9-14T14:18:56Z</time></trkpt>
<trkpt lat="44.3994020" lon="-73.8507110"><ele></ele><time>2024-9-14T14:18:59Z</time></trkpt>
<trkpt lat="44.3994310" lon="-73.8505900"><ele></ele><time>2024-9-14T14:19:2Z</time></trkpt>
<trkpt lat="44.3994640" lon="-73.8504720"><ele></ele><time>2024-9-14T14:19:5Z</time></trkpt>
<trkpt lat="44.3994970" lon="-73.8503620"><ele></ele><time>2024-9-14T14:19:8Z</time></trkpt>
<trkpt lat="44.3995350" lon="-73.8502440"><ele></ele><time>2024-9-14T14:19:11Z</time></trkpt>
<trkpt lat="44.3995710" lon="-73.8501390"><ele></ele><time>2024-9-14T14:19:14Z</time></trkpt>
<trkpt lat="44.3996060" lon="-73.8500380"><ele></ele><time>2024-9-14T14:19:17Z</time></trkpt>
<trkpt lat="44.3996350" lon="-73.8499430"><ele></ele><time>2024-9-14T14:19:20Z</time></trkpt>
<trkpt lat="44.3996630" lon="-73.8498460"><ele></ele><time>2024-9-14T14:19:23Z</time></trkpt>
<trkpt lat="44.3996880" lon="-73.8497610"><ele></ele><time>2024-9-14T14:19:26Z</time></trkpt>
<trkpt lat="44.3997150" lon="-73.8496890"><ele></ele><time>2024-9-14T14:19:29Z</time></trkpt>
<trkpt lat="44.3997380" lon="-73.8496360"><ele></ele><time>2024-9-14T14:19:32Z</time></trkpt>
<trkpt lat="44.3997580" lon="-73.8495880"><ele></ele><time>2024-9-14T14:19:35Z</time></trkpt>
<trkpt lat="44.3997780" lon="-73.8495480"><ele></ele><time>2024-9-14T14:19:38Z</time></trkpt>
<trkpt lat="44.3997930" lon="-73.8495200"><ele></ele><time>2024-9-14T14:19:41Z</time></trkpt>
<trkpt lat="44.3998050" lon="-73.8494970"><ele></ele><time>2024-9-14T14:19:44Z</time></trkpt>
<trkpt lat="44.3998090" lon="-73.8495000"><ele></ele><time>2024-9-14T14:19:47Z</time></trkpt>
<trkpt lat="44.3998070" lon="-73.8495050"><ele></ele><time>2024-9-14T14:19:50Z</time></trkpt>
<trkpt lat="44.3998100" lon="-73.8495070"><ele></ele><time>2024-9-14T14:19:53Z</time></trkpt>
<trkpt lat="44.3998590" lon="-73.8493930"><ele></ele><time>2024-9-14T14:19:56Z</time></trkpt>
<trkpt lat="44.3999150" lon="-73.8492550"><ele></ele><time>2024-9-14T14:19:59Z</time></trkpt>
<trkpt lat="44.3999870" lon="-73.8490860"><ele></ele><time>2024-9-14T14:20:2Z</time></trkpt>
<trkpt lat="44.4000230" lon="-73.8489900"><ele></ele><time>2024-9-14T14:20:5Z</time></trkpt>
<trkpt lat="44.4000600" lon="-73.8488910"><ele></ele><time>2024-9-14T14:20:8Z</time></trkpt>
<trkpt lat="44.4000980" lon="-73.8487850"><ele></ele><time>2024-9-14T14:20:11Z</time></trkpt>
<trkpt lat="44.4001340" lon="-73.8486740"><ele></ele><time>2024-9-14T14:20:14Z</time></trkpt>
<trkpt lat="44.4001690" lon="-73.8485540"><ele></ele><time>2024-9-14T14:20:17Z</time></trkpt>
<trkpt lat="44.4002030" lon="-73.8484240"><ele></ele><time>2024-9-14T14:20:20Z</time></trkpt>
<trkpt lat="44.4002380" lon="-73.8482840"><ele></ele><time>2024-9-14T14:20:23Z</time></trkpt>
<trkpt lat="44.4003180" lon="-73.8479870"><ele></ele><time>2024-9-14T14:20:26Z</time></trkpt>
<trkpt lat="44.4003610" lon="-73.8478200"><ele></ele><time>2024-9-14T14:20:29Z</time></trkpt>
<trkpt lat="44.4003980" lon="-73.8476540"><ele></ele><time>2024-9-14T14:20:32Z</time></trkpt>
<trkpt lat="44.4004330" lon="-73.8474820"><ele></ele><time>2024-9-14T14:20:35Z</time></trkpt>
<trkpt lat="44.4004700" lon="-73.8473080"><ele></ele><time>2024-9-14T14:20:38Z</time></trkpt>
<trkpt lat="44.4005040" lon="-73.8471240"><ele></ele><time>2024-9-14T14:20:41Z</time></trkpt>
<trkpt lat="44.4005340" lon="-73.8469440"><ele></ele><time>2024-9-14T14:20:44Z</time></trkpt>
<trkpt lat="44.4005630" lon="-73.8467580"><ele></ele><time>2024-9-14T14:20:47Z</time></trkpt>
<trkpt lat="44.4005870" lon="-73.8465610"><ele></ele><time>2024-9-14T14:20:50Z</time></trkpt>
<trkpt lat="44.4006060" lon="-73.8463680"><ele></ele><time>2024-9-14T14:20:53Z</time></trkpt>
<trkpt lat="44.4006200" lon="-73.8461720"><ele></ele><time>2024-9-14T14:20:56Z</time></trkpt>
<trkpt lat="44.4006310" lon="-73.8459760"><ele></ele><time>2024-9-14T14:20:59Z</time></trkpt>
<trkpt lat="44.4006370" lon="-73.8457810"><ele></ele><time>2024-9-14T14:21:2Z</time></trkpt>
<trkpt lat="44.4006410" lon="-73.8455860"><ele></ele><time>2024-9-14T14:21:5Z</time></trkpt>
<trkpt lat="44.4006400" lon="-73.8453910"><ele></ele><time>2024-9-14T14:21:8Z</time></trkpt>
<trkpt lat="44.4006310" lon="-73.8451950"><ele></ele><time>2024-9-14T14:21:11Z</time></trkpt>
<trkpt lat="44.4006200" lon="-73.8449890"><ele></ele><time>2024-9-14T14:21:14Z</time></trkpt>
<trkpt lat="44.4006070" lon="-73.8447940"><ele></ele><time>2024-9-14T14:21:17Z</time></trkpt>
<trkpt lat="44.4005920" lon="-73.8446000"><ele></ele><time>2024-9-14T14:21:20Z</time></trkpt>
<trkpt lat="44.4005750" lon="-73.8444030"><ele></ele><time>2024-9-14T14:21:23Z</time></trkpt>
<trkpt lat="44.4005530" lon="-73.8442010"><ele></ele><time>2024-9-14T14:21:26Z</time></trkpt>
<trkpt lat="44.4005280" lon="-73.8439970"><ele></ele><time>2024-9-14T14:21:29Z</time></trkpt>
<trkpt lat="44.4004980" lon="-73.8437940"><ele></ele><time>2024-9-14T14:21:32Z</time></trkpt>
<trkpt lat="44.4004600" lon="-73.8435820"><ele></ele><time>2024-9-14T14:21:35Z</time></trkpt>
<trkpt lat="44.4004220" lon="-73.8433810"><ele></ele><time>2024-9-14T14:21:38Z</time></trkpt>
<trkpt lat="44.4003800" lon="-73.8431770"><ele></ele><time>2024-9-14T14:21:41Z</time></trkpt>
<trkpt lat="44.4003320" lon="-73.8429790"><ele></ele><time>2024-9-14T14:21:44Z</time></trkpt>
<trkpt lat="44.4002800" lon="-73.8427860"><ele></ele><time>2024-9-14T14:21:47Z</time></trkpt>
<trkpt lat="44.4002240" lon="-73.8425980"><ele></ele><time>2024-9-14T14:21:50Z</time></trkpt>
<trkpt lat="44.4001650" lon="-73.8424130"><ele></ele><time>2024-9-14T14:21:53Z</time></trkpt>
<trkpt lat="44.4001010" lon="-73.8422280"><ele></ele><time>2024-9-14T14:21:56Z</time></trkpt>
<trkpt lat="44.4000310" lon="-73.8420360"><ele></ele><time>2024-9-14T14:21:59Z</time></trkpt>
<trkpt lat="44.3999610" lon="-73.8418550"><ele></ele><time>2024-9-14T14:22:2Z</time></trkpt>
<trkpt lat="44.3998870" lon="-73.8416760"><ele></ele><time>2024-9-14T14:22:5Z</time></trkpt>
<trkpt lat="44.3998110" lon="-73.8414990"><ele></ele><time>2024-9-14T14:22:8Z</time></trkpt>
<trkpt lat="44.3997340" lon="-73.8413200"><ele></ele><time>2024-9-14T14:22:11Z</time></trkpt>
<trkpt lat="44.3996560" lon="-73.8411440"><ele></ele><time>2024-9-14T14:22:14Z</time></trkpt>
<trkpt lat="44.3995750" lon="-73.8409690"><ele></ele><time>2024-9-14T14:22:17Z</time></trkpt>
<trkpt lat="44.3994900" lon="-73.8407840"><ele></ele><time>2024-9-14T14:22:20Z</time></trkpt>
<trkpt lat="44.3994080" lon="-73.8406100"><ele></ele><time>2024-9-14T14:22:23Z</time></trkpt>
<trkpt lat="44.3993250" lon="-73.8404350"><ele></ele><time>2024-9-14T14:22:26Z</time></trkpt>
<trkpt lat="44.3992440" lon="-73.8402570"><ele></ele><time>2024-9-14T14:22:29Z</time></trkpt>
<trkpt lat="44.3991630" lon="-73.8400780"><ele></ele><time>2024-9-14T14:22:32Z</time></trkpt>
<trkpt lat="44.3990800" lon="-73.8399010"><ele></ele><time>2024-9-14T14:22:35Z</time></trkpt>
<trkpt lat="44.3989950" lon="-73.8397230"><ele></ele><time>2024-9-14T14:22:38Z</time></trkpt>
<trkpt lat="44.3989050" lon="-73.8395370"><ele></ele><time>2024-9-14T14:22:41Z</time></trkpt>
<trkpt lat="44.3988210" lon="-73.8393580"><ele></ele><time>2024-9-14T14:22:44Z</time></trkpt>
<trkpt lat="44.3987380" lon="-73.8391810"><ele></ele><time>2024-9-14T14:22:47Z</time></trkpt>
<trkpt lat="44.3986560" lon="-73.8390050"><ele></ele><time>2024-9-14T14:22:50Z</time></trkpt>
<trkpt lat="44.3985760" lon="-73.8388310"><ele></ele><time>2024-9-14T14:22:53Z</time></trkpt>
<trkpt lat="44.3984950" lon="-73.8386550"><ele></ele><time>2024-9-14T14:22:56Z</time></trkpt>
<trkpt lat="44.3984180" lon="-73.8384860"><ele></ele><time>2024-9-14T14:22:59Z</time></trkpt>
<trkpt lat="44.3983430" lon="-73.8383210"><ele></ele><time>2024-9-14T14:23:2Z</time></trkpt>
<trkpt lat="44.3982640" lon="-73.8381480"><ele></ele><time>2024-9-14T14:23:5Z</time></trkpt>
<trkpt lat="44.3981910" lon="-73.8379840"><ele></ele><time>2024-9-14T14:23:8Z</time></trkpt>
<trkpt lat="44.3981130" lon="-73.8378180"><ele></ele><time>2024-9-14T14:23:11Z</time></trkpt>
<trkpt lat="44.3980350" lon="-73.8376530"><ele></ele><time>2024-9-14T14:23:14Z</time></trkpt>
<trkpt lat="44.3979550" lon="-73.8374850"><ele></ele><time>2024-9-14T14:23:17Z</time></trkpt>
<trkpt lat="44.3978730" lon="-73.8373170"><ele></ele><time>2024-9-14T14:23:20Z</time></trkpt>
<trkpt lat="44.3977850" lon="-73.8371530"><ele></ele><time>2024-9-14T14:23:23Z</time></trkpt>
<trkpt lat="44.3976880" lon="-73.8369840"><ele></ele><time>2024-9-14T14:23:26Z</time></trkpt>
<trkpt lat="44.3975940" lon="-73.8368260"><ele></ele><time>2024-9-14T14:23:29Z</time></trkpt>
<trkpt lat="44.3974940" lon="-73.8366670"><ele></ele><time>2024-9-14T14:23:32Z</time></trkpt>
<trkpt lat="44.3973930" lon="-73.8365110"><ele></ele><time>2024-9-14T14:23:35Z</time></trkpt>
<trkpt lat="44.3972920" lon="-73.8363610"><ele></ele><time>2024-9-14T14:23:38Z</time></trkpt>
<trkpt lat="44.3971850" lon="-73.8362090"><ele></ele><time>2024-9-14T14:23:41Z</time></trkpt>
<trkpt lat="44.3970760" lon="-73.8360610"><ele></ele><time>2024-9-14T14:23:44Z</time></trkpt>
<trkpt lat="44.3969580" lon="-73.8359060"><ele></ele><time>2024-9-14T14:23:47Z</time></trkpt>
<trkpt lat="44.3968430" lon="-73.8357620"><ele></ele><time>2024-9-14T14:23:50Z</time></trkpt>
<trkpt lat="44.3967290" lon="-73.8356220"><ele></ele><time>2024-9-14T14:23:53Z</time></trkpt>
<trkpt lat="44.3966120" lon="-73.8354870"><ele></ele><time>2024-9-14T14:23:56Z</time></trkpt>
<trkpt lat="44.3965010" lon="-73.8353540"><ele></ele><time>2024-9-14T14:23:59Z</time></trkpt>
<trkpt lat="44.3963910" lon="-73.8352250"><ele></ele><time>2024-9-14T14:24:2Z</time></trkpt>
<trkpt lat="44.3962810" lon="-73.8350960"><ele></ele><time>2024-9-14T14:24:5Z</time></trkpt>
<trkpt lat="44.3961660" lon="-73.8349620"><ele></ele><time>2024-9-14T14:24:8Z</time></trkpt>
<trkpt lat="44.3960550" lon="-73.8348330"><ele></ele><time>2024-9-14T14:24:11Z</time></trkpt>
<trkpt lat="44.3959460" lon="-73.8347020"><ele></ele><time>2024-9-14T14:24:14Z</time></trkpt>
<trkpt lat="44.3958370" lon="-73.8345700"><ele></ele><time>2024-9-14T14:24:17Z</time></trkpt>
<trkpt lat="44.3957260" lon="-73.8344390"><ele></ele><time>2024-9-14T14:24:20Z</time></trkpt>
<trkpt lat="44.3956160" lon="-73.8343110"><ele></ele><time>2024-9-14T14:24:23Z</time></trkpt>
<trkpt lat="44.3955000" lon="-73.8341770"><ele></ele><time>2024-9-14T14:24:26Z</time></trkpt>
<trkpt lat="44.3953880" lon="-73.8340470"><ele></ele><time>2024-9-14T14:24:29Z</time></trkpt>
<trkpt lat="44.3952760" lon="-73.8339160"><ele></ele><time>2024-9-14T14:24:32Z</time></trkpt>
<trkpt lat="44.3951640" lon="-73.8337840"><ele></ele><time>2024-9-14T14:24:35Z</time></trkpt>
<trkpt lat="44.3950530" lon="-73.8336530"><ele></ele><time>2024-9-14T14:24:38Z</time></trkpt>
<trkpt lat="44.3949440" lon="-73.8335240"><ele></ele><time>2024-9-14T14:24:41Z</time></trkpt>
<trkpt lat="44.3948350" lon="-73.8333930"><ele></ele><time>2024-9-14T14:24:44Z</time></trkpt>
<trkpt lat="44.3947240" lon="-73.8332640"><ele></ele><time>2024-9-14T14:24:47Z</time></trkpt>
<trkpt lat="44.3946140" lon="-73.8331330"><ele></ele><time>2024-9-14T14:24:50Z</time></trkpt>
<trkpt lat="44.3945010" lon="-73.8330020"><ele></ele><time>2024-9-14T14:24:53Z</time></trkpt>
<trkpt lat="44.3943950" lon="-73.8328790"><ele></ele><time>2024-9-14T14:24:56Z</time></trkpt>
<trkpt lat="44.3942880" lon="-73.8327540"><ele></ele><time>2024-9-14T14:24:59Z</time></trkpt>
<trkpt lat="44.3941830" lon="-73.8326280"><ele></ele><time>2024-9-14T14:25:2Z</time></trkpt>
<trkpt lat="44.3940790" lon="-73.8325020"><ele></ele><time>2024-9-14T14:25:5Z</time></trkpt>
<trkpt lat="44.3939790" lon="-73.8323780"><ele></ele><time>2024-9-14T14:25:8Z</time></trkpt>
<trkpt lat="44.3938830" lon="-73.8322560"><ele></ele><time>2024-9-14T14:25:11Z</time></trkpt>
<trkpt lat="44.3937830" lon="-73.8321280"><ele></ele><time>2024-9-14T14:25:14Z</time></trkpt>
<trkpt lat="44.3936890" lon="-73.8320050"><ele></ele><time>2024-9-14T14:25:17Z</time></trkpt>
<trkpt lat="44.3935940" lon="-73.8318810"><ele></ele><time>2024-9-14T14:25:20Z</time></trkpt>
<trkpt lat="44.3934990" lon="-73.8317530"><ele></ele><time>2024-9-14T14:25:23Z</time></trkpt>
<trkpt lat="44.3934110" lon="-73.8316280"><ele></ele><time>2024-9-14T14:25:26Z</time></trkpt>
<trkpt lat="44.3933220" lon="-73.8314930"><ele></ele><time>2024-9-14T14:25:29Z</time></trkpt>
<trkpt lat="44.3932400" lon="-73.8313570"><ele></ele><time>2024-9-14T14:25:32Z</time></trkpt>
<trkpt lat="44.3931620" lon="-73.8312200"><ele></ele><time>2024-9-14T14:25:35Z</time></trkpt>
<trkpt lat="44.3930800" lon="-73.8310750"><ele></ele><time>2024-9-14T14:25:38Z</time></trkpt>
<trkpt lat="44.3930060" lon="-73.8309440"><ele></ele><time>2024-9-14T14:25:41Z</time></trkpt>
<trkpt lat="44.3929330" lon="-73.8308150"><ele></ele><time>2024-9-14T14:25:44Z</time></trkpt>
<trkpt lat="44.3928640" lon="-73.8306950"><ele></ele><time>2024-9-14T14:25:47Z</time></trkpt>
<trkpt lat="44.3928030" lon="-73.8305820"><ele></ele><time>2024-9-14T14:25:50Z</time></trkpt>
<trkpt lat="44.3927480" lon="-73.8304740"><ele></ele><time>2024-9-14T14:25:53Z</time></trkpt>
<trkpt lat="44.3926970" lon="-73.8303740"><ele></ele><time>2024-9-14T14:25:56Z</time></trkpt>
<trkpt lat="44.3926470" lon="-73.8302720"><ele></ele><time>2024-9-14T14:25:59Z</time></trkpt>
<trkpt lat="44.3926010" lon="-73.8301750"><ele></ele><time>2024-9-14T14:26:2Z</time></trkpt>
<trkpt lat="44.3925550" lon="-73.8300760"><ele></ele><time>2024-9-14T14:26:5Z</time></trkpt>
<trkpt lat="44.3925070" lon="-73.8299780"><ele></ele><time>2024-9-14T14:26:8Z</time></trkpt>
<trkpt lat="44.3924120" lon="-73.8297780"><ele></ele><time>2024-9-14T14:26:11Z</time></trkpt>
<trkpt lat="44.3923180" lon="-73.8295820"><ele></ele><time>2024-9-14T14:26:14Z</time></trkpt>
<trkpt lat="44.3922700" lon="-73.8294800"><ele></ele><time>2024-9-14T14:26:17Z</time></trkpt>
<trkpt lat="44.3922250" lon="-73.8293850"><ele></ele><time>2024-9-14T14:26:20Z</time></trkpt>
<trkpt lat="44.3921780" lon="-73.8292900"><ele></ele><time>2024-9-14T14:26:23Z</time></trkpt>
<trkpt lat="44.3921320" lon="-73.8291960"><ele></ele><time>2024-9-14T14:26:26Z</time></trkpt>
<trkpt lat="44.3920910" lon="-73.8290960"><ele></ele><time>2024-9-14T14:26:29Z</time></trkpt>
<trkpt lat="44.3920490" lon="-73.8289940"><ele></ele><time>2024-9-14T14:26:32Z</time></trkpt>
<trkpt lat="44.3920040" lon="-73.8288950"><ele></ele><time>2024-9-14T14:26:35Z</time></trkpt>
<trkpt lat="44.3919560" lon="-73.8287900"><ele></ele><time>2024-9-14T14:26:38Z</time></trkpt>
<trkpt lat="44.3919130" lon="-73.8286880"><ele></ele><time>2024-9-14T14:26:41Z</time></trkpt>
<trkpt lat="44.3918680" lon="-73.8285860"><ele></ele><time>2024-9-14T14:26:44Z</time></trkpt>
<trkpt lat="44.3918180" lon="-73.8284900"><ele></ele><time>2024-9-14T14:26:47Z</time></trkpt>
<trkpt lat="44.3917160" lon="-73.8282870"><ele></ele><time>2024-9-14T14:26:50Z</time></trkpt>
<trkpt lat="44.3914620" lon="-73.8277320"><ele></ele><time>2024-9-14T14:26:53Z</time></trkpt>
<trkpt lat="44.3914120" lon="-73.8276240"><ele></ele><time>2024-9-14T14:26:56Z</time></trkpt>
<trkpt lat="44.3913620" lon="-73.8275130"><ele></ele><time>2024-9-14T14:26:59Z</time></trkpt>
<trkpt lat="44.3913130" lon="-73.8274010"><ele></ele><time>2024-9-14T14:27:2Z</time></trkpt>
<trkpt lat="44.3912630" lon="-73.8272870"><ele></ele><time>2024-9-14T14:27:5Z</time></trkpt>
<trkpt lat="44.3911640" lon="-73.8270650"><ele></ele><time>2024-9-14T14:27:8Z</time></trkpt>
<trkpt lat="44.3911180" lon="-73.8269540"><ele></ele><time>2024-9-14T14:27:11Z</time></trkpt>
<trkpt lat="44.3910750" lon="-73.8268380"><ele></ele><time>2024-9-14T14:27:14Z</time></trkpt>
<trkpt lat="44.3910290" lon="-73.8267200"><ele></ele><time>2024-9-14T14:27:17Z</time></trkpt>
<trkpt lat="44.3909820" lon="-73.8265990"><ele></ele><time>2024-9-14T14:27:20Z</time></trkpt>
<trkpt lat="44.3909380" lon="-73.8264780"><ele></ele><time>2024-9-14T14:27:23Z</time></trkpt>
<trkpt lat="44.3908900" lon="-73.8263470"><ele></ele><time>2024-9-14T14:27:26Z</time></trkpt>
<trkpt lat="44.3908460" lon="-73.8262210"><ele></ele><time>2024-9-14T14:27:29Z</time></trkpt>
<trkpt lat="44.3908030" lon="-73.8260920"><ele></ele><time>2024-9-14T14:27:32Z</time></trkpt>
<trkpt lat="44.3907620" lon="-73.8259580"><ele></ele><time>2024-9-14T14:27:35Z</time></trkpt>
<trkpt lat="44.3907220" lon="-73.8258210"><ele></ele><time>2024-9-14T14:27:38Z</time></trkpt>
<trkpt lat="44.3906820" lon="-73.8256840"><ele></ele><time>2024-9-14T14:27:41Z</time></trkpt>
<trkpt lat="44.3906430" lon="-73.8255430"><ele></ele><time>2024-9-14T14:27:44Z</time></trkpt>
<trkpt lat="44.3906020" lon="-73.8253900"><ele></ele><time>2024-9-14T14:27:47Z</time></trkpt>
<trkpt lat="44.3905630" lon="-73.8252410"><ele></ele><time>2024-9-14T14:27:50Z</time></trkpt>
<trkpt lat="44.3905240" lon="-73.8250880"><ele></ele><time>2024-9-14T14:27:53Z</time></trkpt>
<trkpt lat="44.3904880" lon="-73.8249360"><ele></ele><time>2024-9-14T14:27:56Z</time></trkpt>
<trkpt lat="44.3904540" lon="-73.8247850"><ele></ele><time>2024-9-14T14:27:59Z</time></trkpt>
<trkpt lat="44.3904190" lon="-73.8246360"><ele></ele><time>2024-9-14T14:28:2Z</time></trkpt>
<trkpt lat="44.3903830" lon="-73.8244910"><ele></ele><time>2024-9-14T14:28:5Z</time></trkpt>
<trkpt lat="44.3903470" lon="-73.8243540"><ele></ele><time>2024-9-14T14:28:8Z</time></trkpt>
<trkpt lat="44.3903110" lon="-73.8242100"><ele></ele><time>2024-9-14T14:28:11Z</time></trkpt>
<trkpt lat="44.3902760" lon="-73.8240720"><ele></ele><time>2024-9-14T14:28:14Z</time></trkpt>
<trkpt lat="44.3902440" lon="-73.8239370"><ele></ele><time>2024-9-14T14:28:17Z</time></trkpt>
<trkpt lat="44.3902110" lon="-73.8238030"><ele></ele><time>2024-9-14T14:28:20Z</time></trkpt>
<trkpt lat="44.3901790" lon="-73.8236700"><ele></ele><time>2024-9-14T14:28:23Z</time></trkpt>
<trkpt lat="44.3901470" lon="-73.8235390"><ele></ele><time>2024-9-14T14:28:26Z</time></trkpt>
<trkpt lat="44.3901130" lon="-73.8234130"><ele></ele><time>2024-9-14T14:28:29Z</time></trkpt>
<trkpt lat="44.3900760" lon="-73.8232890"><ele></ele><time>2024-9-14T14:28:32Z</time></trkpt>
<trkpt lat="44.3900460" lon="-73.8231760"><ele></ele><time>2024-9-14T14:28:35Z</time></trkpt>
<trkpt lat="44.3900180" lon="-73.8230720"><ele></ele><time>2024-9-14T14:28:38Z</time></trkpt>
<trkpt lat="44.3899930" lon="-73.8229770"><ele></ele><time>2024-9-14T14:28:41Z</time></trkpt>
<trkpt lat="44.3899720" lon="-73.8228910"><ele></ele><time>2024-9-14T14:28:44Z</time></trkpt>
<trkpt lat="44.3899520" lon="-73.8228100"><ele></ele><time>2024-9-14T14:28:47Z</time></trkpt>
<trkpt lat="44.3899360" lon="-73.8227370"><ele></ele><time>2024-9-14T14:28:50Z</time></trkpt>
<trkpt lat="44.3899210" lon="-73.8226690"><ele></ele><time>2024-9-14T14:28:53Z</time></trkpt>
<trkpt lat="44.3899030" lon="-73.8226060"><ele></ele><time>2024-9-14T14:28:56Z</time></trkpt>
<trkpt lat="44.3898820" lon="-73.8225520"><ele></ele><time>2024-9-14T14:28:59Z</time></trkpt>
<trkpt lat="44.3898490" lon="-73.8225090"><ele></ele><time>2024-9-14T14:29:2Z</time></trkpt>
<trkpt lat="44.3898030" lon="-73.8224850"><ele></ele><time>2024-9-14T14:29:5Z</time></trkpt>
<trkpt lat="44.3897500" lon="-73.8224820"><ele></ele><time>2024-9-14T14:29:8Z</time></trkpt>
<trkpt lat="44.3895860" lon="-73.8226030"><ele></ele><time>2024-9-14T14:29:11Z</time></trkpt>
<trkpt lat="44.3895360" lon="-73.8226590"><ele></ele><time>2024-9-14T14:29:14Z</time></trkpt>
<trkpt lat="44.3894840" lon="-73.8227190"><ele></ele><time>2024-9-14T14:29:17Z</time></trkpt>
<trkpt lat="44.3894310" lon="-73.8227780"><ele></ele><time>2024-9-14T14:29:20Z</time></trkpt>
<trkpt lat="44.3893760" lon="-73.8228380"><ele></ele><time>2024-9-14T14:29:23Z</time></trkpt>
<trkpt lat="44.3893220" lon="-73.8229020"><ele></ele><time>2024-9-14T14:29:26Z</time></trkpt>
<trkpt lat="44.3892630" lon="-73.8229660"><ele></ele><time>2024-9-14T14:29:29Z</time></trkpt>
<trkpt lat="44.3889500" lon="-73.8233220"><ele></ele><time>2024-9-14T14:29:32Z</time></trkpt>
<trkpt lat="44.3888850" lon="-73.8233950"><ele></ele><time>2024-9-14T14:29:35Z</time></trkpt>
<trkpt lat="44.3888230" lon="-73.8234670"><ele></ele><time>2024-9-14T14:29:38Z</time></trkpt>
<trkpt lat="44.3887610" lon="-73.8235420"><ele></ele><time>2024-9-14T14:29:41Z</time></trkpt>
<trkpt lat="44.3886940" lon="-73.8236170"><ele></ele><time>2024-9-14T14:29:44Z</time></trkpt>
<trkpt lat="44.3886370" lon="-73.8236800"><ele></ele><time>2024-9-14T14:29:47Z</time></trkpt>
<trkpt lat="44.3885790" lon="-73.8237450"><ele></ele><time>2024-9-14T14:29:50Z</time></trkpt>
<trkpt lat="44.3885230" lon="-73.8238100"><ele></ele><time>2024-9-14T14:29:53Z</time></trkpt>
<trkpt lat="44.3881610" lon="-73.8242160"><ele></ele><time>2024-9-14T14:29:56Z</time></trkpt>
<trkpt lat="44.3880190" lon="-73.8243610"><ele></ele><time>2024-9-14T14:29:59Z</time></trkpt>
<trkpt lat="44.3879880" lon="-73.8243900"><ele></ele><time>2024-9-14T14:30:2Z</time></trkpt>
<trkpt lat="44.3878290" lon="-73.8244580"><ele></ele><time>2024-9-14T14:30:5Z</time></trkpt>
<trkpt lat="44.3877270" lon="-73.8245120"><ele></ele><time>2024-9-14T14:30:8Z</time></trkpt>
<trkpt lat="44.3876770" lon="-73.8245410"><ele></ele><time>2024-9-14T14:30:11Z</time></trkpt>
<trkpt lat="44.3876210" lon="-73.8246060"><ele></ele><time>2024-9-14T14:30:14Z</time></trkpt>
<trkpt lat="44.3876070" lon="-73.8246140"><ele></ele><time>2024-9-14T14:30:17Z</time></trkpt>
<trkpt lat="44.3875820" lon="-73.8246370"><ele></ele><time>2024-9-14T14:30:20Z</time></trkpt>
<trkpt lat="44.3875830" lon="-73.8246380"><ele></ele><time>2024-9-14T14:30:23Z</time></trkpt>
<trkpt lat="44.3875850" lon="-73.8246600"><ele></ele><time>2024-9-14T14:30:26Z</time></trkpt>
<trkpt lat="44.3875880" lon="-73.8246560"><ele></ele><time>2024-9-14T14:30:29Z</time></trkpt>
<trkpt lat="44.3875850" lon="-73.8246660"><ele></ele><time>2024-9-14T14:30:32Z</time></trkpt>
<trkpt lat="44.3875710" lon="-73.8246820"><ele></ele><time>2024-9-14T14:30:35Z</time></trkpt>
<trkpt lat="44.3875720" lon="-73.8246850"><ele></ele><time>2024-9-14T14:30:38Z</time></trkpt>
<trkpt lat="44.3875700" lon="-73.8246930"><ele></ele><time>2024-9-14T14:30:41Z</time></trkpt>
<trkpt lat="44.3875660" lon="-73.8247120"><ele></ele><time>2024-9-14T14:30:44Z</time></trkpt>
<trkpt lat="44.3875680" lon="-73.8247660"><ele></ele><time>2024-9-14T14:30:47Z</time></trkpt>
<trkpt lat="44.3875370" lon="-73.8248590"><ele></ele><time>2024-9-14T14:30:50Z</time></trkpt>
<trkpt lat="44.3874660" lon="-73.8249400"><ele></ele><time>2024-9-14T14:30:53Z</time></trkpt>
<trkpt lat="44.3874400" lon="-73.8249670"><ele></ele><time>2024-9-14T14:30:56Z</time></trkpt>
<trkpt lat="44.3873900" lon="-73.8250250"><ele></ele><time>2024-9-14T14:30:59Z</time></trkpt>
<trkpt lat="44.3871860" lon="-73.8252540"><ele></ele><time>2024-9-14T14:31:2Z</time></trkpt>
<trkpt lat="44.3870510" lon="-73.8254140"><ele></ele><time>2024-9-14T14:31:5Z</time></trkpt>
<trkpt lat="44.3869020" lon="-73.8255810"><ele></ele><time>2024-9-14T14:31:8Z</time></trkpt>
<trkpt lat="44.3866590" lon="-73.8258610"><ele></ele><time>2024-9-14T14:31:11Z</time></trkpt>
<trkpt lat="44.3865740" lon="-73.8259520"><ele></ele><time>2024-9-14T14:31:14Z</time></trkpt>
<trkpt lat="44.3862630" lon="-73.8263220"><ele></ele><time>2024-9-14T14:31:17Z</time></trkpt>
<trkpt lat="44.3858950" lon="-73.8267640"><ele></ele><time>2024-9-14T14:31:20Z</time></trkpt>
<trkpt lat="44.3856620" lon="-73.8270400"><ele></ele><time>2024-9-14T14:31:23Z</time></trkpt>
<trkpt lat="44.3855900" lon="-73.8271180"><ele></ele><time>2024-9-14T14:31:26Z</time></trkpt>
<trkpt lat="44.3855540" lon="-73.8271540"><ele></ele><time>2024-9-14T14:31:29Z</time></trkpt>
<trkpt lat="44.3855220" lon="-73.8271880"><ele></ele><time>2024-9-14T14:31:32Z</time></trkpt>
<trkpt lat="44.3854890" lon="-73.8272190"><ele></ele><time>2024-9-14T14:31:35Z</time></trkpt>
<trkpt lat="44.3854560" lon="-73.8272520"><ele></ele><time>2024-9-14T14:31:38Z</time></trkpt>
<trkpt lat="44.3854250" lon="-73.8272870"><ele></ele><time>2024-9-14T14:31:41Z</time></trkpt>
<trkpt lat="44.3852960" lon="-73.8274300"><ele></ele><time>2024-9-14T14:31:44Z</time></trkpt>
<trkpt lat="44.3852650" lon="-73.8274610"><ele></ele><time>2024-9-14T14:31:47Z</time></trkpt>
<trkpt lat="44.3852350" lon="-73.8274940"><ele></ele><time>2024-9-14T14:31:50Z</time></trkpt>
<trkpt lat="44.3852020" lon="-73.8275190"><ele></ele><time>2024-9-14T14:31:53Z</time></trkpt>
<trkpt lat="44.3851440" lon="-73.8275770"><ele></ele><time>2024-9-14T14:31:56Z</time></trkpt>
<trkpt lat="44.3849190" lon="-73.8278180"><ele></ele><time>2024-9-14T14:31:59Z</time></trkpt>
<trkpt lat="44.3847880" lon="-73.8279570"><ele></ele><time>2024-9-14T14:32:2Z</time></trkpt>
<trkpt lat="44.3847550" lon="-73.8279940"><ele></ele><time>2024-9-14T14:32:5Z</time></trkpt>
<trkpt lat="44.3847190" lon="-73.8280280"><ele></ele><time>2024-9-14T14:32:8Z</time></trkpt>
<trkpt lat="44.3846840" lon="-73.8280630"><ele></ele><time>2024-9-14T14:32:11Z</time></trkpt>
<trkpt lat="44.3846500" lon="-73.8281020"><ele></ele><time>2024-9-14T14:32:14Z</time></trkpt>
<trkpt lat="44.3845750" lon="-73.8281790"><ele></ele><time>2024-9-14T14:32:17Z</time></trkpt>
<trkpt lat="44.3842740" lon="-73.8285010"><ele></ele><time>2024-9-14T14:32:20Z</time></trkpt>
<trkpt lat="44.3840840" lon="-73.8287060"><ele></ele><time>2024-9-14T14:32:23Z</time></trkpt>
<trkpt lat="44.3839300" lon="-73.8288740"><ele></ele><time>2024-9-14T14:32:26Z</time></trkpt>
<trkpt lat="44.3838780" lon="-73.8289320"><ele></ele><time>2024-9-14T14:32:29Z</time></trkpt>
<trkpt lat="44.3838260" lon="-73.8289910"><ele></ele><time>2024-9-14T14:32:32Z</time></trkpt>
<trkpt lat="44.3837720" lon="-73.8290470"><ele></ele><time>2024-9-14T14:32:35Z</time></trkpt>
<trkpt lat="44.3837160" lon="-73.8291010"><ele></ele><time>2024-9-14T14:32:38Z</time></trkpt>
<trkpt lat="44.3836610" lon="-73.8291560"><ele></ele><time>2024-9-14T14:32:41Z</time></trkpt>
<trkpt lat="44.3836050" lon="-73.8292130"><ele></ele><time>2024-9-14T14:32:44Z</time></trkpt>
<trkpt lat="44.3834900" lon="-73.8293360"><ele></ele><time>2024-9-14T14:32:47Z</time></trkpt>
<trkpt lat="44.3833750" lon="-73.8294550"><ele></ele><time>2024-9-14T14:32:50Z</time></trkpt>
<trkpt lat="44.3833160" lon="-73.8295150"><ele></ele><time>2024-9-14T14:32:53Z</time></trkpt>
<trkpt lat="44.3832560" lon="-73.8295740"><ele></ele><time>2024-9-14T14:32:56Z</time></trkpt>
<trkpt lat="44.3831960" lon="-73.8296360"><ele></ele><time>2024-9-14T14:32:59Z</time></trkpt>
<trkpt lat="44.3831400" lon="-73.8297000"><ele></ele><time>2024-9-14T14:33:2Z</time></trkpt>
<trkpt lat="44.3830780" lon="-73.8297650"><ele></ele><time>2024-9-14T14:33:5Z</time></trkpt>
<trkpt lat="44.3829580" lon="-73.8298840"><ele></ele><time>2024-9-14T14:33:8Z</time></trkpt>
<trkpt lat="44.3828980" lon="-73.8299400"><ele></ele><time>2024-9-14T14:33:11Z</time></trkpt>
<trkpt lat="44.3825330" lon="-73.8303110"><ele></ele><time>2024-9-14T14:33:14Z</time></trkpt>
<trkpt lat="44.3823900" lon="-73.8304480"><ele></ele><time>2024-9-14T14:33:17Z</time></trkpt>
<trkpt lat="44.3822070" lon="-73.8306440"><ele></ele><time>2024-9-14T14:33:20Z</time></trkpt>
<trkpt lat="44.3819340" lon="-73.8309220"><ele></ele><time>2024-9-14T14:33:23Z</time></trkpt>
<trkpt lat="44.3818880" lon="-73.8309710"><ele></ele><time>2024-9-14T14:33:26Z</time></trkpt>
<trkpt lat="44.3816140" lon="-73.8312590"><ele></ele><time>2024-9-14T14:33:29Z</time></trkpt>
<trkpt lat="44.3815670" lon="-73.8313060"><ele></ele><time>2024-9-14T14:33:32Z</time></trkpt>
<trkpt lat="44.3814340" lon="-73.8314480"><ele></ele><time>2024-9-14T14:33:35Z</time></trkpt>
<trkpt lat="44.3812990" lon="-73.8315800"><ele></ele><time>2024-9-14T14:33:38Z</time></trkpt>
<trkpt lat="44.3812110" lon="-73.8316720"><ele></ele><time>2024-9-14T14:33:41Z</time></trkpt>
<trkpt lat="44.3810230" lon="-73.8318520"><ele></ele><time>2024-9-14T14:33:44Z</time></trkpt>
<trkpt lat="44.3808170" lon="-73.8320540"><ele></ele><time>2024-9-14T14:33:47Z</time></trkpt>
<trkpt lat="44.3805530" lon="-73.8323080"><ele></ele><time>2024-9-14T14:33:50Z</time></trkpt>
<trkpt lat="44.3804450" lon="-73.8324140"><ele></ele><time>2024-9-14T14:33:53Z</time></trkpt>
<trkpt lat="44.3803890" lon="-73.8324670"><ele></ele><time>2024-9-14T14:33:56Z</time></trkpt>
<trkpt lat="44.3803300" lon="-73.8325180"><ele></ele><time>2024-9-14T14:33:59Z</time></trkpt>
<trkpt lat="44.3802720" lon="-73.8325710"><ele></ele><time>2024-9-14T14:34:2Z</time></trkpt>
<trkpt lat="44.3802110" lon="-73.8326240"><ele></ele><time>2024-9-14T14:34:5Z</time></trkpt>
<trkpt lat="44.3800990" lon="-73.8327200"><ele></ele><time>2024-9-14T14:34:8Z</time></trkpt>
<trkpt lat="44.3799940" lon="-73.8328020"><ele></ele><time>2024-9-14T14:34:11Z</time></trkpt>
<trkpt lat="44.3799410" lon="-73.8328490"><ele></ele><time>2024-9-14T14:34:14Z</time></trkpt>
<trkpt lat="44.3797830" lon="-73.8329600"><ele></ele><time>2024-9-14T14:34:17Z</time></trkpt>
<trkpt lat="44.3796390" lon="-73.8330460"><ele></ele><time>2024-9-14T14:34:20Z</time></trkpt>
<trkpt lat="44.3795960" lon="-73.8330750"><ele></ele><time>2024-9-14T14:34:23Z</time></trkpt>
<trkpt lat="44.3794250" lon="-73.8331780"><ele></ele><time>2024-9-14T14:34:26Z</time></trkpt>
<trkpt lat="44.3793820" lon="-73.8332040"><ele></ele><time>2024-9-14T14:34:29Z</time></trkpt>
<trkpt lat="44.3793410" lon="-73.8332280"><ele></ele><time>2024-9-14T14:34:32Z</time></trkpt>
<trkpt lat="44.3793020" lon="-73.8332510"><ele></ele><time>2024-9-14T14:34:35Z</time></trkpt>
<trkpt lat="44.3792620" lon="-73.8332790"><ele></ele><time>2024-9-14T14:34:38Z</time></trkpt>
<trkpt lat="44.3790960" lon="-73.8333780"><ele></ele><time>2024-9-14T14:34:41Z</time></trkpt>
<trkpt lat="44.3790140" lon="-73.8334230"><ele></ele><time>2024-9-14T14:34:44Z</time></trkpt>
<trkpt lat="44.3789750" lon="-73.8334500"><ele></ele><time>2024-9-14T14:34:47Z</time></trkpt>
<trkpt lat="44.3788510" lon="-73.8335150"><ele></ele><time>2024-9-14T14:34:50Z</time></trkpt>
<trkpt lat="44.3788120" lon="-73.8335390"><ele></ele><time>2024-9-14T14:34:53Z</time></trkpt>
<trkpt lat="44.3787730" lon="-73.8335610"><ele></ele><time>2024-9-14T14:34:56Z</time></trkpt>
<trkpt lat="44.3787370" lon="-73.8335850"><ele></ele><time>2024-9-14T14:34:59Z</time></trkpt>
<trkpt lat="44.3787000" lon="-73.8336080"><ele></ele><time>2024-9-14T14:35:2Z</time></trkpt>
<trkpt lat="44.3786220" lon="-73.8336520"><ele></ele><time>2024-9-14T14:35:5Z</time></trkpt>
<trkpt lat="44.3782760" lon="-73.8338280"><ele></ele><time>2024-9-14T14:35:8Z</time></trkpt>
<trkpt lat="44.3779000" lon="-73.8340260"><ele></ele><time>2024-9-14T14:35:11Z</time></trkpt>
<trkpt lat="44.3776600" lon="-73.8341420"><ele></ele><time>2024-9-14T14:35:14Z</time></trkpt>
<trkpt lat="44.3775360" lon="-73.8341930"><ele></ele><time>2024-9-14T14:35:17Z</time></trkpt>
<trkpt lat="44.3774720" lon="-73.8342170"><ele></ele><time>2024-9-14T14:35:20Z</time></trkpt>
<trkpt lat="44.3772890" lon="-73.8342980"><ele></ele><time>2024-9-14T14:35:23Z</time></trkpt>
<trkpt lat="44.3770550" lon="-73.8344170"><ele></ele><time>2024-9-14T14:35:26Z</time></trkpt>
<trkpt lat="44.3769950" lon="-73.8344480"><ele></ele><time>2024-9-14T14:35:29Z</time></trkpt>
<trkpt lat="44.3769390" lon="-73.8344730"><ele></ele><time>2024-9-14T14:35:32Z</time></trkpt>
<trkpt lat="44.3768820" lon="-73.8345030"><ele></ele><time>2024-9-14T14:35:35Z</time></trkpt>
<trkpt lat="44.3765920" lon="-73.8346530"><ele></ele><time>2024-9-14T14:35:38Z</time></trkpt>
<trkpt lat="44.3762360" lon="-73.8348200"><ele></ele><time>2024-9-14T14:35:41Z</time></trkpt>
<trkpt lat="44.3758740" lon="-73.8350540"><ele></ele><time>2024-9-14T14:35:44Z</time></trkpt>
<trkpt lat="44.3756950" lon="-73.8351600"><ele></ele><time>2024-9-14T14:35:47Z</time></trkpt>
<trkpt lat="44.3753900" lon="-73.8352990"><ele></ele><time>2024-9-14T14:35:50Z</time></trkpt>
<trkpt lat="44.3752100" lon="-73.8353710"><ele></ele><time>2024-9-14T14:35:53Z</time></trkpt>
<trkpt lat="44.3750140" lon="-73.8354180"><ele></ele><time>2024-9-14T14:35:56Z</time></trkpt>
<trkpt lat="44.3745050" lon="-73.8355640"><ele></ele><time>2024-9-14T14:35:59Z</time></trkpt>
<trkpt lat="44.3741830" lon="-73.8356320"><ele></ele><time>2024-9-14T14:36:2Z</time></trkpt>
<trkpt lat="44.3739890" lon="-73.8356850"><ele></ele><time>2024-9-14T14:36:5Z</time></trkpt>
<trkpt lat="44.3735270" lon="-73.8357540"><ele></ele><time>2024-9-14T14:36:8Z</time></trkpt>
<trkpt lat="44.3729390" lon="-73.8358250"><ele></ele><time>2024-9-14T14:36:11Z</time></trkpt>
<trkpt lat="44.3728730" lon="-73.8358280"><ele></ele><time>2024-9-14T14:36:14Z</time></trkpt>
<trkpt lat="44.3723380" lon="-73.8358450"><ele></ele><time>2024-9-14T14:36:17Z</time></trkpt>
<trkpt lat="44.3722710" lon="-73.8358430"><ele></ele><time>2024-9-14T14:36:20Z</time></trkpt>
<trkpt lat="44.3722040" lon="-73.8358460"><ele></ele><time>2024-9-14T14:36:23Z</time></trkpt>
<trkpt lat="44.3721360" lon="-73.8358460"><ele></ele><time>2024-9-14T14:36:26Z</time></trkpt>
<trkpt lat="44.3720700" lon="-73.8358480"><ele></ele><time>2024-9-14T14:36:29Z</time></trkpt>
<trkpt lat="44.3720020" lon="-73.8358470"><ele></ele><time>2024-9-14T14:36:32Z</time></trkpt>
<trkpt lat="44.3719360" lon="-73.8358450"><ele></ele><time>2024-9-14T14:36:35Z</time></trkpt>
<trkpt lat="44.3718660" lon="-73.8358460"><ele></ele><time>2024-9-14T14:36:38Z</time></trkpt>
<trkpt lat="44.3717980" lon="-73.8358420"><ele></ele><time>2024-9-14T14:36:41Z</time></trkpt>
<trkpt lat="44.3713560" lon="-73.8358670"><ele></ele><time>2024-9-14T14:36:44Z</time></trkpt>
<trkpt lat="44.3712370" lon="-73.8358890"><ele></ele><time>2024-9-14T14:36:47Z</time></trkpt>
<trkpt lat="44.3708520" lon="-73.8359750"><ele></ele><time>2024-9-14T14:36:50Z</time></trkpt>
<trkpt lat="44.3705620" lon="-73.8361070"><ele></ele><time>2024-9-14T14:36:53Z</time></trkpt>
<trkpt lat="44.3705180" lon="-73.8361320"><ele></ele><time>2024-9-14T14:36:56Z</time></trkpt>
<trkpt lat="44.3704770" lon="-73.8361560"><ele></ele><time>2024-9-14T14:36:59Z</time></trkpt>
<trkpt lat="44.3704360" lon="-73.8361850"><ele></ele><time>2024-9-14T14:37:2Z</time></trkpt>
<trkpt lat="44.3703970" lon="-73.8362120"><ele></ele><time>2024-9-14T14:37:5Z</time></trkpt>
<trkpt lat="44.3701610" lon="-73.8364210"><ele></ele><time>2024-9-14T14:37:8Z</time></trkpt>
<trkpt lat="44.3700560" lon="-73.8365340"><ele></ele><time>2024-9-14T14:37:11Z</time></trkpt>
<trkpt lat="44.3700210" lon="-73.8365780"><ele></ele><time>2024-9-14T14:37:14Z</time></trkpt>
<trkpt lat="44.3699880" lon="-73.8366210"><ele></ele><time>2024-9-14T14:37:17Z</time></trkpt>
<trkpt lat="44.3699560" lon="-73.8366630"><ele></ele><time>2024-9-14T14:37:20Z</time></trkpt>
<trkpt lat="44.3699230" lon="-73.8367060"><ele></ele><time>2024-9-14T14:37:23Z</time></trkpt>
<trkpt lat="44.3698570" lon="-73.8367860"><ele></ele><time>2024-9-14T14:37:26Z</time></trkpt>
<trkpt lat="44.3696340" lon="-73.8371350"><ele></ele><time>2024-9-14T14:37:29Z</time></trkpt>
<trkpt lat="44.3695560" lon="-73.8372720"><ele></ele><time>2024-9-14T14:37:32Z</time></trkpt>
<trkpt lat="44.3695300" lon="-73.8373170"><ele></ele><time>2024-9-14T14:37:35Z</time></trkpt>
<trkpt lat="44.3695060" lon="-73.8373610"><ele></ele><time>2024-9-14T14:37:38Z</time></trkpt>
<trkpt lat="44.3694820" lon="-73.8374090"><ele></ele><time>2024-9-14T14:37:41Z</time></trkpt>
<trkpt lat="44.3694570" lon="-73.8374550"><ele></ele><time>2024-9-14T14:37:44Z</time></trkpt>
<trkpt lat="44.3694070" lon="-73.8375510"><ele></ele><time>2024-9-14T14:37:47Z</time></trkpt>
<trkpt lat="44.3691680" lon="-73.8380080"><ele></ele><time>2024-9-14T14:37:50Z</time></trkpt>
<trkpt lat="44.3691490" lon="-73.8380540"><ele></ele><time>2024-9-14T14:37:53Z</time></trkpt>
<trkpt lat="44.3691270" lon="-73.8380990"><ele></ele><time>2024-9-14T14:37:56Z</time></trkpt>
<trkpt lat="44.3691080" lon="-73.8381380"><ele></ele><time>2024-9-14T14:37:59Z</time></trkpt>
<trkpt lat="44.3690820" lon="-73.8381680"><ele></ele><time>2024-9-14T14:38:2Z</time></trkpt>
<trkpt lat="44.3690350" lon="-73.8382330"><ele></ele><time>2024-9-14T14:38:5Z</time></trkpt>
<trkpt lat="44.3688350" lon="-73.8386080"><ele></ele><time>2024-9-14T14:38:8Z</time></trkpt>
<trkpt lat="44.3687470" lon="-73.8387760"><ele></ele><time>2024-9-14T14:38:11Z</time></trkpt>
<trkpt lat="44.3687230" lon="-73.8388170"><ele></ele><time>2024-9-14T14:38:14Z</time></trkpt>
<trkpt lat="44.3686990" lon="-73.8388580"><ele></ele><time>2024-9-14T14:38:17Z</time></trkpt>
<trkpt lat="44.3686740" lon="-73.8388970"><ele></ele><time>2024-9-14T14:38:20Z</time></trkpt>
<trkpt lat="44.3686530" lon="-73.8389400"><ele></ele><time>2024-9-14T14:38:23Z</time></trkpt>
<trkpt lat="44.3684910" lon="-73.8392560"><ele></ele><time>2024-9-14T14:38:26Z</time></trkpt>
<trkpt lat="44.3684670" lon="-73.8393000"><ele></ele><time>2024-9-14T14:38:29Z</time></trkpt>
<trkpt lat="44.3682820" lon="-73.8396430"><ele></ele><time>2024-9-14T14:38:32Z</time></trkpt>
<trkpt lat="44.3682570" lon="-73.8396830"><ele></ele><time>2024-9-14T14:38:35Z</time></trkpt>
<trkpt lat="44.3682310" lon="-73.8397250"><ele></ele><time>2024-9-14T14:38:38Z</time></trkpt>
<trkpt lat="44.3682040" lon="-73.8397670"><ele></ele><time>2024-9-14T14:38:41Z</time></trkpt>
<trkpt lat="44.3681760" lon="-73.8398120"><ele></ele><time>2024-9-14T14:38:44Z</time></trkpt>
<trkpt lat="44.3679070" lon="-73.8401720"><ele></ele><time>2024-9-14T14:38:47Z</time></trkpt>
<trkpt lat="44.3678740" lon="-73.8402070"><ele></ele><time>2024-9-14T14:38:50Z</time></trkpt>
<trkpt lat="44.3678430" lon="-73.8402380"><ele></ele><time>2024-9-14T14:38:53Z</time></trkpt>
<trkpt lat="44.3678130" lon="-73.8402700"><ele></ele><time>2024-9-14T14:38:56Z</time></trkpt>
<trkpt lat="44.3677830" lon="-73.8402990"><ele></ele><time>2024-9-14T14:38:59Z</time></trkpt>
<trkpt lat="44.3676330" lon="-73.8404500"><ele></ele><time>2024-9-14T14:39:2Z</time></trkpt>
<trkpt lat="44.3674820" lon="-73.8405710"><ele></ele><time>2024-9-14T14:39:5Z</time></trkpt>
<trkpt lat="44.3674480" lon="-73.8405900"><ele></ele><time>2024-9-14T14:39:8Z</time></trkpt>
<trkpt lat="44.3674170" lon="-73.8406120"><ele></ele><time>2024-9-14T14:39:11Z</time></trkpt>
<trkpt lat="44.3673830" lon="-73.8406270"><ele></ele><time>2024-9-14T14:39:14Z</time></trkpt>
<trkpt lat="44.3673550" lon="-73.8406470"><ele></ele><time>2024-9-14T14:39:17Z</time></trkpt>
<trkpt lat="44.3671720" lon="-73.8407550"><ele></ele><time>2024-9-14T14:39:20Z</time></trkpt>
<trkpt lat="44.3671390" lon="-73.8407650"><ele></ele><time>2024-9-14T14:39:23Z</time></trkpt>
<trkpt lat="44.3671070" lon="-73.8407790"><ele></ele><time>2024-9-14T14:39:26Z</time></trkpt>
<trkpt lat="44.3670720" lon="-73.8407920"><ele></ele><time>2024-9-14T14:39:29Z</time></trkpt>
<trkpt lat="44.3670390" lon="-73.8408080"><ele></ele><time>2024-9-14T14:39:32Z</time></trkpt>
<trkpt lat="44.3670060" lon="-73.8408150"><ele></ele><time>2024-9-14T14:39:35Z</time></trkpt>
<trkpt lat="44.3669410" lon="-73.8408380"><ele></ele><time>2024-9-14T14:39:38Z</time></trkpt>
<trkpt lat="44.3667540" lon="-73.8408920"><ele></ele><time>2024-9-14T14:39:41Z</time></trkpt>
<trkpt lat="44.3667240" lon="-73.8408990"><ele></ele><time>2024-9-14T14:39:44Z</time></trkpt>
<trkpt lat="44.3666920" lon="-73.8409050"><ele></ele><time>2024-9-14T14:39:47Z</time></trkpt>
<trkpt lat="44.3666640" lon="-73.8409140"><ele></ele><time>2024-9-14T14:39:50Z</time></trkpt>
<trkpt lat="44.3666330" lon="-73.8409180"><ele></ele><time>2024-9-14T14:39:53Z</time></trkpt>
<trkpt lat="44.3664700" lon="-73.8409500"><ele></ele><time>2024-9-14T14:39:56Z</time></trkpt>
<trkpt lat="44.3664370" lon="-73.8409540"><ele></ele><time>2024-9-14T14:39:59Z</time></trkpt>
<trkpt lat="44.3664040" lon="-73.8409560"><ele></ele><time>2024-9-14T14:40:2Z</time></trkpt>
<trkpt lat="44.3663740" lon="-73.8409670"><ele></ele><time>2024-9-14T14:40:5Z</time></trkpt>
<trkpt lat="44.3663440" lon="-73.8409770"><ele></ele><time>2024-9-14T14:40:8Z</time></trkpt>
<trkpt lat="44.3662200" lon="-73.8409970"><ele></ele><time>2024-9-14T14:40:11Z</time></trkpt>
<trkpt lat="44.3659740" lon="-73.8410610"><ele></ele><time>2024-9-14T14:40:14Z</time></trkpt>
<trkpt lat="44.3659420" lon="-73.8410690"><ele></ele><time>2024-9-14T14:40:17Z</time></trkpt>
<trkpt lat="44.3659130" lon="-73.8410770"><ele></ele><time>2024-9-14T14:40:20Z</time></trkpt>
<trkpt lat="44.3658770" lon="-73.8410850"><ele></ele><time>2024-9-14T14:40:23Z</time></trkpt>
<trkpt lat="44.3658450" lon="-73.8410930"><ele></ele><time>2024-9-14T14:40:26Z</time></trkpt>
<trkpt lat="44.3658110" lon="-73.8410960"><ele></ele><time>2024-9-14T14:40:29Z</time></trkpt>
<trkpt lat="44.3657200" lon="-73.8411140"><ele></ele><time>2024-9-14T14:40:32Z</time></trkpt>
<trkpt lat="44.3655330" lon="-73.8411560"><ele></ele><time>2024-9-14T14:40:35Z</time></trkpt>
<trkpt lat="44.3655050" lon="-73.8411690"><ele></ele><time>2024-9-14T14:40:38Z</time></trkpt>
<trkpt lat="44.3654800" lon="-73.8411830"><ele></ele><time>2024-9-14T14:40:41Z</time></trkpt>
<trkpt lat="44.3654510" lon="-73.8411950"><ele></ele><time>2024-9-14T14:40:44Z</time></trkpt>
<trkpt lat="44.3654220" lon="-73.8412070"><ele></ele><time>2024-9-14T14:40:47Z</time></trkpt>
<trkpt lat="44.3652380" lon="-73.8412760"><ele></ele><time>2024-9-14T14:40:50Z</time></trkpt>
<trkpt lat="44.3651190" lon="-73.8413260"><ele></ele><time>2024-9-14T14:40:53Z</time></trkpt>
<trkpt lat="44.3650880" lon="-73.8413410"><ele></ele><time>2024-9-14T14:40:56Z</time></trkpt>
<trkpt lat="44.3650590" lon="-73.8413520"><ele></ele><time>2024-9-14T14:40:59Z</time></trkpt>
<trkpt lat="44.3650290" lon="-73.8413650"><ele></ele><time>2024-9-14T14:41:2Z</time></trkpt>
<trkpt lat="44.3649980" lon="-73.8413800"><ele></ele><time>2024-9-14T14:41:5Z</time></trkpt>
<trkpt lat="44.3648550" lon="-73.8414670"><ele></ele><time>2024-9-14T14:41:8Z</time></trkpt>
<trkpt lat="44.3648270" lon="-73.8414830"><ele></ele><time>2024-9-14T14:41:11Z</time></trkpt>
<trkpt lat="44.3648000" lon="-73.8415040"><ele></ele><time>2024-9-14T14:41:14Z</time></trkpt>
<trkpt lat="44.3647720" lon="-73.8415220"><ele></ele><time>2024-9-14T14:41:17Z</time></trkpt>
<trkpt lat="44.3647450" lon="-73.8415390"><ele></ele><time>2024-9-14T14:41:20Z</time></trkpt>
<trkpt lat="44.3645370" lon="-73.8416960"><ele></ele><time>2024-9-14T14:41:23Z</time></trkpt>
<trkpt lat="44.3645130" lon="-73.8417200"><ele></ele><time>2024-9-14T14:41:26Z</time></trkpt>
<trkpt lat="44.3644880" lon="-73.8417410"><ele></ele><time>2024-9-14T14:41:29Z</time></trkpt>
<trkpt lat="44.3644600" lon="-73.8417610"><ele></ele><time>2024-9-14T14:41:32Z</time></trkpt>
<trkpt lat="44.3644330" lon="-73.8417810"><ele></ele><time>2024-9-14T14:41:35Z</time></trkpt>
<trkpt lat="44.3644060" lon="-73.8418020"><ele></ele><time>2024-9-14T14:41:38Z</time></trkpt>
<trkpt lat="44.3642710" lon="-73.8419130"><ele></ele><time>2024-9-14T14:41:41Z</time></trkpt>
<trkpt lat="44.3641340" lon="-73.8420160"><ele></ele><time>2024-9-14T14:41:44Z</time></trkpt>
<trkpt lat="44.3641070" lon="-73.8420390"><ele></ele><time>2024-9-14T14:41:47Z</time></trkpt>
<trkpt lat="44.3640810" lon="-73.8420590"><ele></ele><time>2024-9-14T14:41:50Z</time></trkpt>
<trkpt lat="44.3640560" lon="-73.8420780"><ele></ele><time>2024-9-14T14:41:53Z</time></trkpt>
<trkpt lat="44.3640350" lon="-73.8421090"><ele></ele><time>2024-9-14T14:41:56Z</time></trkpt>
<trkpt lat="44.3639240" lon="-73.8422050"><ele></ele><time>2024-9-14T14:41:59Z</time></trkpt>
<trkpt lat="44.3636730" lon="-73.8424110"><ele></ele><time>2024-9-14T14:42:2Z</time></trkpt>
<trkpt lat="44.3634990" lon="-73.8425510"><ele></ele><time>2024-9-14T14:42:5Z</time></trkpt>
<trkpt lat="44.3634800" lon="-73.8425710"><ele></ele><time>2024-9-14T14:42:8Z</time></trkpt>
<trkpt lat="44.3634150" lon="-73.8426590"><ele></ele><time>2024-9-14T14:42:11Z</time></trkpt>
<trkpt lat="44.3633820" lon="-73.8426960"><ele></ele><time>2024-9-14T14:42:14Z</time></trkpt>
<trkpt lat="44.3633650" lon="-73.8427130"><ele></ele><time>2024-9-14T14:42:17Z</time></trkpt>
<trkpt lat="44.3633520" lon="-73.8427280"><ele></ele><time>2024-9-14T14:42:20Z</time></trkpt>
<trkpt lat="44.3633430" lon="-73.8427540"><ele></ele><time>2024-9-14T14:42:23Z</time></trkpt>
<trkpt lat="44.3633330" lon="-73.8427700"><ele></ele><time>2024-9-14T14:42:26Z</time></trkpt>
<trkpt lat="44.3633290" lon="-73.8427620"><ele></ele><time>2024-9-14T14:42:29Z</time></trkpt>
<trkpt lat="44.3633300" lon="-73.8427640"><ele></ele><time>2024-9-14T14:42:32Z</time></trkpt>
<trkpt lat="44.3633230" lon="-73.8427700"><ele></ele><time>2024-9-14T14:42:35Z</time></trkpt>
<trkpt lat="44.3633090" lon="-73.8427880"><ele></ele><time>2024-9-14T14:42:38Z</time></trkpt>
<trkpt lat="44.3632810" lon="-73.8428280"><ele></ele><time>2024-9-14T14:42:41Z</time></trkpt>
<trkpt lat="44.3631940" lon="-73.8428860"><ele></ele><time>2024-9-14T14:42:44Z</time></trkpt>
<trkpt lat="44.3631470" lon="-73.8429250"><ele></ele><time>2024-9-14T14:42:47Z</time></trkpt>
<trkpt lat="44.3630230" lon="-73.8428810"><ele></ele><time>2024-9-14T14:42:50Z</time></trkpt>
<trkpt lat="44.3629340" lon="-73.8427090"><ele></ele><time>2024-9-14T14:42:53Z</time></trkpt>
<trkpt lat="44.3629240" lon="-73.8424340"><ele></ele><time>2024-9-14T14:42:56Z</time></trkpt>
<trkpt lat="44.3628940" lon="-73.8418440"><ele></ele><time>2024-9-14T14:42:59Z</time></trkpt>
<trkpt lat="44.3628940" lon="-73.8417030"><ele></ele><time>2024-9-14T14:43:2Z</time></trkpt>
<trkpt lat="44.3628900" lon="-73.8414570"><ele></ele><time>2024-9-14T14:43:5Z</time></trkpt>
<trkpt lat="44.3628930" lon="-73.8410740"><ele></ele><time>2024-9-14T14:43:8Z</time></trkpt>
<trkpt lat="44.3629120" lon="-73.8406310"><ele></ele><time>2024-9-14T14:43:11Z</time></trkpt>
<trkpt lat="44.3629140" lon="-73.8405570"><ele></ele><time>2024-9-14T14:43:14Z</time></trkpt>
<trkpt lat="44.3629590" lon="-73.8399060"><ele></ele><time>2024-9-14T14:43:17Z</time></trkpt>
<trkpt lat="44.3629870" lon="-73.8395000"><ele></ele><time>2024-9-14T14:43:20Z</time></trkpt>
<trkpt lat="44.3630160" lon="-73.8390390"><ele></ele><time>2024-9-14T14:43:23Z</time></trkpt>
<trkpt lat="44.3630180" lon="-73.8389640"><ele></ele><time>2024-9-14T14:43:26Z</time></trkpt>
<trkpt lat="44.3630220" lon="-73.8388840"><ele></ele><time>2024-9-14T14:43:29Z</time></trkpt>
<trkpt lat="44.3630260" lon="-73.8388070"><ele></ele><time>2024-9-14T14:43:32Z</time></trkpt>
<trkpt lat="44.3630320" lon="-73.8387290"><ele></ele><time>2024-9-14T14:43:35Z</time></trkpt>
<trkpt lat="44.3630450" lon="-73.8384940"><ele></ele><time>2024-9-14T14:43:38Z</time></trkpt>
<trkpt lat="44.3630590" lon="-73.8381920"><ele></ele><time>2024-9-14T14:43:41Z</time></trkpt>
<trkpt lat="44.3630700" lon="-73.8379500"><ele></ele><time>2024-9-14T14:43:44Z</time></trkpt>
<trkpt lat="44.3630720" lon="-73.8378730"><ele></ele><time>2024-9-14T14:43:47Z</time></trkpt>
<trkpt lat="44.3631000" lon="-73.8373800"><ele></ele><time>2024-9-14T14:43:50Z</time></trkpt>
<trkpt lat="44.3631050" lon="-73.8372990"><ele></ele><time>2024-9-14T14:43:53Z</time></trkpt>
<trkpt lat="44.3631070" lon="-73.8372190"><ele></ele><time>2024-9-14T14:43:56Z</time></trkpt>
<trkpt lat="44.3631090" lon="-73.8371400"><ele></ele><time>2024-9-14T14:43:59Z</time></trkpt>
<trkpt lat="44.3631110" lon="-73.8370660"><ele></ele><time>2024-9-14T14:44:2Z</time></trkpt>
<trkpt lat="44.3631140" lon="-73.8369870"><ele></ele><time>2024-9-14T14:44:5Z</time></trkpt>
<trkpt lat="44.3631340" lon="-73.8366580"><ele></ele><time>2024-9-14T14:44:8Z</time></trkpt>
<trkpt lat="44.3631700" lon="-73.8362780"><ele></ele><time>2024-9-14T14:44:11Z</time></trkpt>
<trkpt lat="44.3631970" lon="-73.8361370"><ele></ele><time>2024-9-14T14:44:14Z</time></trkpt>
<trkpt lat="44.3632050" lon="-73.8359060"><ele></ele><time>2024-9-14T14:44:17Z</time></trkpt>
<trkpt lat="44.3632220" lon="-73.8357600"><ele></ele><time>2024-9-14T14:44:20Z</time></trkpt>
<trkpt lat="44.3633490" lon="-73.8356430"><ele></ele><time>2024-9-14T14:44:23Z</time></trkpt>
<trkpt lat="44.3635440" lon="-73.8356400"><ele></ele><time>2024-9-14T14:44:26Z</time></trkpt>
<trkpt lat="44.3635850" lon="-73.8356370"><ele></ele><time>2024-9-14T14:44:29Z</time></trkpt>
<trkpt lat="44.3636260" lon="-73.8356230"><ele></ele><time>2024-9-14T14:44:32Z</time></trkpt>
<trkpt lat="44.3636740" lon="-73.8356060"><ele></ele><time>2024-9-14T14:44:35Z</time></trkpt>
<trkpt lat="44.3637620" lon="-73.8355790"><ele></ele><time>2024-9-14T14:44:38Z</time></trkpt>
<trkpt lat="44.3638890" lon="-73.8355590"><ele></ele><time>2024-9-14T14:44:41Z</time></trkpt>
<trkpt lat="44.3639640" lon="-73.8355970"><ele></ele><time>2024-9-14T14:44:44Z</time></trkpt>
<trkpt lat="44.3640680" lon="-73.8357260"><ele></ele><time>2024-9-14T14:44:47Z</time></trkpt>
<trkpt lat="44.3640910" lon="-73.8357620"><ele></ele><time>2024-9-14T14:44:50Z</time></trkpt>
<trkpt lat="44.3641290" lon="-73.8359160"><ele></ele><time>2024-9-14T14:44:53Z</time></trkpt>
<trkpt lat="44.3641580" lon="-73.8360420"><ele></ele><time>2024-9-14T14:44:56Z</time></trkpt>
<trkpt lat="44.3641770" lon="-73.8360650"><ele></ele><time>2024-9-14T14:44:59Z</time></trkpt>
<trkpt lat="44.3642480" lon="-73.8360670"><ele></ele><time>2024-9-14T14:45:2Z</time></trkpt>
<trkpt lat="44.3642980" lon="-73.8360440"><ele></ele><time>2024-9-14T14:45:5Z</time></trkpt>
<trkpt lat="44.3644030" lon="-73.8359650"><ele></ele><time>2024-9-14T14:45:8Z</time></trkpt>
<trkpt lat="44.3646110" lon="-73.8358550"><ele></ele><time>2024-9-14T14:45:11Z</time></trkpt>
<trkpt lat="44.3647710" lon="-73.8357550"><ele></ele><time>2024-9-14T14:45:14Z</time></trkpt>
<trkpt lat="44.3648440" lon="-73.8357290"><ele></ele><time>2024-9-14T14:45:17Z</time></trkpt>
<trkpt lat="44.3649480" lon="-73.8356770"><ele></ele><time>2024-9-14T14:45:20Z</time></trkpt>
<trkpt lat="44.3651260" lon="-73.8356120"><ele></ele><time>2024-9-14T14:45:23Z</time></trkpt>
<trkpt lat="44.3652120" lon="-73.8355570"><ele></ele><time>2024-9-14T14:45:26Z</time></trkpt>
<trkpt lat="44.3653160" lon="-73.8355060"><ele></ele><time>2024-9-14T14:45:29Z</time></trkpt>
<trkpt lat="44.3653810" lon="-73.8354860"><ele></ele><time>2024-9-14T14:45:32Z</time></trkpt>
<trkpt lat="44.3655250" lon="-73.8353890"><ele></ele><time>2024-9-14T14:45:35Z</time></trkpt>
<trkpt lat="44.3655810" lon="-73.8353610"><ele></ele><time>2024-9-14T14:45:38Z</time></trkpt>
<trkpt lat="44.3656850" lon="-73.8352690"><ele></ele><time>2024-9-14T14:45:41Z</time></trkpt>
<trkpt lat="44.3657050" lon="-73.8352240"><ele></ele><time>2024-9-14T14:45:44Z</time></trkpt>
<trkpt lat="44.3656990" lon="-73.8350860"><ele></ele><time>2024-9-14T14:45:47Z</time></trkpt>
<trkpt lat="44.3656790" lon="-73.8350410"><ele></ele><time>2024-9-14T14:45:50Z</time></trkpt>
<trkpt lat="44.3656500" lon="-73.8349270"><ele></ele><time>2024-9-14T14:45:53Z</time></trkpt>
<trkpt lat="44.3656220" lon="-73.8348150"><ele></ele><time>2024-9-14T14:45:56Z</time></trkpt>
<trkpt lat="44.3655910" lon="-73.8347480"><ele></ele><time>2024-9-14T14:45:59Z</time></trkpt>
<trkpt lat="44.3655580" lon="-73.8346640"><ele></ele><time>2024-9-14T14:46:2Z</time></trkpt>
<trkpt lat="44.3655090" lon="-73.8345370"><ele></ele><time>2024-9-14T14:46:5Z</time></trkpt>
<trkpt lat="44.3654280" lon="-73.8344070"><ele></ele><time>2024-9-14T14:46:8Z</time></trkpt>
<trkpt lat="44.3654090" lon="-73.8343620"><ele></ele><time>2024-9-14T14:46:11Z</time></trkpt>
<trkpt lat="44.3653310" lon="-73.8341250"><ele></ele><time>2024-9-14T14:46:14Z</time></trkpt>
<trkpt lat="44.3653000" lon="-73.8340300"><ele></ele><time>2024-9-14T14:46:17Z</time></trkpt>
<trkpt lat="44.3652800" lon="-73.8339760"><ele></ele><time>2024-9-14T14:46:20Z</time></trkpt>
<trkpt lat="44.3652390" lon="-73.8338640"><ele></ele><time>2024-9-14T14:46:23Z</time></trkpt>
<trkpt lat="44.3652200" lon="-73.8338210"><ele></ele><time>2024-9-14T14:46:26Z</time></trkpt>
<trkpt lat="44.3652100" lon="-73.8337630"><ele></ele><time>2024-9-14T14:46:29Z</time></trkpt>
<trkpt lat="44.3652110" lon="-73.8337110"><ele></ele><time>2024-9-14T14:46:32Z</time></trkpt>
<trkpt lat="44.3652200" lon="-73.8336740"><ele></ele><time>2024-9-14T14:46:35Z</time></trkpt>
<trkpt lat="44.3653380" lon="-73.8336410"><ele></ele><time>2024-9-14T14:46:38Z</time></trkpt>
<trkpt lat="44.3654470" lon="-73.8336360"><ele></ele><time>2024-9-14T14:46:41Z</time></trkpt>
<trkpt lat="44.3654680" lon="-73.8336320"><ele></ele><time>2024-9-14T14:46:44Z</time></trkpt>
<trkpt lat="44.3655600" lon="-73.8336110"><ele></ele><time>2024-9-14T14:46:47Z</time></trkpt>
<trkpt lat="44.3656260" lon="-73.8335680"><ele></ele><time>2024-9-14T14:46:50Z</time></trkpt>
<trkpt lat="44.3656720" lon="-73.8335090"><ele></ele><time>2024-9-14T14:46:53Z</time></trkpt>
<trkpt lat="44.3656870" lon="-73.8334530"><ele></ele><time>2024-9-14T14:46:56Z</time></trkpt>
<trkpt lat="44.3657180" lon="-73.8333580"><ele></ele><time>2024-9-14T14:46:59Z</time></trkpt>
<trkpt lat="44.3657500" lon="-73.8333050"><ele></ele><time>2024-9-14T14:47:2Z</time></trkpt>
<trkpt lat="44.3657690" lon="-73.8332830"><ele></ele><time>2024-9-14T14:47:5Z</time></trkpt>
</trkseg></trk></gpx>